<?xml version='1.0' encoding='UTF-8'?><gpx version="1.1" creator="JPX - https://github.com/jenetics/jpx" xmlns="http://www.topografix.com/GPX/1/1"><trk><trkseg><trkpt lat="44.2045125" lon="9.9995817"><ele>74.0</ele><time>2026-04-26T07:15:01.937Z</time></trkpt><trkpt lat="44.204558" lon="9.9995179"><ele>74.0</ele><time>2026-04-26T07:15:17.938Z</time></trkpt><trkpt lat="44.2043345" lon="9.9995701"><ele>74.0</ele><time>2026-04-26T07:19:29.938Z</time></trkpt><trkpt lat="44.2042953" lon="9.9994843"><ele>74.0</ele><time>2026-04-26T07:19:39.938Z</time></trkpt><trkpt lat="44.2042758" lon="9.9993756"><ele>74.0</ele><time>2026-04-26T07:19:40.938Z</time></trkpt><trkpt lat="44.2042525" lon="9.9992365"><ele>73.75</ele><time>2026-04-26T07:19:41.938Z</time></trkpt><trkpt lat="44.2042218" lon="9.9990689"><ele>73.5</ele><time>2026-04-26T07:19:42.938Z</time></trkpt><trkpt lat="44.2041864" lon="9.9988675"><ele>73.25</ele><time>2026-04-26T07:19:43.938Z</time></trkpt><trkpt lat="44.2041527" lon="9.998664"><ele>73.0</ele><time>2026-04-26T07:19:44.938Z</time></trkpt><trkpt lat="44.2040782" lon="9.9982627"><ele>73.0</ele><time>2026-04-26T07:19:46.938Z</time></trkpt><trkpt lat="44.2040217" lon="9.998072"><ele>73.0</ele><time>2026-04-26T07:19:47.938Z</time></trkpt><trkpt lat="44.2039601" lon="9.9978804"><ele>73.0</ele><time>2026-04-26T07:19:48.938Z</time></trkpt><trkpt lat="44.2038933" lon="9.9976844"><ele>73.25</ele><time>2026-04-26T07:19:49.937Z</time></trkpt><trkpt lat="44.2038222" lon="9.9975072"><ele>73.5</ele><time>2026-04-26T07:19:50.938Z</time></trkpt><trkpt lat="44.2037512" lon="9.9973331"><ele>73.75</ele><time>2026-04-26T07:19:51.938Z</time></trkpt><trkpt lat="44.2036769" lon="9.9971539"><ele>74.0</ele><time>2026-04-26T07:19:52.938Z</time></trkpt><trkpt lat="44.2036032" lon="9.9969632"><ele>73.33333333333334</ele><time>2026-04-26T07:19:53.937Z</time></trkpt><trkpt lat="44.2035247" lon="9.9967721"><ele>72.66666666666667</ele><time>2026-04-26T07:19:54.938Z</time></trkpt><trkpt lat="44.2034455" lon="9.9965799"><ele>72.0</ele><time>2026-04-26T07:19:55.938Z</time></trkpt><trkpt lat="44.2033628" lon="9.9963828"><ele>72.0</ele><time>2026-04-26T07:19:56.938Z</time></trkpt><trkpt lat="44.203282" lon="9.9961762"><ele>72.0</ele><time>2026-04-26T07:19:57.938Z</time></trkpt><trkpt lat="44.2031991" lon="9.9959711"><ele>72.0</ele><time>2026-04-26T07:19:58.938Z</time></trkpt><trkpt lat="44.2031218" lon="9.9957621"><ele>72.33333333333333</ele><time>2026-04-26T07:19:59.938Z</time></trkpt><trkpt lat="44.2030428" lon="9.9955641"><ele>72.66666666666666</ele><time>2026-04-26T07:20:00.938Z</time></trkpt><trkpt lat="44.2029675" lon="9.9953843"><ele>73.0</ele><time>2026-04-26T07:20:01.938Z</time></trkpt><trkpt lat="44.2028982" lon="9.9952102"><ele>73.0</ele><time>2026-04-26T07:20:02.938Z</time></trkpt><trkpt lat="44.2028305" lon="9.9950417"><ele>73.0</ele><time>2026-04-26T07:20:03.938Z</time></trkpt><trkpt lat="44.202765" lon="9.9948685"><ele>73.0</ele><time>2026-04-26T07:20:04.938Z</time></trkpt><trkpt lat="44.2026972" lon="9.9947009"><ele>73.0</ele><time>2026-04-26T07:20:05.937Z</time></trkpt><trkpt lat="44.2025745" lon="9.9943985"><ele>72.5</ele><time>2026-04-26T07:20:07.938Z</time></trkpt><trkpt lat="44.2025136" lon="9.9942546"><ele>72.0</ele><time>2026-04-26T07:20:08.938Z</time></trkpt><trkpt lat="44.2024537" lon="9.9941042"><ele>71.5</ele><time>2026-04-26T07:20:09.937Z</time></trkpt><trkpt lat="44.2023996" lon="9.9939464"><ele>71.0</ele><time>2026-04-26T07:20:10.938Z</time></trkpt><trkpt lat="44.2023558" lon="9.9937722"><ele>71.0</ele><time>2026-04-26T07:20:11.938Z</time></trkpt><trkpt lat="44.2023296" lon="9.9936029"><ele>71.0</ele><time>2026-04-26T07:20:12.938Z</time></trkpt><trkpt lat="44.2023183" lon="9.9934204"><ele>71.0</ele><time>2026-04-26T07:20:13.938Z</time></trkpt><trkpt lat="44.20232" lon="9.9932309"><ele>71.0</ele><time>2026-04-26T07:20:14.938Z</time></trkpt><trkpt lat="44.202336" lon="9.9930472"><ele>70.5</ele><time>2026-04-26T07:20:15.937Z</time></trkpt><trkpt lat="44.2023511" lon="9.9928645"><ele>70.0</ele><time>2026-04-26T07:20:16.938Z</time></trkpt><trkpt lat="44.2023708" lon="9.9926793"><ele>69.5</ele><time>2026-04-26T07:20:17.938Z</time></trkpt><trkpt lat="44.202388" lon="9.9925089"><ele>69.0</ele><time>2026-04-26T07:20:18.937Z</time></trkpt><trkpt lat="44.2024098" lon="9.9923497"><ele>68.8</ele><time>2026-04-26T07:20:19.938Z</time></trkpt><trkpt lat="44.2024343" lon="9.9921919"><ele>68.60000000000001</ele><time>2026-04-26T07:20:20.938Z</time></trkpt><trkpt lat="44.2024583" lon="9.9920407"><ele>68.4</ele><time>2026-04-26T07:20:21.937Z</time></trkpt><trkpt lat="44.2024767" lon="9.9918898"><ele>68.2</ele><time>2026-04-26T07:20:22.938Z</time></trkpt><trkpt lat="44.2024951" lon="9.9917377"><ele>68.0</ele><time>2026-04-26T07:20:23.938Z</time></trkpt><trkpt lat="44.2025167" lon="9.9915867"><ele>67.5</ele><time>2026-04-26T07:20:24.938Z</time></trkpt><trkpt lat="44.2025332" lon="9.9914522"><ele>67.0</ele><time>2026-04-26T07:20:25.938Z</time></trkpt><trkpt lat="44.2025467" lon="9.9913188"><ele>66.5</ele><time>2026-04-26T07:20:26.938Z</time></trkpt><trkpt lat="44.202554" lon="9.991055"><ele>66.0</ele><time>2026-04-26T07:20:28.938Z</time></trkpt><trkpt lat="44.2025204" lon="9.9909365"><ele>65.75</ele><time>2026-04-26T07:20:29.937Z</time></trkpt><trkpt lat="44.2024539" lon="9.9908232"><ele>65.5</ele><time>2026-04-26T07:20:30.938Z</time></trkpt><trkpt lat="44.2023655" lon="9.9907208"><ele>65.25</ele><time>2026-04-26T07:20:31.938Z</time></trkpt><trkpt lat="44.2022658" lon="9.9906191"><ele>65.0</ele><time>2026-04-26T07:20:32.938Z</time></trkpt><trkpt lat="44.2021673" lon="9.9905152"><ele>65.0</ele><time>2026-04-26T07:20:33.938Z</time></trkpt><trkpt lat="44.20207" lon="9.9904109"><ele>65.0</ele><time>2026-04-26T07:20:34.937Z</time></trkpt><trkpt lat="44.2019714" lon="9.9903081"><ele>65.0</ele><time>2026-04-26T07:20:35.937Z</time></trkpt><trkpt lat="44.2018722" lon="9.9902027"><ele>65.0</ele><time>2026-04-26T07:20:36.938Z</time></trkpt><trkpt lat="44.201778" lon="9.9900868"><ele>65.75</ele><time>2026-04-26T07:20:37.938Z</time></trkpt><trkpt lat="44.2016842" lon="9.9899597"><ele>66.5</ele><time>2026-04-26T07:20:38.938Z</time></trkpt><trkpt lat="44.201608" lon="9.9898091"><ele>67.25</ele><time>2026-04-26T07:20:39.938Z</time></trkpt><trkpt lat="44.2015539" lon="9.9896316"><ele>68.0</ele><time>2026-04-26T07:20:40.938Z</time></trkpt><trkpt lat="44.2015082" lon="9.9894424"><ele>67.25</ele><time>2026-04-26T07:20:41.938Z</time></trkpt><trkpt lat="44.2014694" lon="9.9892551"><ele>66.5</ele><time>2026-04-26T07:20:42.938Z</time></trkpt><trkpt lat="44.2014385" lon="9.9890557"><ele>65.75</ele><time>2026-04-26T07:20:43.937Z</time></trkpt><trkpt lat="44.2014056" lon="9.9888539"><ele>65.0</ele><time>2026-04-26T07:20:44.938Z</time></trkpt><trkpt lat="44.2013728" lon="9.9886504"><ele>65.0</ele><time>2026-04-26T07:20:45.938Z</time></trkpt><trkpt lat="44.2013401" lon="9.9884512"><ele>65.0</ele><time>2026-04-26T07:20:46.938Z</time></trkpt><trkpt lat="44.2013155" lon="9.9882518"><ele>65.0</ele><time>2026-04-26T07:20:47.938Z</time></trkpt><trkpt lat="44.2012915" lon="9.9878561"><ele>65.5</ele><time>2026-04-26T07:20:49.938Z</time></trkpt><trkpt lat="44.201293" lon="9.987673"><ele>66.0</ele><time>2026-04-26T07:20:50.938Z</time></trkpt><trkpt lat="44.2013055" lon="9.9874831"><ele>66.5</ele><time>2026-04-26T07:20:51.938Z</time></trkpt><trkpt lat="44.2013194" lon="9.9872998"><ele>67.0</ele><time>2026-04-26T07:20:52.937Z</time></trkpt><trkpt lat="44.2013221" lon="9.9871204"><ele>67.0</ele><time>2026-04-26T07:20:53.937Z</time></trkpt><trkpt lat="44.2013195" lon="9.9869356"><ele>67.0</ele><time>2026-04-26T07:20:54.938Z</time></trkpt><trkpt lat="44.2013079" lon="9.9867608"><ele>67.0</ele><time>2026-04-26T07:20:55.938Z</time></trkpt><trkpt lat="44.201303" lon="9.986587"><ele>67.0</ele><time>2026-04-26T07:20:56.937Z</time></trkpt><trkpt lat="44.2013057" lon="9.9864162"><ele>66.75</ele><time>2026-04-26T07:20:57.938Z</time></trkpt><trkpt lat="44.2013167" lon="9.9862425"><ele>66.5</ele><time>2026-04-26T07:20:58.938Z</time></trkpt><trkpt lat="44.2013367" lon="9.9860759"><ele>66.25</ele><time>2026-04-26T07:20:59.938Z</time></trkpt><trkpt lat="44.2013645" lon="9.9859163"><ele>66.0</ele><time>2026-04-26T07:21:00.938Z</time></trkpt><trkpt lat="44.2013931" lon="9.9857593"><ele>66.0</ele><time>2026-04-26T07:21:01.937Z</time></trkpt><trkpt lat="44.201406" lon="9.9855988"><ele>66.0</ele><time>2026-04-26T07:21:02.937Z</time></trkpt><trkpt lat="44.2014011" lon="9.9854176"><ele>66.0</ele><time>2026-04-26T07:21:03.938Z</time></trkpt><trkpt lat="44.2013629" lon="9.9852093"><ele>66.0</ele><time>2026-04-26T07:21:04.938Z</time></trkpt><trkpt lat="44.2013105" lon="9.9849696"><ele>66.0</ele><time>2026-04-26T07:21:05.938Z</time></trkpt><trkpt lat="44.2012584" lon="9.9847403"><ele>66.0</ele><time>2026-04-26T07:21:06.938Z</time></trkpt><trkpt lat="44.2012143" lon="9.9845678"><ele>66.0</ele><time>2026-04-26T07:21:07.938Z</time></trkpt><trkpt lat="44.2011774" lon="9.9844247"><ele>66.0</ele><time>2026-04-26T07:21:08.937Z</time></trkpt><trkpt lat="44.2011069" lon="9.9841526"><ele>66.0</ele><time>2026-04-26T07:21:10.938Z</time></trkpt><trkpt lat="44.2010805" lon="9.9840083"><ele>66.0</ele><time>2026-04-26T07:21:11.937Z</time></trkpt><trkpt lat="44.2010687" lon="9.9838569"><ele>66.0</ele><time>2026-04-26T07:21:12.938Z</time></trkpt><trkpt lat="44.2010765" lon="9.9837026"><ele>66.0</ele><time>2026-04-26T07:21:13.938Z</time></trkpt><trkpt lat="44.2011017" lon="9.9835481"><ele>66.0</ele><time>2026-04-26T07:21:14.938Z</time></trkpt><trkpt lat="44.2011428" lon="9.9833944"><ele>65.5</ele><time>2026-04-26T07:21:15.938Z</time></trkpt><trkpt lat="44.2011972" lon="9.9832425"><ele>65.0</ele><time>2026-04-26T07:21:16.938Z</time></trkpt><trkpt lat="44.201262" lon="9.9831"><ele>64.5</ele><time>2026-04-26T07:21:17.938Z</time></trkpt><trkpt lat="44.2013382" lon="9.9829665"><ele>64.0</ele><time>2026-04-26T07:21:18.938Z</time></trkpt><trkpt lat="44.2014183" lon="9.9828339"><ele>65.75</ele><time>2026-04-26T07:21:19.938Z</time></trkpt><trkpt lat="44.2015071" lon="9.9826914"><ele>67.5</ele><time>2026-04-26T07:21:20.938Z</time></trkpt><trkpt lat="44.2015976" lon="9.9825448"><ele>69.25</ele><time>2026-04-26T07:21:21.938Z</time></trkpt><trkpt lat="44.2016941" lon="9.9824047"><ele>71.0</ele><time>2026-04-26T07:21:22.938Z</time></trkpt><trkpt lat="44.2018025" lon="9.9822765"><ele>71.0</ele><time>2026-04-26T07:21:23.938Z</time></trkpt><trkpt lat="44.2019212" lon="9.9821675"><ele>71.0</ele><time>2026-04-26T07:21:24.938Z</time></trkpt><trkpt lat="44.2020481" lon="9.9820899"><ele>71.0</ele><time>2026-04-26T07:21:25.938Z</time></trkpt><trkpt lat="44.2021794" lon="9.9820206"><ele>71.0</ele><time>2026-04-26T07:21:26.937Z</time></trkpt><trkpt lat="44.2023102" lon="9.9819448"><ele>69.66666666666667</ele><time>2026-04-26T07:21:27.938Z</time></trkpt><trkpt lat="44.2024375" lon="9.9818628"><ele>68.33333333333333</ele><time>2026-04-26T07:21:28.938Z</time></trkpt><trkpt lat="44.2025519" lon="9.9817627"><ele>67.0</ele><time>2026-04-26T07:21:29.938Z</time></trkpt><trkpt lat="44.2027474" lon="9.9815495"><ele>67.0</ele><time>2026-04-26T07:21:31.938Z</time></trkpt><trkpt lat="44.202849" lon="9.9814543"><ele>67.0</ele><time>2026-04-26T07:21:32.938Z</time></trkpt><trkpt lat="44.2029692" lon="9.9813761"><ele>67.0</ele><time>2026-04-26T07:21:33.938Z</time></trkpt><trkpt lat="44.203103" lon="9.9813211"><ele>67.0</ele><time>2026-04-26T07:21:34.938Z</time></trkpt><trkpt lat="44.2032404" lon="9.9812881"><ele>69.25</ele><time>2026-04-26T07:21:35.938Z</time></trkpt><trkpt lat="44.2033836" lon="9.9812682"><ele>71.5</ele><time>2026-04-26T07:21:36.938Z</time></trkpt><trkpt lat="44.2035234" lon="9.98125"><ele>73.75</ele><time>2026-04-26T07:21:37.937Z</time></trkpt><trkpt lat="44.203662" lon="9.9812183"><ele>76.0</ele><time>2026-04-26T07:21:38.938Z</time></trkpt><trkpt lat="44.2037833" lon="9.981169"><ele>76.0</ele><time>2026-04-26T07:21:39.938Z</time></trkpt><trkpt lat="44.2038921" lon="9.981094"><ele>76.0</ele><time>2026-04-26T07:21:40.938Z</time></trkpt><trkpt lat="44.2039907" lon="9.9809922"><ele>76.0</ele><time>2026-04-26T07:21:41.938Z</time></trkpt><trkpt lat="44.2040872" lon="9.98088"><ele>76.0</ele><time>2026-04-26T07:21:42.938Z</time></trkpt><trkpt lat="44.2041866" lon="9.9807657"><ele>72.75</ele><time>2026-04-26T07:21:43.938Z</time></trkpt><trkpt lat="44.2042926" lon="9.9806552"><ele>69.5</ele><time>2026-04-26T07:21:44.938Z</time></trkpt><trkpt lat="44.2044062" lon="9.9805578"><ele>66.25</ele><time>2026-04-26T07:21:45.938Z</time></trkpt><trkpt lat="44.2045187" lon="9.9804719"><ele>63.0</ele><time>2026-04-26T07:21:46.938Z</time></trkpt><trkpt lat="44.2046354" lon="9.9804154"><ele>63.0</ele><time>2026-04-26T07:21:47.938Z</time></trkpt><trkpt lat="44.2047495" lon="9.9803651"><ele>63.0</ele><time>2026-04-26T07:21:48.938Z</time></trkpt><trkpt lat="44.2048634" lon="9.9802994"><ele>63.0</ele><time>2026-04-26T07:21:49.938Z</time></trkpt><trkpt lat="44.2049764" lon="9.9802215"><ele>63.0</ele><time>2026-04-26T07:21:50.938Z</time></trkpt><trkpt lat="44.2052" lon="9.9800574"><ele>62.25</ele><time>2026-04-26T07:21:52.938Z</time></trkpt><trkpt lat="44.2053125" lon="9.9799712"><ele>61.5</ele><time>2026-04-26T07:21:53.938Z</time></trkpt><trkpt lat="44.2054209" lon="9.9798785"><ele>60.75</ele><time>2026-04-26T07:21:54.938Z</time></trkpt><trkpt lat="44.2055363" lon="9.9797928"><ele>60.0</ele><time>2026-04-26T07:21:55.938Z</time></trkpt><trkpt lat="44.2056423" lon="9.9797111"><ele>60.5</ele><time>2026-04-26T07:21:56.938Z</time></trkpt><trkpt lat="44.2057496" lon="9.9796439"><ele>61.0</ele><time>2026-04-26T07:21:57.938Z</time></trkpt><trkpt lat="44.2058615" lon="9.9795954"><ele>61.5</ele><time>2026-04-26T07:21:58.938Z</time></trkpt><trkpt lat="44.2059752" lon="9.9795702"><ele>62.0</ele><time>2026-04-26T07:21:59.938Z</time></trkpt><trkpt lat="44.206098" lon="9.9795641"><ele>62.0</ele><time>2026-04-26T07:22:00.938Z</time></trkpt><trkpt lat="44.206224" lon="9.9795578"><ele>62.0</ele><time>2026-04-26T07:22:01.937Z</time></trkpt><trkpt lat="44.2063416" lon="9.9795446"><ele>62.0</ele><time>2026-04-26T07:22:02.938Z</time></trkpt><trkpt lat="44.2064412" lon="9.9795114"><ele>62.0</ele><time>2026-04-26T07:22:03.938Z</time></trkpt><trkpt lat="44.206528" lon="9.9794507"><ele>62.0</ele><time>2026-04-26T07:22:04.938Z</time></trkpt><trkpt lat="44.2066127" lon="9.9793532"><ele>62.0</ele><time>2026-04-26T07:22:05.938Z</time></trkpt><trkpt lat="44.2066847" lon="9.9792049"><ele>62.0</ele><time>2026-04-26T07:22:06.938Z</time></trkpt><trkpt lat="44.2067481" lon="9.9789898"><ele>62.0</ele><time>2026-04-26T07:22:07.938Z</time></trkpt><trkpt lat="44.20683" lon="9.978741"><ele>62.0</ele><time>2026-04-26T07:22:08.938Z</time></trkpt><trkpt lat="44.2069324" lon="9.9784985"><ele>62.0</ele><time>2026-04-26T07:22:09.938Z</time></trkpt><trkpt lat="44.2070385" lon="9.9782897"><ele>62.0</ele><time>2026-04-26T07:22:10.938Z</time></trkpt><trkpt lat="44.2071334" lon="9.9781204"><ele>61.333333333333336</ele><time>2026-04-26T07:22:11.938Z</time></trkpt><trkpt lat="44.2072953" lon="9.9778464"><ele>60.66666666666667</ele><time>2026-04-26T07:22:13.938Z</time></trkpt><trkpt lat="44.2073782" lon="9.9777164"><ele>60.0</ele><time>2026-04-26T07:22:14.938Z</time></trkpt><trkpt lat="44.2074691" lon="9.9775919"><ele>60.25</ele><time>2026-04-26T07:22:15.937Z</time></trkpt><trkpt lat="44.2075572" lon="9.9774783"><ele>60.5</ele><time>2026-04-26T07:22:16.938Z</time></trkpt><trkpt lat="44.207652" lon="9.9773863"><ele>60.75</ele><time>2026-04-26T07:22:17.937Z</time></trkpt><trkpt lat="44.2077568" lon="9.9773217"><ele>61.0</ele><time>2026-04-26T07:22:18.938Z</time></trkpt><trkpt lat="44.2078619" lon="9.9772723"><ele>61.0</ele><time>2026-04-26T07:22:19.938Z</time></trkpt><trkpt lat="44.2079546" lon="9.9772327"><ele>60.99999999999999</ele><time>2026-04-26T07:22:20.938Z</time></trkpt><trkpt lat="44.2080328" lon="9.9772002"><ele>60.99999999999999</ele><time>2026-04-26T07:22:21.937Z</time></trkpt><trkpt lat="44.2080985" lon="9.9771679"><ele>61.0</ele><time>2026-04-26T07:22:22.938Z</time></trkpt><trkpt lat="44.2082096" lon="9.9771127"><ele>61.0</ele><time>2026-04-26T07:22:24.938Z</time></trkpt><trkpt lat="44.2083186" lon="9.977065"><ele>63.25</ele><time>2026-04-26T07:22:26.937Z</time></trkpt><trkpt lat="44.2084147" lon="9.9769994"><ele>65.5</ele><time>2026-04-26T07:22:28.937Z</time></trkpt><trkpt lat="44.2085001" lon="9.9768959"><ele>67.75</ele><time>2026-04-26T07:22:30.938Z</time></trkpt><trkpt lat="44.2086214" lon="9.9767897"><ele>70.0</ele><time>2026-04-26T07:22:32.937Z</time></trkpt><trkpt lat="44.2088551" lon="9.9767472"><ele>70.0</ele><time>2026-04-26T07:22:34.938Z</time></trkpt><trkpt lat="44.2089892" lon="9.9767611"><ele>70.0</ele><time>2026-04-26T07:22:35.938Z</time></trkpt><trkpt lat="44.2091321" lon="9.9767888"><ele>70.0</ele><time>2026-04-26T07:22:36.938Z</time></trkpt><trkpt lat="44.2092768" lon="9.9768112"><ele>70.0</ele><time>2026-04-26T07:22:37.938Z</time></trkpt><trkpt lat="44.2094275" lon="9.9768579"><ele>73.33333333333333</ele><time>2026-04-26T07:22:38.938Z</time></trkpt><trkpt lat="44.2095854" lon="9.9769072"><ele>76.66666666666667</ele><time>2026-04-26T07:22:39.937Z</time></trkpt><trkpt lat="44.2097529" lon="9.9769507"><ele>80.0</ele><time>2026-04-26T07:22:40.938Z</time></trkpt><trkpt lat="44.2099225" lon="9.9769951"><ele>80.0</ele><time>2026-04-26T07:22:41.937Z</time></trkpt><trkpt lat="44.2100946" lon="9.9770388"><ele>80.0</ele><time>2026-04-26T07:22:42.938Z</time></trkpt><trkpt lat="44.2102665" lon="9.9770744"><ele>80.0</ele><time>2026-04-26T07:22:43.938Z</time></trkpt><trkpt lat="44.2104286" lon="9.9771343"><ele>80.0</ele><time>2026-04-26T07:22:44.938Z</time></trkpt><trkpt lat="44.2105724" lon="9.9772452"><ele>80.0</ele><time>2026-04-26T07:22:45.938Z</time></trkpt><trkpt lat="44.2106888" lon="9.9773828"><ele>80.0</ele><time>2026-04-26T07:22:46.938Z</time></trkpt><trkpt lat="44.210793" lon="9.9775122"><ele>80.25</ele><time>2026-04-26T07:22:47.938Z</time></trkpt><trkpt lat="44.2109039" lon="9.9776033"><ele>80.5</ele><time>2026-04-26T07:22:48.938Z</time></trkpt><trkpt lat="44.2110286" lon="9.9776339"><ele>80.75</ele><time>2026-04-26T07:22:49.938Z</time></trkpt><trkpt lat="44.211166" lon="9.9775991"><ele>81.0</ele><time>2026-04-26T07:22:50.938Z</time></trkpt><trkpt lat="44.2113171" lon="9.9775548"><ele>81.0</ele><time>2026-04-26T07:22:51.938Z</time></trkpt><trkpt lat="44.2114836" lon="9.9775504"><ele>81.0</ele><time>2026-04-26T07:22:52.938Z</time></trkpt><trkpt lat="44.2116572" lon="9.9775983"><ele>81.0</ele><time>2026-04-26T07:22:53.938Z</time></trkpt><trkpt lat="44.2120201" lon="9.9776783"><ele>78.66666666666667</ele><time>2026-04-26T07:22:55.938Z</time></trkpt><trkpt lat="44.2122143" lon="9.9776899"><ele>76.33333333333334</ele><time>2026-04-26T07:22:56.937Z</time></trkpt><trkpt lat="44.2124129" lon="9.9776823"><ele>74.0</ele><time>2026-04-26T07:22:57.938Z</time></trkpt><trkpt lat="44.2126123" lon="9.9776698"><ele>72.66666666666667</ele><time>2026-04-26T07:22:58.938Z</time></trkpt><trkpt lat="44.2128002" lon="9.9776621"><ele>71.33333333333333</ele><time>2026-04-26T07:22:59.938Z</time></trkpt><trkpt lat="44.2129911" lon="9.9776609"><ele>70.0</ele><time>2026-04-26T07:23:00.938Z</time></trkpt><trkpt lat="44.2131782" lon="9.9776542"><ele>68.66666666666666</ele><time>2026-04-26T07:23:01.938Z</time></trkpt><trkpt lat="44.2133749" lon="9.9776578"><ele>67.33333333333333</ele><time>2026-04-26T07:23:02.938Z</time></trkpt><trkpt lat="44.2135705" lon="9.9776474"><ele>66.0</ele><time>2026-04-26T07:23:03.938Z</time></trkpt><trkpt lat="44.2137643" lon="9.9776152"><ele>66.0</ele><time>2026-04-26T07:23:04.937Z</time></trkpt><trkpt lat="44.2139599" lon="9.977555"><ele>66.0</ele><time>2026-04-26T07:23:05.938Z</time></trkpt><trkpt lat="44.2141536" lon="9.9774757"><ele>66.0</ele><time>2026-04-26T07:23:06.938Z</time></trkpt><trkpt lat="44.2143483" lon="9.9774102"><ele>66.66666666666667</ele><time>2026-04-26T07:23:07.938Z</time></trkpt><trkpt lat="44.2145412" lon="9.9773634"><ele>67.33333333333334</ele><time>2026-04-26T07:23:08.937Z</time></trkpt><trkpt lat="44.214724" lon="9.9773362"><ele>68.0</ele><time>2026-04-26T07:23:09.938Z</time></trkpt><trkpt lat="44.2149172" lon="9.9773438"><ele>68.0</ele><time>2026-04-26T07:23:10.938Z</time></trkpt><trkpt lat="44.2151143" lon="9.9773556"><ele>68.0</ele><time>2026-04-26T07:23:11.938Z</time></trkpt><trkpt lat="44.21531" lon="9.9773572"><ele>68.0</ele><time>2026-04-26T07:23:12.938Z</time></trkpt><trkpt lat="44.2155097" lon="9.977344"><ele>69.0</ele><time>2026-04-26T07:23:13.938Z</time></trkpt><trkpt lat="44.2157069" lon="9.9773188"><ele>70.0</ele><time>2026-04-26T07:23:14.938Z</time></trkpt><trkpt lat="44.2160976" lon="9.9772203"><ele>70.0</ele><time>2026-04-26T07:23:16.938Z</time></trkpt><trkpt lat="44.2162844" lon="9.9771595"><ele>70.0</ele><time>2026-04-26T07:23:17.938Z</time></trkpt><trkpt lat="44.2164733" lon="9.9770905"><ele>70.0</ele><time>2026-04-26T07:23:18.938Z</time></trkpt><trkpt lat="44.2166592" lon="9.9770252"><ele>70.66666666666666</ele><time>2026-04-26T07:23:19.937Z</time></trkpt><trkpt lat="44.2168429" lon="9.9769735"><ele>71.33333333333333</ele><time>2026-04-26T07:23:20.938Z</time></trkpt><trkpt lat="44.2170283" lon="9.9769172"><ele>72.0</ele><time>2026-04-26T07:23:21.937Z</time></trkpt><trkpt lat="44.2172082" lon="9.9768606"><ele>72.0</ele><time>2026-04-26T07:23:22.938Z</time></trkpt><trkpt lat="44.2173878" lon="9.9768067"><ele>72.0</ele><time>2026-04-26T07:23:23.938Z</time></trkpt><trkpt lat="44.2175722" lon="9.9767555"><ele>72.0</ele><time>2026-04-26T07:23:24.938Z</time></trkpt><trkpt lat="44.2177616" lon="9.9767053"><ele>73.33333333333333</ele><time>2026-04-26T07:23:25.938Z</time></trkpt><trkpt lat="44.2179411" lon="9.9766504"><ele>74.66666666666666</ele><time>2026-04-26T07:23:26.938Z</time></trkpt><trkpt lat="44.2180983" lon="9.9765857"><ele>76.0</ele><time>2026-04-26T07:23:27.938Z</time></trkpt><trkpt lat="44.2182524" lon="9.9765278"><ele>76.5</ele><time>2026-04-26T07:23:28.938Z</time></trkpt><trkpt lat="44.2183985" lon="9.9764838"><ele>77.0</ele><time>2026-04-26T07:23:29.938Z</time></trkpt><trkpt lat="44.2185304" lon="9.9764467"><ele>77.5</ele><time>2026-04-26T07:23:30.938Z</time></trkpt><trkpt lat="44.218655" lon="9.9764061"><ele>78.0</ele><time>2026-04-26T07:23:31.938Z</time></trkpt><trkpt lat="44.2187734" lon="9.9763603"><ele>78.0</ele><time>2026-04-26T07:23:32.938Z</time></trkpt><trkpt lat="44.2188946" lon="9.9763146"><ele>78.0</ele><time>2026-04-26T07:23:33.938Z</time></trkpt><trkpt lat="44.2190172" lon="9.9762719"><ele>78.0</ele><time>2026-04-26T07:23:34.938Z</time></trkpt><trkpt lat="44.2191379" lon="9.9762353"><ele>78.0</ele><time>2026-04-26T07:23:35.938Z</time></trkpt><trkpt lat="44.2193913" lon="9.9761599"><ele>78.25</ele><time>2026-04-26T07:23:37.938Z</time></trkpt><trkpt lat="44.2195219" lon="9.9761182"><ele>78.5</ele><time>2026-04-26T07:23:38.938Z</time></trkpt><trkpt lat="44.2196542" lon="9.9760736"><ele>78.75</ele><time>2026-04-26T07:23:39.938Z</time></trkpt><trkpt lat="44.2197889" lon="9.9760336"><ele>79.0</ele><time>2026-04-26T07:23:40.938Z</time></trkpt><trkpt lat="44.2199229" lon="9.9759917"><ele>75.66666666666666</ele><time>2026-04-26T07:23:41.938Z</time></trkpt><trkpt lat="44.2200592" lon="9.975952"><ele>72.33333333333333</ele><time>2026-04-26T07:23:42.937Z</time></trkpt><trkpt lat="44.2202071" lon="9.9759166"><ele>69.0</ele><time>2026-04-26T07:23:43.938Z</time></trkpt><trkpt lat="44.2203692" lon="9.9758797"><ele>69.0</ele><time>2026-04-26T07:23:44.938Z</time></trkpt><trkpt lat="44.2205376" lon="9.9758523"><ele>69.0</ele><time>2026-04-26T07:23:45.938Z</time></trkpt><trkpt lat="44.2207027" lon="9.9758246"><ele>69.0</ele><time>2026-04-26T07:23:46.938Z</time></trkpt><trkpt lat="44.2208761" lon="9.9757996"><ele>69.0</ele><time>2026-04-26T07:23:47.938Z</time></trkpt><trkpt lat="44.2210553" lon="9.9757725"><ele>69.0</ele><time>2026-04-26T07:23:48.938Z</time></trkpt><trkpt lat="44.2212337" lon="9.9757368"><ele>69.0</ele><time>2026-04-26T07:23:49.938Z</time></trkpt><trkpt lat="44.2214049" lon="9.9756941"><ele>71.66666666666667</ele><time>2026-04-26T07:23:50.937Z</time></trkpt><trkpt lat="44.2215748" lon="9.9756361"><ele>74.33333333333334</ele><time>2026-04-26T07:23:51.938Z</time></trkpt><trkpt lat="44.2217456" lon="9.9755636"><ele>77.0</ele><time>2026-04-26T07:23:52.938Z</time></trkpt><trkpt lat="44.2219146" lon="9.9754797"><ele>77.0</ele><time>2026-04-26T07:23:53.938Z</time></trkpt><trkpt lat="44.2220904" lon="9.9753932"><ele>77.0</ele><time>2026-04-26T07:23:54.938Z</time></trkpt><trkpt lat="44.2222682" lon="9.9753051"><ele>77.0</ele><time>2026-04-26T07:23:55.938Z</time></trkpt><trkpt lat="44.2224443" lon="9.975215"><ele>79.5</ele><time>2026-04-26T07:23:56.938Z</time></trkpt><trkpt lat="44.2228006" lon="9.9750357"><ele>82.0</ele><time>2026-04-26T07:23:58.938Z</time></trkpt><trkpt lat="44.2229775" lon="9.9749474"><ele>77.0</ele><time>2026-04-26T07:23:59.938Z</time></trkpt><trkpt lat="44.2231487" lon="9.9748596"><ele>72.0</ele><time>2026-04-26T07:24:00.938Z</time></trkpt><trkpt lat="44.2233128" lon="9.9747662"><ele>67.0</ele><time>2026-04-26T07:24:01.938Z</time></trkpt><trkpt lat="44.2234667" lon="9.9746734"><ele>67.0</ele><time>2026-04-26T07:24:02.937Z</time></trkpt><trkpt lat="44.2236105" lon="9.9745788"><ele>67.0</ele><time>2026-04-26T07:24:03.937Z</time></trkpt><trkpt lat="44.2237469" lon="9.9744864"><ele>67.0</ele><time>2026-04-26T07:24:04.938Z</time></trkpt><trkpt lat="44.223873" lon="9.9744012"><ele>66.8</ele><time>2026-04-26T07:24:05.938Z</time></trkpt><trkpt lat="44.2239923" lon="9.9743197"><ele>66.6</ele><time>2026-04-26T07:24:06.938Z</time></trkpt><trkpt lat="44.224101" lon="9.9742456"><ele>66.39999999999999</ele><time>2026-04-26T07:24:07.938Z</time></trkpt><trkpt lat="44.2241967" lon="9.9741853"><ele>66.2</ele><time>2026-04-26T07:24:08.938Z</time></trkpt><trkpt lat="44.2242692" lon="9.97415"><ele>66.0</ele><time>2026-04-26T07:24:09.938Z</time></trkpt><trkpt lat="44.2243418" lon="9.9741091"><ele>66.0</ele><time>2026-04-26T07:24:11.938Z</time></trkpt><trkpt lat="44.2243509" lon="9.973981"><ele>66.0</ele><time>2026-04-26T07:24:17.938Z</time></trkpt><trkpt lat="44.224272" lon="9.9736175"><ele>66.0</ele><time>2026-04-26T07:24:19.938Z</time></trkpt><trkpt lat="44.2242091" lon="9.9733791"><ele>65.33333333333333</ele><time>2026-04-26T07:24:20.938Z</time></trkpt><trkpt lat="44.2241461" lon="9.9731379"><ele>64.66666666666666</ele><time>2026-04-26T07:24:21.938Z</time></trkpt><trkpt lat="44.2240838" lon="9.972896"><ele>64.0</ele><time>2026-04-26T07:24:22.938Z</time></trkpt><trkpt lat="44.2240223" lon="9.9726298"><ele>63.33333333333333</ele><time>2026-04-26T07:24:23.938Z</time></trkpt><trkpt lat="44.2239587" lon="9.9723573"><ele>62.66666666666667</ele><time>2026-04-26T07:24:24.938Z</time></trkpt><trkpt lat="44.2238917" lon="9.9720792"><ele>62.0</ele><time>2026-04-26T07:24:25.938Z</time></trkpt><trkpt lat="44.2238216" lon="9.9718022"><ele>62.66666666666667</ele><time>2026-04-26T07:24:26.938Z</time></trkpt><trkpt lat="44.2237543" lon="9.9715326"><ele>63.33333333333333</ele><time>2026-04-26T07:24:27.937Z</time></trkpt><trkpt lat="44.2236947" lon="9.9712576"><ele>64.0</ele><time>2026-04-26T07:24:28.938Z</time></trkpt><trkpt lat="44.2236376" lon="9.9710001"><ele>64.66666666666666</ele><time>2026-04-26T07:24:29.938Z</time></trkpt><trkpt lat="44.2235866" lon="9.9707665"><ele>65.33333333333333</ele><time>2026-04-26T07:24:30.938Z</time></trkpt><trkpt lat="44.2235352" lon="9.9705566"><ele>66.0</ele><time>2026-04-26T07:24:31.938Z</time></trkpt><trkpt lat="44.2234857" lon="9.9703657"><ele>66.0</ele><time>2026-04-26T07:24:32.938Z</time></trkpt><trkpt lat="44.2234361" lon="9.9701953"><ele>66.0</ele><time>2026-04-26T07:24:33.938Z</time></trkpt><trkpt lat="44.2233955" lon="9.9700339"><ele>66.0</ele><time>2026-04-26T07:24:34.938Z</time></trkpt><trkpt lat="44.2233627" lon="9.969888"><ele>66.0</ele><time>2026-04-26T07:24:35.938Z</time></trkpt><trkpt lat="44.2233471" lon="9.9697736"><ele>66.0</ele><time>2026-04-26T07:24:36.938Z</time></trkpt><trkpt lat="44.2233558" lon="9.9696813"><ele>66.33333333333333</ele><time>2026-04-26T07:24:38.938Z</time></trkpt><trkpt lat="44.2235815" lon="9.9695583"><ele>66.66666666666666</ele><time>2026-04-26T07:24:46.938Z</time></trkpt><trkpt lat="44.223744" lon="9.9694722"><ele>67.0</ele><time>2026-04-26T07:24:47.938Z</time></trkpt><trkpt lat="44.223901" lon="9.9693882"><ele>66.75</ele><time>2026-04-26T07:24:48.938Z</time></trkpt><trkpt lat="44.2240398" lon="9.9693175"><ele>66.5</ele><time>2026-04-26T07:24:49.938Z</time></trkpt><trkpt lat="44.2241605" lon="9.9692626"><ele>66.25</ele><time>2026-04-26T07:24:50.938Z</time></trkpt><trkpt lat="44.2242709" lon="9.9692063"><ele>66.0</ele><time>2026-04-26T07:24:51.937Z</time></trkpt><trkpt lat="44.2243694" lon="9.9691522"><ele>66.0</ele><time>2026-04-26T07:24:52.937Z</time></trkpt><trkpt lat="44.2244633" lon="9.9690968"><ele>66.0</ele><time>2026-04-26T07:24:53.937Z</time></trkpt><trkpt lat="44.2245517" lon="9.9690486"><ele>66.0</ele><time>2026-04-26T07:24:54.938Z</time></trkpt><trkpt lat="44.2246348" lon="9.969003"><ele>66.0</ele><time>2026-04-26T07:24:55.938Z</time></trkpt><trkpt lat="44.2247133" lon="9.9689504"><ele>66.0</ele><time>2026-04-26T07:24:56.938Z</time></trkpt><trkpt lat="44.2247885" lon="9.9689"><ele>66.25</ele><time>2026-04-26T07:24:57.937Z</time></trkpt><trkpt lat="44.2248671" lon="9.9688447"><ele>66.5</ele><time>2026-04-26T07:24:58.938Z</time></trkpt><trkpt lat="44.2249469" lon="9.9687869"><ele>66.75</ele><time>2026-04-26T07:24:59.938Z</time></trkpt><trkpt lat="44.2251184" lon="9.9686498"><ele>67.0</ele><time>2026-04-26T07:25:01.938Z</time></trkpt><trkpt lat="44.2252186" lon="9.9685666"><ele>67.0</ele><time>2026-04-26T07:25:02.938Z</time></trkpt><trkpt lat="44.2253303" lon="9.9684782"><ele>67.0</ele><time>2026-04-26T07:25:03.937Z</time></trkpt><trkpt lat="44.2254434" lon="9.968385"><ele>67.0</ele><time>2026-04-26T07:25:04.938Z</time></trkpt><trkpt lat="44.2255487" lon="9.9682831"><ele>67.0</ele><time>2026-04-26T07:25:05.937Z</time></trkpt><trkpt lat="44.2256454" lon="9.9681812"><ele>67.0</ele><time>2026-04-26T07:25:06.937Z</time></trkpt><trkpt lat="44.2257343" lon="9.9680781"><ele>67.0</ele><time>2026-04-26T07:25:07.938Z</time></trkpt><trkpt lat="44.2258224" lon="9.9679783"><ele>67.0</ele><time>2026-04-26T07:25:08.938Z</time></trkpt><trkpt lat="44.2259139" lon="9.9678686"><ele>67.0</ele><time>2026-04-26T07:25:09.937Z</time></trkpt><trkpt lat="44.2260014" lon="9.9677553"><ele>67.0</ele><time>2026-04-26T07:25:10.938Z</time></trkpt><trkpt lat="44.2260918" lon="9.9676312"><ele>67.0</ele><time>2026-04-26T07:25:11.938Z</time></trkpt><trkpt lat="44.2261838" lon="9.9674975"><ele>67.0</ele><time>2026-04-26T07:25:12.938Z</time></trkpt><trkpt lat="44.226277" lon="9.9673629"><ele>67.0</ele><time>2026-04-26T07:25:13.938Z</time></trkpt><trkpt lat="44.2263652" lon="9.967224"><ele>66.75</ele><time>2026-04-26T07:25:14.938Z</time></trkpt><trkpt lat="44.2264522" lon="9.9670739"><ele>66.5</ele><time>2026-04-26T07:25:15.938Z</time></trkpt><trkpt lat="44.2265399" lon="9.9669265"><ele>66.25</ele><time>2026-04-26T07:25:16.938Z</time></trkpt><trkpt lat="44.2266255" lon="9.9667834"><ele>66.0</ele><time>2026-04-26T07:25:17.938Z</time></trkpt><trkpt lat="44.2267069" lon="9.9666433"><ele>65.33333333333333</ele><time>2026-04-26T07:25:18.937Z</time></trkpt><trkpt lat="44.2267906" lon="9.9665074"><ele>64.66666666666666</ele><time>2026-04-26T07:25:19.938Z</time></trkpt><trkpt lat="44.2268777" lon="9.9663687"><ele>64.0</ele><time>2026-04-26T07:25:20.938Z</time></trkpt><trkpt lat="44.2270524" lon="9.9661061"><ele>64.0</ele><time>2026-04-26T07:25:22.938Z</time></trkpt><trkpt lat="44.2271443" lon="9.9659933"><ele>64.0</ele><time>2026-04-26T07:25:23.938Z</time></trkpt><trkpt lat="44.2272439" lon="9.9658908"><ele>64.0</ele><time>2026-04-26T07:25:24.938Z</time></trkpt><trkpt lat="44.2273527" lon="9.9658238"><ele>64.0</ele><time>2026-04-26T07:25:25.938Z</time></trkpt><trkpt lat="44.2274676" lon="9.9657702"><ele>64.5</ele><time>2026-04-26T07:25:26.938Z</time></trkpt><trkpt lat="44.2275872" lon="9.9657248"><ele>65.0</ele><time>2026-04-26T07:25:27.938Z</time></trkpt><trkpt lat="44.2277146" lon="9.9656858"><ele>65.5</ele><time>2026-04-26T07:25:28.937Z</time></trkpt><trkpt lat="44.227848" lon="9.9656446"><ele>66.0</ele><time>2026-04-26T07:25:29.938Z</time></trkpt><trkpt lat="44.2279813" lon="9.9655881"><ele>66.0</ele><time>2026-04-26T07:25:30.938Z</time></trkpt><trkpt lat="44.2281094" lon="9.9655376"><ele>66.0</ele><time>2026-04-26T07:25:31.937Z</time></trkpt><trkpt lat="44.2282276" lon="9.9654903"><ele>66.0</ele><time>2026-04-26T07:25:32.938Z</time></trkpt><trkpt lat="44.2283352" lon="9.9654513"><ele>66.0</ele><time>2026-04-26T07:25:33.938Z</time></trkpt><trkpt lat="44.2284381" lon="9.9654098"><ele>66.25</ele><time>2026-04-26T07:25:34.938Z</time></trkpt><trkpt lat="44.2285483" lon="9.9653646"><ele>66.5</ele><time>2026-04-26T07:25:35.938Z</time></trkpt><trkpt lat="44.2286667" lon="9.9653239"><ele>66.75</ele><time>2026-04-26T07:25:36.938Z</time></trkpt><trkpt lat="44.2287864" lon="9.9652836"><ele>67.0</ele><time>2026-04-26T07:25:37.938Z</time></trkpt><trkpt lat="44.2289073" lon="9.9652431"><ele>66.75</ele><time>2026-04-26T07:25:38.938Z</time></trkpt><trkpt lat="44.2290241" lon="9.9651967"><ele>66.5</ele><time>2026-04-26T07:25:39.938Z</time></trkpt><trkpt lat="44.2291388" lon="9.9651601"><ele>66.25</ele><time>2026-04-26T07:25:40.937Z</time></trkpt><trkpt lat="44.2292514" lon="9.9651237"><ele>66.0</ele><time>2026-04-26T07:25:41.938Z</time></trkpt><trkpt lat="44.2294643" lon="9.9650458"><ele>66.16666666666667</ele><time>2026-04-26T07:25:43.938Z</time></trkpt><trkpt lat="44.2295552" lon="9.9650139"><ele>66.33333333333333</ele><time>2026-04-26T07:25:44.938Z</time></trkpt><trkpt lat="44.2296361" lon="9.9649852"><ele>66.5</ele><time>2026-04-26T07:25:45.938Z</time></trkpt><trkpt lat="44.2297119" lon="9.9649638"><ele>66.66666666666666</ele><time>2026-04-26T07:25:46.938Z</time></trkpt><trkpt lat="44.2297792" lon="9.9649474"><ele>66.83333333333333</ele><time>2026-04-26T07:25:47.938Z</time></trkpt><trkpt lat="44.2298953" lon="9.9649186"><ele>67.0</ele><time>2026-04-26T07:25:49.938Z</time></trkpt><trkpt lat="44.2299576" lon="9.9648996"><ele>68.4</ele><time>2026-04-26T07:25:50.938Z</time></trkpt><trkpt lat="44.2300308" lon="9.9648764"><ele>69.80000000000001</ele><time>2026-04-26T07:25:51.938Z</time></trkpt><trkpt lat="44.2301198" lon="9.9648358"><ele>71.2</ele><time>2026-04-26T07:25:52.938Z</time></trkpt><trkpt lat="44.2302073" lon="9.9647795"><ele>72.60000000000001</ele><time>2026-04-26T07:25:53.938Z</time></trkpt><trkpt lat="44.2302922" lon="9.9647141"><ele>74.0</ele><time>2026-04-26T07:25:54.938Z</time></trkpt><trkpt lat="44.2303768" lon="9.9646393"><ele>74.0</ele><time>2026-04-26T07:25:55.937Z</time></trkpt><trkpt lat="44.2304559" lon="9.9645513"><ele>74.0</ele><time>2026-04-26T07:25:56.938Z</time></trkpt><trkpt lat="44.2305321" lon="9.9644491"><ele>74.0</ele><time>2026-04-26T07:25:57.938Z</time></trkpt><trkpt lat="44.2306027" lon="9.964342"><ele>74.0</ele><time>2026-04-26T07:25:58.938Z</time></trkpt><trkpt lat="44.2306692" lon="9.9642254"><ele>74.0</ele><time>2026-04-26T07:25:59.938Z</time></trkpt><trkpt lat="44.2307294" lon="9.9641027"><ele>74.75</ele><time>2026-04-26T07:26:00.938Z</time></trkpt><trkpt lat="44.2307761" lon="9.9639778"><ele>75.5</ele><time>2026-04-26T07:26:01.938Z</time></trkpt><trkpt lat="44.2308125" lon="9.9638543"><ele>76.25</ele><time>2026-04-26T07:26:02.938Z</time></trkpt><trkpt lat="44.2308637" lon="9.9636075"><ele>77.0</ele><time>2026-04-26T07:26:04.938Z</time></trkpt><trkpt lat="44.2308894" lon="9.96343"><ele>76.0</ele><time>2026-04-26T07:26:05.938Z</time></trkpt><trkpt lat="44.2309144" lon="9.9632188"><ele>75.0</ele><time>2026-04-26T07:26:06.937Z</time></trkpt><trkpt lat="44.230945" lon="9.9629923"><ele>74.0</ele><time>2026-04-26T07:26:07.937Z</time></trkpt><trkpt lat="44.2309789" lon="9.962753"><ele>73.66666666666667</ele><time>2026-04-26T07:26:08.938Z</time></trkpt><trkpt lat="44.2310173" lon="9.9625187"><ele>73.33333333333333</ele><time>2026-04-26T07:26:09.938Z</time></trkpt><trkpt lat="44.2310598" lon="9.9622873"><ele>73.0</ele><time>2026-04-26T07:26:10.938Z</time></trkpt><trkpt lat="44.2311101" lon="9.9620562"><ele>73.0</ele><time>2026-04-26T07:26:11.937Z</time></trkpt><trkpt lat="44.231176" lon="9.9618293"><ele>73.0</ele><time>2026-04-26T07:26:12.937Z</time></trkpt><trkpt lat="44.2312656" lon="9.9616038"><ele>73.0</ele><time>2026-04-26T07:26:13.938Z</time></trkpt><trkpt lat="44.2313792" lon="9.9613986"><ele>73.66666666666666</ele><time>2026-04-26T07:26:14.938Z</time></trkpt><trkpt lat="44.2315098" lon="9.9612027"><ele>74.33333333333333</ele><time>2026-04-26T07:26:15.937Z</time></trkpt><trkpt lat="44.2316578" lon="9.9610225"><ele>75.0</ele><time>2026-04-26T07:26:16.938Z</time></trkpt><trkpt lat="44.2318272" lon="9.9608574"><ele>75.0</ele><time>2026-04-26T07:26:17.938Z</time></trkpt><trkpt lat="44.2319974" lon="9.9607376"><ele>75.0</ele><time>2026-04-26T07:26:18.938Z</time></trkpt><trkpt lat="44.2321724" lon="9.9606446"><ele>75.0</ele><time>2026-04-26T07:26:19.938Z</time></trkpt><trkpt lat="44.2323548" lon="9.9605774"><ele>76.66666666666667</ele><time>2026-04-26T07:26:20.938Z</time></trkpt><trkpt lat="44.2325523" lon="9.9605357"><ele>78.33333333333334</ele><time>2026-04-26T07:26:21.938Z</time></trkpt><trkpt lat="44.2327499" lon="9.9605094"><ele>80.0</ele><time>2026-04-26T07:26:22.938Z</time></trkpt><trkpt lat="44.2329495" lon="9.9604866"><ele>82.0</ele><time>2026-04-26T07:26:23.938Z</time></trkpt><trkpt lat="44.2333589" lon="9.9604488"><ele>84.0</ele><time>2026-04-26T07:26:25.937Z</time></trkpt><trkpt lat="44.2335623" lon="9.9604269"><ele>84.0</ele><time>2026-04-26T07:26:26.938Z</time></trkpt><trkpt lat="44.233767" lon="9.9604049"><ele>84.0</ele><time>2026-04-26T07:26:27.938Z</time></trkpt><trkpt lat="44.2339723" lon="9.9603817"><ele>84.0</ele><time>2026-04-26T07:26:28.937Z</time></trkpt><trkpt lat="44.2341802" lon="9.9603602"><ele>85.66666666666667</ele><time>2026-04-26T07:26:29.938Z</time></trkpt><trkpt lat="44.234385" lon="9.9603455"><ele>87.33333333333334</ele><time>2026-04-26T07:26:30.938Z</time></trkpt><trkpt lat="44.2345901" lon="9.9603221"><ele>89.0</ele><time>2026-04-26T07:26:31.938Z</time></trkpt><trkpt lat="44.2347939" lon="9.9602971"><ele>89.66666666666667</ele><time>2026-04-26T07:26:32.937Z</time></trkpt><trkpt lat="44.2349999" lon="9.9602707"><ele>90.33333333333333</ele><time>2026-04-26T07:26:33.938Z</time></trkpt><trkpt lat="44.2352028" lon="9.9602455"><ele>91.0</ele><time>2026-04-26T07:26:34.938Z</time></trkpt><trkpt lat="44.2354082" lon="9.9602237"><ele>91.0</ele><time>2026-04-26T07:26:35.938Z</time></trkpt><trkpt lat="44.2356155" lon="9.9602001"><ele>91.0</ele><time>2026-04-26T07:26:36.938Z</time></trkpt><trkpt lat="44.2358213" lon="9.9601744"><ele>91.0</ele><time>2026-04-26T07:26:37.938Z</time></trkpt><trkpt lat="44.2360249" lon="9.9601506"><ele>92.66666666666666</ele><time>2026-04-26T07:26:38.938Z</time></trkpt><trkpt lat="44.2362352" lon="9.9601229"><ele>94.33333333333333</ele><time>2026-04-26T07:26:39.938Z</time></trkpt><trkpt lat="44.2364354" lon="9.9600947"><ele>96.0</ele><time>2026-04-26T07:26:40.938Z</time></trkpt><trkpt lat="44.2366364" lon="9.9600685"><ele>97.0</ele><time>2026-04-26T07:26:41.938Z</time></trkpt><trkpt lat="44.2368366" lon="9.9600399"><ele>98.0</ele><time>2026-04-26T07:26:42.938Z</time></trkpt><trkpt lat="44.237041" lon="9.9600235"><ele>99.0</ele><time>2026-04-26T07:26:43.937Z</time></trkpt><trkpt lat="44.237248" lon="9.9600012"><ele>90.0</ele><time>2026-04-26T07:26:44.937Z</time></trkpt><trkpt lat="44.2376666" lon="9.9599541"><ele>81.0</ele><time>2026-04-26T07:26:46.937Z</time></trkpt><trkpt lat="44.2378737" lon="9.9599283"><ele>81.0</ele><time>2026-04-26T07:26:47.938Z</time></trkpt><trkpt lat="44.2380777" lon="9.9598948"><ele>81.0</ele><time>2026-04-26T07:26:48.938Z</time></trkpt><trkpt lat="44.2382786" lon="9.9598741"><ele>81.0</ele><time>2026-04-26T07:26:49.938Z</time></trkpt><trkpt lat="44.2384654" lon="9.9598458"><ele>81.33333333333333</ele><time>2026-04-26T07:26:50.938Z</time></trkpt><trkpt lat="44.2386571" lon="9.9598244"><ele>81.66666666666666</ele><time>2026-04-26T07:26:51.938Z</time></trkpt><trkpt lat="44.2388392" lon="9.9598045"><ele>82.0</ele><time>2026-04-26T07:26:52.938Z</time></trkpt><trkpt lat="44.2390205" lon="9.9597831"><ele>82.0</ele><time>2026-04-26T07:26:53.938Z</time></trkpt><trkpt lat="44.2391985" lon="9.9597539"><ele>82.0</ele><time>2026-04-26T07:26:54.937Z</time></trkpt><trkpt lat="44.2393777" lon="9.9597246"><ele>82.0</ele><time>2026-04-26T07:26:55.938Z</time></trkpt><trkpt lat="44.2395541" lon="9.9596976"><ele>82.0</ele><time>2026-04-26T07:26:56.938Z</time></trkpt><trkpt lat="44.2397324" lon="9.9596704"><ele>82.0</ele><time>2026-04-26T07:26:57.938Z</time></trkpt><trkpt lat="44.2399189" lon="9.9596421"><ele>82.0</ele><time>2026-04-26T07:26:58.938Z</time></trkpt><trkpt lat="44.2401077" lon="9.9596227"><ele>82.66666666666666</ele><time>2026-04-26T07:26:59.938Z</time></trkpt><trkpt lat="44.2402981" lon="9.9596006"><ele>83.33333333333333</ele><time>2026-04-26T07:27:00.938Z</time></trkpt><trkpt lat="44.2404919" lon="9.9595797"><ele>84.0</ele><time>2026-04-26T07:27:01.938Z</time></trkpt><trkpt lat="44.2406823" lon="9.9595482"><ele>85.0</ele><time>2026-04-26T07:27:02.938Z</time></trkpt><trkpt lat="44.2408791" lon="9.9595264"><ele>86.0</ele><time>2026-04-26T07:27:03.938Z</time></trkpt><trkpt lat="44.2410733" lon="9.9595061"><ele>87.0</ele><time>2026-04-26T07:27:04.938Z</time></trkpt><trkpt lat="44.2412668" lon="9.9594789"><ele>89.0</ele><time>2026-04-26T07:27:05.937Z</time></trkpt><trkpt lat="44.2416614" lon="9.9594304"><ele>91.0</ele><time>2026-04-26T07:27:07.938Z</time></trkpt><trkpt lat="44.2418607" lon="9.9594144"><ele>91.0</ele><time>2026-04-26T07:27:08.938Z</time></trkpt><trkpt lat="44.2420579" lon="9.9593851"><ele>91.0</ele><time>2026-04-26T07:27:09.938Z</time></trkpt><trkpt lat="44.2422518" lon="9.9593616"><ele>91.0</ele><time>2026-04-26T07:27:10.938Z</time></trkpt><trkpt lat="44.2424406" lon="9.9593411"><ele>92.66666666666666</ele><time>2026-04-26T07:27:11.938Z</time></trkpt><trkpt lat="44.2426333" lon="9.9593119"><ele>94.33333333333333</ele><time>2026-04-26T07:27:12.938Z</time></trkpt><trkpt lat="44.242825" lon="9.9592898"><ele>96.0</ele><time>2026-04-26T07:27:13.937Z</time></trkpt><trkpt lat="44.243007" lon="9.9592808"><ele>96.33333333333334</ele><time>2026-04-26T07:27:14.938Z</time></trkpt><trkpt lat="44.2431702" lon="9.9593154"><ele>96.66666666666667</ele><time>2026-04-26T07:27:15.938Z</time></trkpt><trkpt lat="44.2433132" lon="9.959399"><ele>97.0</ele><time>2026-04-26T07:27:16.938Z</time></trkpt><trkpt lat="44.243447" lon="9.9595306"><ele>97.0</ele><time>2026-04-26T07:27:17.938Z</time></trkpt><trkpt lat="44.2435791" lon="9.9596773"><ele>97.0</ele><time>2026-04-26T07:27:18.938Z</time></trkpt><trkpt lat="44.243719" lon="9.9598176"><ele>97.0</ele><time>2026-04-26T07:27:19.938Z</time></trkpt><trkpt lat="44.2438628" lon="9.9599558"><ele>97.33333333333334</ele><time>2026-04-26T07:27:20.938Z</time></trkpt><trkpt lat="44.2440138" lon="9.960111"><ele>97.66666666666666</ele><time>2026-04-26T07:27:21.938Z</time></trkpt><trkpt lat="44.2441573" lon="9.9602772"><ele>98.0</ele><time>2026-04-26T07:27:22.937Z</time></trkpt><trkpt lat="44.2442974" lon="9.9604348"><ele>98.0</ele><time>2026-04-26T07:27:23.938Z</time></trkpt><trkpt lat="44.2444432" lon="9.9605752"><ele>98.0</ele><time>2026-04-26T07:27:24.938Z</time></trkpt><trkpt lat="44.2446021" lon="9.9606763"><ele>98.0</ele><time>2026-04-26T07:27:25.938Z</time></trkpt><trkpt lat="44.2447834" lon="9.9607238"><ele>94.0</ele><time>2026-04-26T07:27:26.937Z</time></trkpt><trkpt lat="44.2451558" lon="9.9606799"><ele>90.0</ele><time>2026-04-26T07:27:28.938Z</time></trkpt><trkpt lat="44.245352" lon="9.9606461"><ele>90.0</ele><time>2026-04-26T07:27:29.937Z</time></trkpt><trkpt lat="44.2455452" lon="9.9606224"><ele>90.0</ele><time>2026-04-26T07:27:30.938Z</time></trkpt><trkpt lat="44.2457302" lon="9.9606217"><ele>90.0</ele><time>2026-04-26T07:27:31.937Z</time></trkpt><trkpt lat="44.2459092" lon="9.9606308"><ele>90.0</ele><time>2026-04-26T07:27:32.938Z</time></trkpt><trkpt lat="44.246081" lon="9.960595"><ele>90.0</ele><time>2026-04-26T07:27:33.938Z</time></trkpt><trkpt lat="44.2462449" lon="9.9605026"><ele>90.0</ele><time>2026-04-26T07:27:34.938Z</time></trkpt><trkpt lat="44.2463874" lon="9.9603486"><ele>90.0</ele><time>2026-04-26T07:27:35.938Z</time></trkpt><trkpt lat="44.2464943" lon="9.9601381"><ele>90.0</ele><time>2026-04-26T07:27:36.938Z</time></trkpt><trkpt lat="44.2465625" lon="9.9598756"><ele>90.0</ele><time>2026-04-26T07:27:37.938Z</time></trkpt><trkpt lat="44.2466146" lon="9.9595995"><ele>90.0</ele><time>2026-04-26T07:27:38.938Z</time></trkpt><trkpt lat="44.2466712" lon="9.9593456"><ele>90.0</ele><time>2026-04-26T07:27:39.938Z</time></trkpt><trkpt lat="44.2467516" lon="9.959117"><ele>90.0</ele><time>2026-04-26T07:27:40.938Z</time></trkpt><trkpt lat="44.2468714" lon="9.9589201"><ele>91.33333333333333</ele><time>2026-04-26T07:27:41.938Z</time></trkpt><trkpt lat="44.2470123" lon="9.9587431"><ele>92.66666666666666</ele><time>2026-04-26T07:27:42.938Z</time></trkpt><trkpt lat="44.2471634" lon="9.9585761"><ele>94.0</ele><time>2026-04-26T07:27:43.938Z</time></trkpt><trkpt lat="44.2473137" lon="9.9584129"><ele>96.0</ele><time>2026-04-26T07:27:44.938Z</time></trkpt><trkpt lat="44.2474702" lon="9.9582498"><ele>98.0</ele><time>2026-04-26T07:27:45.938Z</time></trkpt><trkpt lat="44.2476297" lon="9.9580882"><ele>100.0</ele><time>2026-04-26T07:27:46.938Z</time></trkpt><trkpt lat="44.2477908" lon="9.9579268"><ele>100.0</ele><time>2026-04-26T07:27:47.937Z</time></trkpt><trkpt lat="44.2481031" lon="9.9576027"><ele>100.0</ele><time>2026-04-26T07:27:49.938Z</time></trkpt><trkpt lat="44.248259" lon="9.9574382"><ele>100.0</ele><time>2026-04-26T07:27:50.938Z</time></trkpt><trkpt lat="44.248417" lon="9.9572786"><ele>100.0</ele><time>2026-04-26T07:27:51.937Z</time></trkpt><trkpt lat="44.2485728" lon="9.9571186"><ele>100.0</ele><time>2026-04-26T07:27:52.938Z</time></trkpt><trkpt lat="44.2487349" lon="9.9569585"><ele>100.0</ele><time>2026-04-26T07:27:53.938Z</time></trkpt><trkpt lat="44.248904" lon="9.9567967"><ele>100.0</ele><time>2026-04-26T07:27:54.938Z</time></trkpt><trkpt lat="44.2490697" lon="9.95665"><ele>100.0</ele><time>2026-04-26T07:27:55.938Z</time></trkpt><trkpt lat="44.2492421" lon="9.956512"><ele>102.66666666666667</ele><time>2026-04-26T07:27:56.938Z</time></trkpt><trkpt lat="44.2494173" lon="9.9563854"><ele>105.33333333333334</ele><time>2026-04-26T07:27:57.938Z</time></trkpt><trkpt lat="44.2495876" lon="9.9562588"><ele>108.0</ele><time>2026-04-26T07:27:58.937Z</time></trkpt><trkpt lat="44.2497482" lon="9.9561025"><ele>108.33333333333334</ele><time>2026-04-26T07:27:59.938Z</time></trkpt><trkpt lat="44.2499034" lon="9.9559277"><ele>108.66666666666667</ele><time>2026-04-26T07:28:00.937Z</time></trkpt><trkpt lat="44.2500456" lon="9.9557384"><ele>109.0</ele><time>2026-04-26T07:28:01.937Z</time></trkpt><trkpt lat="44.2501759" lon="9.9555248"><ele>109.0</ele><time>2026-04-26T07:28:02.938Z</time></trkpt><trkpt lat="44.2503017" lon="9.955312"><ele>109.0</ele><time>2026-04-26T07:28:03.938Z</time></trkpt><trkpt lat="44.2504296" lon="9.9551128"><ele>109.0</ele><time>2026-04-26T07:28:04.938Z</time></trkpt><trkpt lat="44.2505596" lon="9.9549082"><ele>111.66666666666667</ele><time>2026-04-26T07:28:05.938Z</time></trkpt><trkpt lat="44.2506912" lon="9.9547109"><ele>114.33333333333334</ele><time>2026-04-26T07:28:06.938Z</time></trkpt><trkpt lat="44.2508364" lon="9.9545291"><ele>117.0</ele><time>2026-04-26T07:28:07.938Z</time></trkpt><trkpt lat="44.2509928" lon="9.9543689"><ele>118.5</ele><time>2026-04-26T07:28:08.938Z</time></trkpt><trkpt lat="44.251331" lon="9.9541364"><ele>120.0</ele><time>2026-04-26T07:28:10.938Z</time></trkpt><trkpt lat="44.2514836" lon="9.9540317"><ele>120.0</ele><time>2026-04-26T07:28:11.938Z</time></trkpt><trkpt lat="44.2516238" lon="9.9539402"><ele>120.0</ele><time>2026-04-26T07:28:12.937Z</time></trkpt><trkpt lat="44.2517597" lon="9.9538771"><ele>120.0</ele><time>2026-04-26T07:28:13.938Z</time></trkpt><trkpt lat="44.2518902" lon="9.9538499"><ele>120.0</ele><time>2026-04-26T07:28:14.938Z</time></trkpt><trkpt lat="44.2520126" lon="9.9538788"><ele>120.0</ele><time>2026-04-26T07:28:15.938Z</time></trkpt><trkpt lat="44.2521125" lon="9.9539754"><ele>120.0</ele><time>2026-04-26T07:28:16.938Z</time></trkpt><trkpt lat="44.2521703" lon="9.9541263"><ele>120.0</ele><time>2026-04-26T07:28:17.938Z</time></trkpt><trkpt lat="44.2521942" lon="9.9543307"><ele>120.0</ele><time>2026-04-26T07:28:18.938Z</time></trkpt><trkpt lat="44.252203" lon="9.9545675"><ele>120.66666666666666</ele><time>2026-04-26T07:28:19.938Z</time></trkpt><trkpt lat="44.2522171" lon="9.9548204"><ele>121.33333333333333</ele><time>2026-04-26T07:28:20.938Z</time></trkpt><trkpt lat="44.2522464" lon="9.9550829"><ele>122.0</ele><time>2026-04-26T07:28:21.938Z</time></trkpt><trkpt lat="44.2522952" lon="9.9553549"><ele>122.0</ele><time>2026-04-26T07:28:22.938Z</time></trkpt><trkpt lat="44.252346" lon="9.9556316"><ele>122.0</ele><time>2026-04-26T07:28:23.938Z</time></trkpt><trkpt lat="44.2523821" lon="9.9559199"><ele>122.0</ele><time>2026-04-26T07:28:24.938Z</time></trkpt><trkpt lat="44.2524099" lon="9.9561932"><ele>123.66666666666666</ele><time>2026-04-26T07:28:25.938Z</time></trkpt><trkpt lat="44.2524625" lon="9.9564635"><ele>125.33333333333334</ele><time>2026-04-26T07:28:26.938Z</time></trkpt><trkpt lat="44.252543" lon="9.9567106"><ele>127.0</ele><time>2026-04-26T07:28:27.938Z</time></trkpt><trkpt lat="44.2526598" lon="9.9569361"><ele>129.5</ele><time>2026-04-26T07:28:28.938Z</time></trkpt><trkpt lat="44.2527995" lon="9.9571371"><ele>132.0</ele><time>2026-04-26T07:28:29.938Z</time></trkpt><trkpt lat="44.2531111" lon="9.9575102"><ele>131.66666666666666</ele><time>2026-04-26T07:28:31.938Z</time></trkpt><trkpt lat="44.2532668" lon="9.9576924"><ele>131.33333333333331</ele><time>2026-04-26T07:28:32.938Z</time></trkpt><trkpt lat="44.2534139" lon="9.9578726"><ele>131.0</ele><time>2026-04-26T07:28:33.938Z</time></trkpt><trkpt lat="44.2535505" lon="9.9580257"><ele>131.0</ele><time>2026-04-26T07:28:34.937Z</time></trkpt><trkpt lat="44.2536923" lon="9.9581367"><ele>131.0</ele><time>2026-04-26T07:28:35.938Z</time></trkpt><trkpt lat="44.2538492" lon="9.958189"><ele>131.0</ele><time>2026-04-26T07:28:36.938Z</time></trkpt><trkpt lat="44.2540263" lon="9.9581685"><ele>133.33333333333331</ele><time>2026-04-26T07:28:37.938Z</time></trkpt><trkpt lat="44.2542047" lon="9.9580764"><ele>135.66666666666666</ele><time>2026-04-26T07:28:38.938Z</time></trkpt><trkpt lat="44.2543708" lon="9.9579231"><ele>138.0</ele><time>2026-04-26T07:28:39.937Z</time></trkpt><trkpt lat="44.2545233" lon="9.9577396"><ele>138.0</ele><time>2026-04-26T07:28:40.938Z</time></trkpt><trkpt lat="44.2546831" lon="9.9575652"><ele>138.0</ele><time>2026-04-26T07:28:41.938Z</time></trkpt><trkpt lat="44.2548605" lon="9.9574226"><ele>138.0</ele><time>2026-04-26T07:28:42.938Z</time></trkpt><trkpt lat="44.255044" lon="9.9573006"><ele>137.66666666666666</ele><time>2026-04-26T07:28:43.938Z</time></trkpt><trkpt lat="44.2552311" lon="9.957185"><ele>137.33333333333331</ele><time>2026-04-26T07:28:44.938Z</time></trkpt><trkpt lat="44.2554164" lon="9.9570599"><ele>137.0</ele><time>2026-04-26T07:28:45.938Z</time></trkpt><trkpt lat="44.2555995" lon="9.9569343"><ele>134.66666666666666</ele><time>2026-04-26T07:28:46.938Z</time></trkpt><trkpt lat="44.2557878" lon="9.9568085"><ele>132.33333333333334</ele><time>2026-04-26T07:28:47.937Z</time></trkpt><trkpt lat="44.2559727" lon="9.9566823"><ele>130.0</ele><time>2026-04-26T07:28:48.938Z</time></trkpt><trkpt lat="44.2561656" lon="9.9565747"><ele>130.0</ele><time>2026-04-26T07:28:49.937Z</time></trkpt><trkpt lat="44.2563609" lon="9.9564829"><ele>130.0</ele><time>2026-04-26T07:28:50.937Z</time></trkpt><trkpt lat="44.256748" lon="9.9563342"><ele>127.33333333333334</ele><time>2026-04-26T07:28:52.938Z</time></trkpt><trkpt lat="44.2569267" lon="9.9562038"><ele>124.66666666666666</ele><time>2026-04-26T07:28:53.937Z</time></trkpt><trkpt lat="44.2570824" lon="9.9560358"><ele>122.0</ele><time>2026-04-26T07:28:54.938Z</time></trkpt><trkpt lat="44.257227" lon="9.9558469"><ele>127.66666666666666</ele><time>2026-04-26T07:28:55.938Z</time></trkpt><trkpt lat="44.2573686" lon="9.955665"><ele>133.33333333333334</ele><time>2026-04-26T07:28:56.938Z</time></trkpt><trkpt lat="44.2575232" lon="9.9555231"><ele>139.0</ele><time>2026-04-26T07:28:57.938Z</time></trkpt><trkpt lat="44.257692" lon="9.9554328"><ele>139.0</ele><time>2026-04-26T07:28:58.938Z</time></trkpt><trkpt lat="44.2578656" lon="9.9553713"><ele>139.0</ele><time>2026-04-26T07:28:59.938Z</time></trkpt><trkpt lat="44.2580491" lon="9.9553211"><ele>139.0</ele><time>2026-04-26T07:29:00.938Z</time></trkpt><trkpt lat="44.258235" lon="9.9552645"><ele>144.66666666666669</ele><time>2026-04-26T07:29:01.938Z</time></trkpt><trkpt lat="44.2584171" lon="9.9551899"><ele>150.33333333333334</ele><time>2026-04-26T07:29:02.938Z</time></trkpt><trkpt lat="44.2586002" lon="9.9550993"><ele>156.0</ele><time>2026-04-26T07:29:03.938Z</time></trkpt><trkpt lat="44.2587765" lon="9.9549859"><ele>151.0</ele><time>2026-04-26T07:29:04.938Z</time></trkpt><trkpt lat="44.2589352" lon="9.9548467"><ele>146.0</ele><time>2026-04-26T07:29:05.938Z</time></trkpt><trkpt lat="44.2590787" lon="9.9546706"><ele>141.0</ele><time>2026-04-26T07:29:06.938Z</time></trkpt><trkpt lat="44.2592173" lon="9.9544858"><ele>141.0</ele><time>2026-04-26T07:29:07.938Z</time></trkpt><trkpt lat="44.259375" lon="9.9543211"><ele>141.0</ele><time>2026-04-26T07:29:08.938Z</time></trkpt><trkpt lat="44.2595478" lon="9.9541862"><ele>141.0</ele><time>2026-04-26T07:29:09.938Z</time></trkpt><trkpt lat="44.2597353" lon="9.9540921"><ele>136.0</ele><time>2026-04-26T07:29:10.938Z</time></trkpt><trkpt lat="44.2599356" lon="9.954039"><ele>131.0</ele><time>2026-04-26T07:29:11.938Z</time></trkpt><trkpt lat="44.2603132" lon="9.9540101"><ele>131.0</ele><time>2026-04-26T07:29:13.938Z</time></trkpt><trkpt lat="44.2604889" lon="9.9539273"><ele>131.0</ele><time>2026-04-26T07:29:14.938Z</time></trkpt><trkpt lat="44.2606596" lon="9.953796"><ele>131.0</ele><time>2026-04-26T07:29:15.938Z</time></trkpt><trkpt lat="44.2608249" lon="9.9536666"><ele>133.33333333333331</ele><time>2026-04-26T07:29:16.938Z</time></trkpt><trkpt lat="44.2610101" lon="9.9535745"><ele>135.66666666666666</ele><time>2026-04-26T07:29:17.938Z</time></trkpt><trkpt lat="44.2612059" lon="9.9535144"><ele>138.0</ele><time>2026-04-26T07:29:18.938Z</time></trkpt><trkpt lat="44.2614045" lon="9.9534882"><ele>139.33333333333334</ele><time>2026-04-26T07:29:19.938Z</time></trkpt><trkpt lat="44.2616052" lon="9.9534999"><ele>140.66666666666669</ele><time>2026-04-26T07:29:20.938Z</time></trkpt><trkpt lat="44.2618156" lon="9.9535451"><ele>142.0</ele><time>2026-04-26T07:29:21.938Z</time></trkpt><trkpt lat="44.2620118" lon="9.9536411"><ele>142.0</ele><time>2026-04-26T07:29:22.938Z</time></trkpt><trkpt lat="44.2622013" lon="9.9537702"><ele>142.0</ele><time>2026-04-26T07:29:23.938Z</time></trkpt><trkpt lat="44.2623769" lon="9.9539032"><ele>142.0</ele><time>2026-04-26T07:29:24.937Z</time></trkpt><trkpt lat="44.2625603" lon="9.954033"><ele>142.0</ele><time>2026-04-26T07:29:25.938Z</time></trkpt><trkpt lat="44.2627463" lon="9.9541579"><ele>142.0</ele><time>2026-04-26T07:29:26.937Z</time></trkpt><trkpt lat="44.2629328" lon="9.9542723"><ele>142.0</ele><time>2026-04-26T07:29:27.937Z</time></trkpt><trkpt lat="44.2631211" lon="9.9543724"><ele>142.0</ele><time>2026-04-26T07:29:28.938Z</time></trkpt><trkpt lat="44.2633129" lon="9.9544591"><ele>142.0</ele><time>2026-04-26T07:29:29.938Z</time></trkpt><trkpt lat="44.2635049" lon="9.9545167"><ele>142.0</ele><time>2026-04-26T07:29:30.938Z</time></trkpt><trkpt lat="44.2636985" lon="9.9545813"><ele>142.0</ele><time>2026-04-26T07:29:31.938Z</time></trkpt><trkpt lat="44.2638898" lon="9.9546666"><ele>142.0</ele><time>2026-04-26T07:29:32.937Z</time></trkpt><trkpt lat="44.2642335" lon="9.9548166"><ele>140.66666666666669</ele><time>2026-04-26T07:29:34.938Z</time></trkpt><trkpt lat="44.2644026" lon="9.9548135"><ele>139.33333333333334</ele><time>2026-04-26T07:29:35.938Z</time></trkpt><trkpt lat="44.2645752" lon="9.9547497"><ele>138.0</ele><time>2026-04-26T07:29:36.938Z</time></trkpt><trkpt lat="44.2647538" lon="9.954642"><ele>140.66666666666666</ele><time>2026-04-26T07:29:37.938Z</time></trkpt><trkpt lat="44.2649353" lon="9.9545382"><ele>143.33333333333331</ele><time>2026-04-26T07:29:38.938Z</time></trkpt><trkpt lat="44.2651269" lon="9.9544586"><ele>146.0</ele><time>2026-04-26T07:29:39.938Z</time></trkpt><trkpt lat="44.2653213" lon="9.9544029"><ele>146.0</ele><time>2026-04-26T07:29:40.938Z</time></trkpt><trkpt lat="44.2655197" lon="9.9543754"><ele>146.0</ele><time>2026-04-26T07:29:41.938Z</time></trkpt><trkpt lat="44.2657243" lon="9.954374"><ele>146.0</ele><time>2026-04-26T07:29:42.937Z</time></trkpt><trkpt lat="44.2659287" lon="9.9543816"><ele>151.0</ele><time>2026-04-26T07:29:43.938Z</time></trkpt><trkpt lat="44.2661335" lon="9.9543573"><ele>156.0</ele><time>2026-04-26T07:29:44.938Z</time></trkpt><trkpt lat="44.2663323" lon="9.9543012"><ele>161.0</ele><time>2026-04-26T07:29:45.938Z</time></trkpt><trkpt lat="44.2665132" lon="9.9542245"><ele>151.0</ele><time>2026-04-26T07:29:46.938Z</time></trkpt><trkpt lat="44.2666791" lon="9.9541548"><ele>141.0</ele><time>2026-04-26T07:29:47.938Z</time></trkpt><trkpt lat="44.2668399" lon="9.9541071"><ele>131.0</ele><time>2026-04-26T07:29:48.938Z</time></trkpt><trkpt lat="44.2669983" lon="9.9540507"><ele>131.0</ele><time>2026-04-26T07:29:49.938Z</time></trkpt><trkpt lat="44.2671474" lon="9.9539428"><ele>131.0</ele><time>2026-04-26T07:29:50.937Z</time></trkpt><trkpt lat="44.2672734" lon="9.9537479"><ele>131.0</ele><time>2026-04-26T07:29:51.938Z</time></trkpt><trkpt lat="44.267395" lon="9.9535215"><ele>130.5</ele><time>2026-04-26T07:29:52.938Z</time></trkpt><trkpt lat="44.2675248" lon="9.9533015"><ele>130.0</ele><time>2026-04-26T07:29:53.938Z</time></trkpt><trkpt lat="44.2678003" lon="9.953008"><ele>130.0</ele><time>2026-04-26T07:29:55.937Z</time></trkpt><trkpt lat="44.2679625" lon="9.9529588"><ele>130.0</ele><time>2026-04-26T07:29:56.938Z</time></trkpt><trkpt lat="44.2681335" lon="9.952992"><ele>130.0</ele><time>2026-04-26T07:29:57.938Z</time></trkpt><trkpt lat="44.2683045" lon="9.9530833"><ele>132.66666666666669</ele><time>2026-04-26T07:29:58.938Z</time></trkpt><trkpt lat="44.2684734" lon="9.9532051"><ele>135.33333333333334</ele><time>2026-04-26T07:29:59.938Z</time></trkpt><trkpt lat="44.2686242" lon="9.9533031"><ele>138.0</ele><time>2026-04-26T07:30:00.937Z</time></trkpt><trkpt lat="44.2687645" lon="9.9533877"><ele>136.33333333333334</ele><time>2026-04-26T07:30:01.937Z</time></trkpt><trkpt lat="44.268914" lon="9.9534392"><ele>134.66666666666669</ele><time>2026-04-26T07:30:02.937Z</time></trkpt><trkpt lat="44.2690596" lon="9.9533863"><ele>133.0</ele><time>2026-04-26T07:30:03.938Z</time></trkpt><trkpt lat="44.269216" lon="9.9532545"><ele>133.0</ele><time>2026-04-26T07:30:04.938Z</time></trkpt><trkpt lat="44.2693658" lon="9.9530926"><ele>133.0</ele><time>2026-04-26T07:30:05.938Z</time></trkpt><trkpt lat="44.2695124" lon="9.9529735"><ele>133.0</ele><time>2026-04-26T07:30:06.938Z</time></trkpt><trkpt lat="44.2696769" lon="9.9529084"><ele>135.33333333333334</ele><time>2026-04-26T07:30:07.938Z</time></trkpt><trkpt lat="44.2698675" lon="9.9528899"><ele>137.66666666666666</ele><time>2026-04-26T07:30:08.938Z</time></trkpt><trkpt lat="44.270062" lon="9.9529303"><ele>140.0</ele><time>2026-04-26T07:30:09.938Z</time></trkpt><trkpt lat="44.270238" lon="9.9530483"><ele>140.0</ele><time>2026-04-26T07:30:10.937Z</time></trkpt><trkpt lat="44.2704037" lon="9.9532049"><ele>140.0</ele><time>2026-04-26T07:30:11.938Z</time></trkpt><trkpt lat="44.2705724" lon="9.9533562"><ele>140.0</ele><time>2026-04-26T07:30:12.938Z</time></trkpt><trkpt lat="44.2707477" lon="9.9534926"><ele>152.0</ele><time>2026-04-26T07:30:13.938Z</time></trkpt><trkpt lat="44.2709237" lon="9.9536223"><ele>164.0</ele><time>2026-04-26T07:30:14.938Z</time></trkpt><trkpt lat="44.2712932" lon="9.9537895"><ele>152.66666666666666</ele><time>2026-04-26T07:30:16.937Z</time></trkpt><trkpt lat="44.271474" lon="9.9538645"><ele>141.33333333333334</ele><time>2026-04-26T07:30:17.938Z</time></trkpt><trkpt lat="44.2716368" lon="9.9539759"><ele>130.0</ele><time>2026-04-26T07:30:18.938Z</time></trkpt><trkpt lat="44.2717561" lon="9.9541454"><ele>133.33333333333334</ele><time>2026-04-26T07:30:19.938Z</time></trkpt><trkpt lat="44.2718454" lon="9.9543396"><ele>136.66666666666666</ele><time>2026-04-26T07:30:20.937Z</time></trkpt><trkpt lat="44.2719251" lon="9.9545304"><ele>140.0</ele><time>2026-04-26T07:30:21.938Z</time></trkpt><trkpt lat="44.2720366" lon="9.9546869"><ele>140.0</ele><time>2026-04-26T07:30:22.938Z</time></trkpt><trkpt lat="44.272197" lon="9.9547843"><ele>140.0</ele><time>2026-04-26T07:30:23.937Z</time></trkpt><trkpt lat="44.2723992" lon="9.9548258"><ele>140.0</ele><time>2026-04-26T07:30:24.938Z</time></trkpt><trkpt lat="44.2726348" lon="9.954834"><ele>139.0</ele><time>2026-04-26T07:30:25.938Z</time></trkpt><trkpt lat="44.2728744" lon="9.9548481"><ele>138.0</ele><time>2026-04-26T07:30:26.938Z</time></trkpt><trkpt lat="44.2731028" lon="9.9548736"><ele>137.33333333333334</ele><time>2026-04-26T07:30:27.938Z</time></trkpt><trkpt lat="44.2733211" lon="9.954904"><ele>136.66666666666669</ele><time>2026-04-26T07:30:28.938Z</time></trkpt><trkpt lat="44.2735321" lon="9.954917"><ele>136.0</ele><time>2026-04-26T07:30:29.938Z</time></trkpt><trkpt lat="44.2737421" lon="9.9549032"><ele>135.0</ele><time>2026-04-26T07:30:30.938Z</time></trkpt><trkpt lat="44.2739492" lon="9.9548661"><ele>134.0</ele><time>2026-04-26T07:30:31.938Z</time></trkpt><trkpt lat="44.274149" lon="9.9547898"><ele>133.0</ele><time>2026-04-26T07:30:32.938Z</time></trkpt><trkpt lat="44.2743459" lon="9.9547115"><ele>133.0</ele><time>2026-04-26T07:30:33.938Z</time></trkpt><trkpt lat="44.2745407" lon="9.9546217"><ele>133.0</ele><time>2026-04-26T07:30:34.938Z</time></trkpt><trkpt lat="44.2747317" lon="9.9545258"><ele>133.0</ele><time>2026-04-26T07:30:35.938Z</time></trkpt><trkpt lat="44.2751076" lon="9.954309"><ele>132.0</ele><time>2026-04-26T07:30:37.938Z</time></trkpt><trkpt lat="44.2753001" lon="9.9542091"><ele>131.0</ele><time>2026-04-26T07:30:38.938Z</time></trkpt><trkpt lat="44.2754853" lon="9.9541062"><ele>130.0</ele><time>2026-04-26T07:30:39.937Z</time></trkpt><trkpt lat="44.2756731" lon="9.9539965"><ele>130.0</ele><time>2026-04-26T07:30:40.938Z</time></trkpt><trkpt lat="44.2758571" lon="9.9538843"><ele>130.0</ele><time>2026-04-26T07:30:41.938Z</time></trkpt><trkpt lat="44.2760463" lon="9.9537711"><ele>130.0</ele><time>2026-04-26T07:30:42.938Z</time></trkpt><trkpt lat="44.2762321" lon="9.9536577"><ele>130.0</ele><time>2026-04-26T07:30:43.938Z</time></trkpt><trkpt lat="44.2764198" lon="9.9535422"><ele>130.0</ele><time>2026-04-26T07:30:44.938Z</time></trkpt><trkpt lat="44.2766042" lon="9.9534179"><ele>130.0</ele><time>2026-04-26T07:30:45.938Z</time></trkpt><trkpt lat="44.2767962" lon="9.9533057"><ele>129.33333333333334</ele><time>2026-04-26T07:30:46.938Z</time></trkpt><trkpt lat="44.2769965" lon="9.9531924"><ele>128.66666666666666</ele><time>2026-04-26T07:30:47.937Z</time></trkpt><trkpt lat="44.2771981" lon="9.9530817"><ele>128.0</ele><time>2026-04-26T07:30:48.938Z</time></trkpt><trkpt lat="44.2773872" lon="9.9529716"><ele>128.0</ele><time>2026-04-26T07:30:49.938Z</time></trkpt><trkpt lat="44.2775784" lon="9.9528658"><ele>128.0</ele><time>2026-04-26T07:30:50.938Z</time></trkpt><trkpt lat="44.2777746" lon="9.9527516"><ele>128.0</ele><time>2026-04-26T07:30:51.938Z</time></trkpt><trkpt lat="44.2779713" lon="9.952638"><ele>126.66666666666666</ele><time>2026-04-26T07:30:52.938Z</time></trkpt><trkpt lat="44.2781625" lon="9.9525231"><ele>125.33333333333334</ele><time>2026-04-26T07:30:53.938Z</time></trkpt><trkpt lat="44.2783611" lon="9.9524059"><ele>124.0</ele><time>2026-04-26T07:30:54.938Z</time></trkpt><trkpt lat="44.2785536" lon="9.9522935"><ele>124.0</ele><time>2026-04-26T07:30:55.938Z</time></trkpt><trkpt lat="44.278754" lon="9.9521971"><ele>124.0</ele><time>2026-04-26T07:30:56.938Z</time></trkpt><trkpt lat="44.2791615" lon="9.9519953"><ele>126.0</ele><time>2026-04-26T07:30:58.938Z</time></trkpt><trkpt lat="44.2793633" lon="9.9518876"><ele>128.0</ele><time>2026-04-26T07:30:59.937Z</time></trkpt><trkpt lat="44.2795669" lon="9.9517955"><ele>130.0</ele><time>2026-04-26T07:31:00.938Z</time></trkpt><trkpt lat="44.2797678" lon="9.9517287"><ele>125.33333333333334</ele><time>2026-04-26T07:31:01.938Z</time></trkpt><trkpt lat="44.2799733" lon="9.9516866"><ele>120.66666666666666</ele><time>2026-04-26T07:31:02.938Z</time></trkpt><trkpt lat="44.2801748" lon="9.9516296"><ele>116.0</ele><time>2026-04-26T07:31:03.938Z</time></trkpt><trkpt lat="44.2803597" lon="9.9515355"><ele>116.0</ele><time>2026-04-26T07:31:04.938Z</time></trkpt><trkpt lat="44.2805467" lon="9.9514244"><ele>116.0</ele><time>2026-04-26T07:31:05.938Z</time></trkpt><trkpt lat="44.2807299" lon="9.9512995"><ele>116.0</ele><time>2026-04-26T07:31:06.937Z</time></trkpt><trkpt lat="44.2809112" lon="9.951174"><ele>116.33333333333333</ele><time>2026-04-26T07:31:07.938Z</time></trkpt><trkpt lat="44.281093" lon="9.9510555"><ele>116.66666666666666</ele><time>2026-04-26T07:31:08.938Z</time></trkpt><trkpt lat="44.2812787" lon="9.9509502"><ele>117.0</ele><time>2026-04-26T07:31:09.938Z</time></trkpt><trkpt lat="44.2814675" lon="9.9508678"><ele>117.0</ele><time>2026-04-26T07:31:10.938Z</time></trkpt><trkpt lat="44.2816596" lon="9.9508103"><ele>117.0</ele><time>2026-04-26T07:31:11.938Z</time></trkpt><trkpt lat="44.2818607" lon="9.9507776"><ele>117.0</ele><time>2026-04-26T07:31:12.937Z</time></trkpt><trkpt lat="44.2820632" lon="9.9507624"><ele>117.0</ele><time>2026-04-26T07:31:13.938Z</time></trkpt><trkpt lat="44.2822676" lon="9.9507342"><ele>117.0</ele><time>2026-04-26T07:31:14.938Z</time></trkpt><trkpt lat="44.282466" lon="9.9506802"><ele>117.0</ele><time>2026-04-26T07:31:15.937Z</time></trkpt><trkpt lat="44.2826468" lon="9.9505749"><ele>117.0</ele><time>2026-04-26T07:31:16.937Z</time></trkpt><trkpt lat="44.2828121" lon="9.9504335"><ele>117.0</ele><time>2026-04-26T07:31:17.938Z</time></trkpt><trkpt lat="44.2831405" lon="9.9500955"><ele>118.66666666666666</ele><time>2026-04-26T07:31:19.938Z</time></trkpt><trkpt lat="44.2833108" lon="9.949943"><ele>120.33333333333333</ele><time>2026-04-26T07:31:20.938Z</time></trkpt><trkpt lat="44.2834803" lon="9.9498137"><ele>122.0</ele><time>2026-04-26T07:31:21.938Z</time></trkpt><trkpt lat="44.2836454" lon="9.9497139"><ele>122.0</ele><time>2026-04-26T07:31:22.938Z</time></trkpt><trkpt lat="44.2838028" lon="9.9496352"><ele>122.0</ele><time>2026-04-26T07:31:23.938Z</time></trkpt><trkpt lat="44.2839384" lon="9.9495683"><ele>122.0</ele><time>2026-04-26T07:31:24.938Z</time></trkpt><trkpt lat="44.2840657" lon="9.9495102"><ele>122.0</ele><time>2026-04-26T07:31:25.938Z</time></trkpt><trkpt lat="44.2841836" lon="9.9494645"><ele>123.75</ele><time>2026-04-26T07:31:26.937Z</time></trkpt><trkpt lat="44.2842984" lon="9.9494247"><ele>125.5</ele><time>2026-04-26T07:31:27.938Z</time></trkpt><trkpt lat="44.2844074" lon="9.9493853"><ele>127.25</ele><time>2026-04-26T07:31:28.937Z</time></trkpt><trkpt lat="44.2845143" lon="9.9493409"><ele>129.0</ele><time>2026-04-26T07:31:29.938Z</time></trkpt><trkpt lat="44.284622" lon="9.9492961"><ele>129.0</ele><time>2026-04-26T07:31:30.938Z</time></trkpt><trkpt lat="44.2847304" lon="9.9492473"><ele>129.0</ele><time>2026-04-26T07:31:31.938Z</time></trkpt><trkpt lat="44.2848408" lon="9.949202"><ele>129.0</ele><time>2026-04-26T07:31:32.938Z</time></trkpt><trkpt lat="44.2849531" lon="9.9491572"><ele>129.0</ele><time>2026-04-26T07:31:33.937Z</time></trkpt><trkpt lat="44.2850696" lon="9.9491091"><ele>129.25</ele><time>2026-04-26T07:31:34.938Z</time></trkpt><trkpt lat="44.2851922" lon="9.9490508"><ele>129.5</ele><time>2026-04-26T07:31:35.938Z</time></trkpt><trkpt lat="44.2853155" lon="9.948998"><ele>129.75</ele><time>2026-04-26T07:31:36.938Z</time></trkpt><trkpt lat="44.2854356" lon="9.9489539"><ele>130.0</ele><time>2026-04-26T07:31:37.938Z</time></trkpt><trkpt lat="44.2855588" lon="9.9489109"><ele>132.33333333333334</ele><time>2026-04-26T07:31:38.937Z</time></trkpt><trkpt lat="44.2858287" lon="9.948828"><ele>134.66666666666666</ele><time>2026-04-26T07:31:40.937Z</time></trkpt><trkpt lat="44.2859725" lon="9.9487834"><ele>137.0</ele><time>2026-04-26T07:31:41.937Z</time></trkpt><trkpt lat="44.2861226" lon="9.9487468"><ele>137.0</ele><time>2026-04-26T07:31:42.938Z</time></trkpt><trkpt lat="44.2862833" lon="9.9487143"><ele>137.0</ele><time>2026-04-26T07:31:43.938Z</time></trkpt><trkpt lat="44.2864521" lon="9.9486767"><ele>137.0</ele><time>2026-04-26T07:31:44.938Z</time></trkpt><trkpt lat="44.2866201" lon="9.9486432"><ele>140.66666666666666</ele><time>2026-04-26T07:31:45.938Z</time></trkpt><trkpt lat="44.2867888" lon="9.9486084"><ele>144.33333333333334</ele><time>2026-04-26T07:31:46.937Z</time></trkpt><trkpt lat="44.2869551" lon="9.948571"><ele>148.0</ele><time>2026-04-26T07:31:47.938Z</time></trkpt><trkpt lat="44.287122" lon="9.948534"><ele>151.66666666666669</ele><time>2026-04-26T07:31:48.938Z</time></trkpt><trkpt lat="44.2872941" lon="9.9484915"><ele>155.33333333333334</ele><time>2026-04-26T07:31:49.937Z</time></trkpt><trkpt lat="44.2874626" lon="9.9484424"><ele>159.0</ele><time>2026-04-26T07:31:50.937Z</time></trkpt><trkpt lat="44.2876358" lon="9.9483854"><ele>152.33333333333334</ele><time>2026-04-26T07:31:51.938Z</time></trkpt><trkpt lat="44.2878065" lon="9.9483227"><ele>145.66666666666669</ele><time>2026-04-26T07:31:52.938Z</time></trkpt><trkpt lat="44.2879779" lon="9.948257"><ele>139.0</ele><time>2026-04-26T07:31:53.938Z</time></trkpt><trkpt lat="44.2881408" lon="9.9481885"><ele>139.0</ele><time>2026-04-26T07:31:54.938Z</time></trkpt><trkpt lat="44.2883019" lon="9.9481204"><ele>139.0</ele><time>2026-04-26T07:31:55.938Z</time></trkpt><trkpt lat="44.288463" lon="9.9480527"><ele>139.0</ele><time>2026-04-26T07:31:56.938Z</time></trkpt><trkpt lat="44.288621" lon="9.9479985"><ele>139.0</ele><time>2026-04-26T07:31:57.938Z</time></trkpt><trkpt lat="44.2887786" lon="9.9479756"><ele>139.0</ele><time>2026-04-26T07:31:58.937Z</time></trkpt><trkpt lat="44.2889287" lon="9.9479995"><ele>139.0</ele><time>2026-04-26T07:31:59.938Z</time></trkpt><trkpt lat="44.2891938" lon="9.948142"><ele>137.75</ele><time>2026-04-26T07:32:01.938Z</time></trkpt><trkpt lat="44.2892955" lon="9.9482653"><ele>136.5</ele><time>2026-04-26T07:32:02.938Z</time></trkpt><trkpt lat="44.2893782" lon="9.9484122"><ele>135.25</ele><time>2026-04-26T07:32:03.938Z</time></trkpt><trkpt lat="44.2894471" lon="9.9485731"><ele>134.0</ele><time>2026-04-26T07:32:04.938Z</time></trkpt><trkpt lat="44.289512" lon="9.9487303"><ele>134.0</ele><time>2026-04-26T07:32:05.938Z</time></trkpt><trkpt lat="44.2895848" lon="9.9488923"><ele>134.0</ele><time>2026-04-26T07:32:06.938Z</time></trkpt><trkpt lat="44.2896668" lon="9.9490711"><ele>134.0</ele><time>2026-04-26T07:32:07.938Z</time></trkpt><trkpt lat="44.2897468" lon="9.9492638"><ele>134.0</ele><time>2026-04-26T07:32:08.938Z</time></trkpt><trkpt lat="44.2898257" lon="9.9494685"><ele>133.66666666666666</ele><time>2026-04-26T07:32:09.937Z</time></trkpt><trkpt lat="44.2899067" lon="9.949679"><ele>133.33333333333334</ele><time>2026-04-26T07:32:10.938Z</time></trkpt><trkpt lat="44.2899836" lon="9.9498795"><ele>133.0</ele><time>2026-04-26T07:32:11.938Z</time></trkpt><trkpt lat="44.2900693" lon="9.9500621"><ele>134.0</ele><time>2026-04-26T07:32:12.938Z</time></trkpt><trkpt lat="44.2901656" lon="9.9502418"><ele>135.0</ele><time>2026-04-26T07:32:13.938Z</time></trkpt><trkpt lat="44.2902578" lon="9.9504271"><ele>136.0</ele><time>2026-04-26T07:32:14.937Z</time></trkpt><trkpt lat="44.2903448" lon="9.9506221"><ele>136.0</ele><time>2026-04-26T07:32:15.938Z</time></trkpt><trkpt lat="44.2904192" lon="9.9508188"><ele>136.0</ele><time>2026-04-26T07:32:16.937Z</time></trkpt><trkpt lat="44.2904922" lon="9.951019"><ele>136.0</ele><time>2026-04-26T07:32:17.937Z</time></trkpt><trkpt lat="44.2905684" lon="9.9512055"><ele>135.0</ele><time>2026-04-26T07:32:18.938Z</time></trkpt><trkpt lat="44.2906705" lon="9.9513716"><ele>134.0</ele><time>2026-04-26T07:32:19.938Z</time></trkpt><trkpt lat="44.2907876" lon="9.9515034"><ele>133.0</ele><time>2026-04-26T07:32:20.938Z</time></trkpt><trkpt lat="44.2910681" lon="9.9516594"><ele>133.0</ele><time>2026-04-26T07:32:22.937Z</time></trkpt><trkpt lat="44.2912256" lon="9.9516863"><ele>133.0</ele><time>2026-04-26T07:32:23.938Z</time></trkpt><trkpt lat="44.2913925" lon="9.9517036"><ele>133.0</ele><time>2026-04-26T07:32:24.938Z</time></trkpt><trkpt lat="44.2915614" lon="9.9517294"><ele>131.0</ele><time>2026-04-26T07:32:25.938Z</time></trkpt><trkpt lat="44.2917231" lon="9.9517633"><ele>129.0</ele><time>2026-04-26T07:32:26.938Z</time></trkpt><trkpt lat="44.2918849" lon="9.951792"><ele>127.0</ele><time>2026-04-26T07:32:27.938Z</time></trkpt><trkpt lat="44.2920536" lon="9.951796"><ele>127.0</ele><time>2026-04-26T07:32:28.938Z</time></trkpt><trkpt lat="44.2922189" lon="9.9517801"><ele>127.0</ele><time>2026-04-26T07:32:29.938Z</time></trkpt><trkpt lat="44.2923917" lon="9.951746"><ele>127.0</ele><time>2026-04-26T07:32:30.937Z</time></trkpt><trkpt lat="44.292563" lon="9.9516976"><ele>127.33333333333334</ele><time>2026-04-26T07:32:31.938Z</time></trkpt><trkpt lat="44.292736" lon="9.9516372"><ele>127.66666666666666</ele><time>2026-04-26T07:32:32.938Z</time></trkpt><trkpt lat="44.2929091" lon="9.9515719"><ele>128.0</ele><time>2026-04-26T07:32:33.938Z</time></trkpt><trkpt lat="44.293086" lon="9.9515013"><ele>128.33333333333331</ele><time>2026-04-26T07:32:34.938Z</time></trkpt><trkpt lat="44.2932592" lon="9.9514381"><ele>128.66666666666666</ele><time>2026-04-26T07:32:35.938Z</time></trkpt><trkpt lat="44.2934288" lon="9.9513847"><ele>129.0</ele><time>2026-04-26T07:32:36.938Z</time></trkpt><trkpt lat="44.293594" lon="9.9513355"><ele>129.0</ele><time>2026-04-26T07:32:37.938Z</time></trkpt><trkpt lat="44.293761" lon="9.9512793"><ele>129.0</ele><time>2026-04-26T07:32:38.937Z</time></trkpt><trkpt lat="44.2939345" lon="9.9512187"><ele>129.0</ele><time>2026-04-26T07:32:39.938Z</time></trkpt><trkpt lat="44.294116" lon="9.9511588"><ele>131.0</ele><time>2026-04-26T07:32:40.938Z</time></trkpt><trkpt lat="44.2942869" lon="9.9510983"><ele>133.0</ele><time>2026-04-26T07:32:41.938Z</time></trkpt><trkpt lat="44.2945625" lon="9.950995"><ele>133.0</ele><time>2026-04-26T07:32:43.938Z</time></trkpt><trkpt lat="44.2946747" lon="9.9509497"><ele>133.0</ele><time>2026-04-26T07:32:44.938Z</time></trkpt><trkpt lat="44.2947695" lon="9.9509172"><ele>133.0</ele><time>2026-04-26T07:32:45.938Z</time></trkpt><trkpt lat="44.2948572" lon="9.9508901"><ele>133.0</ele><time>2026-04-26T07:32:46.937Z</time></trkpt><trkpt lat="44.2949309" lon="9.9508679"><ele>133.0</ele><time>2026-04-26T07:32:47.938Z</time></trkpt><trkpt lat="44.2949978" lon="9.9508471"><ele>133.0</ele><time>2026-04-26T07:32:48.938Z</time></trkpt><trkpt lat="44.2950744" lon="9.9508268"><ele>134.0</ele><time>2026-04-26T07:32:50.938Z</time></trkpt><trkpt lat="44.295211" lon="9.9507643"><ele>135.0</ele><time>2026-04-26T07:33:16.938Z</time></trkpt><trkpt lat="44.2954722" lon="9.9506693"><ele>136.0</ele><time>2026-04-26T07:33:18.937Z</time></trkpt><trkpt lat="44.2956202" lon="9.950604"><ele>137.33333333333334</ele><time>2026-04-26T07:33:19.938Z</time></trkpt><trkpt lat="44.2957637" lon="9.9505252"><ele>138.66666666666666</ele><time>2026-04-26T07:33:20.938Z</time></trkpt><trkpt lat="44.2959102" lon="9.9504152"><ele>140.0</ele><time>2026-04-26T07:33:21.938Z</time></trkpt><trkpt lat="44.2960458" lon="9.9502752"><ele>140.0</ele><time>2026-04-26T07:33:22.938Z</time></trkpt><trkpt lat="44.2961728" lon="9.9501256"><ele>140.0</ele><time>2026-04-26T07:33:23.938Z</time></trkpt><trkpt lat="44.2963087" lon="9.9499685"><ele>140.0</ele><time>2026-04-26T07:33:24.938Z</time></trkpt><trkpt lat="44.296461" lon="9.9498272"><ele>140.66666666666666</ele><time>2026-04-26T07:33:25.938Z</time></trkpt><trkpt lat="44.2966216" lon="9.9497091"><ele>141.33333333333334</ele><time>2026-04-26T07:33:26.937Z</time></trkpt><trkpt lat="44.2967956" lon="9.9496119"><ele>142.0</ele><time>2026-04-26T07:33:27.938Z</time></trkpt><trkpt lat="44.2969689" lon="9.9495351"><ele>142.0</ele><time>2026-04-26T07:33:28.937Z</time></trkpt><trkpt lat="44.2971416" lon="9.9494602"><ele>142.0</ele><time>2026-04-26T07:33:29.937Z</time></trkpt><trkpt lat="44.2973256" lon="9.9493714"><ele>142.0</ele><time>2026-04-26T07:33:30.938Z</time></trkpt><trkpt lat="44.2975081" lon="9.9492834"><ele>142.33333333333334</ele><time>2026-04-26T07:33:31.938Z</time></trkpt><trkpt lat="44.2976919" lon="9.9491949"><ele>142.66666666666666</ele><time>2026-04-26T07:33:32.938Z</time></trkpt><trkpt lat="44.2978886" lon="9.9491155"><ele>143.0</ele><time>2026-04-26T07:33:33.937Z</time></trkpt><trkpt lat="44.2980906" lon="9.9490763"><ele>143.0</ele><time>2026-04-26T07:33:34.938Z</time></trkpt><trkpt lat="44.298298" lon="9.9490513"><ele>143.0</ele><time>2026-04-26T07:33:35.938Z</time></trkpt><trkpt lat="44.2984958" lon="9.9490379"><ele>143.0</ele><time>2026-04-26T07:33:36.938Z</time></trkpt><trkpt lat="44.2987026" lon="9.9490203"><ele>142.5</ele><time>2026-04-26T07:33:37.938Z</time></trkpt><trkpt lat="44.2991047" lon="9.9489759"><ele>142.0</ele><time>2026-04-26T07:33:39.938Z</time></trkpt><trkpt lat="44.2993114" lon="9.9489551"><ele>142.0</ele><time>2026-04-26T07:33:40.938Z</time></trkpt><trkpt lat="44.2995152" lon="9.948928"><ele>142.0</ele><time>2026-04-26T07:33:41.937Z</time></trkpt><trkpt lat="44.2997245" lon="9.948894"><ele>142.0</ele><time>2026-04-26T07:33:42.938Z</time></trkpt><trkpt lat="44.2999328" lon="9.9488512"><ele>141.66666666666669</ele><time>2026-04-26T07:33:43.938Z</time></trkpt><trkpt lat="44.30014" lon="9.9487838"><ele>141.33333333333334</ele><time>2026-04-26T07:33:44.937Z</time></trkpt><trkpt lat="44.3003466" lon="9.9487154"><ele>141.0</ele><time>2026-04-26T07:33:45.938Z</time></trkpt><trkpt lat="44.3005532" lon="9.9486526"><ele>141.33333333333334</ele><time>2026-04-26T07:33:46.937Z</time></trkpt><trkpt lat="44.3007568" lon="9.9485887"><ele>141.66666666666669</ele><time>2026-04-26T07:33:47.938Z</time></trkpt><trkpt lat="44.3009597" lon="9.9485091"><ele>142.0</ele><time>2026-04-26T07:33:48.938Z</time></trkpt><trkpt lat="44.3011602" lon="9.9484255"><ele>142.0</ele><time>2026-04-26T07:33:49.938Z</time></trkpt><trkpt lat="44.3013631" lon="9.9483534"><ele>142.0</ele><time>2026-04-26T07:33:50.938Z</time></trkpt><trkpt lat="44.3015709" lon="9.9482815"><ele>142.0</ele><time>2026-04-26T07:33:51.938Z</time></trkpt><trkpt lat="44.3017797" lon="9.9482034"><ele>143.0</ele><time>2026-04-26T07:33:52.938Z</time></trkpt><trkpt lat="44.3019836" lon="9.9481124"><ele>144.0</ele><time>2026-04-26T07:33:53.938Z</time></trkpt><trkpt lat="44.3021914" lon="9.9480356"><ele>145.0</ele><time>2026-04-26T07:33:54.938Z</time></trkpt><trkpt lat="44.3024003" lon="9.9479567"><ele>145.0</ele><time>2026-04-26T07:33:55.937Z</time></trkpt><trkpt lat="44.3026188" lon="9.9478917"><ele>145.0</ele><time>2026-04-26T07:33:56.938Z</time></trkpt><trkpt lat="44.3028364" lon="9.9478302"><ele>145.0</ele><time>2026-04-26T07:33:57.938Z</time></trkpt><trkpt lat="44.3030603" lon="9.9477695"><ele>146.0</ele><time>2026-04-26T07:33:58.938Z</time></trkpt><trkpt lat="44.3035117" lon="9.9476327"><ele>146.0</ele><time>2026-04-26T07:34:00.938Z</time></trkpt><trkpt lat="44.3037441" lon="9.9475696"><ele>146.0</ele><time>2026-04-26T07:34:01.938Z</time></trkpt><trkpt lat="44.3039763" lon="9.9475077"><ele>145.0</ele><time>2026-04-26T07:34:02.938Z</time></trkpt><trkpt lat="44.3042094" lon="9.9474413"><ele>144.0</ele><time>2026-04-26T07:34:03.937Z</time></trkpt><trkpt lat="44.3044415" lon="9.9473772"><ele>144.0</ele><time>2026-04-26T07:34:04.938Z</time></trkpt><trkpt lat="44.304673" lon="9.9473125"><ele>144.0</ele><time>2026-04-26T07:34:05.937Z</time></trkpt><trkpt lat="44.3049077" lon="9.947255"><ele>145.0</ele><time>2026-04-26T07:34:06.938Z</time></trkpt><trkpt lat="44.3051346" lon="9.9471925"><ele>146.0</ele><time>2026-04-26T07:34:07.938Z</time></trkpt><trkpt lat="44.3053531" lon="9.9471163"><ele>146.0</ele><time>2026-04-26T07:34:08.938Z</time></trkpt><trkpt lat="44.3055715" lon="9.9470189"><ele>146.0</ele><time>2026-04-26T07:34:09.938Z</time></trkpt><trkpt lat="44.3057826" lon="9.94691"><ele>146.0</ele><time>2026-04-26T07:34:10.938Z</time></trkpt><trkpt lat="44.3059894" lon="9.9467949"><ele>146.0</ele><time>2026-04-26T07:34:11.938Z</time></trkpt><trkpt lat="44.3061931" lon="9.9466802"><ele>146.0</ele><time>2026-04-26T07:34:12.938Z</time></trkpt><trkpt lat="44.3063958" lon="9.9465853"><ele>145.0</ele><time>2026-04-26T07:34:13.937Z</time></trkpt><trkpt lat="44.3065972" lon="9.9465318"><ele>144.0</ele><time>2026-04-26T07:34:14.938Z</time></trkpt><trkpt lat="44.3068013" lon="9.946529"><ele>143.0</ele><time>2026-04-26T07:34:15.937Z</time></trkpt><trkpt lat="44.3070026" lon="9.9465613"><ele>143.0</ele><time>2026-04-26T07:34:16.938Z</time></trkpt><trkpt lat="44.3072095" lon="9.9465905"><ele>143.0</ele><time>2026-04-26T07:34:17.938Z</time></trkpt><trkpt lat="44.3074212" lon="9.9466161"><ele>143.0</ele><time>2026-04-26T07:34:18.938Z</time></trkpt><trkpt lat="44.3076402" lon="9.9466373"><ele>143.0</ele><time>2026-04-26T07:34:19.937Z</time></trkpt><trkpt lat="44.3080975" lon="9.946615"><ele>143.0</ele><time>2026-04-26T07:34:21.938Z</time></trkpt><trkpt lat="44.3083314" lon="9.946563"><ele>143.0</ele><time>2026-04-26T07:34:22.938Z</time></trkpt><trkpt lat="44.3085632" lon="9.9465124"><ele>143.0</ele><time>2026-04-26T07:34:23.938Z</time></trkpt><trkpt lat="44.3087882" lon="9.9464792"><ele>143.0</ele><time>2026-04-26T07:34:24.938Z</time></trkpt><trkpt lat="44.3090171" lon="9.9464636"><ele>142.5</ele><time>2026-04-26T07:34:25.938Z</time></trkpt><trkpt lat="44.3092469" lon="9.946471"><ele>142.0</ele><time>2026-04-26T07:34:26.938Z</time></trkpt><trkpt lat="44.3094792" lon="9.9465056"><ele>142.0</ele><time>2026-04-26T07:34:27.937Z</time></trkpt><trkpt lat="44.3097097" lon="9.9465435"><ele>142.0</ele><time>2026-04-26T07:34:28.938Z</time></trkpt><trkpt lat="44.3099381" lon="9.9465872"><ele>142.0</ele><time>2026-04-26T07:34:29.937Z</time></trkpt><trkpt lat="44.3101621" lon="9.9466274"><ele>142.0</ele><time>2026-04-26T07:34:30.937Z</time></trkpt><trkpt lat="44.3103864" lon="9.9466686"><ele>141.33333333333334</ele><time>2026-04-26T07:34:31.938Z</time></trkpt><trkpt lat="44.3106047" lon="9.9467098"><ele>140.66666666666666</ele><time>2026-04-26T07:34:32.938Z</time></trkpt><trkpt lat="44.3108295" lon="9.9467378"><ele>140.0</ele><time>2026-04-26T07:34:33.938Z</time></trkpt><trkpt lat="44.3110375" lon="9.9467282"><ele>140.0</ele><time>2026-04-26T07:34:34.938Z</time></trkpt><trkpt lat="44.3112418" lon="9.9466622"><ele>140.0</ele><time>2026-04-26T07:34:35.938Z</time></trkpt><trkpt lat="44.311431" lon="9.9465378"><ele>140.0</ele><time>2026-04-26T07:34:36.938Z</time></trkpt><trkpt lat="44.3116186" lon="9.9463614"><ele>140.0</ele><time>2026-04-26T07:34:37.938Z</time></trkpt><trkpt lat="44.3118078" lon="9.9461939"><ele>140.0</ele><time>2026-04-26T07:34:38.938Z</time></trkpt><trkpt lat="44.3120046" lon="9.9460637"><ele>140.0</ele><time>2026-04-26T07:34:39.938Z</time></trkpt><trkpt lat="44.3122124" lon="9.9459585"><ele>139.5</ele><time>2026-04-26T07:34:40.938Z</time></trkpt><trkpt lat="44.3126357" lon="9.9457763"><ele>139.0</ele><time>2026-04-26T07:34:42.938Z</time></trkpt><trkpt lat="44.3128438" lon="9.9456905"><ele>139.0</ele><time>2026-04-26T07:34:43.938Z</time></trkpt><trkpt lat="44.3130509" lon="9.9455953"><ele>139.0</ele><time>2026-04-26T07:34:44.937Z</time></trkpt><trkpt lat="44.3132625" lon="9.9455001"><ele>139.0</ele><time>2026-04-26T07:34:45.938Z</time></trkpt><trkpt lat="44.3134721" lon="9.9454085"><ele>139.0</ele><time>2026-04-26T07:34:46.937Z</time></trkpt><trkpt lat="44.3136809" lon="9.9453179"><ele>139.0</ele><time>2026-04-26T07:34:47.938Z</time></trkpt><trkpt lat="44.313892" lon="9.9452265"><ele>139.0</ele><time>2026-04-26T07:34:48.938Z</time></trkpt><trkpt lat="44.3141038" lon="9.9451362"><ele>138.33333333333334</ele><time>2026-04-26T07:34:49.938Z</time></trkpt><trkpt lat="44.3143157" lon="9.9450407"><ele>137.66666666666666</ele><time>2026-04-26T07:34:50.937Z</time></trkpt><trkpt lat="44.3145297" lon="9.9449469"><ele>137.0</ele><time>2026-04-26T07:34:51.938Z</time></trkpt><trkpt lat="44.314743" lon="9.9448561"><ele>137.0</ele><time>2026-04-26T07:34:52.938Z</time></trkpt><trkpt lat="44.3149503" lon="9.944761"><ele>137.0</ele><time>2026-04-26T07:34:53.938Z</time></trkpt><trkpt lat="44.3151437" lon="9.9446754"><ele>137.0</ele><time>2026-04-26T07:34:54.938Z</time></trkpt><trkpt lat="44.3153217" lon="9.9445911"><ele>137.0</ele><time>2026-04-26T07:34:55.938Z</time></trkpt><trkpt lat="44.3154845" lon="9.9445189"><ele>137.0</ele><time>2026-04-26T07:34:56.938Z</time></trkpt><trkpt lat="44.3156449" lon="9.944451"><ele>137.0</ele><time>2026-04-26T07:34:57.938Z</time></trkpt><trkpt lat="44.3157901" lon="9.9443914"><ele>137.5</ele><time>2026-04-26T07:34:58.937Z</time></trkpt><trkpt lat="44.3159237" lon="9.9443292"><ele>138.0</ele><time>2026-04-26T07:34:59.937Z</time></trkpt><trkpt lat="44.3160331" lon="9.9442781"><ele>138.5</ele><time>2026-04-26T07:35:00.938Z</time></trkpt><trkpt lat="44.3161169" lon="9.9442422"><ele>139.0</ele><time>2026-04-26T07:35:01.938Z</time></trkpt><trkpt lat="44.316176" lon="9.9440373"><ele>139.0</ele><time>2026-04-26T07:35:05.937Z</time></trkpt><trkpt lat="44.3161331" lon="9.9439552"><ele>139.0</ele><time>2026-04-26T07:35:07.938Z</time></trkpt><trkpt lat="44.3160974" lon="9.9438642"><ele>139.0</ele><time>2026-04-26T07:35:11.938Z</time></trkpt><trkpt lat="44.3161107" lon="9.9437506"><ele>139.0</ele><time>2026-04-26T07:36:43.938Z</time></trkpt><trkpt lat="44.3160133" lon="9.9435493"><ele>139.0</ele><time>2026-04-26T07:36:47.938Z</time></trkpt><trkpt lat="44.3159753" lon="9.943402"><ele>139.0</ele><time>2026-04-26T07:36:49.938Z</time></trkpt><trkpt lat="44.3159376" lon="9.9432647"><ele>139.0</ele><time>2026-04-26T07:36:51.938Z</time></trkpt><trkpt lat="44.3159022" lon="9.9431585"><ele>139.0</ele><time>2026-04-26T07:36:53.938Z</time></trkpt><trkpt lat="44.3158781" lon="9.9430715"><ele>139.0</ele><time>2026-04-26T07:36:55.938Z</time></trkpt><trkpt lat="44.3158516" lon="9.942966"><ele>139.0</ele><time>2026-04-26T07:36:58.938Z</time></trkpt><trkpt lat="44.3158458" lon="9.9428491"><ele>139.0</ele><time>2026-04-26T07:37:01.938Z</time></trkpt><trkpt lat="44.3158477" lon="9.9426974"><ele>138.8</ele><time>2026-04-26T07:38:00.938Z</time></trkpt><trkpt lat="44.3157913" lon="9.942428"><ele>138.60000000000002</ele><time>2026-04-26T07:38:03.938Z</time></trkpt><trkpt lat="44.3157679" lon="9.9423206"><ele>138.4</ele><time>2026-04-26T07:38:04.938Z</time></trkpt><trkpt lat="44.3157411" lon="9.9422209"><ele>138.20000000000002</ele><time>2026-04-26T07:38:05.937Z</time></trkpt><trkpt lat="44.315711" lon="9.9421435"><ele>138.0</ele><time>2026-04-26T07:38:06.938Z</time></trkpt><trkpt lat="44.3156793" lon="9.9420018"><ele>138.0</ele><time>2026-04-26T07:38:08.938Z</time></trkpt><trkpt lat="44.3156523" lon="9.941891"><ele>138.0</ele><time>2026-04-26T07:38:10.938Z</time></trkpt><trkpt lat="44.31563" lon="9.9418054"><ele>138.0</ele><time>2026-04-26T07:38:12.938Z</time></trkpt><trkpt lat="44.3156066" lon="9.9416673"><ele>138.0</ele><time>2026-04-26T07:38:14.938Z</time></trkpt><trkpt lat="44.3155864" lon="9.9415648"><ele>138.0</ele><time>2026-04-26T07:38:15.938Z</time></trkpt><trkpt lat="44.315576" lon="9.9414589"><ele>138.0</ele><time>2026-04-26T07:38:16.938Z</time></trkpt><trkpt lat="44.3155743" lon="9.9413323"><ele>137.8</ele><time>2026-04-26T07:38:17.938Z</time></trkpt><trkpt lat="44.3155721" lon="9.9411857"><ele>137.60000000000002</ele><time>2026-04-26T07:38:18.938Z</time></trkpt><trkpt lat="44.3155709" lon="9.9410264"><ele>137.39999999999998</ele><time>2026-04-26T07:38:19.937Z</time></trkpt><trkpt lat="44.3155567" lon="9.9408764"><ele>137.2</ele><time>2026-04-26T07:38:20.938Z</time></trkpt><trkpt lat="44.3155373" lon="9.9407379"><ele>137.0</ele><time>2026-04-26T07:38:21.938Z</time></trkpt><trkpt lat="44.3154893" lon="9.9404683"><ele>137.6</ele><time>2026-04-26T07:38:23.938Z</time></trkpt><trkpt lat="44.3154665" lon="9.9403321"><ele>138.2</ele><time>2026-04-26T07:38:24.937Z</time></trkpt><trkpt lat="44.3154284" lon="9.9401999"><ele>138.8</ele><time>2026-04-26T07:38:25.938Z</time></trkpt><trkpt lat="44.3153857" lon="9.9400734"><ele>139.4</ele><time>2026-04-26T07:38:26.937Z</time></trkpt><trkpt lat="44.3153387" lon="9.9399612"><ele>140.0</ele><time>2026-04-26T07:38:27.938Z</time></trkpt><trkpt lat="44.3152917" lon="9.9398573"><ele>140.0</ele><time>2026-04-26T07:38:28.938Z</time></trkpt><trkpt lat="44.3152431" lon="9.9397689"><ele>140.0</ele><time>2026-04-26T07:38:29.938Z</time></trkpt><trkpt lat="44.315195" lon="9.9396913"><ele>140.0</ele><time>2026-04-26T07:38:30.938Z</time></trkpt><trkpt lat="44.3151433" lon="9.9395554"><ele>140.0</ele><time>2026-04-26T07:38:32.938Z</time></trkpt><trkpt lat="44.315145" lon="9.9393958"><ele>140.0</ele><time>2026-04-26T07:38:34.938Z</time></trkpt><trkpt lat="44.3151779" lon="9.9392885"><ele>139.8</ele><time>2026-04-26T07:38:35.938Z</time></trkpt><trkpt lat="44.3152264" lon="9.9391749"><ele>139.6</ele><time>2026-04-26T07:38:36.938Z</time></trkpt><trkpt lat="44.315289" lon="9.9390726"><ele>139.4</ele><time>2026-04-26T07:38:37.938Z</time></trkpt><trkpt lat="44.3153609" lon="9.9389726"><ele>139.2</ele><time>2026-04-26T07:38:38.938Z</time></trkpt><trkpt lat="44.3154347" lon="9.9388827"><ele>139.0</ele><time>2026-04-26T07:38:39.938Z</time></trkpt><trkpt lat="44.3155177" lon="9.9387897"><ele>139.0</ele><time>2026-04-26T07:38:40.938Z</time></trkpt><trkpt lat="44.3155966" lon="9.9386791"><ele>139.0</ele><time>2026-04-26T07:38:41.937Z</time></trkpt><trkpt lat="44.3156606" lon="9.938577"><ele>139.0</ele><time>2026-04-26T07:38:42.937Z</time></trkpt><trkpt lat="44.3157996" lon="9.9383806"><ele>139.0</ele><time>2026-04-26T07:38:44.937Z</time></trkpt><trkpt lat="44.3158848" lon="9.9383058"><ele>139.2</ele><time>2026-04-26T07:38:45.937Z</time></trkpt><trkpt lat="44.3159746" lon="9.9382453"><ele>139.4</ele><time>2026-04-26T07:38:46.938Z</time></trkpt><trkpt lat="44.3160599" lon="9.938176"><ele>139.6</ele><time>2026-04-26T07:38:47.938Z</time></trkpt><trkpt lat="44.3161357" lon="9.9381021"><ele>139.8</ele><time>2026-04-26T07:38:48.938Z</time></trkpt><trkpt lat="44.3162133" lon="9.9380311"><ele>140.0</ele><time>2026-04-26T07:38:49.937Z</time></trkpt><trkpt lat="44.3162807" lon="9.9379532"><ele>140.0</ele><time>2026-04-26T07:38:50.938Z</time></trkpt><trkpt lat="44.3163377" lon="9.937864"><ele>140.0</ele><time>2026-04-26T07:38:51.938Z</time></trkpt><trkpt lat="44.3163952" lon="9.9377557"><ele>140.0</ele><time>2026-04-26T07:38:52.938Z</time></trkpt><trkpt lat="44.3164485" lon="9.9376535"><ele>140.0</ele><time>2026-04-26T07:38:53.938Z</time></trkpt><trkpt lat="44.3164927" lon="9.9375586"><ele>140.0</ele><time>2026-04-26T07:38:54.938Z</time></trkpt><trkpt lat="44.316521" lon="9.9374469"><ele>140.0</ele><time>2026-04-26T07:38:55.938Z</time></trkpt><trkpt lat="44.3165456" lon="9.9373376"><ele>139.83333333333331</ele><time>2026-04-26T07:38:56.937Z</time></trkpt><trkpt lat="44.3165863" lon="9.9372507"><ele>139.66666666666666</ele><time>2026-04-26T07:38:57.938Z</time></trkpt><trkpt lat="44.3166538" lon="9.9371912"><ele>139.5</ele><time>2026-04-26T07:38:58.938Z</time></trkpt><trkpt lat="44.31674" lon="9.9371632"><ele>139.33333333333334</ele><time>2026-04-26T07:38:59.938Z</time></trkpt><trkpt lat="44.3168372" lon="9.9371627"><ele>139.16666666666669</ele><time>2026-04-26T07:39:00.938Z</time></trkpt><trkpt lat="44.3169311" lon="9.9371909"><ele>139.0</ele><time>2026-04-26T07:39:01.938Z</time></trkpt><trkpt lat="44.3170122" lon="9.9372203"><ele>139.0</ele><time>2026-04-26T07:39:02.938Z</time></trkpt><trkpt lat="44.3170806" lon="9.9372308"><ele>139.0</ele><time>2026-04-26T07:39:03.938Z</time></trkpt><trkpt lat="44.3172832" lon="9.9372945"><ele>139.0</ele><time>2026-04-26T07:39:07.938Z</time></trkpt><trkpt lat="44.3173363" lon="9.9373493"><ele>139.0</ele><time>2026-04-26T07:39:10.938Z</time></trkpt><trkpt lat="44.3172583" lon="9.9372863"><ele>139.0</ele><time>2026-04-26T07:39:26.938Z</time></trkpt><trkpt lat="44.3170998" lon="9.9372289"><ele>139.0</ele><time>2026-04-26T07:40:29.938Z</time></trkpt><trkpt lat="44.3169611" lon="9.9372265"><ele>139.0</ele><time>2026-04-26T07:40:33.938Z</time></trkpt><trkpt lat="44.3168697" lon="9.9371862"><ele>139.0</ele><time>2026-04-26T07:40:36.938Z</time></trkpt><trkpt lat="44.316745" lon="9.9371702"><ele>139.0</ele><time>2026-04-26T07:40:38.938Z</time></trkpt><trkpt lat="44.3166519" lon="9.9371701"><ele>139.0</ele><time>2026-04-26T07:40:40.938Z</time></trkpt><trkpt lat="44.3166371" lon="9.9370827"><ele>139.0</ele><time>2026-04-26T07:40:43.937Z</time></trkpt><trkpt lat="44.3167117" lon="9.9370933"><ele>139.0</ele><time>2026-04-26T07:40:49.937Z</time></trkpt><trkpt lat="44.316765" lon="9.93716"><ele>139.0</ele><time>2026-04-26T07:40:51.938Z</time></trkpt><trkpt lat="44.31694" lon="9.9372033"><ele>139.0</ele><time>2026-04-26T07:40:54.937Z</time></trkpt><trkpt lat="44.31705" lon="9.9372417"><ele>139.0</ele><time>2026-04-26T07:40:56.938Z</time></trkpt><trkpt lat="44.31713" lon="9.9372233"><ele>139.0</ele><time>2026-04-26T07:40:58.938Z</time></trkpt><trkpt lat="44.31722" lon="9.9372283"><ele>139.0</ele><time>2026-04-26T07:41:48.938Z</time></trkpt><trkpt lat="44.3173533" lon="9.9372433"><ele>139.0</ele><time>2026-04-26T07:41:53.938Z</time></trkpt><trkpt lat="44.3173483" lon="9.937105"><ele>139.0</ele><time>2026-04-26T07:41:55.938Z</time></trkpt><trkpt lat="44.31734" lon="9.9370117"><ele>139.0</ele><time>2026-04-26T07:41:56.938Z</time></trkpt><trkpt lat="44.3173333" lon="9.9369133"><ele>139.0</ele><time>2026-04-26T07:41:57.938Z</time></trkpt><trkpt lat="44.3173167" lon="9.9367633"><ele>139.0</ele><time>2026-04-26T07:41:59.938Z</time></trkpt><trkpt lat="44.317345" lon="9.9366467"><ele>139.0</ele><time>2026-04-26T07:42:01.937Z</time></trkpt><trkpt lat="44.3174683" lon="9.9365467"><ele>139.0</ele><time>2026-04-26T07:42:03.938Z</time></trkpt><trkpt lat="44.317545" lon="9.9365"><ele>139.16666666666669</ele><time>2026-04-26T07:42:04.938Z</time></trkpt><trkpt lat="44.3176183" lon="9.936465"><ele>139.33333333333334</ele><time>2026-04-26T07:42:05.937Z</time></trkpt><trkpt lat="44.3176917" lon="9.9364417"><ele>139.5</ele><time>2026-04-26T07:42:06.938Z</time></trkpt><trkpt lat="44.31776" lon="9.9364383"><ele>139.66666666666666</ele><time>2026-04-26T07:42:07.938Z</time></trkpt><trkpt lat="44.3178317" lon="9.936445"><ele>139.83333333333331</ele><time>2026-04-26T07:42:08.938Z</time></trkpt><trkpt lat="44.3179083" lon="9.9364917"><ele>140.0</ele><time>2026-04-26T07:42:09.938Z</time></trkpt><trkpt lat="44.3180283" lon="9.9365683"><ele>140.0</ele><time>2026-04-26T07:42:11.937Z</time></trkpt><trkpt lat="44.3181" lon="9.9365933"><ele>140.0</ele><time>2026-04-26T07:42:12.938Z</time></trkpt><trkpt lat="44.3181767" lon="9.9366117"><ele>140.0</ele><time>2026-04-26T07:42:13.938Z</time></trkpt><trkpt lat="44.318255" lon="9.936625"><ele>140.0</ele><time>2026-04-26T07:42:14.937Z</time></trkpt><trkpt lat="44.3183317" lon="9.93664"><ele>140.0</ele><time>2026-04-26T07:42:15.938Z</time></trkpt><trkpt lat="44.3184167" lon="9.936655"><ele>140.0</ele><time>2026-04-26T07:42:16.938Z</time></trkpt><trkpt lat="44.318485" lon="9.9366817"><ele>139.66666666666666</ele><time>2026-04-26T07:42:17.938Z</time></trkpt><trkpt lat="44.318555" lon="9.93675"><ele>139.33333333333331</ele><time>2026-04-26T07:42:18.938Z</time></trkpt><trkpt lat="44.3186133" lon="9.936835"><ele>139.0</ele><time>2026-04-26T07:42:19.938Z</time></trkpt><trkpt lat="44.3186617" lon="9.9369433"><ele>138.66666666666666</ele><time>2026-04-26T07:42:20.938Z</time></trkpt><trkpt lat="44.3187117" lon="9.9370483"><ele>138.33333333333334</ele><time>2026-04-26T07:42:21.938Z</time></trkpt><trkpt lat="44.3187617" lon="9.93714"><ele>138.0</ele><time>2026-04-26T07:42:22.938Z</time></trkpt><trkpt lat="44.3188217" lon="9.93722"><ele>138.0</ele><time>2026-04-26T07:42:23.938Z</time></trkpt><trkpt lat="44.3188833" lon="9.9372833"><ele>138.0</ele><time>2026-04-26T07:42:24.938Z</time></trkpt><trkpt lat="44.31895" lon="9.9373383"><ele>138.0</ele><time>2026-04-26T07:42:25.938Z</time></trkpt><trkpt lat="44.3190133" lon="9.937375"><ele>138.0</ele><time>2026-04-26T07:42:26.937Z</time></trkpt><trkpt lat="44.31908" lon="9.93741"><ele>138.0</ele><time>2026-04-26T07:42:27.937Z</time></trkpt><trkpt lat="44.319155" lon="9.9374433"><ele>138.0</ele><time>2026-04-26T07:42:28.938Z</time></trkpt><trkpt lat="44.31924" lon="9.937485"><ele>138.6</ele><time>2026-04-26T07:42:29.938Z</time></trkpt><trkpt lat="44.31932" lon="9.93754"><ele>139.20000000000002</ele><time>2026-04-26T07:42:30.938Z</time></trkpt><trkpt lat="44.3194683" lon="9.9376233"><ele>139.8</ele><time>2026-04-26T07:42:32.938Z</time></trkpt><trkpt lat="44.319545" lon="9.937655"><ele>140.4</ele><time>2026-04-26T07:42:33.938Z</time></trkpt><trkpt lat="44.3196083" lon="9.9376967"><ele>141.0</ele><time>2026-04-26T07:42:34.937Z</time></trkpt><trkpt lat="44.3196683" lon="9.9377417"><ele>141.2</ele><time>2026-04-26T07:42:35.938Z</time></trkpt><trkpt lat="44.3197817" lon="9.937785"><ele>141.39999999999998</ele><time>2026-04-26T07:42:37.938Z</time></trkpt><trkpt lat="44.3198917" lon="9.937765"><ele>141.6</ele><time>2026-04-26T07:42:39.938Z</time></trkpt><trkpt lat="44.3199483" lon="9.9376933"><ele>141.79999999999998</ele><time>2026-04-26T07:42:41.938Z</time></trkpt><trkpt lat="44.3199383" lon="9.9375633"><ele>142.0</ele><time>2026-04-26T07:42:43.938Z</time></trkpt><trkpt lat="44.319925" lon="9.937465"><ele>142.0</ele><time>2026-04-26T07:42:44.938Z</time></trkpt><trkpt lat="44.3199283" lon="9.9373483"><ele>142.0</ele><time>2026-04-26T07:42:45.938Z</time></trkpt><trkpt lat="44.319935" lon="9.93721"><ele>142.0</ele><time>2026-04-26T07:42:46.938Z</time></trkpt><trkpt lat="44.3199433" lon="9.9370717"><ele>142.0</ele><time>2026-04-26T07:42:47.938Z</time></trkpt><trkpt lat="44.3199517" lon="9.9369417"><ele>142.0</ele><time>2026-04-26T07:42:48.938Z</time></trkpt><trkpt lat="44.3199833" lon="9.9368317"><ele>142.0</ele><time>2026-04-26T07:42:49.938Z</time></trkpt><trkpt lat="44.3200333" lon="9.93672"><ele>142.0</ele><time>2026-04-26T07:42:50.938Z</time></trkpt><trkpt lat="44.3200933" lon="9.9366"><ele>142.0</ele><time>2026-04-26T07:42:51.938Z</time></trkpt><trkpt lat="44.320225" lon="9.9363517"><ele>142.0</ele><time>2026-04-26T07:42:53.938Z</time></trkpt><trkpt lat="44.3202833" lon="9.9362"><ele>141.75</ele><time>2026-04-26T07:42:54.938Z</time></trkpt><trkpt lat="44.3203433" lon="9.9360567"><ele>141.5</ele><time>2026-04-26T07:42:55.938Z</time></trkpt><trkpt lat="44.3203983" lon="9.9358983"><ele>141.25</ele><time>2026-04-26T07:42:56.938Z</time></trkpt><trkpt lat="44.3204617" lon="9.93575"><ele>141.0</ele><time>2026-04-26T07:42:57.937Z</time></trkpt><trkpt lat="44.3205217" lon="9.9356017"><ele>141.75</ele><time>2026-04-26T07:42:58.938Z</time></trkpt><trkpt lat="44.3205883" lon="9.9354633"><ele>142.5</ele><time>2026-04-26T07:42:59.938Z</time></trkpt><trkpt lat="44.3206583" lon="9.93532"><ele>143.25</ele><time>2026-04-26T07:43:00.938Z</time></trkpt><trkpt lat="44.32072" lon="9.9351833"><ele>144.0</ele><time>2026-04-26T07:43:01.938Z</time></trkpt><trkpt lat="44.320775" lon="9.935035"><ele>144.0</ele><time>2026-04-26T07:43:02.937Z</time></trkpt><trkpt lat="44.3208433" lon="9.934895"><ele>144.0</ele><time>2026-04-26T07:43:03.938Z</time></trkpt><trkpt lat="44.3209017" lon="9.9347667"><ele>144.0</ele><time>2026-04-26T07:43:04.937Z</time></trkpt><trkpt lat="44.320955" lon="9.9346483"><ele>144.0</ele><time>2026-04-26T07:43:05.938Z</time></trkpt><trkpt lat="44.3210017" lon="9.9345317"><ele>144.0</ele><time>2026-04-26T07:43:06.938Z</time></trkpt><trkpt lat="44.3210317" lon="9.934425"><ele>144.0</ele><time>2026-04-26T07:43:07.938Z</time></trkpt><trkpt lat="44.3210533" lon="9.934305"><ele>144.0</ele><time>2026-04-26T07:43:08.938Z</time></trkpt><trkpt lat="44.3210733" lon="9.9341867"><ele>144.0</ele><time>2026-04-26T07:43:09.937Z</time></trkpt><trkpt lat="44.3211067" lon="9.9340717"><ele>144.0</ele><time>2026-04-26T07:43:10.937Z</time></trkpt><trkpt lat="44.321155" lon="9.9339533"><ele>144.0</ele><time>2026-04-26T07:43:11.938Z</time></trkpt><trkpt lat="44.32121" lon="9.9338417"><ele>144.0</ele><time>2026-04-26T07:43:12.938Z</time></trkpt><trkpt lat="44.321315" lon="9.9336033"><ele>144.0</ele><time>2026-04-26T07:43:14.937Z</time></trkpt><trkpt lat="44.3213533" lon="9.9334733"><ele>144.0</ele><time>2026-04-26T07:43:15.938Z</time></trkpt><trkpt lat="44.321375" lon="9.9333683"><ele>144.0</ele><time>2026-04-26T07:43:16.937Z</time></trkpt><trkpt lat="44.3213833" lon="9.933275"><ele>144.0</ele><time>2026-04-26T07:43:17.937Z</time></trkpt><trkpt lat="44.3214333" lon="9.9331567"><ele>144.0</ele><time>2026-04-26T07:43:19.937Z</time></trkpt><trkpt lat="44.3214833" lon="9.9331"><ele>144.0</ele><time>2026-04-26T07:43:20.937Z</time></trkpt><trkpt lat="44.3215383" lon="9.933035"><ele>144.0</ele><time>2026-04-26T07:43:21.937Z</time></trkpt><trkpt lat="44.3215817" lon="9.9329483"><ele>144.0</ele><time>2026-04-26T07:43:22.936Z</time></trkpt><trkpt lat="44.321615" lon="9.9328367"><ele>144.0</ele><time>2026-04-26T07:43:23.937Z</time></trkpt><trkpt lat="44.3216483" lon="9.932705"><ele>144.0</ele><time>2026-04-26T07:43:24.937Z</time></trkpt><trkpt lat="44.3216817" lon="9.9325683"><ele>144.16666666666666</ele><time>2026-04-26T07:43:25.937Z</time></trkpt><trkpt lat="44.3217167" lon="9.9324567"><ele>144.33333333333334</ele><time>2026-04-26T07:43:26.937Z</time></trkpt><trkpt lat="44.3217467" lon="9.9323683"><ele>144.5</ele><time>2026-04-26T07:43:27.937Z</time></trkpt><trkpt lat="44.32177" lon="9.93227"><ele>144.66666666666669</ele><time>2026-04-26T07:43:28.937Z</time></trkpt><trkpt lat="44.3217817" lon="9.9321667"><ele>144.83333333333334</ele><time>2026-04-26T07:43:29.937Z</time></trkpt><trkpt lat="44.3217967" lon="9.9320583"><ele>145.0</ele><time>2026-04-26T07:43:30.936Z</time></trkpt><trkpt lat="44.321825" lon="9.931935"><ele>145.0</ele><time>2026-04-26T07:43:31.936Z</time></trkpt><trkpt lat="44.3218633" lon="9.9318167"><ele>145.0</ele><time>2026-04-26T07:43:32.936Z</time></trkpt><trkpt lat="44.32191" lon="9.93169"><ele>145.0</ele><time>2026-04-26T07:43:33.937Z</time></trkpt><trkpt lat="44.32202" lon="9.9314683"><ele>145.0</ele><time>2026-04-26T07:43:35.937Z</time></trkpt><trkpt lat="44.322075" lon="9.9313633"><ele>145.0</ele><time>2026-04-26T07:43:36.937Z</time></trkpt><trkpt lat="44.32213" lon="9.9312783"><ele>145.0</ele><time>2026-04-26T07:43:37.937Z</time></trkpt><trkpt lat="44.3221967" lon="9.9312017"><ele>145.0</ele><time>2026-04-26T07:43:38.937Z</time></trkpt><trkpt lat="44.3222517" lon="9.93113"><ele>145.0</ele><time>2026-04-26T07:43:39.937Z</time></trkpt><trkpt lat="44.3223017" lon="9.9310633"><ele>145.0</ele><time>2026-04-26T07:43:40.937Z</time></trkpt><trkpt lat="44.322355" lon="9.9309233"><ele>145.0</ele><time>2026-04-26T07:43:42.937Z</time></trkpt><trkpt lat="44.3224067" lon="9.9308133"><ele>145.0</ele><time>2026-04-26T07:43:44.937Z</time></trkpt><trkpt lat="44.3224783" lon="9.93079"><ele>145.0</ele><time>2026-04-26T07:43:46.936Z</time></trkpt><trkpt lat="44.3225583" lon="9.930815"><ele>145.0</ele><time>2026-04-26T07:43:48.936Z</time></trkpt><trkpt lat="44.32266" lon="9.9309217"><ele>145.0</ele><time>2026-04-26T07:43:50.937Z</time></trkpt><trkpt lat="44.3227233" lon="9.93098"><ele>145.0</ele><time>2026-04-26T07:43:51.937Z</time></trkpt><trkpt lat="44.3227817" lon="9.9310367"><ele>145.0</ele><time>2026-04-26T07:43:52.937Z</time></trkpt><trkpt lat="44.322835" lon="9.9310967"><ele>145.0</ele><time>2026-04-26T07:43:53.936Z</time></trkpt><trkpt lat="44.32289" lon="9.9311583"><ele>145.0</ele><time>2026-04-26T07:43:54.937Z</time></trkpt><trkpt lat="44.3229867" lon="9.9312833"><ele>145.0</ele><time>2026-04-26T07:43:56.937Z</time></trkpt><trkpt lat="44.323035" lon="9.9313417"><ele>145.0</ele><time>2026-04-26T07:43:57.937Z</time></trkpt><trkpt lat="44.32309" lon="9.931415"><ele>145.0</ele><time>2026-04-26T07:43:58.937Z</time></trkpt><trkpt lat="44.32315" lon="9.9314883"><ele>145.0</ele><time>2026-04-26T07:43:59.937Z</time></trkpt><trkpt lat="44.3231983" lon="9.9315533"><ele>145.0</ele><time>2026-04-26T07:44:00.937Z</time></trkpt><trkpt lat="44.323255" lon="9.9316267"><ele>145.0</ele><time>2026-04-26T07:44:01.937Z</time></trkpt><trkpt lat="44.323315" lon="9.9316983"><ele>145.0</ele><time>2026-04-26T07:44:02.936Z</time></trkpt><trkpt lat="44.3233683" lon="9.9317617"><ele>145.0</ele><time>2026-04-26T07:44:03.937Z</time></trkpt><trkpt lat="44.32343" lon="9.931835"><ele>145.0</ele><time>2026-04-26T07:44:04.937Z</time></trkpt><trkpt lat="44.3234883" lon="9.9319117"><ele>145.0</ele><time>2026-04-26T07:44:05.937Z</time></trkpt><trkpt lat="44.3235433" lon="9.9319767"><ele>145.0</ele><time>2026-04-26T07:44:06.937Z</time></trkpt><trkpt lat="44.3235933" lon="9.9320483"><ele>145.0</ele><time>2026-04-26T07:44:07.937Z</time></trkpt><trkpt lat="44.3236883" lon="9.932165"><ele>145.0</ele><time>2026-04-26T07:44:09.936Z</time></trkpt><trkpt lat="44.323745" lon="9.9322133"><ele>145.0</ele><time>2026-04-26T07:44:10.937Z</time></trkpt><trkpt lat="44.323835" lon="9.9322283"><ele>145.0</ele><time>2026-04-26T07:44:12.937Z</time></trkpt><trkpt lat="44.323895" lon="9.932115"><ele>145.5</ele><time>2026-04-26T07:44:14.937Z</time></trkpt><trkpt lat="44.3239217" lon="9.9320217"><ele>146.0</ele><time>2026-04-26T07:44:15.937Z</time></trkpt><trkpt lat="44.3240617" lon="9.93181"><ele>146.5</ele><time>2026-04-26T07:44:19.936Z</time></trkpt><trkpt lat="44.3241133" lon="9.93165"><ele>147.0</ele><time>2026-04-26T07:44:21.937Z</time></trkpt><trkpt lat="44.3241433" lon="9.9315683"><ele>147.0</ele><time>2026-04-26T07:44:22.937Z</time></trkpt><trkpt lat="44.3241817" lon="9.9314817"><ele>147.0</ele><time>2026-04-26T07:44:23.936Z</time></trkpt><trkpt lat="44.3242167" lon="9.9313867"><ele>147.0</ele><time>2026-04-26T07:44:24.937Z</time></trkpt><trkpt lat="44.3242433" lon="9.9312933"><ele>147.0</ele><time>2026-04-26T07:44:25.937Z</time></trkpt><trkpt lat="44.324275" lon="9.9311967"><ele>147.0</ele><time>2026-04-26T07:44:26.936Z</time></trkpt><trkpt lat="44.324305" lon="9.9310967"><ele>147.0</ele><time>2026-04-26T07:44:27.936Z</time></trkpt><trkpt lat="44.324345" lon="9.93099"><ele>147.2</ele><time>2026-04-26T07:44:28.937Z</time></trkpt><trkpt lat="44.3243867" lon="9.93089"><ele>147.39999999999998</ele><time>2026-04-26T07:44:29.936Z</time></trkpt><trkpt lat="44.324425" lon="9.9307867"><ele>147.60000000000002</ele><time>2026-04-26T07:44:30.936Z</time></trkpt><trkpt lat="44.324465" lon="9.93068"><ele>147.8</ele><time>2026-04-26T07:44:31.937Z</time></trkpt><trkpt lat="44.3245083" lon="9.9305667"><ele>148.0</ele><time>2026-04-26T07:44:32.937Z</time></trkpt><trkpt lat="44.32456" lon="9.9304367"><ele>148.0</ele><time>2026-04-26T07:44:33.937Z</time></trkpt><trkpt lat="44.3246083" lon="9.93031"><ele>148.0</ele><time>2026-04-26T07:44:34.936Z</time></trkpt><trkpt lat="44.3246633" lon="9.9301933"><ele>148.0</ele><time>2026-04-26T07:44:35.937Z</time></trkpt><trkpt lat="44.32472" lon="9.9300917"><ele>148.0</ele><time>2026-04-26T07:44:36.937Z</time></trkpt><trkpt lat="44.3248317" lon="9.9298767"><ele>148.16666666666669</ele><time>2026-04-26T07:44:38.936Z</time></trkpt><trkpt lat="44.3248867" lon="9.9297767"><ele>148.33333333333334</ele><time>2026-04-26T07:44:39.937Z</time></trkpt><trkpt lat="44.32493" lon="9.929675"><ele>148.5</ele><time>2026-04-26T07:44:40.937Z</time></trkpt><trkpt lat="44.3249683" lon="9.9295817"><ele>148.66666666666666</ele><time>2026-04-26T07:44:41.936Z</time></trkpt><trkpt lat="44.3249967" lon="9.9294867"><ele>148.83333333333331</ele><time>2026-04-26T07:44:42.936Z</time></trkpt><trkpt lat="44.3250033" lon="9.9293217"><ele>149.0</ele><time>2026-04-26T07:44:44.937Z</time></trkpt><trkpt lat="44.3249367" lon="9.9292383"><ele>149.4</ele><time>2026-04-26T07:44:46.937Z</time></trkpt><trkpt lat="44.32483" lon="9.9291883"><ele>149.8</ele><time>2026-04-26T07:44:48.937Z</time></trkpt><trkpt lat="44.3247833" lon="9.92909"><ele>150.2</ele><time>2026-04-26T07:44:50.937Z</time></trkpt><trkpt lat="44.324825" lon="9.9289333"><ele>150.6</ele><time>2026-04-26T07:44:52.937Z</time></trkpt><trkpt lat="44.3248667" lon="9.9288333"><ele>151.0</ele><time>2026-04-26T07:44:53.937Z</time></trkpt><trkpt lat="44.324905" lon="9.9287117"><ele>151.0</ele><time>2026-04-26T07:44:54.937Z</time></trkpt><trkpt lat="44.3249383" lon="9.92858"><ele>151.0</ele><time>2026-04-26T07:44:55.937Z</time></trkpt><trkpt lat="44.3249783" lon="9.9284467"><ele>151.0</ele><time>2026-04-26T07:44:56.937Z</time></trkpt><trkpt lat="44.3250267" lon="9.9283133"><ele>151.0</ele><time>2026-04-26T07:44:57.937Z</time></trkpt><trkpt lat="44.325135" lon="9.9280533"><ele>151.0</ele><time>2026-04-26T07:44:59.937Z</time></trkpt><trkpt lat="44.3251867" lon="9.9279283"><ele>151.0</ele><time>2026-04-26T07:45:00.937Z</time></trkpt><trkpt lat="44.3252433" lon="9.927795"><ele>151.0</ele><time>2026-04-26T07:45:01.936Z</time></trkpt><trkpt lat="44.3252967" lon="9.9276667"><ele>151.0</ele><time>2026-04-26T07:45:02.936Z</time></trkpt><trkpt lat="44.3253533" lon="9.9275333"><ele>151.0</ele><time>2026-04-26T07:45:03.936Z</time></trkpt><trkpt lat="44.325415" lon="9.9273933"><ele>151.0</ele><time>2026-04-26T07:45:04.936Z</time></trkpt><trkpt lat="44.3254667" lon="9.927265"><ele>151.0</ele><time>2026-04-26T07:45:05.937Z</time></trkpt><trkpt lat="44.32552" lon="9.9271283"><ele>151.0</ele><time>2026-04-26T07:45:06.937Z</time></trkpt><trkpt lat="44.3255633" lon="9.9270067"><ele>151.0</ele><time>2026-04-26T07:45:07.937Z</time></trkpt><trkpt lat="44.3256133" lon="9.9269"><ele>151.0</ele><time>2026-04-26T07:45:08.936Z</time></trkpt><trkpt lat="44.325675" lon="9.9268067"><ele>151.0</ele><time>2026-04-26T07:45:09.936Z</time></trkpt><trkpt lat="44.32574" lon="9.926725"><ele>151.0</ele><time>2026-04-26T07:45:10.937Z</time></trkpt><trkpt lat="44.3258067" lon="9.9266633"><ele>151.0</ele><time>2026-04-26T07:45:11.937Z</time></trkpt><trkpt lat="44.3258683" lon="9.92661"><ele>151.0</ele><time>2026-04-26T07:45:12.937Z</time></trkpt><trkpt lat="44.3259267" lon="9.926555"><ele>151.0</ele><time>2026-04-26T07:45:13.937Z</time></trkpt><trkpt lat="44.3259783" lon="9.9265017"><ele>151.0</ele><time>2026-04-26T07:45:14.937Z</time></trkpt><trkpt lat="44.3260783" lon="9.9264"><ele>151.0</ele><time>2026-04-26T07:45:16.937Z</time></trkpt><trkpt lat="44.3261733" lon="9.926285"><ele>151.0</ele><time>2026-04-26T07:45:18.937Z</time></trkpt><trkpt lat="44.326275" lon="9.92616"><ele>151.0</ele><time>2026-04-26T07:45:20.937Z</time></trkpt><trkpt lat="44.3263233" lon="9.9261"><ele>151.0</ele><time>2026-04-26T07:45:21.937Z</time></trkpt><trkpt lat="44.3263867" lon="9.9260283"><ele>151.0</ele><time>2026-04-26T07:45:22.937Z</time></trkpt><trkpt lat="44.3264533" lon="9.9259533"><ele>151.0</ele><time>2026-04-26T07:45:23.937Z</time></trkpt><trkpt lat="44.3265283" lon="9.9258783"><ele>151.0</ele><time>2026-04-26T07:45:24.937Z</time></trkpt><trkpt lat="44.326605" lon="9.9257983"><ele>151.0</ele><time>2026-04-26T07:45:25.937Z</time></trkpt><trkpt lat="44.32668" lon="9.92572"><ele>151.0</ele><time>2026-04-26T07:45:26.937Z</time></trkpt><trkpt lat="44.3267583" lon="9.925645"><ele>151.0</ele><time>2026-04-26T07:45:27.937Z</time></trkpt><trkpt lat="44.3268383" lon="9.9255817"><ele>151.0</ele><time>2026-04-26T07:45:28.937Z</time></trkpt><trkpt lat="44.3269167" lon="9.9255383"><ele>151.0</ele><time>2026-04-26T07:45:29.937Z</time></trkpt><trkpt lat="44.32699" lon="9.9255233"><ele>151.0</ele><time>2026-04-26T07:45:30.937Z</time></trkpt><trkpt lat="44.3270567" lon="9.92553"><ele>151.0</ele><time>2026-04-26T07:45:31.937Z</time></trkpt><trkpt lat="44.3271217" lon="9.9255317"><ele>151.0</ele><time>2026-04-26T07:45:32.937Z</time></trkpt><trkpt lat="44.327225" lon="9.9254417"><ele>151.0</ele><time>2026-04-26T07:45:34.937Z</time></trkpt><trkpt lat="44.3272483" lon="9.9253367"><ele>151.2</ele><time>2026-04-26T07:45:35.937Z</time></trkpt><trkpt lat="44.3272683" lon="9.9252183"><ele>151.39999999999998</ele><time>2026-04-26T07:45:36.937Z</time></trkpt><trkpt lat="44.3272883" lon="9.9250683"><ele>151.6</ele><time>2026-04-26T07:45:37.937Z</time></trkpt><trkpt lat="44.3273233" lon="9.9249083"><ele>151.79999999999998</ele><time>2026-04-26T07:45:38.937Z</time></trkpt><trkpt lat="44.3273633" lon="9.9247517"><ele>152.0</ele><time>2026-04-26T07:45:39.937Z</time></trkpt><trkpt lat="44.3274517" lon="9.924465"><ele>152.25</ele><time>2026-04-26T07:45:41.937Z</time></trkpt><trkpt lat="44.3275" lon="9.9243233"><ele>152.5</ele><time>2026-04-26T07:45:42.937Z</time></trkpt><trkpt lat="44.3275533" lon="9.924175"><ele>152.75</ele><time>2026-04-26T07:45:43.937Z</time></trkpt><trkpt lat="44.3276083" lon="9.9240367"><ele>153.0</ele><time>2026-04-26T07:45:44.937Z</time></trkpt><trkpt lat="44.3276533" lon="9.923895"><ele>153.0</ele><time>2026-04-26T07:45:45.937Z</time></trkpt><trkpt lat="44.3276933" lon="9.9237617"><ele>153.0</ele><time>2026-04-26T07:45:46.937Z</time></trkpt><trkpt lat="44.327735" lon="9.9236317"><ele>153.0</ele><time>2026-04-26T07:45:47.937Z</time></trkpt><trkpt lat="44.32778" lon="9.9235"><ele>153.0</ele><time>2026-04-26T07:45:48.937Z</time></trkpt><trkpt lat="44.3278333" lon="9.9233717"><ele>153.0</ele><time>2026-04-26T07:45:49.937Z</time></trkpt><trkpt lat="44.3278817" lon="9.9232517"><ele>153.16666666666666</ele><time>2026-04-26T07:45:50.937Z</time></trkpt><trkpt lat="44.3279233" lon="9.9231417"><ele>153.33333333333334</ele><time>2026-04-26T07:45:51.937Z</time></trkpt><trkpt lat="44.327965" lon="9.9230383"><ele>153.5</ele><time>2026-04-26T07:45:52.937Z</time></trkpt><trkpt lat="44.32801" lon="9.9229417"><ele>153.66666666666669</ele><time>2026-04-26T07:45:53.937Z</time></trkpt><trkpt lat="44.3280517" lon="9.9228617"><ele>153.83333333333334</ele><time>2026-04-26T07:45:54.937Z</time></trkpt><trkpt lat="44.3281033" lon="9.9228033"><ele>154.0</ele><time>2026-04-26T07:45:55.936Z</time></trkpt><trkpt lat="44.3281667" lon="9.92277"><ele>154.0</ele><time>2026-04-26T07:45:56.937Z</time></trkpt><trkpt lat="44.3282417" lon="9.922765"><ele>154.0</ele><time>2026-04-26T07:45:57.937Z</time></trkpt><trkpt lat="44.328325" lon="9.922795"><ele>154.0</ele><time>2026-04-26T07:45:58.936Z</time></trkpt><trkpt lat="44.3284" lon="9.922855"><ele>154.0</ele><time>2026-04-26T07:45:59.936Z</time></trkpt><trkpt lat="44.3284733" lon="9.9229233"><ele>154.0</ele><time>2026-04-26T07:46:00.937Z</time></trkpt><trkpt lat="44.32864" lon="9.9230117"><ele>154.0</ele><time>2026-04-26T07:46:03.936Z</time></trkpt><trkpt lat="44.3287017" lon="9.922875"><ele>154.0</ele><time>2026-04-26T07:46:05.936Z</time></trkpt><trkpt lat="44.328735" lon="9.9227567"><ele>154.0</ele><time>2026-04-26T07:46:06.937Z</time></trkpt><trkpt lat="44.3287767" lon="9.9226267"><ele>154.0</ele><time>2026-04-26T07:46:07.937Z</time></trkpt><trkpt lat="44.3288267" lon="9.9224867"><ele>154.0</ele><time>2026-04-26T07:46:08.937Z</time></trkpt><trkpt lat="44.3288833" lon="9.92233"><ele>154.2</ele><time>2026-04-26T07:46:09.936Z</time></trkpt><trkpt lat="44.3289433" lon="9.9221767"><ele>154.4</ele><time>2026-04-26T07:46:10.937Z</time></trkpt><trkpt lat="44.3289917" lon="9.9220383"><ele>154.6</ele><time>2026-04-26T07:46:11.937Z</time></trkpt><trkpt lat="44.329035" lon="9.9219217"><ele>154.8</ele><time>2026-04-26T07:46:12.937Z</time></trkpt><trkpt lat="44.32907" lon="9.921805"><ele>155.0</ele><time>2026-04-26T07:46:13.936Z</time></trkpt><trkpt lat="44.3291083" lon="9.9216833"><ele>155.25</ele><time>2026-04-26T07:46:14.937Z</time></trkpt><trkpt lat="44.3291533" lon="9.9215467"><ele>155.5</ele><time>2026-04-26T07:46:15.937Z</time></trkpt><trkpt lat="44.3292067" lon="9.9214033"><ele>155.75</ele><time>2026-04-26T07:46:16.937Z</time></trkpt><trkpt lat="44.3292533" lon="9.921245"><ele>156.0</ele><time>2026-04-26T07:46:17.936Z</time></trkpt><trkpt lat="44.3293017" lon="9.9210833"><ele>156.0</ele><time>2026-04-26T07:46:18.937Z</time></trkpt><trkpt lat="44.329345" lon="9.920915"><ele>156.0</ele><time>2026-04-26T07:46:19.937Z</time></trkpt><trkpt lat="44.3293933" lon="9.9207517"><ele>156.0</ele><time>2026-04-26T07:46:20.937Z</time></trkpt><trkpt lat="44.3294433" lon="9.9205867"><ele>156.0</ele><time>2026-04-26T07:46:21.937Z</time></trkpt><trkpt lat="44.3295317" lon="9.9202383"><ele>156.75</ele><time>2026-04-26T07:46:23.937Z</time></trkpt><trkpt lat="44.3295667" lon="9.9200783"><ele>157.5</ele><time>2026-04-26T07:46:24.936Z</time></trkpt><trkpt lat="44.3296042" lon="9.9199166"><ele>158.25</ele><time>2026-04-26T07:46:25.936Z</time></trkpt><trkpt lat="44.329644" lon="9.9197433"><ele>159.0</ele><time>2026-04-26T07:46:26.937Z</time></trkpt><trkpt lat="44.3296837" lon="9.9195786"><ele>159.0</ele><time>2026-04-26T07:46:27.936Z</time></trkpt><trkpt lat="44.3297236" lon="9.9194196"><ele>159.0</ele><time>2026-04-26T07:46:28.937Z</time></trkpt><trkpt lat="44.3297674" lon="9.9192566"><ele>159.0</ele><time>2026-04-26T07:46:29.937Z</time></trkpt><trkpt lat="44.3298095" lon="9.919087"><ele>159.0</ele><time>2026-04-26T07:46:30.937Z</time></trkpt><trkpt lat="44.3298512" lon="9.9189299"><ele>159.0</ele><time>2026-04-26T07:46:31.937Z</time></trkpt><trkpt lat="44.3298941" lon="9.9187704"><ele>159.0</ele><time>2026-04-26T07:46:32.937Z</time></trkpt><trkpt lat="44.3299339" lon="9.9186049"><ele>159.0</ele><time>2026-04-26T07:46:33.937Z</time></trkpt><trkpt lat="44.3299742" lon="9.9184438"><ele>159.0</ele><time>2026-04-26T07:46:34.937Z</time></trkpt><trkpt lat="44.3300147" lon="9.918285"><ele>159.0</ele><time>2026-04-26T07:46:35.937Z</time></trkpt><trkpt lat="44.3300576" lon="9.918124"><ele>159.0</ele><time>2026-04-26T07:46:36.937Z</time></trkpt><trkpt lat="44.3300959" lon="9.9179832"><ele>159.0</ele><time>2026-04-26T07:46:37.937Z</time></trkpt><trkpt lat="44.3301272" lon="9.9178568"><ele>159.0</ele><time>2026-04-26T07:46:38.937Z</time></trkpt><trkpt lat="44.3301494" lon="9.9177539"><ele>159.0</ele><time>2026-04-26T07:46:39.937Z</time></trkpt><trkpt lat="44.3301768" lon="9.9176746"><ele>159.0</ele><time>2026-04-26T07:46:40.937Z</time></trkpt><trkpt lat="44.3302595" lon="9.9176299"><ele>159.0</ele><time>2026-04-26T07:46:42.937Z</time></trkpt><trkpt lat="44.3304431" lon="9.9177669"><ele>159.0</ele><time>2026-04-26T07:46:45.937Z</time></trkpt><trkpt lat="44.3305308" lon="9.9177417"><ele>159.0</ele><time>2026-04-26T07:46:47.937Z</time></trkpt><trkpt lat="44.3305749" lon="9.9175521"><ele>159.5</ele><time>2026-04-26T07:46:49.937Z</time></trkpt><trkpt lat="44.330598" lon="9.9174268"><ele>160.0</ele><time>2026-04-26T07:46:50.936Z</time></trkpt><trkpt lat="44.3306155" lon="9.917315"><ele>160.5</ele><time>2026-04-26T07:46:51.936Z</time></trkpt><trkpt lat="44.3306273" lon="9.9172241"><ele>161.0</ele><time>2026-04-26T07:46:52.937Z</time></trkpt><trkpt lat="44.3306641" lon="9.9170927"><ele>161.5</ele><time>2026-04-26T07:46:54.937Z</time></trkpt><trkpt lat="44.3307472" lon="9.9170953"><ele>162.0</ele><time>2026-04-26T07:46:56.936Z</time></trkpt><trkpt lat="44.3308032" lon="9.9171361"><ele>162.0</ele><time>2026-04-26T07:46:57.937Z</time></trkpt><trkpt lat="44.3308828" lon="9.9171936"><ele>162.0</ele><time>2026-04-26T07:46:58.936Z</time></trkpt><trkpt lat="44.3309688" lon="9.917247"><ele>162.0</ele><time>2026-04-26T07:46:59.937Z</time></trkpt><trkpt lat="44.3310636" lon="9.9173001"><ele>162.0</ele><time>2026-04-26T07:47:00.937Z</time></trkpt><trkpt lat="44.3311737" lon="9.9173619"><ele>162.0</ele><time>2026-04-26T07:47:01.937Z</time></trkpt><trkpt lat="44.331289" lon="9.9174254"><ele>162.0</ele><time>2026-04-26T07:47:02.936Z</time></trkpt><trkpt lat="44.3313791" lon="9.917475"><ele>162.0</ele><time>2026-04-26T07:47:03.937Z</time></trkpt><trkpt lat="44.3314308" lon="9.9173882"><ele>162.0</ele><time>2026-04-26T07:47:13.937Z</time></trkpt><trkpt lat="44.3314639" lon="9.9172347"><ele>162.0</ele><time>2026-04-26T07:47:15.937Z</time></trkpt><trkpt lat="44.3315041" lon="9.9171356"><ele>162.0</ele><time>2026-04-26T07:47:16.937Z</time></trkpt><trkpt lat="44.3315491" lon="9.9170196"><ele>161.83333333333334</ele><time>2026-04-26T07:47:17.936Z</time></trkpt><trkpt lat="44.3315879" lon="9.9169055"><ele>161.66666666666666</ele><time>2026-04-26T07:47:18.937Z</time></trkpt><trkpt lat="44.3316261" lon="9.9168045"><ele>161.5</ele><time>2026-04-26T07:47:19.937Z</time></trkpt><trkpt lat="44.3316669" lon="9.9167278"><ele>161.33333333333331</ele><time>2026-04-26T07:47:20.937Z</time></trkpt><trkpt lat="44.3317679" lon="9.9166539"><ele>161.16666666666666</ele><time>2026-04-26T07:47:22.937Z</time></trkpt><trkpt lat="44.3318342" lon="9.9166196"><ele>161.0</ele><time>2026-04-26T07:47:23.937Z</time></trkpt><trkpt lat="44.3318986" lon="9.9165527"><ele>161.0</ele><time>2026-04-26T07:47:24.937Z</time></trkpt><trkpt lat="44.3320169" lon="9.9163627"><ele>161.0</ele><time>2026-04-26T07:47:26.937Z</time></trkpt><trkpt lat="44.3320779" lon="9.9162552"><ele>161.0</ele><time>2026-04-26T07:47:27.936Z</time></trkpt><trkpt lat="44.3321307" lon="9.9161458"><ele>161.0</ele><time>2026-04-26T07:47:28.937Z</time></trkpt><trkpt lat="44.3321764" lon="9.9160303"><ele>161.0</ele><time>2026-04-26T07:47:29.937Z</time></trkpt><trkpt lat="44.3322269" lon="9.9159112"><ele>161.0</ele><time>2026-04-26T07:47:30.937Z</time></trkpt><trkpt lat="44.3322769" lon="9.9157955"><ele>161.0</ele><time>2026-04-26T07:47:31.937Z</time></trkpt><trkpt lat="44.3323244" lon="9.9156962"><ele>161.0</ele><time>2026-04-26T07:47:32.937Z</time></trkpt><trkpt lat="44.3323763" lon="9.9156136"><ele>161.0</ele><time>2026-04-26T07:47:33.937Z</time></trkpt><trkpt lat="44.3324292" lon="9.9155505"><ele>161.0</ele><time>2026-04-26T07:47:34.937Z</time></trkpt><trkpt lat="44.3324888" lon="9.9155219"><ele>161.33333333333331</ele><time>2026-04-26T07:47:35.937Z</time></trkpt><trkpt lat="44.3325568" lon="9.9155163"><ele>161.66666666666666</ele><time>2026-04-26T07:47:36.937Z</time></trkpt><trkpt lat="44.3326299" lon="9.9155437"><ele>162.0</ele><time>2026-04-26T07:47:37.937Z</time></trkpt><trkpt lat="44.332706" lon="9.9155951"><ele>162.33333333333334</ele><time>2026-04-26T07:47:38.937Z</time></trkpt><trkpt lat="44.3327886" lon="9.9156515"><ele>162.66666666666669</ele><time>2026-04-26T07:47:39.936Z</time></trkpt><trkpt lat="44.3328727" lon="9.9157078"><ele>163.0</ele><time>2026-04-26T07:47:40.937Z</time></trkpt><trkpt lat="44.332954" lon="9.9157648"><ele>163.0</ele><time>2026-04-26T07:47:41.937Z</time></trkpt><trkpt lat="44.3330221" lon="9.9158189"><ele>163.0</ele><time>2026-04-26T07:47:42.936Z</time></trkpt><trkpt lat="44.3330848" lon="9.915853"><ele>163.0</ele><time>2026-04-26T07:47:43.937Z</time></trkpt><trkpt lat="44.3331837" lon="9.9158547"><ele>163.0</ele><time>2026-04-26T07:47:45.936Z</time></trkpt><trkpt lat="44.3332722" lon="9.9156741"><ele>163.0</ele><time>2026-04-26T07:47:48.937Z</time></trkpt><trkpt lat="44.3333009" lon="9.9155637"><ele>163.2</ele><time>2026-04-26T07:47:49.937Z</time></trkpt><trkpt lat="44.3333341" lon="9.9154632"><ele>163.4</ele><time>2026-04-26T07:47:50.936Z</time></trkpt><trkpt lat="44.333364" lon="9.915373"><ele>163.6</ele><time>2026-04-26T07:47:51.937Z</time></trkpt><trkpt lat="44.3333836" lon="9.9152291"><ele>163.79999999999998</ele><time>2026-04-26T07:47:53.937Z</time></trkpt><trkpt lat="44.3333386" lon="9.9151162"><ele>164.0</ele><time>2026-04-26T07:47:55.936Z</time></trkpt><trkpt lat="44.3332283" lon="9.9150636"><ele>164.0</ele><time>2026-04-26T07:47:57.937Z</time></trkpt><trkpt lat="44.3331668" lon="9.9150282"><ele>164.0</ele><time>2026-04-26T07:47:58.937Z</time></trkpt><trkpt lat="44.333095" lon="9.9149041"><ele>164.0</ele><time>2026-04-26T07:48:00.937Z</time></trkpt><trkpt lat="44.3331136" lon="9.9147177"><ele>164.0</ele><time>2026-04-26T07:48:02.937Z</time></trkpt><trkpt lat="44.3331431" lon="9.9146118"><ele>164.0</ele><time>2026-04-26T07:48:03.937Z</time></trkpt><trkpt lat="44.3331723" lon="9.9144956"><ele>164.0</ele><time>2026-04-26T07:48:04.936Z</time></trkpt><trkpt lat="44.333203" lon="9.9143718"><ele>164.0</ele><time>2026-04-26T07:48:05.937Z</time></trkpt><trkpt lat="44.3332407" lon="9.9142401"><ele>164.0</ele><time>2026-04-26T07:48:06.936Z</time></trkpt><trkpt lat="44.3333377" lon="9.9139573"><ele>164.0</ele><time>2026-04-26T07:48:08.937Z</time></trkpt><trkpt lat="44.333388" lon="9.9138168"><ele>164.0</ele><time>2026-04-26T07:48:09.937Z</time></trkpt><trkpt lat="44.3334345" lon="9.9136702"><ele>164.0</ele><time>2026-04-26T07:48:10.937Z</time></trkpt><trkpt lat="44.3334799" lon="9.9135286"><ele>164.0</ele><time>2026-04-26T07:48:11.936Z</time></trkpt><trkpt lat="44.3335237" lon="9.9134025"><ele>164.0</ele><time>2026-04-26T07:48:12.937Z</time></trkpt><trkpt lat="44.3335694" lon="9.9132793"><ele>164.0</ele><time>2026-04-26T07:48:13.937Z</time></trkpt><trkpt lat="44.3336133" lon="9.9131615"><ele>164.33333333333331</ele><time>2026-04-26T07:48:14.936Z</time></trkpt><trkpt lat="44.3336522" lon="9.9130608"><ele>164.66666666666666</ele><time>2026-04-26T07:48:15.937Z</time></trkpt><trkpt lat="44.3336892" lon="9.9129847"><ele>165.0</ele><time>2026-04-26T07:48:16.937Z</time></trkpt><trkpt lat="44.3337911" lon="9.9129131"><ele>165.33333333333334</ele><time>2026-04-26T07:48:18.937Z</time></trkpt><trkpt lat="44.3338573" lon="9.9129304"><ele>165.66666666666669</ele><time>2026-04-26T07:48:19.937Z</time></trkpt><trkpt lat="44.3339252" lon="9.9129759"><ele>166.0</ele><time>2026-04-26T07:48:20.937Z</time></trkpt><trkpt lat="44.333997" lon="9.9130414"><ele>166.0</ele><time>2026-04-26T07:48:21.937Z</time></trkpt><trkpt lat="44.3340763" lon="9.9131142"><ele>166.0</ele><time>2026-04-26T07:48:22.937Z</time></trkpt><trkpt lat="44.334162" lon="9.91318"><ele>166.0</ele><time>2026-04-26T07:48:23.937Z</time></trkpt><trkpt lat="44.3342579" lon="9.9132296"><ele>166.0</ele><time>2026-04-26T07:48:24.937Z</time></trkpt><trkpt lat="44.3343561" lon="9.9132757"><ele>166.0</ele><time>2026-04-26T07:48:25.937Z</time></trkpt><trkpt lat="44.3344567" lon="9.9133278"><ele>166.0</ele><time>2026-04-26T07:48:26.936Z</time></trkpt><trkpt lat="44.3345572" lon="9.9133876"><ele>166.0</ele><time>2026-04-26T07:48:27.937Z</time></trkpt><trkpt lat="44.3347591" lon="9.9135134"><ele>166.0</ele><time>2026-04-26T07:48:29.937Z</time></trkpt><trkpt lat="44.334861" lon="9.9135797"><ele>166.0</ele><time>2026-04-26T07:48:30.937Z</time></trkpt><trkpt lat="44.33496" lon="9.9136506"><ele>166.4</ele><time>2026-04-26T07:48:31.937Z</time></trkpt><trkpt lat="44.335054" lon="9.9137156"><ele>166.8</ele><time>2026-04-26T07:48:32.936Z</time></trkpt><trkpt lat="44.3351415" lon="9.9137752"><ele>167.20000000000002</ele><time>2026-04-26T07:48:33.937Z</time></trkpt><trkpt lat="44.3352233" lon="9.913832"><ele>167.60000000000002</ele><time>2026-04-26T07:48:34.937Z</time></trkpt><trkpt lat="44.3353028" lon="9.9138809"><ele>168.0</ele><time>2026-04-26T07:48:35.937Z</time></trkpt><trkpt lat="44.3353807" lon="9.9139166"><ele>168.0</ele><time>2026-04-26T07:48:36.937Z</time></trkpt><trkpt lat="44.3354597" lon="9.9139433"><ele>168.0</ele><time>2026-04-26T07:48:37.937Z</time></trkpt><trkpt lat="44.3355398" lon="9.9139683"><ele>168.0</ele><time>2026-04-26T07:48:38.937Z</time></trkpt><trkpt lat="44.3356199" lon="9.9139908"><ele>168.0</ele><time>2026-04-26T07:48:39.937Z</time></trkpt><trkpt lat="44.3356917" lon="9.9140273"><ele>168.0</ele><time>2026-04-26T07:48:40.937Z</time></trkpt><trkpt lat="44.3357588" lon="9.9140705"><ele>168.0</ele><time>2026-04-26T07:48:41.937Z</time></trkpt><trkpt lat="44.335825" lon="9.9141186"><ele>167.66666666666666</ele><time>2026-04-26T07:48:42.937Z</time></trkpt><trkpt lat="44.3358936" lon="9.9141734"><ele>167.33333333333334</ele><time>2026-04-26T07:48:43.937Z</time></trkpt><trkpt lat="44.3359575" lon="9.9142355"><ele>167.0</ele><time>2026-04-26T07:48:44.937Z</time></trkpt><trkpt lat="44.3360133" lon="9.9143094"><ele>166.66666666666669</ele><time>2026-04-26T07:48:45.937Z</time></trkpt><trkpt lat="44.3360674" lon="9.9143886"><ele>166.33333333333334</ele><time>2026-04-26T07:48:46.937Z</time></trkpt><trkpt lat="44.3361234" lon="9.914463"><ele>166.0</ele><time>2026-04-26T07:48:47.936Z</time></trkpt><trkpt lat="44.3361852" lon="9.9145306"><ele>166.0</ele><time>2026-04-26T07:48:48.937Z</time></trkpt><trkpt lat="44.3363196" lon="9.9146332"><ele>166.0</ele><time>2026-04-26T07:48:50.937Z</time></trkpt><trkpt lat="44.3363878" lon="9.9146764"><ele>166.0</ele><time>2026-04-26T07:48:51.936Z</time></trkpt><trkpt lat="44.3364586" lon="9.9147058"><ele>166.0</ele><time>2026-04-26T07:48:52.937Z</time></trkpt><trkpt lat="44.3365261" lon="9.9147182"><ele>166.0</ele><time>2026-04-26T07:48:53.937Z</time></trkpt><trkpt lat="44.3365935" lon="9.9147079"><ele>166.0</ele><time>2026-04-26T07:48:54.937Z</time></trkpt><trkpt lat="44.3366565" lon="9.9146757"><ele>166.16666666666669</ele><time>2026-04-26T07:48:55.937Z</time></trkpt><trkpt lat="44.3367214" lon="9.9146222"><ele>166.33333333333334</ele><time>2026-04-26T07:48:56.937Z</time></trkpt><trkpt lat="44.3367869" lon="9.9145552"><ele>166.5</ele><time>2026-04-26T07:48:57.936Z</time></trkpt><trkpt lat="44.3368548" lon="9.9144835"><ele>166.66666666666666</ele><time>2026-04-26T07:48:58.937Z</time></trkpt><trkpt lat="44.3369259" lon="9.9144377"><ele>166.83333333333331</ele><time>2026-04-26T07:48:59.937Z</time></trkpt><trkpt lat="44.3370057" lon="9.9144044"><ele>167.0</ele><time>2026-04-26T07:49:00.937Z</time></trkpt><trkpt lat="44.3370898" lon="9.9143782"><ele>167.0</ele><time>2026-04-26T07:49:01.937Z</time></trkpt><trkpt lat="44.3371794" lon="9.9143585"><ele>167.0</ele><time>2026-04-26T07:49:02.937Z</time></trkpt><trkpt lat="44.3372742" lon="9.9143445"><ele>167.0</ele><time>2026-04-26T07:49:03.937Z</time></trkpt><trkpt lat="44.3373689" lon="9.9143331"><ele>167.0</ele><time>2026-04-26T07:49:04.937Z</time></trkpt><trkpt lat="44.3374617" lon="9.9143154"><ele>167.0</ele><time>2026-04-26T07:49:05.937Z</time></trkpt><trkpt lat="44.3375566" lon="9.9142692"><ele>168.0</ele><time>2026-04-26T07:49:06.937Z</time></trkpt><trkpt lat="44.3376395" lon="9.9142075"><ele>169.0</ele><time>2026-04-26T07:49:07.937Z</time></trkpt><trkpt lat="44.3377143" lon="9.9141424"><ele>170.0</ele><time>2026-04-26T07:49:08.936Z</time></trkpt><trkpt lat="44.3377841" lon="9.9140868"><ele>171.0</ele><time>2026-04-26T07:49:09.937Z</time></trkpt><trkpt lat="44.3379559" lon="9.9140214"><ele>172.0</ele><time>2026-04-26T07:49:12.937Z</time></trkpt><trkpt lat="44.3380288" lon="9.9141634"><ele>172.39999999999998</ele><time>2026-04-26T07:49:14.937Z</time></trkpt><trkpt lat="44.3380635" lon="9.9142504"><ele>172.79999999999998</ele><time>2026-04-26T07:49:15.937Z</time></trkpt><trkpt lat="44.3381286" lon="9.9143466"><ele>173.2</ele><time>2026-04-26T07:49:17.937Z</time></trkpt><trkpt lat="44.3382144" lon="9.9143007"><ele>173.6</ele><time>2026-04-26T07:49:23.937Z</time></trkpt><trkpt lat="44.3382688" lon="9.9142172"><ele>174.0</ele><time>2026-04-26T07:49:24.937Z</time></trkpt><trkpt lat="44.3383372" lon="9.9140829"><ele>174.25</ele><time>2026-04-26T07:49:25.937Z</time></trkpt><trkpt lat="44.3384168" lon="9.9139475"><ele>174.5</ele><time>2026-04-26T07:49:26.937Z</time></trkpt><trkpt lat="44.3385027" lon="9.9138018"><ele>174.75</ele><time>2026-04-26T07:49:27.937Z</time></trkpt><trkpt lat="44.3385961" lon="9.913629"><ele>175.0</ele><time>2026-04-26T07:49:28.937Z</time></trkpt><trkpt lat="44.338696" lon="9.9134431"><ele>175.0</ele><time>2026-04-26T07:49:29.937Z</time></trkpt><trkpt lat="44.3388016" lon="9.9132603"><ele>175.0</ele><time>2026-04-26T07:49:30.937Z</time></trkpt><trkpt lat="44.339015" lon="9.912891"><ele>176.66666666666669</ele><time>2026-04-26T07:49:32.937Z</time></trkpt><trkpt lat="44.3391291" lon="9.9127273"><ele>178.33333333333334</ele><time>2026-04-26T07:49:33.937Z</time></trkpt><trkpt lat="44.3392515" lon="9.9125702"><ele>180.0</ele><time>2026-04-26T07:49:34.937Z</time></trkpt><trkpt lat="44.3393792" lon="9.9124205"><ele>180.0</ele><time>2026-04-26T07:49:35.937Z</time></trkpt><trkpt lat="44.3395117" lon="9.9122852"><ele>180.0</ele><time>2026-04-26T07:49:36.937Z</time></trkpt><trkpt lat="44.3396537" lon="9.9121497"><ele>180.0</ele><time>2026-04-26T07:49:37.937Z</time></trkpt><trkpt lat="44.3397989" lon="9.9120232"><ele>180.66666666666666</ele><time>2026-04-26T07:49:38.937Z</time></trkpt><trkpt lat="44.3399486" lon="9.9119076"><ele>181.33333333333331</ele><time>2026-04-26T07:49:39.937Z</time></trkpt><trkpt lat="44.340102" lon="9.911806"><ele>182.0</ele><time>2026-04-26T07:49:40.937Z</time></trkpt><trkpt lat="44.3402526" lon="9.9117059"><ele>182.0</ele><time>2026-04-26T07:49:41.936Z</time></trkpt><trkpt lat="44.3404054" lon="9.911614"><ele>182.0</ele><time>2026-04-26T07:49:42.936Z</time></trkpt><trkpt lat="44.3405416" lon="9.9115359"><ele>182.0</ele><time>2026-04-26T07:49:43.936Z</time></trkpt><trkpt lat="44.3406763" lon="9.9114659"><ele>182.0</ele><time>2026-04-26T07:49:44.936Z</time></trkpt><trkpt lat="44.3408134" lon="9.9114007"><ele>182.0</ele><time>2026-04-26T07:49:45.937Z</time></trkpt><trkpt lat="44.3409548" lon="9.9113382"><ele>182.0</ele><time>2026-04-26T07:49:46.936Z</time></trkpt><trkpt lat="44.3411016" lon="9.9112826"><ele>182.0</ele><time>2026-04-26T07:49:47.937Z</time></trkpt><trkpt lat="44.3412518" lon="9.9112334"><ele>182.0</ele><time>2026-04-26T07:49:48.937Z</time></trkpt><trkpt lat="44.3414086" lon="9.9111848"><ele>182.0</ele><time>2026-04-26T07:49:49.937Z</time></trkpt><trkpt lat="44.3415756" lon="9.9111452"><ele>182.0</ele><time>2026-04-26T07:49:50.937Z</time></trkpt><trkpt lat="44.3417536" lon="9.9111225"><ele>182.0</ele><time>2026-04-26T07:49:51.937Z</time></trkpt><trkpt lat="44.3421197" lon="9.911097"><ele>182.0</ele><time>2026-04-26T07:49:53.937Z</time></trkpt><trkpt lat="44.3422987" lon="9.9110951"><ele>182.66666666666666</ele><time>2026-04-26T07:49:54.937Z</time></trkpt><trkpt lat="44.3424763" lon="9.9111132"><ele>183.33333333333334</ele><time>2026-04-26T07:49:55.937Z</time></trkpt><trkpt lat="44.3426556" lon="9.9111461"><ele>184.0</ele><time>2026-04-26T07:49:56.937Z</time></trkpt><trkpt lat="44.3428366" lon="9.9111991"><ele>184.0</ele><time>2026-04-26T07:49:57.936Z</time></trkpt><trkpt lat="44.3430143" lon="9.9112502"><ele>184.0</ele><time>2026-04-26T07:49:58.936Z</time></trkpt><trkpt lat="44.3431982" lon="9.9113034"><ele>184.0</ele><time>2026-04-26T07:49:59.937Z</time></trkpt><trkpt lat="44.3433767" lon="9.9113577"><ele>184.0</ele><time>2026-04-26T07:50:00.936Z</time></trkpt><trkpt lat="44.3435548" lon="9.9114122"><ele>184.0</ele><time>2026-04-26T07:50:01.937Z</time></trkpt><trkpt lat="44.3437354" lon="9.9114685"><ele>184.0</ele><time>2026-04-26T07:50:02.937Z</time></trkpt><trkpt lat="44.3439057" lon="9.9115212"><ele>185.0</ele><time>2026-04-26T07:50:03.936Z</time></trkpt><trkpt lat="44.3440782" lon="9.91157"><ele>186.0</ele><time>2026-04-26T07:50:04.937Z</time></trkpt><trkpt lat="44.3442539" lon="9.9116208"><ele>187.0</ele><time>2026-04-26T07:50:05.936Z</time></trkpt><trkpt lat="44.3444334" lon="9.911672"><ele>187.0</ele><time>2026-04-26T07:50:06.937Z</time></trkpt><trkpt lat="44.3446201" lon="9.9117168"><ele>187.0</ele><time>2026-04-26T07:50:07.937Z</time></trkpt><trkpt lat="44.3448086" lon="9.9117529"><ele>187.0</ele><time>2026-04-26T07:50:08.937Z</time></trkpt><trkpt lat="44.3449999" lon="9.9117695"><ele>188.0</ele><time>2026-04-26T07:50:09.936Z</time></trkpt><trkpt lat="44.3451892" lon="9.9117726"><ele>189.0</ele><time>2026-04-26T07:50:10.937Z</time></trkpt><trkpt lat="44.3453737" lon="9.9117662"><ele>190.0</ele><time>2026-04-26T07:50:11.937Z</time></trkpt><trkpt lat="44.3455589" lon="9.9117574"><ele>189.0</ele><time>2026-04-26T07:50:12.937Z</time></trkpt><trkpt lat="44.3459223" lon="9.9117087"><ele>188.0</ele><time>2026-04-26T07:50:14.936Z</time></trkpt><trkpt lat="44.3461001" lon="9.9116473"><ele>188.0</ele><time>2026-04-26T07:50:15.937Z</time></trkpt><trkpt lat="44.3462728" lon="9.9115615"><ele>188.0</ele><time>2026-04-26T07:50:16.937Z</time></trkpt><trkpt lat="44.3464361" lon="9.9114434"><ele>188.0</ele><time>2026-04-26T07:50:17.937Z</time></trkpt><trkpt lat="44.3465941" lon="9.9112983"><ele>189.0</ele><time>2026-04-26T07:50:18.936Z</time></trkpt><trkpt lat="44.3467452" lon="9.911127"><ele>190.0</ele><time>2026-04-26T07:50:19.937Z</time></trkpt><trkpt lat="44.3468816" lon="9.9109298"><ele>191.0</ele><time>2026-04-26T07:50:20.937Z</time></trkpt><trkpt lat="44.3470067" lon="9.9107083"><ele>189.33333333333331</ele><time>2026-04-26T07:50:21.937Z</time></trkpt><trkpt lat="44.3471233" lon="9.9104933"><ele>187.66666666666666</ele><time>2026-04-26T07:50:22.937Z</time></trkpt><trkpt lat="44.3472367" lon="9.910275"><ele>186.0</ele><time>2026-04-26T07:50:23.937Z</time></trkpt><trkpt lat="44.3473483" lon="9.91007"><ele>185.33333333333334</ele><time>2026-04-26T07:50:24.937Z</time></trkpt><trkpt lat="44.3474617" lon="9.9098517"><ele>184.66666666666669</ele><time>2026-04-26T07:50:25.937Z</time></trkpt><trkpt lat="44.3475783" lon="9.9096433"><ele>184.0</ele><time>2026-04-26T07:50:26.937Z</time></trkpt><trkpt lat="44.347695" lon="9.9094333"><ele>184.0</ele><time>2026-04-26T07:50:27.937Z</time></trkpt><trkpt lat="44.3478" lon="9.909235"><ele>184.0</ele><time>2026-04-26T07:50:28.937Z</time></trkpt><trkpt lat="44.3479133" lon="9.9090467"><ele>184.0</ele><time>2026-04-26T07:50:29.936Z</time></trkpt><trkpt lat="44.3480267" lon="9.9088683"><ele>184.0</ele><time>2026-04-26T07:50:30.937Z</time></trkpt><trkpt lat="44.3481467" lon="9.9086883"><ele>184.0</ele><time>2026-04-26T07:50:31.937Z</time></trkpt><trkpt lat="44.3482617" lon="9.908515"><ele>184.0</ele><time>2026-04-26T07:50:32.937Z</time></trkpt><trkpt lat="44.3483717" lon="9.9083633"><ele>184.0</ele><time>2026-04-26T07:50:33.936Z</time></trkpt><trkpt lat="44.3484833" lon="9.90824"><ele>184.0</ele><time>2026-04-26T07:50:34.936Z</time></trkpt><trkpt lat="44.3487" lon="9.90803"><ele>184.0</ele><time>2026-04-26T07:50:36.937Z</time></trkpt><trkpt lat="44.3487983" lon="9.9079383"><ele>184.39999999999998</ele><time>2026-04-26T07:50:37.936Z</time></trkpt><trkpt lat="44.3489" lon="9.9078533"><ele>184.8</ele><time>2026-04-26T07:50:38.937Z</time></trkpt><trkpt lat="44.3489917" lon="9.9077783"><ele>185.2</ele><time>2026-04-26T07:50:39.937Z</time></trkpt><trkpt lat="44.3490867" lon="9.9077"><ele>185.60000000000002</ele><time>2026-04-26T07:50:40.937Z</time></trkpt><trkpt lat="44.34918" lon="9.90763"><ele>186.0</ele><time>2026-04-26T07:50:41.937Z</time></trkpt><trkpt lat="44.3492733" lon="9.9075583"><ele>186.0</ele><time>2026-04-26T07:50:42.937Z</time></trkpt><trkpt lat="44.349375" lon="9.90749"><ele>186.0</ele><time>2026-04-26T07:50:43.937Z</time></trkpt><trkpt lat="44.3494717" lon="9.90742"><ele>186.0</ele><time>2026-04-26T07:50:44.936Z</time></trkpt><trkpt lat="44.3495733" lon="9.9073433"><ele>186.0</ele><time>2026-04-26T07:50:45.937Z</time></trkpt><trkpt lat="44.34968" lon="9.9072683"><ele>186.5</ele><time>2026-04-26T07:50:46.937Z</time></trkpt><trkpt lat="44.3497867" lon="9.9072117"><ele>187.0</ele><time>2026-04-26T07:50:47.937Z</time></trkpt><trkpt lat="44.349905" lon="9.9071483"><ele>187.5</ele><time>2026-04-26T07:50:48.937Z</time></trkpt><trkpt lat="44.3500317" lon="9.9070917"><ele>188.0</ele><time>2026-04-26T07:50:49.937Z</time></trkpt><trkpt lat="44.35017" lon="9.9070317"><ele>188.0</ele><time>2026-04-26T07:50:50.937Z</time></trkpt><trkpt lat="44.350315" lon="9.9069683"><ele>188.0</ele><time>2026-04-26T07:50:51.937Z</time></trkpt><trkpt lat="44.3504683" lon="9.9069117"><ele>188.0</ele><time>2026-04-26T07:50:52.937Z</time></trkpt><trkpt lat="44.3506267" lon="9.9068583"><ele>188.33333333333331</ele><time>2026-04-26T07:50:53.937Z</time></trkpt><trkpt lat="44.350785" lon="9.9068067"><ele>188.66666666666666</ele><time>2026-04-26T07:50:54.937Z</time></trkpt><trkpt lat="44.3509467" lon="9.9067433"><ele>189.0</ele><time>2026-04-26T07:50:55.937Z</time></trkpt><trkpt lat="44.35111" lon="9.9066767"><ele>190.5</ele><time>2026-04-26T07:50:56.937Z</time></trkpt><trkpt lat="44.3514533" lon="9.9065383"><ele>192.0</ele><time>2026-04-26T07:50:58.937Z</time></trkpt><trkpt lat="44.3516233" lon="9.9064717"><ele>192.0</ele><time>2026-04-26T07:50:59.937Z</time></trkpt><trkpt lat="44.35179" lon="9.9063883"><ele>192.0</ele><time>2026-04-26T07:51:00.936Z</time></trkpt><trkpt lat="44.3519567" lon="9.9063183"><ele>192.0</ele><time>2026-04-26T07:51:01.936Z</time></trkpt><trkpt lat="44.352125" lon="9.9062483"><ele>192.33333333333331</ele><time>2026-04-26T07:51:02.937Z</time></trkpt><trkpt lat="44.3522833" lon="9.90617"><ele>192.66666666666666</ele><time>2026-04-26T07:51:03.937Z</time></trkpt><trkpt lat="44.352445" lon="9.9061017"><ele>193.0</ele><time>2026-04-26T07:51:04.937Z</time></trkpt><trkpt lat="44.3526" lon="9.9060167"><ele>193.0</ele><time>2026-04-26T07:51:05.937Z</time></trkpt><trkpt lat="44.3527483" lon="9.9059233"><ele>193.0</ele><time>2026-04-26T07:51:06.937Z</time></trkpt><trkpt lat="44.3529067" lon="9.90582"><ele>193.0</ele><time>2026-04-26T07:51:07.937Z</time></trkpt><trkpt lat="44.3530567" lon="9.9056983"><ele>194.0</ele><time>2026-04-26T07:51:08.937Z</time></trkpt><trkpt lat="44.35321" lon="9.9055783"><ele>195.0</ele><time>2026-04-26T07:51:09.937Z</time></trkpt><trkpt lat="44.3533633" lon="9.90545"><ele>196.0</ele><time>2026-04-26T07:51:10.937Z</time></trkpt><trkpt lat="44.353515" lon="9.9053233"><ele>196.0</ele><time>2026-04-26T07:51:11.937Z</time></trkpt><trkpt lat="44.3536733" lon="9.9051983"><ele>196.0</ele><time>2026-04-26T07:51:12.937Z</time></trkpt><trkpt lat="44.3538333" lon="9.90507"><ele>196.0</ele><time>2026-04-26T07:51:13.937Z</time></trkpt><trkpt lat="44.35399" lon="9.9049383"><ele>196.66666666666666</ele><time>2026-04-26T07:51:14.937Z</time></trkpt><trkpt lat="44.3541483" lon="9.90481"><ele>197.33333333333331</ele><time>2026-04-26T07:51:15.936Z</time></trkpt><trkpt lat="44.35431" lon="9.9046767"><ele>198.0</ele><time>2026-04-26T07:51:16.937Z</time></trkpt><trkpt lat="44.3544733" lon="9.9045433"><ele>198.5</ele><time>2026-04-26T07:51:17.937Z</time></trkpt><trkpt lat="44.3547833" lon="9.9042767"><ele>199.0</ele><time>2026-04-26T07:51:19.936Z</time></trkpt><trkpt lat="44.3549417" lon="9.904145"><ele>199.0</ele><time>2026-04-26T07:51:20.937Z</time></trkpt><trkpt lat="44.355095" lon="9.9040183"><ele>199.0</ele><time>2026-04-26T07:51:21.937Z</time></trkpt><trkpt lat="44.3552517" lon="9.9038967"><ele>199.0</ele><time>2026-04-26T07:51:22.937Z</time></trkpt><trkpt lat="44.355405" lon="9.9037783"><ele>198.66666666666666</ele><time>2026-04-26T07:51:23.937Z</time></trkpt><trkpt lat="44.35556" lon="9.903665"><ele>198.33333333333331</ele><time>2026-04-26T07:51:24.937Z</time></trkpt><trkpt lat="44.35572" lon="9.90356"><ele>198.0</ele><time>2026-04-26T07:51:25.937Z</time></trkpt><trkpt lat="44.3558817" lon="9.903465"><ele>199.0</ele><time>2026-04-26T07:51:26.937Z</time></trkpt><trkpt lat="44.35605" lon="9.9033733"><ele>200.0</ele><time>2026-04-26T07:51:27.936Z</time></trkpt><trkpt lat="44.3562167" lon="9.9032833"><ele>201.0</ele><time>2026-04-26T07:51:28.937Z</time></trkpt><trkpt lat="44.3563833" lon="9.9031933"><ele>201.33333333333331</ele><time>2026-04-26T07:51:29.936Z</time></trkpt><trkpt lat="44.3565417" lon="9.9030983"><ele>201.66666666666666</ele><time>2026-04-26T07:51:30.937Z</time></trkpt><trkpt lat="44.3567067" lon="9.9030083"><ele>202.0</ele><time>2026-04-26T07:51:31.937Z</time></trkpt><trkpt lat="44.3568767" lon="9.9029167"><ele>202.0</ele><time>2026-04-26T07:51:32.937Z</time></trkpt><trkpt lat="44.3570483" lon="9.9028183"><ele>202.0</ele><time>2026-04-26T07:51:33.937Z</time></trkpt><trkpt lat="44.35721" lon="9.9027283"><ele>202.0</ele><time>2026-04-26T07:51:34.937Z</time></trkpt><trkpt lat="44.3573767" lon="9.9026367"><ele>202.0</ele><time>2026-04-26T07:51:35.937Z</time></trkpt><trkpt lat="44.3575383" lon="9.9025417"><ele>202.0</ele><time>2026-04-26T07:51:36.937Z</time></trkpt><trkpt lat="44.3577033" lon="9.9024383"><ele>202.0</ele><time>2026-04-26T07:51:37.937Z</time></trkpt><trkpt lat="44.3578633" lon="9.9023283"><ele>202.33333333333331</ele><time>2026-04-26T07:51:38.937Z</time></trkpt><trkpt lat="44.3581133" lon="9.902075"><ele>202.66666666666669</ele><time>2026-04-26T07:51:40.937Z</time></trkpt><trkpt lat="44.3582183" lon="9.90196"><ele>203.0</ele><time>2026-04-26T07:51:41.937Z</time></trkpt><trkpt lat="44.3583033" lon="9.901845"><ele>202.60000000000002</ele><time>2026-04-26T07:51:42.936Z</time></trkpt><trkpt lat="44.3583867" lon="9.9017417"><ele>202.20000000000002</ele><time>2026-04-26T07:51:43.937Z</time></trkpt><trkpt lat="44.3584683" lon="9.9016467"><ele>201.8</ele><time>2026-04-26T07:51:44.936Z</time></trkpt><trkpt lat="44.358555" lon="9.901555"><ele>201.4</ele><time>2026-04-26T07:51:45.937Z</time></trkpt><trkpt lat="44.3586383" lon="9.90146"><ele>201.0</ele><time>2026-04-26T07:51:46.937Z</time></trkpt><trkpt lat="44.3587233" lon="9.9013633"><ele>201.0</ele><time>2026-04-26T07:51:47.937Z</time></trkpt><trkpt lat="44.3588033" lon="9.9012667"><ele>201.0</ele><time>2026-04-26T07:51:48.937Z</time></trkpt><trkpt lat="44.3588917" lon="9.9011633"><ele>201.0</ele><time>2026-04-26T07:51:49.937Z</time></trkpt><trkpt lat="44.358985" lon="9.9010667"><ele>201.0</ele><time>2026-04-26T07:51:50.936Z</time></trkpt><trkpt lat="44.35907" lon="9.9009683"><ele>201.0</ele><time>2026-04-26T07:51:51.936Z</time></trkpt><trkpt lat="44.359165" lon="9.900865"><ele>201.25</ele><time>2026-04-26T07:51:52.937Z</time></trkpt><trkpt lat="44.3592567" lon="9.9007567"><ele>201.5</ele><time>2026-04-26T07:51:53.937Z</time></trkpt><trkpt lat="44.3593533" lon="9.900655"><ele>201.75</ele><time>2026-04-26T07:51:54.937Z</time></trkpt><trkpt lat="44.3594383" lon="9.900545"><ele>202.0</ele><time>2026-04-26T07:51:55.937Z</time></trkpt><trkpt lat="44.3595233" lon="9.9004317"><ele>202.0</ele><time>2026-04-26T07:51:56.937Z</time></trkpt><trkpt lat="44.3596133" lon="9.9003367"><ele>202.0</ele><time>2026-04-26T07:51:57.937Z</time></trkpt><trkpt lat="44.3597067" lon="9.90025"><ele>202.0</ele><time>2026-04-26T07:51:58.937Z</time></trkpt><trkpt lat="44.3597983" lon="9.90016"><ele>202.0</ele><time>2026-04-26T07:51:59.936Z</time></trkpt><trkpt lat="44.3599733" lon="9.8999533"><ele>202.5</ele><time>2026-04-26T07:52:01.937Z</time></trkpt><trkpt lat="44.360065" lon="9.8998533"><ele>203.0</ele><time>2026-04-26T07:52:02.937Z</time></trkpt><trkpt lat="44.36015" lon="9.8997433"><ele>203.5</ele><time>2026-04-26T07:52:03.936Z</time></trkpt><trkpt lat="44.36025" lon="9.8996433"><ele>204.0</ele><time>2026-04-26T07:52:04.937Z</time></trkpt><trkpt lat="44.3603483" lon="9.899535"><ele>204.0</ele><time>2026-04-26T07:52:05.937Z</time></trkpt><trkpt lat="44.360445" lon="9.89943"><ele>204.0</ele><time>2026-04-26T07:52:06.937Z</time></trkpt><trkpt lat="44.3605417" lon="9.8993167"><ele>204.0</ele><time>2026-04-26T07:52:07.937Z</time></trkpt><trkpt lat="44.3606417" lon="9.8992083"><ele>204.0</ele><time>2026-04-26T07:52:08.937Z</time></trkpt><trkpt lat="44.360735" lon="9.89909"><ele>204.5</ele><time>2026-04-26T07:52:09.936Z</time></trkpt><trkpt lat="44.3608367" lon="9.89898"><ele>205.0</ele><time>2026-04-26T07:52:10.937Z</time></trkpt><trkpt lat="44.36093" lon="9.8988667"><ele>205.5</ele><time>2026-04-26T07:52:11.937Z</time></trkpt><trkpt lat="44.3610233" lon="9.8987583"><ele>206.0</ele><time>2026-04-26T07:52:12.937Z</time></trkpt><trkpt lat="44.36112" lon="9.8986417"><ele>206.0</ele><time>2026-04-26T07:52:13.937Z</time></trkpt><trkpt lat="44.3612133" lon="9.89852"><ele>206.0</ele><time>2026-04-26T07:52:14.937Z</time></trkpt><trkpt lat="44.36131" lon="9.8984067"><ele>206.0</ele><time>2026-04-26T07:52:15.937Z</time></trkpt><trkpt lat="44.3614167" lon="9.898295"><ele>206.0</ele><time>2026-04-26T07:52:16.937Z</time></trkpt><trkpt lat="44.36152" lon="9.8981833"><ele>206.5</ele><time>2026-04-26T07:52:17.937Z</time></trkpt><trkpt lat="44.36162" lon="9.8980667"><ele>207.0</ele><time>2026-04-26T07:52:18.937Z</time></trkpt><trkpt lat="44.36172" lon="9.89795"><ele>207.5</ele><time>2026-04-26T07:52:19.937Z</time></trkpt><trkpt lat="44.3618233" lon="9.8978317"><ele>208.0</ele><time>2026-04-26T07:52:20.937Z</time></trkpt><trkpt lat="44.3620433" lon="9.8975917"><ele>207.75</ele><time>2026-04-26T07:52:22.937Z</time></trkpt><trkpt lat="44.3621467" lon="9.8974633"><ele>207.5</ele><time>2026-04-26T07:52:23.937Z</time></trkpt><trkpt lat="44.3622433" lon="9.8973483"><ele>207.25</ele><time>2026-04-26T07:52:24.937Z</time></trkpt><trkpt lat="44.3623383" lon="9.8972333"><ele>207.0</ele><time>2026-04-26T07:52:25.936Z</time></trkpt><trkpt lat="44.3624233" lon="9.8971233"><ele>207.5</ele><time>2026-04-26T07:52:26.937Z</time></trkpt><trkpt lat="44.3625083" lon="9.89702"><ele>208.0</ele><time>2026-04-26T07:52:27.937Z</time></trkpt><trkpt lat="44.3625933" lon="9.896915"><ele>208.5</ele><time>2026-04-26T07:52:28.937Z</time></trkpt><trkpt lat="44.3626833" lon="9.8968133"><ele>209.0</ele><time>2026-04-26T07:52:29.937Z</time></trkpt><trkpt lat="44.3627767" lon="9.8967067"><ele>209.5</ele><time>2026-04-26T07:52:30.937Z</time></trkpt><trkpt lat="44.3628733" lon="9.8966"><ele>210.0</ele><time>2026-04-26T07:52:31.937Z</time></trkpt><trkpt lat="44.3629717" lon="9.8965067"><ele>210.5</ele><time>2026-04-26T07:52:32.937Z</time></trkpt><trkpt lat="44.3630617" lon="9.8964117"><ele>211.0</ele><time>2026-04-26T07:52:33.936Z</time></trkpt><trkpt lat="44.3631533" lon="9.8963"><ele>211.0</ele><time>2026-04-26T07:52:34.937Z</time></trkpt><trkpt lat="44.3632417" lon="9.8961867"><ele>211.0</ele><time>2026-04-26T07:52:35.937Z</time></trkpt><trkpt lat="44.3633283" lon="9.8960667"><ele>211.0</ele><time>2026-04-26T07:52:36.937Z</time></trkpt><trkpt lat="44.36341" lon="9.8959283"><ele>211.0</ele><time>2026-04-26T07:52:37.937Z</time></trkpt><trkpt lat="44.36348" lon="9.8957667"><ele>210.25</ele><time>2026-04-26T07:52:38.937Z</time></trkpt><trkpt lat="44.3635483" lon="9.895605"><ele>209.5</ele><time>2026-04-26T07:52:39.937Z</time></trkpt><trkpt lat="44.36362" lon="9.8954467"><ele>208.75</ele><time>2026-04-26T07:52:40.937Z</time></trkpt><trkpt lat="44.36369" lon="9.89528"><ele>208.0</ele><time>2026-04-26T07:52:41.937Z</time></trkpt><trkpt lat="44.363835" lon="9.8949517"><ele>209.75</ele><time>2026-04-26T07:52:43.937Z</time></trkpt><trkpt lat="44.36391" lon="9.894785"><ele>211.5</ele><time>2026-04-26T07:52:44.937Z</time></trkpt><trkpt lat="44.3639817" lon="9.8946283"><ele>213.25</ele><time>2026-04-26T07:52:45.937Z</time></trkpt><trkpt lat="44.3640517" lon="9.8944683"><ele>215.0</ele><time>2026-04-26T07:52:46.937Z</time></trkpt><trkpt lat="44.3641167" lon="9.894315"><ele>214.25</ele><time>2026-04-26T07:52:47.937Z</time></trkpt><trkpt lat="44.3641783" lon="9.8941683"><ele>213.5</ele><time>2026-04-26T07:52:48.937Z</time></trkpt><trkpt lat="44.3642383" lon="9.894005"><ele>212.75</ele><time>2026-04-26T07:52:49.936Z</time></trkpt><trkpt lat="44.3643017" lon="9.89383"><ele>212.0</ele><time>2026-04-26T07:52:50.936Z</time></trkpt><trkpt lat="44.36434" lon="9.893655"><ele>212.0</ele><time>2026-04-26T07:52:51.937Z</time></trkpt><trkpt lat="44.3643833" lon="9.89348"><ele>212.0</ele><time>2026-04-26T07:52:52.936Z</time></trkpt><trkpt lat="44.3644167" lon="9.893305"><ele>212.0</ele><time>2026-04-26T07:52:53.937Z</time></trkpt><trkpt lat="44.3644367" lon="9.8931317"><ele>212.0</ele><time>2026-04-26T07:52:54.937Z</time></trkpt><trkpt lat="44.36445" lon="9.8929533"><ele>211.75</ele><time>2026-04-26T07:52:55.937Z</time></trkpt><trkpt lat="44.3644583" lon="9.892765"><ele>211.5</ele><time>2026-04-26T07:52:56.937Z</time></trkpt><trkpt lat="44.364455" lon="9.8925817"><ele>211.25</ele><time>2026-04-26T07:52:57.937Z</time></trkpt><trkpt lat="44.3644467" lon="9.892405"><ele>211.0</ele><time>2026-04-26T07:52:58.937Z</time></trkpt><trkpt lat="44.36444" lon="9.892245"><ele>211.0</ele><time>2026-04-26T07:52:59.937Z</time></trkpt><trkpt lat="44.3644283" lon="9.892085"><ele>211.0</ele><time>2026-04-26T07:53:00.936Z</time></trkpt><trkpt lat="44.36442" lon="9.8919067"><ele>211.0</ele><time>2026-04-26T07:53:01.937Z</time></trkpt><trkpt lat="44.36441" lon="9.8917417"><ele>211.0</ele><time>2026-04-26T07:53:02.937Z</time></trkpt><trkpt lat="44.364385" lon="9.8913917"><ele>211.0</ele><time>2026-04-26T07:53:04.937Z</time></trkpt><trkpt lat="44.364375" lon="9.8912117"><ele>211.0</ele><time>2026-04-26T07:53:05.937Z</time></trkpt><trkpt lat="44.3643667" lon="9.8910367"><ele>211.0</ele><time>2026-04-26T07:53:06.937Z</time></trkpt><trkpt lat="44.36436" lon="9.8908683"><ele>211.0</ele><time>2026-04-26T07:53:07.937Z</time></trkpt><trkpt lat="44.3643517" lon="9.8906967"><ele>211.5</ele><time>2026-04-26T07:53:08.937Z</time></trkpt><trkpt lat="44.36434" lon="9.890525"><ele>212.0</ele><time>2026-04-26T07:53:09.936Z</time></trkpt><trkpt lat="44.3643333" lon="9.8903483"><ele>212.5</ele><time>2026-04-26T07:53:10.937Z</time></trkpt><trkpt lat="44.3643083" lon="9.8901717"><ele>213.0</ele><time>2026-04-26T07:53:11.937Z</time></trkpt><trkpt lat="44.364275" lon="9.89"><ele>213.5</ele><time>2026-04-26T07:53:12.937Z</time></trkpt><trkpt lat="44.3642383" lon="9.8898333"><ele>214.0</ele><time>2026-04-26T07:53:13.937Z</time></trkpt><trkpt lat="44.3642" lon="9.8896783"><ele>214.5</ele><time>2026-04-26T07:53:14.937Z</time></trkpt><trkpt lat="44.3641633" lon="9.8895333"><ele>215.0</ele><time>2026-04-26T07:53:15.937Z</time></trkpt><trkpt lat="44.3641233" lon="9.88939"><ele>216.2</ele><time>2026-04-26T07:53:16.937Z</time></trkpt><trkpt lat="44.3640917" lon="9.889255"><ele>217.4</ele><time>2026-04-26T07:53:17.937Z</time></trkpt><trkpt lat="44.3640583" lon="9.889125"><ele>218.60000000000002</ele><time>2026-04-26T07:53:18.937Z</time></trkpt><trkpt lat="44.364025" lon="9.8889883"><ele>219.8</ele><time>2026-04-26T07:53:19.937Z</time></trkpt><trkpt lat="44.3639867" lon="9.8888517"><ele>221.0</ele><time>2026-04-26T07:53:20.937Z</time></trkpt><trkpt lat="44.363945" lon="9.8887267"><ele>221.0</ele><time>2026-04-26T07:53:21.937Z</time></trkpt><trkpt lat="44.363915" lon="9.8886033"><ele>221.00000000000003</ele><time>2026-04-26T07:53:22.937Z</time></trkpt><trkpt lat="44.363885" lon="9.888485"><ele>221.00000000000003</ele><time>2026-04-26T07:53:23.937Z</time></trkpt><trkpt lat="44.3637983" lon="9.8882667"><ele>221.0</ele><time>2026-04-26T07:53:25.937Z</time></trkpt><trkpt lat="44.363755" lon="9.88817"><ele>221.0</ele><time>2026-04-26T07:53:26.937Z</time></trkpt><trkpt lat="44.3637133" lon="9.8880767"><ele>219.60000000000002</ele><time>2026-04-26T07:53:27.937Z</time></trkpt><trkpt lat="44.36368" lon="9.8879617"><ele>218.20000000000002</ele><time>2026-04-26T07:53:28.937Z</time></trkpt><trkpt lat="44.3636583" lon="9.88784"><ele>216.79999999999998</ele><time>2026-04-26T07:53:29.937Z</time></trkpt><trkpt lat="44.36365" lon="9.8877133"><ele>215.39999999999998</ele><time>2026-04-26T07:53:30.937Z</time></trkpt><trkpt lat="44.3636417" lon="9.8875767"><ele>214.0</ele><time>2026-04-26T07:53:31.937Z</time></trkpt><trkpt lat="44.3636317" lon="9.887435"><ele>214.0</ele><time>2026-04-26T07:53:32.937Z</time></trkpt><trkpt lat="44.363615" lon="9.8872983"><ele>213.99999999999997</ele><time>2026-04-26T07:53:33.937Z</time></trkpt><trkpt lat="44.3636117" lon="9.8871583"><ele>213.99999999999997</ele><time>2026-04-26T07:53:34.937Z</time></trkpt><trkpt lat="44.36362" lon="9.887035"><ele>214.0</ele><time>2026-04-26T07:53:35.936Z</time></trkpt><trkpt lat="44.363645" lon="9.8869083"><ele>214.0</ele><time>2026-04-26T07:53:36.937Z</time></trkpt><trkpt lat="44.3636867" lon="9.886785"><ele>214.0</ele><time>2026-04-26T07:53:37.937Z</time></trkpt><trkpt lat="44.3637417" lon="9.886665"><ele>213.99999999999997</ele><time>2026-04-26T07:53:38.937Z</time></trkpt><trkpt lat="44.3637983" lon="9.88654"><ele>213.99999999999997</ele><time>2026-04-26T07:53:39.937Z</time></trkpt><trkpt lat="44.3638567" lon="9.88642"><ele>214.0</ele><time>2026-04-26T07:53:40.937Z</time></trkpt><trkpt lat="44.3639183" lon="9.8863067"><ele>214.0</ele><time>2026-04-26T07:53:41.936Z</time></trkpt><trkpt lat="44.3639883" lon="9.8862133"><ele>216.5</ele><time>2026-04-26T07:53:42.937Z</time></trkpt><trkpt lat="44.3640517" lon="9.8861067"><ele>219.0</ele><time>2026-04-26T07:53:43.937Z</time></trkpt><trkpt lat="44.36411" lon="9.88601"><ele>221.5</ele><time>2026-04-26T07:53:44.937Z</time></trkpt><trkpt lat="44.3642233" lon="9.8858183"><ele>224.0</ele><time>2026-04-26T07:53:46.937Z</time></trkpt><trkpt lat="44.3642833" lon="9.8856967"><ele>224.0</ele><time>2026-04-26T07:53:47.937Z</time></trkpt><trkpt lat="44.3643517" lon="9.8855633"><ele>223.99999999999997</ele><time>2026-04-26T07:53:48.937Z</time></trkpt><trkpt lat="44.3644367" lon="9.88546"><ele>223.99999999999997</ele><time>2026-04-26T07:53:49.937Z</time></trkpt><trkpt lat="44.3645133" lon="9.8853617"><ele>224.0</ele><time>2026-04-26T07:53:50.937Z</time></trkpt><trkpt lat="44.3645933" lon="9.8852717"><ele>224.0</ele><time>2026-04-26T07:53:51.936Z</time></trkpt><trkpt lat="44.3646817" lon="9.8852"><ele>223.79999999999998</ele><time>2026-04-26T07:53:52.937Z</time></trkpt><trkpt lat="44.3647783" lon="9.8851417"><ele>223.59999999999997</ele><time>2026-04-26T07:53:53.937Z</time></trkpt><trkpt lat="44.3648783" lon="9.8850933"><ele>223.4</ele><time>2026-04-26T07:53:54.937Z</time></trkpt><trkpt lat="44.3649817" lon="9.885045"><ele>223.2</ele><time>2026-04-26T07:53:55.937Z</time></trkpt><trkpt lat="44.3650833" lon="9.885005"><ele>223.0</ele><time>2026-04-26T07:53:56.937Z</time></trkpt><trkpt lat="44.3651883" lon="9.8850067"><ele>223.0</ele><time>2026-04-26T07:53:57.936Z</time></trkpt><trkpt lat="44.365295" lon="9.8850133"><ele>223.0</ele><time>2026-04-26T07:53:58.937Z</time></trkpt><trkpt lat="44.3654017" lon="9.8850283"><ele>223.0</ele><time>2026-04-26T07:53:59.937Z</time></trkpt><trkpt lat="44.365505" lon="9.8850467"><ele>223.0</ele><time>2026-04-26T07:54:00.937Z</time></trkpt><trkpt lat="44.36561" lon="9.8850683"><ele>223.0</ele><time>2026-04-26T07:54:01.936Z</time></trkpt><trkpt lat="44.3657183" lon="9.885105"><ele>232.75</ele><time>2026-04-26T07:54:02.937Z</time></trkpt><trkpt lat="44.3658233" lon="9.8851233"><ele>242.5</ele><time>2026-04-26T07:54:03.937Z</time></trkpt><trkpt lat="44.3659317" lon="9.8851333"><ele>252.25</ele><time>2026-04-26T07:54:04.937Z</time></trkpt><trkpt lat="44.366045" lon="9.8851467"><ele>262.0</ele><time>2026-04-26T07:54:05.937Z</time></trkpt><trkpt lat="44.366285" lon="9.8851767"><ele>258.0</ele><time>2026-04-26T07:54:07.937Z</time></trkpt><trkpt lat="44.3664017" lon="9.8851833"><ele>254.0</ele><time>2026-04-26T07:54:08.937Z</time></trkpt><trkpt lat="44.366525" lon="9.88519"><ele>250.0</ele><time>2026-04-26T07:54:09.937Z</time></trkpt><trkpt lat="44.36666" lon="9.8851867"><ele>246.0</ele><time>2026-04-26T07:54:10.936Z</time></trkpt><trkpt lat="44.3667867" lon="9.8851867"><ele>246.0</ele><time>2026-04-26T07:54:11.937Z</time></trkpt><trkpt lat="44.366905" lon="9.8851933"><ele>246.00000000000003</ele><time>2026-04-26T07:54:12.937Z</time></trkpt><trkpt lat="44.3670117" lon="9.8851983"><ele>246.00000000000003</ele><time>2026-04-26T07:54:13.936Z</time></trkpt><trkpt lat="44.367115" lon="9.8852017"><ele>246.0</ele><time>2026-04-26T07:54:14.937Z</time></trkpt><trkpt lat="44.36722" lon="9.8852033"><ele>246.0</ele><time>2026-04-26T07:54:15.937Z</time></trkpt><trkpt lat="44.3673283" lon="9.8852033"><ele>243.0</ele><time>2026-04-26T07:54:16.936Z</time></trkpt><trkpt lat="44.3674317" lon="9.8852067"><ele>240.00000000000003</ele><time>2026-04-26T07:54:17.937Z</time></trkpt><trkpt lat="44.36754" lon="9.8852083"><ele>237.00000000000003</ele><time>2026-04-26T07:54:18.937Z</time></trkpt><trkpt lat="44.36765" lon="9.885215"><ele>234.0</ele><time>2026-04-26T07:54:19.937Z</time></trkpt><trkpt lat="44.3677683" lon="9.88522"><ele>231.0</ele><time>2026-04-26T07:54:20.937Z</time></trkpt><trkpt lat="44.3678917" lon="9.8852333"><ele>231.0</ele><time>2026-04-26T07:54:21.936Z</time></trkpt><trkpt lat="44.36801" lon="9.885255"><ele>231.0</ele><time>2026-04-26T07:54:22.937Z</time></trkpt><trkpt lat="44.3681317" lon="9.88528"><ele>231.0</ele><time>2026-04-26T07:54:23.936Z</time></trkpt><trkpt lat="44.36825" lon="9.88533"><ele>231.0</ele><time>2026-04-26T07:54:24.937Z</time></trkpt><trkpt lat="44.3683633" lon="9.88539"><ele>230.66666666666669</ele><time>2026-04-26T07:54:25.937Z</time></trkpt><trkpt lat="44.3684733" lon="9.8854567"><ele>230.33333333333334</ele><time>2026-04-26T07:54:26.937Z</time></trkpt><trkpt lat="44.3686817" lon="9.88559"><ele>230.0</ele><time>2026-04-26T07:54:28.937Z</time></trkpt><trkpt lat="44.3687783" lon="9.8856467"><ele>230.2</ele><time>2026-04-26T07:54:29.937Z</time></trkpt><trkpt lat="44.3688683" lon="9.8857033"><ele>230.4</ele><time>2026-04-26T07:54:30.937Z</time></trkpt><trkpt lat="44.36896" lon="9.8857633"><ele>230.60000000000002</ele><time>2026-04-26T07:54:31.937Z</time></trkpt><trkpt lat="44.3690533" lon="9.8858183"><ele>230.8</ele><time>2026-04-26T07:54:32.937Z</time></trkpt><trkpt lat="44.3691517" lon="9.88588"><ele>231.0</ele><time>2026-04-26T07:54:33.937Z</time></trkpt><trkpt lat="44.3692583" lon="9.8859533"><ele>231.0</ele><time>2026-04-26T07:54:34.937Z</time></trkpt><trkpt lat="44.369365" lon="9.8860233"><ele>231.0</ele><time>2026-04-26T07:54:35.936Z</time></trkpt><trkpt lat="44.369465" lon="9.8860933"><ele>231.0</ele><time>2026-04-26T07:54:36.937Z</time></trkpt><trkpt lat="44.3695733" lon="9.886165"><ele>231.0</ele><time>2026-04-26T07:54:37.936Z</time></trkpt><trkpt lat="44.369675" lon="9.8862367"><ele>231.0</ele><time>2026-04-26T07:54:38.937Z</time></trkpt><trkpt lat="44.3697733" lon="9.8863117"><ele>231.00000000000003</ele><time>2026-04-26T07:54:39.937Z</time></trkpt><trkpt lat="44.369875" lon="9.8863933"><ele>231.00000000000003</ele><time>2026-04-26T07:54:40.937Z</time></trkpt><trkpt lat="44.3699567" lon="9.8864733"><ele>231.0</ele><time>2026-04-26T07:54:41.937Z</time></trkpt><trkpt lat="44.3700483" lon="9.8865383"><ele>231.0</ele><time>2026-04-26T07:54:42.937Z</time></trkpt><trkpt lat="44.3701417" lon="9.8866017"><ele>231.0</ele><time>2026-04-26T07:54:43.937Z</time></trkpt><trkpt lat="44.3702367" lon="9.88667"><ele>231.00000000000003</ele><time>2026-04-26T07:54:44.937Z</time></trkpt><trkpt lat="44.370335" lon="9.8867367"><ele>231.00000000000003</ele><time>2026-04-26T07:54:45.937Z</time></trkpt><trkpt lat="44.3704367" lon="9.88681"><ele>231.0</ele><time>2026-04-26T07:54:46.936Z</time></trkpt><trkpt lat="44.3705433" lon="9.886865"><ele>231.0</ele><time>2026-04-26T07:54:47.937Z</time></trkpt><trkpt lat="44.370775" lon="9.8870017"><ele>231.25</ele><time>2026-04-26T07:54:49.937Z</time></trkpt><trkpt lat="44.3709033" lon="9.88706"><ele>231.5</ele><time>2026-04-26T07:54:50.937Z</time></trkpt><trkpt lat="44.3710367" lon="9.8871117"><ele>231.75</ele><time>2026-04-26T07:54:51.937Z</time></trkpt><trkpt lat="44.3711717" lon="9.8871483"><ele>232.0</ele><time>2026-04-26T07:54:52.937Z</time></trkpt><trkpt lat="44.3713067" lon="9.8871817"><ele>232.5</ele><time>2026-04-26T07:54:53.936Z</time></trkpt><trkpt lat="44.3714333" lon="9.8872033"><ele>233.0</ele><time>2026-04-26T07:54:54.937Z</time></trkpt><trkpt lat="44.3715567" lon="9.8872067"><ele>233.5</ele><time>2026-04-26T07:54:55.937Z</time></trkpt><trkpt lat="44.3716767" lon="9.887205"><ele>234.0</ele><time>2026-04-26T07:54:56.937Z</time></trkpt><trkpt lat="44.371785" lon="9.8872"><ele>234.0</ele><time>2026-04-26T07:54:57.937Z</time></trkpt><trkpt lat="44.3718767" lon="9.8871817"><ele>234.0</ele><time>2026-04-26T07:54:58.937Z</time></trkpt><trkpt lat="44.3719583" lon="9.88717"><ele>234.0</ele><time>2026-04-26T07:54:59.937Z</time></trkpt><trkpt lat="44.372035" lon="9.8871533"><ele>234.0</ele><time>2026-04-26T07:55:00.937Z</time></trkpt><trkpt lat="44.3721067" lon="9.8871333"><ele>234.0</ele><time>2026-04-26T07:55:01.937Z</time></trkpt><trkpt lat="44.37218" lon="9.8871083"><ele>234.0</ele><time>2026-04-26T07:55:02.937Z</time></trkpt><trkpt lat="44.372255" lon="9.8870833"><ele>234.16666666666666</ele><time>2026-04-26T07:55:03.937Z</time></trkpt><trkpt lat="44.3723283" lon="9.88706"><ele>234.33333333333331</ele><time>2026-04-26T07:55:04.937Z</time></trkpt><trkpt lat="44.372405" lon="9.88704"><ele>234.5</ele><time>2026-04-26T07:55:05.937Z</time></trkpt><trkpt lat="44.3724817" lon="9.8870167"><ele>234.66666666666666</ele><time>2026-04-26T07:55:06.937Z</time></trkpt><trkpt lat="44.372565" lon="9.8869917"><ele>234.83333333333331</ele><time>2026-04-26T07:55:07.937Z</time></trkpt><trkpt lat="44.37265" lon="9.8869683"><ele>235.0</ele><time>2026-04-26T07:55:08.937Z</time></trkpt><trkpt lat="44.3728383" lon="9.8869183"><ele>235.0</ele><time>2026-04-26T07:55:10.937Z</time></trkpt><trkpt lat="44.372945" lon="9.8868917"><ele>235.0</ele><time>2026-04-26T07:55:11.937Z</time></trkpt><trkpt lat="44.3730567" lon="9.88686"><ele>235.0</ele><time>2026-04-26T07:55:12.937Z</time></trkpt><trkpt lat="44.37317" lon="9.8868167"><ele>235.0</ele><time>2026-04-26T07:55:13.936Z</time></trkpt><trkpt lat="44.3732883" lon="9.8867733"><ele>234.75</ele><time>2026-04-26T07:55:14.936Z</time></trkpt><trkpt lat="44.3734067" lon="9.8867367"><ele>234.5</ele><time>2026-04-26T07:55:15.937Z</time></trkpt><trkpt lat="44.373535" lon="9.8866967"><ele>234.25</ele><time>2026-04-26T07:55:16.937Z</time></trkpt><trkpt lat="44.3736867" lon="9.8866567"><ele>234.0</ele><time>2026-04-26T07:55:17.937Z</time></trkpt><trkpt lat="44.373855" lon="9.8865983"><ele>234.33333333333331</ele><time>2026-04-26T07:55:18.937Z</time></trkpt><trkpt lat="44.37405" lon="9.88654"><ele>234.66666666666666</ele><time>2026-04-26T07:55:19.937Z</time></trkpt><trkpt lat="44.3742433" lon="9.8864817"><ele>235.0</ele><time>2026-04-26T07:55:20.937Z</time></trkpt><trkpt lat="44.37446" lon="9.8864367"><ele>235.0</ele><time>2026-04-26T07:55:21.937Z</time></trkpt><trkpt lat="44.3746717" lon="9.88639"><ele>235.0</ele><time>2026-04-26T07:55:22.937Z</time></trkpt><trkpt lat="44.3748717" lon="9.88634"><ele>235.0</ele><time>2026-04-26T07:55:23.937Z</time></trkpt><trkpt lat="44.375055" lon="9.8862733"><ele>236.33333333333331</ele><time>2026-04-26T07:55:24.937Z</time></trkpt><trkpt lat="44.3752233" lon="9.8861717"><ele>237.66666666666669</ele><time>2026-04-26T07:55:25.936Z</time></trkpt><trkpt lat="44.37538" lon="9.8860483"><ele>239.0</ele><time>2026-04-26T07:55:26.937Z</time></trkpt><trkpt lat="44.3755183" lon="9.88593"><ele>240.25</ele><time>2026-04-26T07:55:27.937Z</time></trkpt><trkpt lat="44.37563" lon="9.885835"><ele>241.5</ele><time>2026-04-26T07:55:28.937Z</time></trkpt><trkpt lat="44.3757133" lon="9.885755"><ele>242.75</ele><time>2026-04-26T07:55:29.937Z</time></trkpt><trkpt lat="44.37585" lon="9.8856383"><ele>244.0</ele><time>2026-04-26T07:55:31.937Z</time></trkpt><trkpt lat="44.37592" lon="9.8855867"><ele>244.0</ele><time>2026-04-26T07:55:32.937Z</time></trkpt><trkpt lat="44.3760217" lon="9.8855167"><ele>244.0</ele><time>2026-04-26T07:55:33.937Z</time></trkpt><trkpt lat="44.3761583" lon="9.885445"><ele>244.0</ele><time>2026-04-26T07:55:34.936Z</time></trkpt><trkpt lat="44.3763117" lon="9.88539"><ele>244.0</ele><time>2026-04-26T07:55:35.937Z</time></trkpt><trkpt lat="44.37647" lon="9.885325"><ele>247.33333333333331</ele><time>2026-04-26T07:55:36.937Z</time></trkpt><trkpt lat="44.3766367" lon="9.885265"><ele>250.66666666666669</ele><time>2026-04-26T07:55:37.937Z</time></trkpt><trkpt lat="44.376815" lon="9.8851967"><ele>254.0</ele><time>2026-04-26T07:55:38.937Z</time></trkpt><trkpt lat="44.3769917" lon="9.8851433"><ele>250.66666666666669</ele><time>2026-04-26T07:55:39.937Z</time></trkpt><trkpt lat="44.37717" lon="9.8850883"><ele>247.33333333333331</ele><time>2026-04-26T07:55:40.937Z</time></trkpt><trkpt lat="44.377345" lon="9.8850367"><ele>244.0</ele><time>2026-04-26T07:55:41.937Z</time></trkpt><trkpt lat="44.3775117" lon="9.8849817"><ele>244.0</ele><time>2026-04-26T07:55:42.937Z</time></trkpt><trkpt lat="44.3776767" lon="9.8849133"><ele>244.0</ele><time>2026-04-26T07:55:43.936Z</time></trkpt><trkpt lat="44.3778417" lon="9.8848517"><ele>244.0</ele><time>2026-04-26T07:55:44.937Z</time></trkpt><trkpt lat="44.3779983" lon="9.88479"><ele>245.33333333333331</ele><time>2026-04-26T07:55:45.937Z</time></trkpt><trkpt lat="44.378155" lon="9.8847333"><ele>246.66666666666669</ele><time>2026-04-26T07:55:46.937Z</time></trkpt><trkpt lat="44.378315" lon="9.8846733"><ele>248.0</ele><time>2026-04-26T07:55:47.937Z</time></trkpt><trkpt lat="44.37847" lon="9.88461"><ele>248.0</ele><time>2026-04-26T07:55:48.937Z</time></trkpt><trkpt lat="44.3786133" lon="9.8845517"><ele>248.0</ele><time>2026-04-26T07:55:49.937Z</time></trkpt><trkpt lat="44.3787583" lon="9.8844917"><ele>248.0</ele><time>2026-04-26T07:55:50.937Z</time></trkpt><trkpt lat="44.3790133" lon="9.8843467"><ele>249.25</ele><time>2026-04-26T07:55:52.937Z</time></trkpt><trkpt lat="44.3791433" lon="9.88428"><ele>250.5</ele><time>2026-04-26T07:55:53.937Z</time></trkpt><trkpt lat="44.3792817" lon="9.8842117"><ele>251.75</ele><time>2026-04-26T07:55:54.936Z</time></trkpt><trkpt lat="44.379425" lon="9.88414"><ele>253.0</ele><time>2026-04-26T07:55:55.937Z</time></trkpt><trkpt lat="44.3795633" lon="9.8840667"><ele>252.0</ele><time>2026-04-26T07:55:56.937Z</time></trkpt><trkpt lat="44.3797083" lon="9.8840217"><ele>251.0</ele><time>2026-04-26T07:55:57.936Z</time></trkpt><trkpt lat="44.3798567" lon="9.88398"><ele>250.0</ele><time>2026-04-26T07:55:58.937Z</time></trkpt><trkpt lat="44.3800033" lon="9.883945"><ele>249.0</ele><time>2026-04-26T07:55:59.937Z</time></trkpt><trkpt lat="44.3801483" lon="9.8838933"><ele>249.0</ele><time>2026-04-26T07:56:00.937Z</time></trkpt><trkpt lat="44.3802933" lon="9.88385"><ele>249.0</ele><time>2026-04-26T07:56:01.937Z</time></trkpt><trkpt lat="44.381855" lon="9.8847483"><ele>251.5</ele><time>2026-04-26T07:56:12.939Z</time></trkpt><trkpt lat="44.3821133" lon="9.88452"><ele>254.0</ele><time>2026-04-26T07:56:14.94Z</time></trkpt><trkpt lat="44.382265" lon="9.88437"><ele>252.33333333333334</ele><time>2026-04-26T07:56:15.94Z</time></trkpt><trkpt lat="44.382415" lon="9.8842233"><ele>250.66666666666669</ele><time>2026-04-26T07:56:16.94Z</time></trkpt><trkpt lat="44.3825533" lon="9.8840783"><ele>249.0</ele><time>2026-04-26T07:56:17.94Z</time></trkpt><trkpt lat="44.3826883" lon="9.88395"><ele>249.0</ele><time>2026-04-26T07:56:18.94Z</time></trkpt><trkpt lat="44.3828233" lon="9.88387"><ele>249.0</ele><time>2026-04-26T07:56:19.94Z</time></trkpt><trkpt lat="44.3829567" lon="9.883815"><ele>249.0</ele><time>2026-04-26T07:56:20.94Z</time></trkpt><trkpt lat="44.3830983" lon="9.883795"><ele>249.0</ele><time>2026-04-26T07:56:21.939Z</time></trkpt><trkpt lat="44.383255" lon="9.8837833"><ele>249.0</ele><time>2026-04-26T07:56:22.939Z</time></trkpt><trkpt lat="44.3834183" lon="9.8837683"><ele>249.0</ele><time>2026-04-26T07:56:23.94Z</time></trkpt><trkpt lat="44.3835833" lon="9.8837517"><ele>249.0</ele><time>2026-04-26T07:56:24.94Z</time></trkpt><trkpt lat="44.3837533" lon="9.88373"><ele>250.33333333333331</ele><time>2026-04-26T07:56:25.94Z</time></trkpt><trkpt lat="44.3839267" lon="9.8837167"><ele>251.66666666666666</ele><time>2026-04-26T07:56:26.94Z</time></trkpt><trkpt lat="44.3840967" lon="9.8837167"><ele>253.0</ele><time>2026-04-26T07:56:27.94Z</time></trkpt><trkpt lat="44.3842717" lon="9.8837267"><ele>253.0</ele><time>2026-04-26T07:56:28.939Z</time></trkpt><trkpt lat="44.3844417" lon="9.883735"><ele>253.0</ele><time>2026-04-26T07:56:29.94Z</time></trkpt><trkpt lat="44.3846167" lon="9.8837633"><ele>253.0</ele><time>2026-04-26T07:56:30.94Z</time></trkpt><trkpt lat="44.3847917" lon="9.8837817"><ele>254.0</ele><time>2026-04-26T07:56:31.94Z</time></trkpt><trkpt lat="44.3849767" lon="9.8838017"><ele>255.0</ele><time>2026-04-26T07:56:32.94Z</time></trkpt><trkpt lat="44.3851533" lon="9.8838217"><ele>256.0</ele><time>2026-04-26T07:56:33.94Z</time></trkpt><trkpt lat="44.385495" lon="9.8838767"><ele>256.66666666666663</ele><time>2026-04-26T07:56:35.939Z</time></trkpt><trkpt lat="44.385675" lon="9.883895"><ele>257.3333333333333</ele><time>2026-04-26T07:56:36.94Z</time></trkpt><trkpt lat="44.38586" lon="9.8839367"><ele>258.0</ele><time>2026-04-26T07:56:37.94Z</time></trkpt><trkpt lat="44.3860333" lon="9.883965"><ele>258.0</ele><time>2026-04-26T07:56:38.94Z</time></trkpt><trkpt lat="44.3862133" lon="9.8839817"><ele>258.0</ele><time>2026-04-26T07:56:39.94Z</time></trkpt><trkpt lat="44.3863867" lon="9.8840067"><ele>258.0</ele><time>2026-04-26T07:56:40.94Z</time></trkpt><trkpt lat="44.3865533" lon="9.8840383"><ele>259.0</ele><time>2026-04-26T07:56:41.94Z</time></trkpt><trkpt lat="44.386725" lon="9.88407"><ele>260.0</ele><time>2026-04-26T07:56:42.94Z</time></trkpt><trkpt lat="44.3868933" lon="9.8841017"><ele>261.0</ele><time>2026-04-26T07:56:43.94Z</time></trkpt><trkpt lat="44.38707" lon="9.8841233"><ele>262.3333333333333</ele><time>2026-04-26T07:56:44.94Z</time></trkpt><trkpt lat="44.3872417" lon="9.884145"><ele>263.66666666666663</ele><time>2026-04-26T07:56:45.94Z</time></trkpt><trkpt lat="44.3874117" lon="9.8841633"><ele>265.0</ele><time>2026-04-26T07:56:46.94Z</time></trkpt><trkpt lat="44.38758" lon="9.8841833"><ele>265.0</ele><time>2026-04-26T07:56:47.94Z</time></trkpt><trkpt lat="44.387745" lon="9.8842067"><ele>265.0</ele><time>2026-04-26T07:56:48.94Z</time></trkpt><trkpt lat="44.3879167" lon="9.8842383"><ele>265.0</ele><time>2026-04-26T07:56:49.939Z</time></trkpt><trkpt lat="44.3880833" lon="9.884265"><ele>265.0</ele><time>2026-04-26T07:56:50.94Z</time></trkpt><trkpt lat="44.3882567" lon="9.88429"><ele>265.0</ele><time>2026-04-26T07:56:51.94Z</time></trkpt><trkpt lat="44.3884333" lon="9.88432"><ele>265.0</ele><time>2026-04-26T07:56:52.94Z</time></trkpt><trkpt lat="44.3886033" lon="9.884355"><ele>265.0</ele><time>2026-04-26T07:56:53.94Z</time></trkpt><trkpt lat="44.3887867" lon="9.8843833"><ele>265.0</ele><time>2026-04-26T07:56:54.94Z</time></trkpt><trkpt lat="44.3891483" lon="9.8844117"><ele>265.0</ele><time>2026-04-26T07:56:56.94Z</time></trkpt><trkpt lat="44.3893333" lon="9.8844133"><ele>265.0</ele><time>2026-04-26T07:56:57.94Z</time></trkpt><trkpt lat="44.3895117" lon="9.8844"><ele>265.0</ele><time>2026-04-26T07:56:58.94Z</time></trkpt><trkpt lat="44.3896883" lon="9.8843683"><ele>266.0</ele><time>2026-04-26T07:56:59.94Z</time></trkpt><trkpt lat="44.3898683" lon="9.8843417"><ele>267.0</ele><time>2026-04-26T07:57:00.94Z</time></trkpt><trkpt lat="44.3900483" lon="9.884285"><ele>268.0</ele><time>2026-04-26T07:57:01.939Z</time></trkpt><trkpt lat="44.3902117" lon="9.884215"><ele>271.0</ele><time>2026-04-26T07:57:02.94Z</time></trkpt><trkpt lat="44.3903633" lon="9.8841383"><ele>274.0</ele><time>2026-04-26T07:57:03.94Z</time></trkpt><trkpt lat="44.3905217" lon="9.88406"><ele>277.0</ele><time>2026-04-26T07:57:04.94Z</time></trkpt><trkpt lat="44.3906633" lon="9.88395"><ele>277.0</ele><time>2026-04-26T07:57:05.94Z</time></trkpt><trkpt lat="44.3908083" lon="9.8838383"><ele>277.0</ele><time>2026-04-26T07:57:06.94Z</time></trkpt><trkpt lat="44.3909267" lon="9.88372"><ele>277.0</ele><time>2026-04-26T07:57:07.94Z</time></trkpt><trkpt lat="44.391035" lon="9.883615"><ele>277.0</ele><time>2026-04-26T07:57:08.94Z</time></trkpt><trkpt lat="44.391145" lon="9.8835117"><ele>278.25</ele><time>2026-04-26T07:57:09.94Z</time></trkpt><trkpt lat="44.391245" lon="9.8834133"><ele>279.5</ele><time>2026-04-26T07:57:10.94Z</time></trkpt><trkpt lat="44.3913417" lon="9.8833133"><ele>280.75</ele><time>2026-04-26T07:57:11.94Z</time></trkpt><trkpt lat="44.3914467" lon="9.8832067"><ele>282.0</ele><time>2026-04-26T07:57:12.94Z</time></trkpt><trkpt lat="44.39155" lon="9.8831017"><ele>282.0</ele><time>2026-04-26T07:57:13.939Z</time></trkpt><trkpt lat="44.39166" lon="9.8829867"><ele>282.0</ele><time>2026-04-26T07:57:14.94Z</time></trkpt><trkpt lat="44.3917717" lon="9.882865"><ele>282.0</ele><time>2026-04-26T07:57:15.94Z</time></trkpt><trkpt lat="44.3919967" lon="9.88262"><ele>283.5</ele><time>2026-04-26T07:57:17.94Z</time></trkpt><trkpt lat="44.3921167" lon="9.8825033"><ele>285.0</ele><time>2026-04-26T07:57:18.94Z</time></trkpt><trkpt lat="44.3922417" lon="9.8823817"><ele>286.5</ele><time>2026-04-26T07:57:19.94Z</time></trkpt><trkpt lat="44.39236" lon="9.8822617"><ele>288.0</ele><time>2026-04-26T07:57:20.94Z</time></trkpt><trkpt lat="44.39248" lon="9.8821383"><ele>288.0</ele><time>2026-04-26T07:57:21.94Z</time></trkpt><trkpt lat="44.3925933" lon="9.8820083"><ele>288.0</ele><time>2026-04-26T07:57:22.94Z</time></trkpt><trkpt lat="44.3927233" lon="9.8818933"><ele>288.0</ele><time>2026-04-26T07:57:23.94Z</time></trkpt><trkpt lat="44.3928517" lon="9.881775"><ele>287.0</ele><time>2026-04-26T07:57:24.94Z</time></trkpt><trkpt lat="44.3929733" lon="9.8816433"><ele>286.0</ele><time>2026-04-26T07:57:25.94Z</time></trkpt><trkpt lat="44.39309" lon="9.8815183"><ele>285.0</ele><time>2026-04-26T07:57:26.94Z</time></trkpt><trkpt lat="44.393205" lon="9.8814167"><ele>284.0</ele><time>2026-04-26T07:57:27.94Z</time></trkpt><trkpt lat="44.3933183" lon="9.8813367"><ele>284.0</ele><time>2026-04-26T07:57:28.94Z</time></trkpt><trkpt lat="44.3934333" lon="9.88129"><ele>284.0</ele><time>2026-04-26T07:57:29.94Z</time></trkpt><trkpt lat="44.39356" lon="9.88133"><ele>284.0</ele><time>2026-04-26T07:57:30.94Z</time></trkpt><trkpt lat="44.3936733" lon="9.881435"><ele>284.0</ele><time>2026-04-26T07:57:31.94Z</time></trkpt><trkpt lat="44.3937833" lon="9.881585"><ele>284.33333333333337</ele><time>2026-04-26T07:57:32.94Z</time></trkpt><trkpt lat="44.3938917" lon="9.8817633"><ele>284.6666666666667</ele><time>2026-04-26T07:57:33.94Z</time></trkpt><trkpt lat="44.394" lon="9.8819483"><ele>285.0</ele><time>2026-04-26T07:57:34.94Z</time></trkpt><trkpt lat="44.3941017" lon="9.8821283"><ele>285.0</ele><time>2026-04-26T07:57:35.94Z</time></trkpt><trkpt lat="44.3942217" lon="9.8823017"><ele>285.0</ele><time>2026-04-26T07:57:36.939Z</time></trkpt><trkpt lat="44.3945133" lon="9.8825433"><ele>290.3333333333333</ele><time>2026-04-26T07:57:38.939Z</time></trkpt><trkpt lat="44.39469" lon="9.88257"><ele>295.66666666666663</ele><time>2026-04-26T07:57:39.94Z</time></trkpt><trkpt lat="44.3948733" lon="9.88256"><ele>301.0</ele><time>2026-04-26T07:57:40.94Z</time></trkpt><trkpt lat="44.3950533" lon="9.8825717"><ele>301.0</ele><time>2026-04-26T07:57:41.94Z</time></trkpt><trkpt lat="44.39523" lon="9.8825867"><ele>301.0</ele><time>2026-04-26T07:57:42.94Z</time></trkpt><trkpt lat="44.395405" lon="9.8826367"><ele>301.0</ele><time>2026-04-26T07:57:43.94Z</time></trkpt><trkpt lat="44.3955783" lon="9.8826883"><ele>299.3333333333333</ele><time>2026-04-26T07:57:44.94Z</time></trkpt><trkpt lat="44.3957433" lon="9.8827467"><ele>297.6666666666667</ele><time>2026-04-26T07:57:45.94Z</time></trkpt><trkpt lat="44.395905" lon="9.8828017"><ele>296.0</ele><time>2026-04-26T07:57:46.94Z</time></trkpt><trkpt lat="44.3960667" lon="9.8828567"><ele>296.0</ele><time>2026-04-26T07:57:47.94Z</time></trkpt><trkpt lat="44.3962283" lon="9.8829133"><ele>296.0</ele><time>2026-04-26T07:57:48.94Z</time></trkpt><trkpt lat="44.3963817" lon="9.8829867"><ele>296.0</ele><time>2026-04-26T07:57:49.94Z</time></trkpt><trkpt lat="44.3965183" lon="9.8830933"><ele>300.0</ele><time>2026-04-26T07:57:50.939Z</time></trkpt><trkpt lat="44.3966317" lon="9.8832383"><ele>304.0</ele><time>2026-04-26T07:57:51.94Z</time></trkpt><trkpt lat="44.3967217" lon="9.8834233"><ele>308.0</ele><time>2026-04-26T07:57:52.939Z</time></trkpt><trkpt lat="44.3967917" lon="9.8836267"><ele>308.0</ele><time>2026-04-26T07:57:53.94Z</time></trkpt><trkpt lat="44.3968683" lon="9.88383"><ele>308.0</ele><time>2026-04-26T07:57:54.939Z</time></trkpt><trkpt lat="44.396945" lon="9.884045"><ele>308.0</ele><time>2026-04-26T07:57:55.94Z</time></trkpt><trkpt lat="44.397035" lon="9.884255"><ele>303.5</ele><time>2026-04-26T07:57:56.94Z</time></trkpt><trkpt lat="44.3971433" lon="9.8844667"><ele>299.0</ele><time>2026-04-26T07:57:57.94Z</time></trkpt><trkpt lat="44.3973567" lon="9.8848717"><ele>303.6666666666667</ele><time>2026-04-26T07:57:59.939Z</time></trkpt><trkpt lat="44.397455" lon="9.8850533"><ele>308.3333333333333</ele><time>2026-04-26T07:58:00.939Z</time></trkpt><trkpt lat="44.3975583" lon="9.8852283"><ele>313.0</ele><time>2026-04-26T07:58:01.938Z</time></trkpt><trkpt lat="44.397655" lon="9.8853883"><ele>313.0</ele><time>2026-04-26T07:58:02.939Z</time></trkpt><trkpt lat="44.3977617" lon="9.8855267"><ele>313.0</ele><time>2026-04-26T07:58:03.939Z</time></trkpt><trkpt lat="44.39788" lon="9.8856383"><ele>313.0</ele><time>2026-04-26T07:58:04.939Z</time></trkpt><trkpt lat="44.3980117" lon="9.8856933"><ele>313.0</ele><time>2026-04-26T07:58:05.939Z</time></trkpt><trkpt lat="44.3981483" lon="9.8856783"><ele>318.0</ele><time>2026-04-26T07:58:06.939Z</time></trkpt><trkpt lat="44.3983" lon="9.885635"><ele>323.0</ele><time>2026-04-26T07:58:07.938Z</time></trkpt><trkpt lat="44.3984667" lon="9.8856217"><ele>328.0</ele><time>2026-04-26T07:58:08.939Z</time></trkpt><trkpt lat="44.3986283" lon="9.8856617"><ele>328.0</ele><time>2026-04-26T07:58:09.939Z</time></trkpt><trkpt lat="44.3987967" lon="9.8856933"><ele>328.0</ele><time>2026-04-26T07:58:10.939Z</time></trkpt><trkpt lat="44.3989483" lon="9.8857533"><ele>328.0</ele><time>2026-04-26T07:58:11.939Z</time></trkpt><trkpt lat="44.39907" lon="9.8858733"><ele>322.66666666666663</ele><time>2026-04-26T07:58:12.939Z</time></trkpt><trkpt lat="44.3991833" lon="9.8860017"><ele>317.3333333333333</ele><time>2026-04-26T07:58:13.939Z</time></trkpt><trkpt lat="44.399325" lon="9.8860933"><ele>312.0</ele><time>2026-04-26T07:58:14.939Z</time></trkpt><trkpt lat="44.3994983" lon="9.886135"><ele>323.3333333333333</ele><time>2026-04-26T07:58:15.939Z</time></trkpt><trkpt lat="44.399675" lon="9.8861483"><ele>334.66666666666663</ele><time>2026-04-26T07:58:16.939Z</time></trkpt><trkpt lat="44.399835" lon="9.8862283"><ele>346.0</ele><time>2026-04-26T07:58:17.939Z</time></trkpt><trkpt lat="44.3999733" lon="9.8863733"><ele>339.5</ele><time>2026-04-26T07:58:18.939Z</time></trkpt><trkpt lat="44.400155" lon="9.8867717"><ele>333.0</ele><time>2026-04-26T07:58:20.939Z</time></trkpt><trkpt lat="44.400215" lon="9.8870017"><ele>333.0</ele><time>2026-04-26T07:58:21.939Z</time></trkpt><trkpt lat="44.400265" lon="9.8872217"><ele>333.0</ele><time>2026-04-26T07:58:22.939Z</time></trkpt><trkpt lat="44.400335" lon="9.8874183"><ele>333.0</ele><time>2026-04-26T07:58:23.939Z</time></trkpt><trkpt lat="44.4004417" lon="9.887585"><ele>337.6666666666667</ele><time>2026-04-26T07:58:24.939Z</time></trkpt><trkpt lat="44.400575" lon="9.8877267"><ele>342.33333333333337</ele><time>2026-04-26T07:58:25.939Z</time></trkpt><trkpt lat="44.4007233" lon="9.88785"><ele>347.0</ele><time>2026-04-26T07:58:26.939Z</time></trkpt><trkpt lat="44.4008733" lon="9.8879867"><ele>347.0</ele><time>2026-04-26T07:58:27.938Z</time></trkpt><trkpt lat="44.40102" lon="9.888115"><ele>347.0</ele><time>2026-04-26T07:58:28.939Z</time></trkpt><trkpt lat="44.40115" lon="9.88823"><ele>347.0</ele><time>2026-04-26T07:58:29.939Z</time></trkpt><trkpt lat="44.40127" lon="9.8883117"><ele>345.0</ele><time>2026-04-26T07:58:30.939Z</time></trkpt><trkpt lat="44.4013967" lon="9.8883717"><ele>343.0</ele><time>2026-04-26T07:58:31.938Z</time></trkpt><trkpt lat="44.4015183" lon="9.8884283"><ele>341.0</ele><time>2026-04-26T07:58:32.939Z</time></trkpt><trkpt lat="44.4016383" lon="9.8885167"><ele>339.0</ele><time>2026-04-26T07:58:33.939Z</time></trkpt><trkpt lat="44.4017733" lon="9.8885817"><ele>339.0</ele><time>2026-04-26T07:58:34.939Z</time></trkpt><trkpt lat="44.4019183" lon="9.8886267"><ele>339.0</ele><time>2026-04-26T07:58:35.939Z</time></trkpt><trkpt lat="44.4020767" lon="9.88865"><ele>339.0</ele><time>2026-04-26T07:58:36.939Z</time></trkpt><trkpt lat="44.4022317" lon="9.8887033"><ele>344.0</ele><time>2026-04-26T07:58:37.939Z</time></trkpt><trkpt lat="44.40239" lon="9.888785"><ele>349.0</ele><time>2026-04-26T07:58:38.938Z</time></trkpt><trkpt lat="44.4025317" lon="9.8888917"><ele>354.0</ele><time>2026-04-26T07:58:39.939Z</time></trkpt><trkpt lat="44.4028167" lon="9.8890633"><ele>354.0</ele><time>2026-04-26T07:58:41.939Z</time></trkpt><trkpt lat="44.4029517" lon="9.889145"><ele>354.0</ele><time>2026-04-26T07:58:42.939Z</time></trkpt><trkpt lat="44.4030667" lon="9.889245"><ele>354.0</ele><time>2026-04-26T07:58:43.939Z</time></trkpt><trkpt lat="44.403145" lon="9.889395"><ele>354.0</ele><time>2026-04-26T07:58:44.939Z</time></trkpt><trkpt lat="44.4031917" lon="9.8895683"><ele>356.25</ele><time>2026-04-26T07:58:45.939Z</time></trkpt><trkpt lat="44.4031833" lon="9.8897533"><ele>358.5</ele><time>2026-04-26T07:58:46.939Z</time></trkpt><trkpt lat="44.40312" lon="9.8899117"><ele>360.75</ele><time>2026-04-26T07:58:47.938Z</time></trkpt><trkpt lat="44.40304" lon="9.89006"><ele>363.0</ele><time>2026-04-26T07:58:48.939Z</time></trkpt><trkpt lat="44.40299" lon="9.8902083"><ele>360.25</ele><time>2026-04-26T07:58:49.938Z</time></trkpt><trkpt lat="44.40299" lon="9.8903517"><ele>357.5</ele><time>2026-04-26T07:58:50.939Z</time></trkpt><trkpt lat="44.4030317" lon="9.8905017"><ele>354.75</ele><time>2026-04-26T07:58:51.939Z</time></trkpt><trkpt lat="44.4031283" lon="9.8906517"><ele>352.0</ele><time>2026-04-26T07:58:52.939Z</time></trkpt><trkpt lat="44.4032417" lon="9.8908133"><ele>345.3333333333333</ele><time>2026-04-26T07:58:53.939Z</time></trkpt><trkpt lat="44.40334" lon="9.890995"><ele>338.6666666666667</ele><time>2026-04-26T07:58:54.939Z</time></trkpt><trkpt lat="44.40342" lon="9.8912217"><ele>332.0</ele><time>2026-04-26T07:58:55.939Z</time></trkpt><trkpt lat="44.4034933" lon="9.8914483"><ele>332.0</ele><time>2026-04-26T07:58:56.939Z</time></trkpt><trkpt lat="44.4035717" lon="9.89168"><ele>332.0</ele><time>2026-04-26T07:58:57.939Z</time></trkpt><trkpt lat="44.4036367" lon="9.8919133"><ele>332.0</ele><time>2026-04-26T07:58:58.939Z</time></trkpt><trkpt lat="44.403695" lon="9.8921583"><ele>332.0</ele><time>2026-04-26T07:58:59.939Z</time></trkpt><trkpt lat="44.40377" lon="9.8924067"><ele>332.0</ele><time>2026-04-26T07:59:00.939Z</time></trkpt><trkpt lat="44.40399" lon="9.89283"><ele>332.0</ele><time>2026-04-26T07:59:02.938Z</time></trkpt><trkpt lat="44.40411" lon="9.8930383"><ele>332.0</ele><time>2026-04-26T07:59:03.938Z</time></trkpt><trkpt lat="44.4042467" lon="9.8932333"><ele>332.0</ele><time>2026-04-26T07:59:04.939Z</time></trkpt><trkpt lat="44.4043883" lon="9.8934283"><ele>334.0</ele><time>2026-04-26T07:59:05.939Z</time></trkpt><trkpt lat="44.4045367" lon="9.8935917"><ele>336.0</ele><time>2026-04-26T07:59:06.939Z</time></trkpt><trkpt lat="44.4047" lon="9.89376"><ele>338.0</ele><time>2026-04-26T07:59:07.939Z</time></trkpt><trkpt lat="44.40487" lon="9.8939217"><ele>338.0</ele><time>2026-04-26T07:59:08.938Z</time></trkpt><trkpt lat="44.4050233" lon="9.8941"><ele>338.0</ele><time>2026-04-26T07:59:09.939Z</time></trkpt><trkpt lat="44.4051933" lon="9.8942617"><ele>338.0</ele><time>2026-04-26T07:59:10.939Z</time></trkpt><trkpt lat="44.4053567" lon="9.89443"><ele>337.0</ele><time>2026-04-26T07:59:11.938Z</time></trkpt><trkpt lat="44.4055167" lon="9.8946"><ele>336.0</ele><time>2026-04-26T07:59:12.939Z</time></trkpt><trkpt lat="44.4056767" lon="9.89478"><ele>335.0</ele><time>2026-04-26T07:59:13.938Z</time></trkpt><trkpt lat="44.40583" lon="9.894965"><ele>328.6666666666667</ele><time>2026-04-26T07:59:14.938Z</time></trkpt><trkpt lat="44.4059767" lon="9.8951567"><ele>322.3333333333333</ele><time>2026-04-26T07:59:15.939Z</time></trkpt><trkpt lat="44.4061117" lon="9.8953583"><ele>316.0</ele><time>2026-04-26T07:59:16.939Z</time></trkpt><trkpt lat="44.4062517" lon="9.8955433"><ele>317.3333333333333</ele><time>2026-04-26T07:59:17.939Z</time></trkpt><trkpt lat="44.4063983" lon="9.8957217"><ele>318.6666666666667</ele><time>2026-04-26T07:59:18.939Z</time></trkpt><trkpt lat="44.4065467" lon="9.895895"><ele>320.0</ele><time>2026-04-26T07:59:19.939Z</time></trkpt><trkpt lat="44.4066967" lon="9.8960717"><ele>320.0</ele><time>2026-04-26T07:59:20.939Z</time></trkpt><trkpt lat="44.40684" lon="9.896265"><ele>320.0</ele><time>2026-04-26T07:59:21.938Z</time></trkpt><trkpt lat="44.4071283" lon="9.8966583"><ele>320.6666666666667</ele><time>2026-04-26T07:59:23.939Z</time></trkpt><trkpt lat="44.407265" lon="9.8968633"><ele>321.3333333333333</ele><time>2026-04-26T07:59:24.939Z</time></trkpt><trkpt lat="44.4073983" lon="9.8970583"><ele>322.0</ele><time>2026-04-26T07:59:25.939Z</time></trkpt><trkpt lat="44.4075383" lon="9.8972417"><ele>322.0</ele><time>2026-04-26T07:59:26.939Z</time></trkpt><trkpt lat="44.407695" lon="9.8973883"><ele>322.0</ele><time>2026-04-26T07:59:27.938Z</time></trkpt><trkpt lat="44.4078617" lon="9.8975117"><ele>322.0</ele><time>2026-04-26T07:59:28.939Z</time></trkpt><trkpt lat="44.4080317" lon="9.8976283"><ele>321.3333333333333</ele><time>2026-04-26T07:59:29.939Z</time></trkpt><trkpt lat="44.4081867" lon="9.897725"><ele>320.6666666666667</ele><time>2026-04-26T07:59:30.939Z</time></trkpt><trkpt lat="44.40835" lon="9.8978517"><ele>320.0</ele><time>2026-04-26T07:59:31.939Z</time></trkpt><trkpt lat="44.4084933" lon="9.8979817"><ele>320.0</ele><time>2026-04-26T07:59:32.939Z</time></trkpt><trkpt lat="44.408625" lon="9.8981283"><ele>320.0</ele><time>2026-04-26T07:59:33.939Z</time></trkpt><trkpt lat="44.4087667" lon="9.8982833"><ele>320.0</ele><time>2026-04-26T07:59:34.939Z</time></trkpt><trkpt lat="44.4089133" lon="9.8984233"><ele>323.33333333333337</ele><time>2026-04-26T07:59:35.939Z</time></trkpt><trkpt lat="44.4090583" lon="9.8985833"><ele>326.6666666666667</ele><time>2026-04-26T07:59:36.939Z</time></trkpt><trkpt lat="44.4091683" lon="9.8987717"><ele>330.0</ele><time>2026-04-26T07:59:37.939Z</time></trkpt><trkpt lat="44.4092617" lon="9.898975"><ele>330.0</ele><time>2026-04-26T07:59:38.939Z</time></trkpt><trkpt lat="44.4093417" lon="9.8991933"><ele>330.0</ele><time>2026-04-26T07:59:39.939Z</time></trkpt><trkpt lat="44.4094167" lon="9.8994183"><ele>330.0</ele><time>2026-04-26T07:59:40.939Z</time></trkpt><trkpt lat="44.4094767" lon="9.8996467"><ele>327.3333333333333</ele><time>2026-04-26T07:59:41.939Z</time></trkpt><trkpt lat="44.409525" lon="9.8998683"><ele>324.66666666666663</ele><time>2026-04-26T07:59:42.939Z</time></trkpt><trkpt lat="44.4095683" lon="9.9000733"><ele>322.0</ele><time>2026-04-26T07:59:43.939Z</time></trkpt><trkpt lat="44.409715" lon="9.900455"><ele>329.0</ele><time>2026-04-26T07:59:45.939Z</time></trkpt><trkpt lat="44.409815" lon="9.9006433"><ele>336.0</ele><time>2026-04-26T07:59:46.939Z</time></trkpt><trkpt lat="44.4098817" lon="9.9008483"><ele>343.0</ele><time>2026-04-26T07:59:47.939Z</time></trkpt><trkpt lat="44.409935" lon="9.9010717"><ele>343.0</ele><time>2026-04-26T07:59:48.939Z</time></trkpt><trkpt lat="44.41002" lon="9.90128"><ele>343.0</ele><time>2026-04-26T07:59:49.939Z</time></trkpt><trkpt lat="44.4101333" lon="9.9014867"><ele>343.0</ele><time>2026-04-26T07:59:50.939Z</time></trkpt><trkpt lat="44.4102517" lon="9.901675"><ele>341.66666666666663</ele><time>2026-04-26T07:59:51.938Z</time></trkpt><trkpt lat="44.4103667" lon="9.90188"><ele>340.3333333333333</ele><time>2026-04-26T07:59:52.939Z</time></trkpt><trkpt lat="44.4104833" lon="9.9020867"><ele>339.0</ele><time>2026-04-26T07:59:53.938Z</time></trkpt><trkpt lat="44.4106033" lon="9.9022883"><ele>338.6666666666667</ele><time>2026-04-26T07:59:54.939Z</time></trkpt><trkpt lat="44.41072" lon="9.9024783"><ele>338.33333333333337</ele><time>2026-04-26T07:59:55.938Z</time></trkpt><trkpt lat="44.41084" lon="9.9026317"><ele>338.0</ele><time>2026-04-26T07:59:56.939Z</time></trkpt><trkpt lat="44.4109567" lon="9.9027633"><ele>338.0</ele><time>2026-04-26T07:59:57.939Z</time></trkpt><trkpt lat="44.4111017" lon="9.9028667"><ele>338.0</ele><time>2026-04-26T07:59:58.939Z</time></trkpt><trkpt lat="44.4112633" lon="9.9029217"><ele>338.0</ele><time>2026-04-26T07:59:59.939Z</time></trkpt><trkpt lat="44.4114267" lon="9.902955"><ele>343.6666666666667</ele><time>2026-04-26T08:00:00.939Z</time></trkpt><trkpt lat="44.4115833" lon="9.9030233"><ele>349.3333333333333</ele><time>2026-04-26T08:00:01.939Z</time></trkpt><trkpt lat="44.4117333" lon="9.9031167"><ele>355.0</ele><time>2026-04-26T08:00:02.938Z</time></trkpt><trkpt lat="44.4118833" lon="9.9032067"><ele>355.0</ele><time>2026-04-26T08:00:03.939Z</time></trkpt><trkpt lat="44.4120233" lon="9.9032783"><ele>355.0</ele><time>2026-04-26T08:00:04.939Z</time></trkpt><trkpt lat="44.412245" lon="9.9034"><ele>355.0</ele><time>2026-04-26T08:00:06.939Z</time></trkpt><trkpt lat="44.4123183" lon="9.9035233"><ele>358.75</ele><time>2026-04-26T08:00:07.939Z</time></trkpt><trkpt lat="44.4123517" lon="9.9037"><ele>362.5</ele><time>2026-04-26T08:00:08.939Z</time></trkpt><trkpt lat="44.4123917" lon="9.9038917"><ele>366.25</ele><time>2026-04-26T08:00:09.939Z</time></trkpt><trkpt lat="44.4124517" lon="9.9040767"><ele>370.0</ele><time>2026-04-26T08:00:10.939Z</time></trkpt><trkpt lat="44.4125333" lon="9.9042617"><ele>370.0</ele><time>2026-04-26T08:00:11.938Z</time></trkpt><trkpt lat="44.4125883" lon="9.9044567"><ele>370.0</ele><time>2026-04-26T08:00:12.939Z</time></trkpt><trkpt lat="44.4126" lon="9.9046583"><ele>370.0</ele><time>2026-04-26T08:00:13.939Z</time></trkpt><trkpt lat="44.41261" lon="9.9048683"><ele>370.0</ele><time>2026-04-26T08:00:14.939Z</time></trkpt><trkpt lat="44.4126383" lon="9.9050683"><ele>366.75</ele><time>2026-04-26T08:00:15.938Z</time></trkpt><trkpt lat="44.4127067" lon="9.9052367"><ele>363.5</ele><time>2026-04-26T08:00:16.939Z</time></trkpt><trkpt lat="44.4127817" lon="9.9053833"><ele>360.25</ele><time>2026-04-26T08:00:17.939Z</time></trkpt><trkpt lat="44.4128283" lon="9.90554"><ele>357.0</ele><time>2026-04-26T08:00:18.939Z</time></trkpt><trkpt lat="44.41284" lon="9.9057033"><ele>357.0</ele><time>2026-04-26T08:00:19.939Z</time></trkpt><trkpt lat="44.41283" lon="9.9058917"><ele>357.0</ele><time>2026-04-26T08:00:20.938Z</time></trkpt><trkpt lat="44.4128317" lon="9.9060967"><ele>357.0</ele><time>2026-04-26T08:00:21.939Z</time></trkpt><trkpt lat="44.4128733" lon="9.9062983"><ele>357.0</ele><time>2026-04-26T08:00:22.938Z</time></trkpt><trkpt lat="44.4129367" lon="9.9064883"><ele>361.6666666666667</ele><time>2026-04-26T08:00:23.939Z</time></trkpt><trkpt lat="44.4130233" lon="9.90668"><ele>366.33333333333337</ele><time>2026-04-26T08:00:24.939Z</time></trkpt><trkpt lat="44.4131133" lon="9.9068717"><ele>371.0</ele><time>2026-04-26T08:00:25.939Z</time></trkpt><trkpt lat="44.413345" lon="9.9071783"><ele>371.0</ele><time>2026-04-26T08:00:27.939Z</time></trkpt><trkpt lat="44.4134867" lon="9.9072617"><ele>371.0</ele><time>2026-04-26T08:00:28.938Z</time></trkpt><trkpt lat="44.4136267" lon="9.9073283"><ele>371.0</ele><time>2026-04-26T08:00:29.939Z</time></trkpt><trkpt lat="44.4137467" lon="9.9074083"><ele>371.0</ele><time>2026-04-26T08:00:30.938Z</time></trkpt><trkpt lat="44.4138267" lon="9.9075317"><ele>372.25</ele><time>2026-04-26T08:00:31.939Z</time></trkpt><trkpt lat="44.4139283" lon="9.9076683"><ele>373.5</ele><time>2026-04-26T08:00:32.939Z</time></trkpt><trkpt lat="44.4140467" lon="9.9077817"><ele>374.75</ele><time>2026-04-26T08:00:33.939Z</time></trkpt><trkpt lat="44.414185" lon="9.9078967"><ele>376.0</ele><time>2026-04-26T08:00:34.939Z</time></trkpt><trkpt lat="44.414315" lon="9.9080367"><ele>376.0</ele><time>2026-04-26T08:00:35.939Z</time></trkpt><trkpt lat="44.41443" lon="9.90821"><ele>376.0</ele><time>2026-04-26T08:00:36.939Z</time></trkpt><trkpt lat="44.4145467" lon="9.9083767"><ele>376.0</ele><time>2026-04-26T08:00:37.939Z</time></trkpt><trkpt lat="44.4146683" lon="9.90856"><ele>383.3333333333333</ele><time>2026-04-26T08:00:38.938Z</time></trkpt><trkpt lat="44.414765" lon="9.9087567"><ele>390.66666666666663</ele><time>2026-04-26T08:00:39.939Z</time></trkpt><trkpt lat="44.41485" lon="9.90897"><ele>398.0</ele><time>2026-04-26T08:00:40.939Z</time></trkpt><trkpt lat="44.414925" lon="9.90918"><ele>392.3333333333333</ele><time>2026-04-26T08:00:41.938Z</time></trkpt><trkpt lat="44.41499" lon="9.9093867"><ele>386.66666666666663</ele><time>2026-04-26T08:00:42.939Z</time></trkpt><trkpt lat="44.4150583" lon="9.9095933"><ele>381.0</ele><time>2026-04-26T08:00:43.938Z</time></trkpt><trkpt lat="44.4151333" lon="9.9097917"><ele>381.0</ele><time>2026-04-26T08:00:44.939Z</time></trkpt><trkpt lat="44.41521" lon="9.9099467"><ele>381.0</ele><time>2026-04-26T08:00:45.939Z</time></trkpt><trkpt lat="44.4153167" lon="9.9100683"><ele>381.0</ele><time>2026-04-26T08:00:46.939Z</time></trkpt><trkpt lat="44.415555" lon="9.9101433"><ele>388.25</ele><time>2026-04-26T08:00:48.939Z</time></trkpt><trkpt lat="44.415675" lon="9.9100683"><ele>395.5</ele><time>2026-04-26T08:00:49.939Z</time></trkpt><trkpt lat="44.415785" lon="9.9099867"><ele>402.75</ele><time>2026-04-26T08:00:50.939Z</time></trkpt><trkpt lat="44.415905" lon="9.909945"><ele>410.0</ele><time>2026-04-26T08:00:51.939Z</time></trkpt><trkpt lat="44.41601" lon="9.9099983"><ele>407.0</ele><time>2026-04-26T08:00:52.939Z</time></trkpt><trkpt lat="44.4160917" lon="9.9100917"><ele>404.0</ele><time>2026-04-26T08:00:53.938Z</time></trkpt><trkpt lat="44.41617" lon="9.910205"><ele>401.0</ele><time>2026-04-26T08:00:54.939Z</time></trkpt><trkpt lat="44.4162683" lon="9.910295"><ele>398.0</ele><time>2026-04-26T08:00:55.938Z</time></trkpt><trkpt lat="44.4163817" lon="9.9103417"><ele>398.0</ele><time>2026-04-26T08:00:56.939Z</time></trkpt><trkpt lat="44.4165017" lon="9.9103233"><ele>398.0</ele><time>2026-04-26T08:00:57.939Z</time></trkpt><trkpt lat="44.4166217" lon="9.9102533"><ele>398.0</ele><time>2026-04-26T08:00:58.939Z</time></trkpt><trkpt lat="44.4167417" lon="9.9101933"><ele>398.0</ele><time>2026-04-26T08:00:59.939Z</time></trkpt><trkpt lat="44.416855" lon="9.9101583"><ele>397.99999999999994</ele><time>2026-04-26T08:01:00.939Z</time></trkpt><trkpt lat="44.41695" lon="9.9101383"><ele>398.0</ele><time>2026-04-26T08:01:01.939Z</time></trkpt><trkpt lat="44.4170383" lon="9.910155"><ele>398.0</ele><time>2026-04-26T08:01:02.939Z</time></trkpt><trkpt lat="44.417105" lon="9.9102333"><ele>398.0</ele><time>2026-04-26T08:01:03.939Z</time></trkpt><trkpt lat="44.4171467" lon="9.910335"><ele>397.99999999999994</ele><time>2026-04-26T08:01:04.939Z</time></trkpt><trkpt lat="44.4171483" lon="9.9104583"><ele>398.0</ele><time>2026-04-26T08:01:05.939Z</time></trkpt><trkpt lat="44.4171183" lon="9.9105967"><ele>398.0</ele><time>2026-04-26T08:01:06.938Z</time></trkpt><trkpt lat="44.41711" lon="9.91074"><ele>398.0</ele><time>2026-04-26T08:01:07.939Z</time></trkpt><trkpt lat="44.4171783" lon="9.9110517"><ele>398.0</ele><time>2026-04-26T08:01:09.939Z</time></trkpt><trkpt lat="44.417245" lon="9.9112083"><ele>394.75</ele><time>2026-04-26T08:01:10.939Z</time></trkpt><trkpt lat="44.4173067" lon="9.9113633"><ele>391.5</ele><time>2026-04-26T08:01:11.939Z</time></trkpt><trkpt lat="44.4173617" lon="9.9115117"><ele>388.25</ele><time>2026-04-26T08:01:12.939Z</time></trkpt><trkpt lat="44.41741" lon="9.9116533"><ele>385.0</ele><time>2026-04-26T08:01:13.938Z</time></trkpt><trkpt lat="44.41748" lon="9.9117567"><ele>385.0</ele><time>2026-04-26T08:01:14.939Z</time></trkpt><trkpt lat="44.4175867" lon="9.9118233"><ele>385.0</ele><time>2026-04-26T08:01:15.939Z</time></trkpt><trkpt lat="44.4177117" lon="9.9118617"><ele>385.0</ele><time>2026-04-26T08:01:16.939Z</time></trkpt><trkpt lat="44.417845" lon="9.9119183"><ele>385.0</ele><time>2026-04-26T08:01:17.939Z</time></trkpt><trkpt lat="44.4179533" lon="9.9119617"><ele>394.2</ele><time>2026-04-26T08:01:18.938Z</time></trkpt><trkpt lat="44.418025" lon="9.912055"><ele>403.4</ele><time>2026-04-26T08:01:19.938Z</time></trkpt><trkpt lat="44.41807" lon="9.9121833"><ele>412.6</ele><time>2026-04-26T08:01:20.938Z</time></trkpt><trkpt lat="44.4181167" lon="9.912305"><ele>421.8</ele><time>2026-04-26T08:01:21.939Z</time></trkpt><trkpt lat="44.4181883" lon="9.9124067"><ele>431.0</ele><time>2026-04-26T08:01:22.939Z</time></trkpt><trkpt lat="44.418275" lon="9.912505"><ele>421.25</ele><time>2026-04-26T08:01:23.939Z</time></trkpt><trkpt lat="44.4183617" lon="9.9126267"><ele>411.5</ele><time>2026-04-26T08:01:24.939Z</time></trkpt><trkpt lat="44.418435" lon="9.91277"><ele>401.75</ele><time>2026-04-26T08:01:25.939Z</time></trkpt><trkpt lat="44.418485" lon="9.9129217"><ele>392.0</ele><time>2026-04-26T08:01:26.939Z</time></trkpt><trkpt lat="44.4185367" lon="9.9130717"><ele>392.0</ele><time>2026-04-26T08:01:27.939Z</time></trkpt><trkpt lat="44.4186" lon="9.9132133"><ele>392.0</ele><time>2026-04-26T08:01:28.938Z</time></trkpt><trkpt lat="44.41877" lon="9.91346"><ele>392.0</ele><time>2026-04-26T08:01:30.939Z</time></trkpt><trkpt lat="44.41889" lon="9.9135567"><ele>390.25</ele><time>2026-04-26T08:01:31.938Z</time></trkpt><trkpt lat="44.4190167" lon="9.9136067"><ele>388.5</ele><time>2026-04-26T08:01:32.939Z</time></trkpt><trkpt lat="44.4191667" lon="9.9136067"><ele>386.75</ele><time>2026-04-26T08:01:33.939Z</time></trkpt><trkpt lat="44.4193167" lon="9.91358"><ele>385.0</ele><time>2026-04-26T08:01:34.938Z</time></trkpt><trkpt lat="44.4194367" lon="9.91358"><ele>385.0</ele><time>2026-04-26T08:01:35.939Z</time></trkpt><trkpt lat="44.4195383" lon="9.9135367"><ele>385.0</ele><time>2026-04-26T08:01:36.939Z</time></trkpt><trkpt lat="44.4196233" lon="9.91344"><ele>385.0</ele><time>2026-04-26T08:01:37.939Z</time></trkpt><trkpt lat="44.4196783" lon="9.9133283"><ele>385.0</ele><time>2026-04-26T08:01:38.939Z</time></trkpt><trkpt lat="44.4197433" lon="9.91321"><ele>385.0</ele><time>2026-04-26T08:01:39.939Z</time></trkpt><trkpt lat="44.4198267" lon="9.9131417"><ele>393.0</ele><time>2026-04-26T08:01:40.939Z</time></trkpt><trkpt lat="44.4199233" lon="9.9131383"><ele>401.0</ele><time>2026-04-26T08:01:41.939Z</time></trkpt><trkpt lat="44.4200233" lon="9.9131717"><ele>409.0</ele><time>2026-04-26T08:01:42.939Z</time></trkpt><trkpt lat="44.4201367" lon="9.91322"><ele>417.0</ele><time>2026-04-26T08:01:43.939Z</time></trkpt><trkpt lat="44.4202617" lon="9.9132817"><ele>417.0</ele><time>2026-04-26T08:01:44.939Z</time></trkpt><trkpt lat="44.4203917" lon="9.9133583"><ele>417.0</ele><time>2026-04-26T08:01:45.939Z</time></trkpt><trkpt lat="44.4205067" lon="9.9134617"><ele>417.0</ele><time>2026-04-26T08:01:46.939Z</time></trkpt><trkpt lat="44.4205983" lon="9.9136133"><ele>417.0</ele><time>2026-04-26T08:01:47.938Z</time></trkpt><trkpt lat="44.4206967" lon="9.9137567"><ele>414.0</ele><time>2026-04-26T08:01:48.939Z</time></trkpt><trkpt lat="44.4208117" lon="9.913865"><ele>411.0</ele><time>2026-04-26T08:01:49.939Z</time></trkpt><trkpt lat="44.4210617" lon="9.9140367"><ele>408.0</ele><time>2026-04-26T08:01:51.938Z</time></trkpt><trkpt lat="44.4211683" lon="9.9141533"><ele>404.0</ele><time>2026-04-26T08:01:52.939Z</time></trkpt><trkpt lat="44.421225" lon="9.9143217"><ele>400.0</ele><time>2026-04-26T08:01:53.939Z</time></trkpt><trkpt lat="44.4212567" lon="9.9145133"><ele>396.0</ele><time>2026-04-26T08:01:54.938Z</time></trkpt><trkpt lat="44.42128" lon="9.914715"><ele>392.0</ele><time>2026-04-26T08:01:55.939Z</time></trkpt><trkpt lat="44.42131" lon="9.9149183"><ele>394.5</ele><time>2026-04-26T08:01:56.939Z</time></trkpt><trkpt lat="44.421335" lon="9.9151133"><ele>397.0</ele><time>2026-04-26T08:01:57.939Z</time></trkpt><trkpt lat="44.4213733" lon="9.9152917"><ele>399.5</ele><time>2026-04-26T08:01:58.939Z</time></trkpt><trkpt lat="44.4214217" lon="9.91547"><ele>402.0</ele><time>2026-04-26T08:01:59.938Z</time></trkpt><trkpt lat="44.4215133" lon="9.915645"><ele>402.0</ele><time>2026-04-26T08:02:00.939Z</time></trkpt><trkpt lat="44.4216117" lon="9.91581"><ele>402.0</ele><time>2026-04-26T08:02:01.938Z</time></trkpt><trkpt lat="44.421715" lon="9.9159917"><ele>402.0</ele><time>2026-04-26T08:02:02.939Z</time></trkpt><trkpt lat="44.42182" lon="9.9161717"><ele>397.0</ele><time>2026-04-26T08:02:03.938Z</time></trkpt><trkpt lat="44.421925" lon="9.9163367"><ele>392.0</ele><time>2026-04-26T08:02:04.939Z</time></trkpt><trkpt lat="44.42203" lon="9.9164967"><ele>387.0</ele><time>2026-04-26T08:02:05.939Z</time></trkpt><trkpt lat="44.4221367" lon="9.9166667"><ele>389.66666666666663</ele><time>2026-04-26T08:02:06.939Z</time></trkpt><trkpt lat="44.4222417" lon="9.9168383"><ele>392.3333333333333</ele><time>2026-04-26T08:02:07.939Z</time></trkpt><trkpt lat="44.4223433" lon="9.9170183"><ele>395.0</ele><time>2026-04-26T08:02:08.939Z</time></trkpt><trkpt lat="44.422445" lon="9.9172033"><ele>395.0</ele><time>2026-04-26T08:02:09.939Z</time></trkpt><trkpt lat="44.4225367" lon="9.9173683"><ele>395.0</ele><time>2026-04-26T08:02:10.939Z</time></trkpt><trkpt lat="44.4227083" lon="9.9176833"><ele>395.0</ele><time>2026-04-26T08:02:12.939Z</time></trkpt><trkpt lat="44.4227933" lon="9.917835"><ele>395.5</ele><time>2026-04-26T08:02:13.939Z</time></trkpt><trkpt lat="44.422885" lon="9.9179867"><ele>396.0</ele><time>2026-04-26T08:02:14.939Z</time></trkpt><trkpt lat="44.4229783" lon="9.91814"><ele>396.5</ele><time>2026-04-26T08:02:15.939Z</time></trkpt><trkpt lat="44.4230767" lon="9.9182833"><ele>397.0</ele><time>2026-04-26T08:02:16.939Z</time></trkpt><trkpt lat="44.4231833" lon="9.9184417"><ele>395.5</ele><time>2026-04-26T08:02:17.939Z</time></trkpt><trkpt lat="44.423255" lon="9.918615"><ele>394.0</ele><time>2026-04-26T08:02:18.939Z</time></trkpt><trkpt lat="44.4233067" lon="9.9187933"><ele>392.5</ele><time>2026-04-26T08:02:19.939Z</time></trkpt><trkpt lat="44.423345" lon="9.918965"><ele>391.0</ele><time>2026-04-26T08:02:20.938Z</time></trkpt><trkpt lat="44.4233867" lon="9.9191383"><ele>389.75</ele><time>2026-04-26T08:02:21.938Z</time></trkpt><trkpt lat="44.42345" lon="9.9193083"><ele>388.5</ele><time>2026-04-26T08:02:22.939Z</time></trkpt><trkpt lat="44.4235117" lon="9.9194883"><ele>387.25</ele><time>2026-04-26T08:02:23.939Z</time></trkpt><trkpt lat="44.42359" lon="9.919665"><ele>386.0</ele><time>2026-04-26T08:02:24.938Z</time></trkpt><trkpt lat="44.423665" lon="9.9198417"><ele>386.0</ele><time>2026-04-26T08:02:25.939Z</time></trkpt><trkpt lat="44.423745" lon="9.920005"><ele>386.0</ele><time>2026-04-26T08:02:26.939Z</time></trkpt><trkpt lat="44.42383" lon="9.9201667"><ele>386.0</ele><time>2026-04-26T08:02:27.939Z</time></trkpt><trkpt lat="44.4239217" lon="9.920335"><ele>386.0</ele><time>2026-04-26T08:02:28.939Z</time></trkpt><trkpt lat="44.4240033" lon="9.9205017"><ele>387.66666666666663</ele><time>2026-04-26T08:02:29.939Z</time></trkpt><trkpt lat="44.4240833" lon="9.92066"><ele>389.33333333333337</ele><time>2026-04-26T08:02:30.938Z</time></trkpt><trkpt lat="44.4241517" lon="9.9208083"><ele>391.0</ele><time>2026-04-26T08:02:31.939Z</time></trkpt><trkpt lat="44.42425" lon="9.9210917"><ele>391.0</ele><time>2026-04-26T08:02:33.938Z</time></trkpt><trkpt lat="44.4242967" lon="9.9212333"><ele>391.0</ele><time>2026-04-26T08:02:34.939Z</time></trkpt><trkpt lat="44.42434" lon="9.92137"><ele>391.0</ele><time>2026-04-26T08:02:35.939Z</time></trkpt><trkpt lat="44.4243833" lon="9.921525"><ele>391.0</ele><time>2026-04-26T08:02:36.939Z</time></trkpt><trkpt lat="44.4244167" lon="9.921695"><ele>390.5</ele><time>2026-04-26T08:02:37.939Z</time></trkpt><trkpt lat="44.4244533" lon="9.9218783"><ele>390.0</ele><time>2026-04-26T08:02:38.939Z</time></trkpt><trkpt lat="44.42449" lon="9.92206"><ele>389.5</ele><time>2026-04-26T08:02:39.939Z</time></trkpt><trkpt lat="44.4245267" lon="9.9222417"><ele>389.0</ele><time>2026-04-26T08:02:40.939Z</time></trkpt><trkpt lat="44.42457" lon="9.9224233"><ele>388.75</ele><time>2026-04-26T08:02:41.938Z</time></trkpt><trkpt lat="44.4246183" lon="9.9226"><ele>388.5</ele><time>2026-04-26T08:02:42.938Z</time></trkpt><trkpt lat="44.42467" lon="9.92277"><ele>388.25</ele><time>2026-04-26T08:02:43.938Z</time></trkpt><trkpt lat="44.4247467" lon="9.922935"><ele>388.0</ele><time>2026-04-26T08:02:44.939Z</time></trkpt><trkpt lat="44.4248267" lon="9.9231083"><ele>390.5</ele><time>2026-04-26T08:02:45.939Z</time></trkpt><trkpt lat="44.4249017" lon="9.923265"><ele>393.0</ele><time>2026-04-26T08:02:46.939Z</time></trkpt><trkpt lat="44.4249683" lon="9.92342"><ele>395.5</ele><time>2026-04-26T08:02:47.939Z</time></trkpt><trkpt lat="44.425055" lon="9.923565"><ele>398.0</ele><time>2026-04-26T08:02:48.938Z</time></trkpt><trkpt lat="44.425165" lon="9.9236967"><ele>398.0</ele><time>2026-04-26T08:02:49.939Z</time></trkpt><trkpt lat="44.42528" lon="9.9238133"><ele>398.0</ele><time>2026-04-26T08:02:50.939Z</time></trkpt><trkpt lat="44.4253933" lon="9.9239183"><ele>398.0</ele><time>2026-04-26T08:02:51.938Z</time></trkpt><trkpt lat="44.42548" lon="9.9240267"><ele>398.0</ele><time>2026-04-26T08:02:52.938Z</time></trkpt><trkpt lat="44.4255983" lon="9.924315"><ele>399.59999999999997</ele><time>2026-04-26T08:02:54.939Z</time></trkpt><trkpt lat="44.4256367" lon="9.9244767"><ele>401.2</ele><time>2026-04-26T08:02:55.939Z</time></trkpt><trkpt lat="44.4256483" lon="9.9246283"><ele>402.8</ele><time>2026-04-26T08:02:56.938Z</time></trkpt><trkpt lat="44.4256267" lon="9.924765"><ele>404.4</ele><time>2026-04-26T08:02:57.939Z</time></trkpt><trkpt lat="44.42558" lon="9.9248867"><ele>406.0</ele><time>2026-04-26T08:02:58.939Z</time></trkpt><trkpt lat="44.4255283" lon="9.9250133"><ele>407.0</ele><time>2026-04-26T08:02:59.939Z</time></trkpt><trkpt lat="44.4255083" lon="9.9251517"><ele>408.0</ele><time>2026-04-26T08:03:00.939Z</time></trkpt><trkpt lat="44.4255267" lon="9.9253167"><ele>409.0</ele><time>2026-04-26T08:03:01.939Z</time></trkpt><trkpt lat="44.425565" lon="9.9254783"><ele>410.0</ele><time>2026-04-26T08:03:02.939Z</time></trkpt><trkpt lat="44.4256167" lon="9.92564"><ele>410.0</ele><time>2026-04-26T08:03:03.939Z</time></trkpt><trkpt lat="44.425695" lon="9.9257833"><ele>410.0</ele><time>2026-04-26T08:03:04.939Z</time></trkpt><trkpt lat="44.4257967" lon="9.9258967"><ele>410.0</ele><time>2026-04-26T08:03:05.939Z</time></trkpt><trkpt lat="44.42591" lon="9.9259817"><ele>410.0</ele><time>2026-04-26T08:03:06.939Z</time></trkpt><trkpt lat="44.4260233" lon="9.9260783"><ele>409.5</ele><time>2026-04-26T08:03:07.939Z</time></trkpt><trkpt lat="44.4261167" lon="9.926205"><ele>409.0</ele><time>2026-04-26T08:03:08.939Z</time></trkpt><trkpt lat="44.4261767" lon="9.9263567"><ele>408.5</ele><time>2026-04-26T08:03:09.939Z</time></trkpt><trkpt lat="44.4262233" lon="9.9265317"><ele>408.0</ele><time>2026-04-26T08:03:10.939Z</time></trkpt><trkpt lat="44.426255" lon="9.926725"><ele>408.33333333333337</ele><time>2026-04-26T08:03:11.938Z</time></trkpt><trkpt lat="44.4262633" lon="9.926925"><ele>408.6666666666667</ele><time>2026-04-26T08:03:12.939Z</time></trkpt><trkpt lat="44.42627" lon="9.9271233"><ele>409.0</ele><time>2026-04-26T08:03:13.939Z</time></trkpt><trkpt lat="44.4262633" lon="9.9275417"><ele>411.6666666666667</ele><time>2026-04-26T08:03:15.939Z</time></trkpt><trkpt lat="44.4262383" lon="9.9277467"><ele>414.33333333333337</ele><time>2026-04-26T08:03:16.939Z</time></trkpt><trkpt lat="44.426185" lon="9.9279483"><ele>417.0</ele><time>2026-04-26T08:03:17.939Z</time></trkpt><trkpt lat="44.426125" lon="9.9281483"><ele>417.0</ele><time>2026-04-26T08:03:18.939Z</time></trkpt><trkpt lat="44.4260567" lon="9.92833"><ele>417.0</ele><time>2026-04-26T08:03:19.939Z</time></trkpt><trkpt lat="44.42599" lon="9.9285083"><ele>417.0</ele><time>2026-04-26T08:03:20.939Z</time></trkpt><trkpt lat="44.4259367" lon="9.92867"><ele>417.0</ele><time>2026-04-26T08:03:21.939Z</time></trkpt><trkpt lat="44.42589" lon="9.928825"><ele>417.40000000000003</ele><time>2026-04-26T08:03:22.939Z</time></trkpt><trkpt lat="44.425885" lon="9.9289633"><ele>417.8</ele><time>2026-04-26T08:03:23.939Z</time></trkpt><trkpt lat="44.4259233" lon="9.9290783"><ele>418.2</ele><time>2026-04-26T08:03:24.939Z</time></trkpt><trkpt lat="44.4259983" lon="9.9291583"><ele>418.6</ele><time>2026-04-26T08:03:25.939Z</time></trkpt><trkpt lat="44.4260833" lon="9.929195"><ele>419.0</ele><time>2026-04-26T08:03:26.939Z</time></trkpt><trkpt lat="44.4261633" lon="9.92919"><ele>419.0</ele><time>2026-04-26T08:03:27.939Z</time></trkpt><trkpt lat="44.42623" lon="9.9291283"><ele>419.0</ele><time>2026-04-26T08:03:28.939Z</time></trkpt><trkpt lat="44.4262867" lon="9.9290017"><ele>419.0</ele><time>2026-04-26T08:03:29.939Z</time></trkpt><trkpt lat="44.4263483" lon="9.9288267"><ele>419.0</ele><time>2026-04-26T08:03:30.938Z</time></trkpt><trkpt lat="44.42641" lon="9.928625"><ele>424.0</ele><time>2026-04-26T08:03:31.939Z</time></trkpt><trkpt lat="44.42648" lon="9.928455"><ele>429.0</ele><time>2026-04-26T08:03:32.939Z</time></trkpt><trkpt lat="44.4265433" lon="9.9282917"><ele>434.0</ele><time>2026-04-26T08:03:33.939Z</time></trkpt><trkpt lat="44.4266117" lon="9.9281417"><ele>439.0</ele><time>2026-04-26T08:03:34.939Z</time></trkpt><trkpt lat="44.4267767" lon="9.9278933"><ele>439.0</ele><time>2026-04-26T08:03:36.939Z</time></trkpt><trkpt lat="44.426845" lon="9.9277683"><ele>439.0</ele><time>2026-04-26T08:03:37.939Z</time></trkpt><trkpt lat="44.4268967" lon="9.9276483"><ele>439.0</ele><time>2026-04-26T08:03:38.939Z</time></trkpt><trkpt lat="44.4269467" lon="9.9275383"><ele>439.0</ele><time>2026-04-26T08:03:39.939Z</time></trkpt><trkpt lat="44.427015" lon="9.9275"><ele>439.0</ele><time>2026-04-26T08:03:40.939Z</time></trkpt><trkpt lat="44.4271183" lon="9.927575"><ele>439.0</ele><time>2026-04-26T08:03:42.938Z</time></trkpt><trkpt lat="44.4271367" lon="9.9276933"><ele>439.0</ele><time>2026-04-26T08:03:43.939Z</time></trkpt><trkpt lat="44.427135" lon="9.92787"><ele>439.0</ele><time>2026-04-26T08:03:44.939Z</time></trkpt><trkpt lat="44.427115" lon="9.9280783"><ele>439.0</ele><time>2026-04-26T08:03:45.939Z</time></trkpt><trkpt lat="44.427115" lon="9.9282783"><ele>439.0</ele><time>2026-04-26T08:03:46.939Z</time></trkpt><trkpt lat="44.4271383" lon="9.92847"><ele>439.0</ele><time>2026-04-26T08:03:47.939Z</time></trkpt><trkpt lat="44.4271833" lon="9.928655"><ele>439.0</ele><time>2026-04-26T08:03:48.939Z</time></trkpt><trkpt lat="44.42724" lon="9.928825"><ele>439.0</ele><time>2026-04-26T08:03:49.939Z</time></trkpt><trkpt lat="44.4273" lon="9.9290033"><ele>442.0</ele><time>2026-04-26T08:03:50.939Z</time></trkpt><trkpt lat="44.4273633" lon="9.9291933"><ele>445.0</ele><time>2026-04-26T08:03:51.938Z</time></trkpt><trkpt lat="44.42742" lon="9.9293883"><ele>448.0</ele><time>2026-04-26T08:03:52.939Z</time></trkpt><trkpt lat="44.42745" lon="9.9295867"><ele>451.0</ele><time>2026-04-26T08:03:53.939Z</time></trkpt><trkpt lat="44.4274617" lon="9.92979"><ele>451.0</ele><time>2026-04-26T08:03:54.938Z</time></trkpt><trkpt lat="44.4274783" lon="9.9299767"><ele>451.0</ele><time>2026-04-26T08:03:55.939Z</time></trkpt><trkpt lat="44.4275717" lon="9.93032"><ele>451.0</ele><time>2026-04-26T08:03:57.939Z</time></trkpt><trkpt lat="44.4276267" lon="9.9304767"><ele>450.6</ele><time>2026-04-26T08:03:58.939Z</time></trkpt><trkpt lat="44.4276633" lon="9.93065"><ele>450.20000000000005</ele><time>2026-04-26T08:03:59.939Z</time></trkpt><trkpt lat="44.42768" lon="9.93081"><ele>449.79999999999995</ele><time>2026-04-26T08:04:00.938Z</time></trkpt><trkpt lat="44.427705" lon="9.9309417"><ele>449.4</ele><time>2026-04-26T08:04:01.939Z</time></trkpt><trkpt lat="44.42775" lon="9.9310567"><ele>449.0</ele><time>2026-04-26T08:04:02.939Z</time></trkpt><trkpt lat="44.4278133" lon="9.9311367"><ele>450.6</ele><time>2026-04-26T08:04:03.938Z</time></trkpt><trkpt lat="44.4278917" lon="9.9311833"><ele>452.2</ele><time>2026-04-26T08:04:04.939Z</time></trkpt><trkpt lat="44.427985" lon="9.9312"><ele>453.80000000000007</ele><time>2026-04-26T08:04:05.939Z</time></trkpt><trkpt lat="44.4281117" lon="9.93119"><ele>455.40000000000003</ele><time>2026-04-26T08:04:06.939Z</time></trkpt><trkpt lat="44.428235" lon="9.9311933"><ele>457.0</ele><time>2026-04-26T08:04:07.939Z</time></trkpt><trkpt lat="44.42835" lon="9.9312583"><ele>457.0</ele><time>2026-04-26T08:04:08.939Z</time></trkpt><trkpt lat="44.428445" lon="9.9313783"><ele>457.0</ele><time>2026-04-26T08:04:09.939Z</time></trkpt><trkpt lat="44.428515" lon="9.931525"><ele>457.0</ele><time>2026-04-26T08:04:10.939Z</time></trkpt><trkpt lat="44.42858" lon="9.9316533"><ele>457.0</ele><time>2026-04-26T08:04:11.939Z</time></trkpt><trkpt lat="44.42864" lon="9.9317517"><ele>457.75</ele><time>2026-04-26T08:04:12.938Z</time></trkpt><trkpt lat="44.4287217" lon="9.9318417"><ele>458.5</ele><time>2026-04-26T08:04:13.938Z</time></trkpt><trkpt lat="44.4288267" lon="9.9318733"><ele>459.25</ele><time>2026-04-26T08:04:14.939Z</time></trkpt><trkpt lat="44.4289417" lon="9.9318767"><ele>460.0</ele><time>2026-04-26T08:04:15.938Z</time></trkpt><trkpt lat="44.429075" lon="9.9318733"><ele>460.0</ele><time>2026-04-26T08:04:16.939Z</time></trkpt><trkpt lat="44.4293433" lon="9.931845"><ele>460.0</ele><time>2026-04-26T08:04:18.939Z</time></trkpt><trkpt lat="44.4294883" lon="9.931795"><ele>460.0</ele><time>2026-04-26T08:04:19.939Z</time></trkpt><trkpt lat="44.4296233" lon="9.93174"><ele>465.25</ele><time>2026-04-26T08:04:20.939Z</time></trkpt><trkpt lat="44.4297467" lon="9.9316533"><ele>470.5</ele><time>2026-04-26T08:04:21.939Z</time></trkpt><trkpt lat="44.4298567" lon="9.9315433"><ele>475.75</ele><time>2026-04-26T08:04:22.939Z</time></trkpt><trkpt lat="44.4299783" lon="9.931445"><ele>481.0</ele><time>2026-04-26T08:04:23.939Z</time></trkpt><trkpt lat="44.43011" lon="9.9313883"><ele>481.0</ele><time>2026-04-26T08:04:24.939Z</time></trkpt><trkpt lat="44.4302333" lon="9.9314017"><ele>481.0</ele><time>2026-04-26T08:04:25.938Z</time></trkpt><trkpt lat="44.4303533" lon="9.9314417"><ele>481.0</ele><time>2026-04-26T08:04:26.939Z</time></trkpt><trkpt lat="44.4304883" lon="9.9314933"><ele>481.0</ele><time>2026-04-26T08:04:27.939Z</time></trkpt><trkpt lat="44.4306233" lon="9.9315383"><ele>483.4</ele><time>2026-04-26T08:04:28.939Z</time></trkpt><trkpt lat="44.4307383" lon="9.9315783"><ele>485.8</ele><time>2026-04-26T08:04:29.939Z</time></trkpt><trkpt lat="44.430835" lon="9.9316117"><ele>488.19999999999993</ele><time>2026-04-26T08:04:30.939Z</time></trkpt><trkpt lat="44.43091" lon="9.9316683"><ele>490.59999999999997</ele><time>2026-04-26T08:04:31.939Z</time></trkpt><trkpt lat="44.43098" lon="9.9317517"><ele>493.0</ele><time>2026-04-26T08:04:32.939Z</time></trkpt><trkpt lat="44.431035" lon="9.9318633"><ele>494.79999999999995</ele><time>2026-04-26T08:04:33.939Z</time></trkpt><trkpt lat="44.4310733" lon="9.9319883"><ele>496.59999999999997</ele><time>2026-04-26T08:04:34.939Z</time></trkpt><trkpt lat="44.4311033" lon="9.93212"><ele>498.40000000000003</ele><time>2026-04-26T08:04:35.939Z</time></trkpt><trkpt lat="44.4311167" lon="9.9322433"><ele>500.20000000000005</ele><time>2026-04-26T08:04:36.939Z</time></trkpt><trkpt lat="44.431085" lon="9.9323467"><ele>502.0</ele><time>2026-04-26T08:04:37.939Z</time></trkpt><trkpt lat="44.4309417" lon="9.9324883"><ele>502.0</ele><time>2026-04-26T08:04:39.939Z</time></trkpt><trkpt lat="44.4308417" lon="9.9325133"><ele>502.00000000000006</ele><time>2026-04-26T08:04:40.938Z</time></trkpt><trkpt lat="44.4307433" lon="9.9325183"><ele>502.00000000000006</ele><time>2026-04-26T08:04:41.939Z</time></trkpt><trkpt lat="44.4306483" lon="9.932555"><ele>502.0</ele><time>2026-04-26T08:04:42.939Z</time></trkpt><trkpt lat="44.4305633" lon="9.9326317"><ele>502.0</ele><time>2026-04-26T08:04:43.939Z</time></trkpt><trkpt lat="44.4304867" lon="9.9327517"><ele>502.25</ele><time>2026-04-26T08:04:44.939Z</time></trkpt><trkpt lat="44.430405" lon="9.9328783"><ele>502.5</ele><time>2026-04-26T08:04:45.938Z</time></trkpt><trkpt lat="44.4303033" lon="9.93297"><ele>502.75</ele><time>2026-04-26T08:04:46.938Z</time></trkpt><trkpt lat="44.4301867" lon="9.9330333"><ele>503.0</ele><time>2026-04-26T08:04:47.939Z</time></trkpt><trkpt lat="44.4300783" lon="9.9331083"><ele>503.0</ele><time>2026-04-26T08:04:48.939Z</time></trkpt><trkpt lat="44.4299783" lon="9.93321"><ele>503.0</ele><time>2026-04-26T08:04:49.939Z</time></trkpt><trkpt lat="44.4299" lon="9.9333517"><ele>503.0</ele><time>2026-04-26T08:04:50.939Z</time></trkpt><trkpt lat="44.4298267" lon="9.9335117"><ele>503.0</ele><time>2026-04-26T08:04:51.939Z</time></trkpt><trkpt lat="44.429745" lon="9.9336633"><ele>499.5</ele><time>2026-04-26T08:04:52.939Z</time></trkpt><trkpt lat="44.4296533" lon="9.9338067"><ele>496.0</ele><time>2026-04-26T08:04:53.939Z</time></trkpt><trkpt lat="44.4295683" lon="9.9339417"><ele>492.5</ele><time>2026-04-26T08:04:54.938Z</time></trkpt><trkpt lat="44.4294783" lon="9.9340617"><ele>489.0</ele><time>2026-04-26T08:04:55.939Z</time></trkpt><trkpt lat="44.4294133" lon="9.9341967"><ele>489.66666666666663</ele><time>2026-04-26T08:04:56.939Z</time></trkpt><trkpt lat="44.429375" lon="9.934355"><ele>490.3333333333333</ele><time>2026-04-26T08:04:57.939Z</time></trkpt><trkpt lat="44.4293767" lon="9.93452"><ele>491.0</ele><time>2026-04-26T08:04:58.939Z</time></trkpt><trkpt lat="44.429465" lon="9.9348"><ele>491.0</ele><time>2026-04-26T08:05:00.939Z</time></trkpt><trkpt lat="44.4295533" lon="9.9349217"><ele>491.0</ele><time>2026-04-26T08:05:01.939Z</time></trkpt><trkpt lat="44.42962" lon="9.9350533"><ele>491.0</ele><time>2026-04-26T08:05:02.938Z</time></trkpt><trkpt lat="44.4296517" lon="9.93522"><ele>491.0</ele><time>2026-04-26T08:05:03.939Z</time></trkpt><trkpt lat="44.429635" lon="9.9354"><ele>489.75</ele><time>2026-04-26T08:05:04.939Z</time></trkpt><trkpt lat="44.429615" lon="9.9355717"><ele>488.5</ele><time>2026-04-26T08:05:05.939Z</time></trkpt><trkpt lat="44.4296067" lon="9.9357317"><ele>487.25</ele><time>2026-04-26T08:05:06.939Z</time></trkpt><trkpt lat="44.4296333" lon="9.9359033"><ele>486.0</ele><time>2026-04-26T08:05:07.939Z</time></trkpt><trkpt lat="44.4296783" lon="9.9360917"><ele>501.0</ele><time>2026-04-26T08:05:08.939Z</time></trkpt><trkpt lat="44.4297217" lon="9.93629"><ele>516.0</ele><time>2026-04-26T08:05:09.939Z</time></trkpt><trkpt lat="44.4297367" lon="9.936495"><ele>531.0</ele><time>2026-04-26T08:05:10.939Z</time></trkpt><trkpt lat="44.4297517" lon="9.93671"><ele>529.0</ele><time>2026-04-26T08:05:11.939Z</time></trkpt><trkpt lat="44.4297733" lon="9.9369067"><ele>527.0</ele><time>2026-04-26T08:05:12.939Z</time></trkpt><trkpt lat="44.4297817" lon="9.9370783"><ele>525.0</ele><time>2026-04-26T08:05:13.939Z</time></trkpt><trkpt lat="44.4297667" lon="9.9372333"><ele>523.0</ele><time>2026-04-26T08:05:14.939Z</time></trkpt><trkpt lat="44.429755" lon="9.9373667"><ele>523.0</ele><time>2026-04-26T08:05:15.938Z</time></trkpt><trkpt lat="44.4297683" lon="9.9374867"><ele>523.0</ele><time>2026-04-26T08:05:16.939Z</time></trkpt><trkpt lat="44.42982" lon="9.9375817"><ele>523.0</ele><time>2026-04-26T08:05:17.939Z</time></trkpt><trkpt lat="44.4299167" lon="9.9376517"><ele>523.0</ele><time>2026-04-26T08:05:18.939Z</time></trkpt><trkpt lat="44.43005" lon="9.93772"><ele>523.0</ele><time>2026-04-26T08:05:19.939Z</time></trkpt><trkpt lat="44.430325" lon="9.9378033"><ele>519.25</ele><time>2026-04-26T08:05:21.939Z</time></trkpt><trkpt lat="44.430465" lon="9.937805"><ele>515.5</ele><time>2026-04-26T08:05:22.938Z</time></trkpt><trkpt lat="44.4306083" lon="9.9377917"><ele>511.75</ele><time>2026-04-26T08:05:23.939Z</time></trkpt><trkpt lat="44.4307467" lon="9.9377883"><ele>508.0</ele><time>2026-04-26T08:05:24.939Z</time></trkpt><trkpt lat="44.43086" lon="9.937785"><ele>508.00000000000006</ele><time>2026-04-26T08:05:25.939Z</time></trkpt><trkpt lat="44.4309617" lon="9.9377633"><ele>508.0</ele><time>2026-04-26T08:05:26.938Z</time></trkpt><trkpt lat="44.4310517" lon="9.937735"><ele>508.0</ele><time>2026-04-26T08:05:27.939Z</time></trkpt><trkpt lat="44.4311433" lon="9.937725"><ele>508.0</ele><time>2026-04-26T08:05:28.938Z</time></trkpt><trkpt lat="44.4312233" lon="9.9377633"><ele>508.00000000000006</ele><time>2026-04-26T08:05:29.939Z</time></trkpt><trkpt lat="44.4312783" lon="9.9378233"><ele>508.0</ele><time>2026-04-26T08:05:30.939Z</time></trkpt><trkpt lat="44.4312983" lon="9.9380017"><ele>508.0</ele><time>2026-04-26T08:05:32.939Z</time></trkpt><trkpt lat="44.4312683" lon="9.93816"><ele>507.99999999999994</ele><time>2026-04-26T08:05:33.939Z</time></trkpt><trkpt lat="44.431235" lon="9.9383167"><ele>507.99999999999994</ele><time>2026-04-26T08:05:34.939Z</time></trkpt><trkpt lat="44.4312117" lon="9.9384733"><ele>508.0</ele><time>2026-04-26T08:05:35.939Z</time></trkpt><trkpt lat="44.431215" lon="9.9386033"><ele>508.0</ele><time>2026-04-26T08:05:36.939Z</time></trkpt><trkpt lat="44.4312433" lon="9.9386917"><ele>508.75</ele><time>2026-04-26T08:05:37.939Z</time></trkpt><trkpt lat="44.4313033" lon="9.93874"><ele>509.5</ele><time>2026-04-26T08:05:38.939Z</time></trkpt><trkpt lat="44.4313883" lon="9.9387517"><ele>510.25</ele><time>2026-04-26T08:05:39.939Z</time></trkpt><trkpt lat="44.4315017" lon="9.9387233"><ele>511.0</ele><time>2026-04-26T08:05:40.938Z</time></trkpt><trkpt lat="44.4317833" lon="9.93866"><ele>511.0</ele><time>2026-04-26T08:05:42.939Z</time></trkpt><trkpt lat="44.43191" lon="9.9386367"><ele>511.0</ele><time>2026-04-26T08:05:43.939Z</time></trkpt><trkpt lat="44.432005" lon="9.93864"><ele>511.0</ele><time>2026-04-26T08:05:44.939Z</time></trkpt><trkpt lat="44.43209" lon="9.9386817"><ele>511.0</ele><time>2026-04-26T08:05:45.939Z</time></trkpt><trkpt lat="44.432155" lon="9.9387667"><ele>511.0</ele><time>2026-04-26T08:05:46.939Z</time></trkpt><trkpt lat="44.432195" lon="9.9388717"><ele>511.00000000000006</ele><time>2026-04-26T08:05:47.939Z</time></trkpt><trkpt lat="44.4322067" lon="9.938985"><ele>511.0</ele><time>2026-04-26T08:05:48.939Z</time></trkpt><trkpt lat="44.43219" lon="9.93911"><ele>511.0</ele><time>2026-04-26T08:05:49.939Z</time></trkpt><trkpt lat="44.432195" lon="9.939235"><ele>511.0</ele><time>2026-04-26T08:05:50.939Z</time></trkpt><trkpt lat="44.4322183" lon="9.9393517"><ele>511.00000000000006</ele><time>2026-04-26T08:05:51.939Z</time></trkpt><trkpt lat="44.4322583" lon="9.93944"><ele>511.0</ele><time>2026-04-26T08:05:52.939Z</time></trkpt><trkpt lat="44.4323167" lon="9.9395133"><ele>511.0</ele><time>2026-04-26T08:05:53.939Z</time></trkpt><trkpt lat="44.4323933" lon="9.939585"><ele>511.0</ele><time>2026-04-26T08:05:54.939Z</time></trkpt><trkpt lat="44.4324767" lon="9.9396783"><ele>511.0</ele><time>2026-04-26T08:05:55.939Z</time></trkpt><trkpt lat="44.4325483" lon="9.939795"><ele>511.0</ele><time>2026-04-26T08:05:56.939Z</time></trkpt><trkpt lat="44.4325967" lon="9.9399267"><ele>511.0</ele><time>2026-04-26T08:05:57.939Z</time></trkpt><trkpt lat="44.4326467" lon="9.9400617"><ele>508.25</ele><time>2026-04-26T08:05:58.939Z</time></trkpt><trkpt lat="44.43271" lon="9.940155"><ele>505.5</ele><time>2026-04-26T08:05:59.939Z</time></trkpt><trkpt lat="44.4327983" lon="9.9402067"><ele>502.75</ele><time>2026-04-26T08:06:00.939Z</time></trkpt><trkpt lat="44.4329067" lon="9.94022"><ele>500.0</ele><time>2026-04-26T08:06:01.939Z</time></trkpt><trkpt lat="44.43316" lon="9.9402267"><ele>500.0</ele><time>2026-04-26T08:06:03.939Z</time></trkpt><trkpt lat="44.43331" lon="9.940235"><ele>500.0</ele><time>2026-04-26T08:06:04.939Z</time></trkpt><trkpt lat="44.4334633" lon="9.940235"><ele>500.0</ele><time>2026-04-26T08:06:05.938Z</time></trkpt><trkpt lat="44.43362" lon="9.9402383"><ele>500.0</ele><time>2026-04-26T08:06:06.939Z</time></trkpt><trkpt lat="44.4337883" lon="9.940245"><ele>500.0</ele><time>2026-04-26T08:06:07.939Z</time></trkpt><trkpt lat="44.433955" lon="9.9402533"><ele>500.0</ele><time>2026-04-26T08:06:08.939Z</time></trkpt><trkpt lat="44.4341133" lon="9.9402767"><ele>500.0</ele><time>2026-04-26T08:06:09.938Z</time></trkpt><trkpt lat="44.4342617" lon="9.9403117"><ele>500.0</ele><time>2026-04-26T08:06:10.939Z</time></trkpt><trkpt lat="44.4343933" lon="9.94035"><ele>500.0</ele><time>2026-04-26T08:06:11.939Z</time></trkpt><trkpt lat="44.434525" lon="9.9403833"><ele>500.0</ele><time>2026-04-26T08:06:12.939Z</time></trkpt><trkpt lat="44.4346533" lon="9.940375"><ele>500.0</ele><time>2026-04-26T08:06:13.939Z</time></trkpt><trkpt lat="44.43478" lon="9.9403467"><ele>500.0</ele><time>2026-04-26T08:06:14.939Z</time></trkpt><trkpt lat="44.4349017" lon="9.9402667"><ele>500.0</ele><time>2026-04-26T08:06:15.938Z</time></trkpt><trkpt lat="44.43501" lon="9.940145"><ele>500.0</ele><time>2026-04-26T08:06:16.939Z</time></trkpt><trkpt lat="44.4350967" lon="9.939995"><ele>506.2</ele><time>2026-04-26T08:06:17.939Z</time></trkpt><trkpt lat="44.4351683" lon="9.93983"><ele>512.4</ele><time>2026-04-26T08:06:18.939Z</time></trkpt><trkpt lat="44.4352467" lon="9.93971"><ele>518.6</ele><time>2026-04-26T08:06:19.939Z</time></trkpt><trkpt lat="44.4353417" lon="9.939675"><ele>524.8</ele><time>2026-04-26T08:06:20.939Z</time></trkpt><trkpt lat="44.4354267" lon="9.9397283"><ele>531.0</ele><time>2026-04-26T08:06:21.938Z</time></trkpt><trkpt lat="44.4354933" lon="9.9398317"><ele>523.0</ele><time>2026-04-26T08:06:22.939Z</time></trkpt><trkpt lat="44.435605" lon="9.9401083"><ele>515.0</ele><time>2026-04-26T08:06:24.938Z</time></trkpt><trkpt lat="44.4357" lon="9.9402267"><ele>507.0</ele><time>2026-04-26T08:06:25.939Z</time></trkpt><trkpt lat="44.4358117" lon="9.940315"><ele>507.0</ele><time>2026-04-26T08:06:26.939Z</time></trkpt><trkpt lat="44.4359383" lon="9.9404083"><ele>507.0</ele><time>2026-04-26T08:06:27.939Z</time></trkpt><trkpt lat="44.4360617" lon="9.940505"><ele>507.0</ele><time>2026-04-26T08:06:28.938Z</time></trkpt><trkpt lat="44.436185" lon="9.940565"><ele>507.0</ele><time>2026-04-26T08:06:29.939Z</time></trkpt><trkpt lat="44.4363" lon="9.9406133"><ele>509.0</ele><time>2026-04-26T08:06:30.938Z</time></trkpt><trkpt lat="44.4363867" lon="9.94068"><ele>511.00000000000006</ele><time>2026-04-26T08:06:31.939Z</time></trkpt><trkpt lat="44.4364567" lon="9.9407783"><ele>513.0</ele><time>2026-04-26T08:06:32.939Z</time></trkpt><trkpt lat="44.4364917" lon="9.9409267"><ele>515.0</ele><time>2026-04-26T08:06:33.939Z</time></trkpt><trkpt lat="44.4364933" lon="9.9411067"><ele>517.0</ele><time>2026-04-26T08:06:34.939Z</time></trkpt><trkpt lat="44.4364883" lon="9.9412817"><ele>517.0</ele><time>2026-04-26T08:06:35.939Z</time></trkpt><trkpt lat="44.4365067" lon="9.9414117"><ele>517.0</ele><time>2026-04-26T08:06:36.939Z</time></trkpt><trkpt lat="44.43655" lon="9.941495"><ele>517.0</ele><time>2026-04-26T08:06:37.939Z</time></trkpt><trkpt lat="44.43662" lon="9.941555"><ele>517.0</ele><time>2026-04-26T08:06:38.938Z</time></trkpt><trkpt lat="44.4367267" lon="9.941585"><ele>517.0</ele><time>2026-04-26T08:06:39.939Z</time></trkpt><trkpt lat="44.4368417" lon="9.9416017"><ele>517.0</ele><time>2026-04-26T08:06:40.939Z</time></trkpt><trkpt lat="44.4369567" lon="9.9416083"><ele>517.0</ele><time>2026-04-26T08:06:41.939Z</time></trkpt><trkpt lat="44.43706" lon="9.9415933"><ele>517.0</ele><time>2026-04-26T08:06:42.939Z</time></trkpt><trkpt lat="44.4371517" lon="9.94154"><ele>517.0</ele><time>2026-04-26T08:06:43.938Z</time></trkpt><trkpt lat="44.4372617" lon="9.9413317"><ele>518.4</ele><time>2026-04-26T08:06:45.939Z</time></trkpt><trkpt lat="44.4373067" lon="9.9411967"><ele>519.8000000000001</ele><time>2026-04-26T08:06:46.939Z</time></trkpt><trkpt lat="44.43737" lon="9.9410883"><ele>521.2</ele><time>2026-04-26T08:06:47.939Z</time></trkpt><trkpt lat="44.4374317" lon="9.94103"><ele>522.6</ele><time>2026-04-26T08:06:48.938Z</time></trkpt><trkpt lat="44.4375467" lon="9.94107"><ele>524.0</ele><time>2026-04-26T08:06:50.938Z</time></trkpt><trkpt lat="44.4375917" lon="9.9411833"><ele>524.0</ele><time>2026-04-26T08:06:51.939Z</time></trkpt><trkpt lat="44.437635" lon="9.941355"><ele>524.0</ele><time>2026-04-26T08:06:52.939Z</time></trkpt><trkpt lat="44.4376667" lon="9.94153"><ele>524.0</ele><time>2026-04-26T08:06:53.939Z</time></trkpt><trkpt lat="44.43771" lon="9.9416767"><ele>524.0</ele><time>2026-04-26T08:06:54.938Z</time></trkpt><trkpt lat="44.4377667" lon="9.941785"><ele>522.2</ele><time>2026-04-26T08:06:55.939Z</time></trkpt><trkpt lat="44.437845" lon="9.9418483"><ele>520.4</ele><time>2026-04-26T08:06:56.939Z</time></trkpt><trkpt lat="44.437945" lon="9.9418867"><ele>518.6</ele><time>2026-04-26T08:06:57.939Z</time></trkpt><trkpt lat="44.4380583" lon="9.941895"><ele>516.8</ele><time>2026-04-26T08:06:58.939Z</time></trkpt><trkpt lat="44.4381983" lon="9.9418733"><ele>515.0</ele><time>2026-04-26T08:06:59.939Z</time></trkpt><trkpt lat="44.4383383" lon="9.9418467"><ele>515.0</ele><time>2026-04-26T08:07:00.939Z</time></trkpt><trkpt lat="44.43847" lon="9.9418617"><ele>515.0</ele><time>2026-04-26T08:07:01.939Z</time></trkpt><trkpt lat="44.4385983" lon="9.9419"><ele>515.0</ele><time>2026-04-26T08:07:02.939Z</time></trkpt><trkpt lat="44.438715" lon="9.94199"><ele>515.0</ele><time>2026-04-26T08:07:03.939Z</time></trkpt><trkpt lat="44.43882" lon="9.9421167"><ele>516.0</ele><time>2026-04-26T08:07:04.939Z</time></trkpt><trkpt lat="44.438965" lon="9.9423983"><ele>517.0</ele><time>2026-04-26T08:07:06.939Z</time></trkpt><trkpt lat="44.4390183" lon="9.942515"><ele>518.0</ele><time>2026-04-26T08:07:07.939Z</time></trkpt><trkpt lat="44.4390783" lon="9.9425967"><ele>519.0</ele><time>2026-04-26T08:07:08.939Z</time></trkpt><trkpt lat="44.439145" lon="9.94263"><ele>519.0</ele><time>2026-04-26T08:07:09.939Z</time></trkpt><trkpt lat="44.4392183" lon="9.9426367"><ele>519.0</ele><time>2026-04-26T08:07:10.939Z</time></trkpt><trkpt lat="44.4392883" lon="9.9425633"><ele>519.0</ele><time>2026-04-26T08:07:11.939Z</time></trkpt><trkpt lat="44.43935" lon="9.9424233"><ele>519.0</ele><time>2026-04-26T08:07:12.939Z</time></trkpt><trkpt lat="44.4393983" lon="9.9422283"><ele>519.0</ele><time>2026-04-26T08:07:13.939Z</time></trkpt><trkpt lat="44.439445" lon="9.942035"><ele>518.25</ele><time>2026-04-26T08:07:14.939Z</time></trkpt><trkpt lat="44.439515" lon="9.9418867"><ele>517.5</ele><time>2026-04-26T08:07:15.939Z</time></trkpt><trkpt lat="44.4396083" lon="9.9417817"><ele>516.75</ele><time>2026-04-26T08:07:16.939Z</time></trkpt><trkpt lat="44.439725" lon="9.9417283"><ele>516.0</ele><time>2026-04-26T08:07:17.939Z</time></trkpt><trkpt lat="44.4398533" lon="9.9416833"><ele>521.75</ele><time>2026-04-26T08:07:18.939Z</time></trkpt><trkpt lat="44.4399883" lon="9.9416533"><ele>527.5</ele><time>2026-04-26T08:07:19.939Z</time></trkpt><trkpt lat="44.4401183" lon="9.9416333"><ele>533.25</ele><time>2026-04-26T08:07:20.939Z</time></trkpt><trkpt lat="44.44024" lon="9.94161"><ele>539.0</ele><time>2026-04-26T08:07:21.939Z</time></trkpt><trkpt lat="44.4403533" lon="9.9416"><ele>539.0</ele><time>2026-04-26T08:07:22.939Z</time></trkpt><trkpt lat="44.4404483" lon="9.941565"><ele>539.0</ele><time>2026-04-26T08:07:23.939Z</time></trkpt><trkpt lat="44.4405483" lon="9.941505"><ele>539.0</ele><time>2026-04-26T08:07:24.939Z</time></trkpt><trkpt lat="44.4406317" lon="9.941405"><ele>539.0</ele><time>2026-04-26T08:07:25.939Z</time></trkpt><trkpt lat="44.44082" lon="9.9412667"><ele>536.0</ele><time>2026-04-26T08:07:27.939Z</time></trkpt><trkpt lat="44.4409383" lon="9.941225"><ele>533.0</ele><time>2026-04-26T08:07:28.939Z</time></trkpt><trkpt lat="44.4410533" lon="9.9412017"><ele>530.0</ele><time>2026-04-26T08:07:29.939Z</time></trkpt><trkpt lat="44.4411633" lon="9.9412067"><ele>527.0</ele><time>2026-04-26T08:07:30.938Z</time></trkpt><trkpt lat="44.4412633" lon="9.9412883"><ele>527.0</ele><time>2026-04-26T08:07:31.939Z</time></trkpt><trkpt lat="44.4413567" lon="9.9413917"><ele>527.0</ele><time>2026-04-26T08:07:32.939Z</time></trkpt><trkpt lat="44.441445" lon="9.9414967"><ele>527.0</ele><time>2026-04-26T08:07:33.939Z</time></trkpt><trkpt lat="44.4415317" lon="9.9415883"><ele>527.0</ele><time>2026-04-26T08:07:34.939Z</time></trkpt><trkpt lat="44.441625" lon="9.94166"><ele>527.0</ele><time>2026-04-26T08:07:35.939Z</time></trkpt><trkpt lat="44.44171" lon="9.941695"><ele>527.0</ele><time>2026-04-26T08:07:36.939Z</time></trkpt><trkpt lat="44.4418033" lon="9.9416833"><ele>527.0</ele><time>2026-04-26T08:07:37.939Z</time></trkpt><trkpt lat="44.44191" lon="9.9416217"><ele>527.0</ele><time>2026-04-26T08:07:38.938Z</time></trkpt><trkpt lat="44.442035" lon="9.9415567"><ele>527.0</ele><time>2026-04-26T08:07:39.938Z</time></trkpt><trkpt lat="44.4421667" lon="9.9415033"><ele>530.25</ele><time>2026-04-26T08:07:40.939Z</time></trkpt><trkpt lat="44.44231" lon="9.9414633"><ele>533.5</ele><time>2026-04-26T08:07:41.939Z</time></trkpt><trkpt lat="44.442455" lon="9.9414183"><ele>536.75</ele><time>2026-04-26T08:07:42.939Z</time></trkpt><trkpt lat="44.4426017" lon="9.94137"><ele>540.0</ele><time>2026-04-26T08:07:43.939Z</time></trkpt><trkpt lat="44.44275" lon="9.9413133"><ele>540.0</ele><time>2026-04-26T08:07:44.939Z</time></trkpt><trkpt lat="44.4429017" lon="9.9412567"><ele>540.0</ele><time>2026-04-26T08:07:45.939Z</time></trkpt><trkpt lat="44.4430533" lon="9.9412083"><ele>540.0</ele><time>2026-04-26T08:07:46.939Z</time></trkpt><trkpt lat="44.44334" lon="9.9411167"><ele>540.6</ele><time>2026-04-26T08:07:48.939Z</time></trkpt><trkpt lat="44.4434583" lon="9.9410567"><ele>541.2</ele><time>2026-04-26T08:07:49.939Z</time></trkpt><trkpt lat="44.4435517" lon="9.9409867"><ele>541.8</ele><time>2026-04-26T08:07:50.938Z</time></trkpt><trkpt lat="44.443635" lon="9.9409117"><ele>542.4</ele><time>2026-04-26T08:07:51.939Z</time></trkpt><trkpt lat="44.443715" lon="9.94088"><ele>543.0</ele><time>2026-04-26T08:07:52.939Z</time></trkpt><trkpt lat="44.4437833" lon="9.9408967"><ele>545.0</ele><time>2026-04-26T08:07:53.939Z</time></trkpt><trkpt lat="44.4438333" lon="9.941005"><ele>547.0</ele><time>2026-04-26T08:07:55.939Z</time></trkpt><trkpt lat="44.4437217" lon="9.941125"><ele>549.0</ele><time>2026-04-26T08:07:57.939Z</time></trkpt><trkpt lat="44.4436333" lon="9.9412133"><ele>551.0</ele><time>2026-04-26T08:07:58.939Z</time></trkpt><trkpt lat="44.4435767" lon="9.9413183"><ele>553.0</ele><time>2026-04-26T08:07:59.939Z</time></trkpt><trkpt lat="44.44354" lon="9.941435"><ele>553.0</ele><time>2026-04-26T08:08:00.939Z</time></trkpt><trkpt lat="44.44353" lon="9.941555"><ele>553.0</ele><time>2026-04-26T08:08:01.939Z</time></trkpt><trkpt lat="44.4435467" lon="9.9416833"><ele>553.0</ele><time>2026-04-26T08:08:02.939Z</time></trkpt><trkpt lat="44.4435883" lon="9.9418067"><ele>553.0</ele><time>2026-04-26T08:08:03.938Z</time></trkpt><trkpt lat="44.44365" lon="9.9419433"><ele>553.0</ele><time>2026-04-26T08:08:04.938Z</time></trkpt><trkpt lat="44.4437183" lon="9.9420833"><ele>557.6</ele><time>2026-04-26T08:08:05.939Z</time></trkpt><trkpt lat="44.4437767" lon="9.94221"><ele>562.1999999999999</ele><time>2026-04-26T08:08:06.939Z</time></trkpt><trkpt lat="44.44382" lon="9.9423333"><ele>566.8</ele><time>2026-04-26T08:08:07.939Z</time></trkpt><trkpt lat="44.4439167" lon="9.94248"><ele>571.4</ele><time>2026-04-26T08:08:09.939Z</time></trkpt><trkpt lat="44.4440167" lon="9.942495"><ele>576.0</ele><time>2026-04-26T08:08:11.939Z</time></trkpt><trkpt lat="44.4439983" lon="9.942375"><ele>576.0</ele><time>2026-04-26T08:08:13.939Z</time></trkpt><trkpt lat="44.4439367" lon="9.9422667"><ele>576.0</ele><time>2026-04-26T08:08:14.939Z</time></trkpt><trkpt lat="44.4438433" lon="9.942115"><ele>576.0</ele><time>2026-04-26T08:08:15.939Z</time></trkpt><trkpt lat="44.44378" lon="9.9419617"><ele>576.0</ele><time>2026-04-26T08:08:16.939Z</time></trkpt><trkpt lat="44.4437533" lon="9.9418133"><ele>576.75</ele><time>2026-04-26T08:08:17.939Z</time></trkpt><trkpt lat="44.44376" lon="9.9416367"><ele>577.5</ele><time>2026-04-26T08:08:18.939Z</time></trkpt><trkpt lat="44.4438017" lon="9.941485"><ele>578.25</ele><time>2026-04-26T08:08:19.938Z</time></trkpt><trkpt lat="44.4438483" lon="9.9413283"><ele>579.0</ele><time>2026-04-26T08:08:20.939Z</time></trkpt><trkpt lat="44.4439033" lon="9.941205"><ele>579.0</ele><time>2026-04-26T08:08:21.939Z</time></trkpt><trkpt lat="44.443965" lon="9.9411267"><ele>579.0</ele><time>2026-04-26T08:08:22.938Z</time></trkpt><trkpt lat="44.4440483" lon="9.9410567"><ele>579.0</ele><time>2026-04-26T08:08:23.939Z</time></trkpt><trkpt lat="44.4441517" lon="9.9409967"><ele>579.0</ele><time>2026-04-26T08:08:24.939Z</time></trkpt><trkpt lat="44.444265" lon="9.9409483"><ele>579.0</ele><time>2026-04-26T08:08:25.939Z</time></trkpt><trkpt lat="44.4443967" lon="9.94092"><ele>579.0</ele><time>2026-04-26T08:08:26.939Z</time></trkpt><trkpt lat="44.4445317" lon="9.9408867"><ele>579.0</ele><time>2026-04-26T08:08:27.939Z</time></trkpt><trkpt lat="44.4446617" lon="9.9408517"><ele>579.0</ele><time>2026-04-26T08:08:28.938Z</time></trkpt><trkpt lat="44.4449083" lon="9.94075"><ele>580.75</ele><time>2026-04-26T08:08:30.939Z</time></trkpt><trkpt lat="44.4450433" lon="9.940695"><ele>582.5</ele><time>2026-04-26T08:08:31.938Z</time></trkpt><trkpt lat="44.4451767" lon="9.9406333"><ele>584.25</ele><time>2026-04-26T08:08:32.939Z</time></trkpt><trkpt lat="44.4452917" lon="9.9405367"><ele>586.0</ele><time>2026-04-26T08:08:33.938Z</time></trkpt><trkpt lat="44.4453983" lon="9.940425"><ele>586.75</ele><time>2026-04-26T08:08:34.939Z</time></trkpt><trkpt lat="44.4455067" lon="9.94031"><ele>587.5</ele><time>2026-04-26T08:08:35.938Z</time></trkpt><trkpt lat="44.4456167" lon="9.9402017"><ele>588.25</ele><time>2026-04-26T08:08:36.939Z</time></trkpt><trkpt lat="44.4457" lon="9.9400883"><ele>589.0</ele><time>2026-04-26T08:08:37.939Z</time></trkpt><trkpt lat="44.445795" lon="9.94002"><ele>589.0</ele><time>2026-04-26T08:08:38.938Z</time></trkpt><trkpt lat="44.4458733" lon="9.9399917"><ele>589.0</ele><time>2026-04-26T08:08:39.939Z</time></trkpt><trkpt lat="44.44594" lon="9.9400117"><ele>589.0</ele><time>2026-04-26T08:08:40.939Z</time></trkpt><trkpt lat="44.4459817" lon="9.9401133"><ele>589.0</ele><time>2026-04-26T08:08:42.939Z</time></trkpt><trkpt lat="44.44586" lon="9.9402283"><ele>589.0</ele><time>2026-04-26T08:08:44.939Z</time></trkpt><trkpt lat="44.4457417" lon="9.940285"><ele>588.0</ele><time>2026-04-26T08:08:45.939Z</time></trkpt><trkpt lat="44.4455967" lon="9.9403717"><ele>587.0</ele><time>2026-04-26T08:08:46.939Z</time></trkpt><trkpt lat="44.44547" lon="9.9405067"><ele>586.0</ele><time>2026-04-26T08:08:47.939Z</time></trkpt><trkpt lat="44.4453733" lon="9.9406583"><ele>586.0</ele><time>2026-04-26T08:08:48.939Z</time></trkpt><trkpt lat="44.44529" lon="9.9407967"><ele>586.0</ele><time>2026-04-26T08:08:49.939Z</time></trkpt><trkpt lat="44.4451017" lon="9.9409983"><ele>586.0</ele><time>2026-04-26T08:08:51.939Z</time></trkpt><trkpt lat="44.44499" lon="9.9410667"><ele>584.25</ele><time>2026-04-26T08:08:52.939Z</time></trkpt><trkpt lat="44.44487" lon="9.9411417"><ele>582.5</ele><time>2026-04-26T08:08:53.939Z</time></trkpt><trkpt lat="44.4447417" lon="9.9412033"><ele>580.75</ele><time>2026-04-26T08:08:54.939Z</time></trkpt><trkpt lat="44.4446217" lon="9.9412617"><ele>579.0</ele><time>2026-04-26T08:08:55.939Z</time></trkpt><trkpt lat="44.4445283" lon="9.9412983"><ele>579.0</ele><time>2026-04-26T08:08:56.939Z</time></trkpt><trkpt lat="44.444445" lon="9.9413267"><ele>579.0</ele><time>2026-04-26T08:08:57.939Z</time></trkpt><trkpt lat="44.4443783" lon="9.9413817"><ele>579.0</ele><time>2026-04-26T08:08:58.939Z</time></trkpt><trkpt lat="44.4443333" lon="9.9414683"><ele>579.0</ele><time>2026-04-26T08:08:59.939Z</time></trkpt><trkpt lat="44.4443167" lon="9.941575"><ele>579.0</ele><time>2026-04-26T08:09:00.939Z</time></trkpt><trkpt lat="44.4443317" lon="9.9416967"><ele>579.0</ele><time>2026-04-26T08:09:01.939Z</time></trkpt><trkpt lat="44.44438" lon="9.9418267"><ele>578.25</ele><time>2026-04-26T08:09:02.939Z</time></trkpt><trkpt lat="44.44447" lon="9.9419783"><ele>577.5</ele><time>2026-04-26T08:09:03.939Z</time></trkpt><trkpt lat="44.444575" lon="9.94215"><ele>576.75</ele><time>2026-04-26T08:09:04.939Z</time></trkpt><trkpt lat="44.4446567" lon="9.94231"><ele>576.0</ele><time>2026-04-26T08:09:05.939Z</time></trkpt><trkpt lat="44.4447233" lon="9.9424217"><ele>583.4</ele><time>2026-04-26T08:09:06.938Z</time></trkpt><trkpt lat="44.444785" lon="9.9425083"><ele>590.8</ele><time>2026-04-26T08:09:07.939Z</time></trkpt><trkpt lat="44.4448483" lon="9.9425467"><ele>598.1999999999999</ele><time>2026-04-26T08:09:08.938Z</time></trkpt><trkpt lat="44.4449167" lon="9.9424817"><ele>605.6</ele><time>2026-04-26T08:09:10.939Z</time></trkpt><trkpt lat="44.4448333" lon="9.94229"><ele>613.0</ele><time>2026-04-26T08:09:12.938Z</time></trkpt><trkpt lat="44.44475" lon="9.94217"><ele>613.0</ele><time>2026-04-26T08:09:13.939Z</time></trkpt><trkpt lat="44.4446817" lon="9.9420383"><ele>613.0</ele><time>2026-04-26T08:09:14.939Z</time></trkpt><trkpt lat="44.4446383" lon="9.94188"><ele>613.0</ele><time>2026-04-26T08:09:15.939Z</time></trkpt><trkpt lat="44.4446333" lon="9.94174"><ele>613.0</ele><time>2026-04-26T08:09:16.939Z</time></trkpt><trkpt lat="44.4446667" lon="9.94161"><ele>613.0</ele><time>2026-04-26T08:09:17.938Z</time></trkpt><trkpt lat="44.4447233" lon="9.941515"><ele>614.5</ele><time>2026-04-26T08:09:18.939Z</time></trkpt><trkpt lat="44.4448117" lon="9.9414317"><ele>616.0</ele><time>2026-04-26T08:09:19.939Z</time></trkpt><trkpt lat="44.4449067" lon="9.9413567"><ele>617.5</ele><time>2026-04-26T08:09:20.938Z</time></trkpt><trkpt lat="44.4450467" lon="9.941315"><ele>619.0</ele><time>2026-04-26T08:09:21.939Z</time></trkpt><trkpt lat="44.4451983" lon="9.94129"><ele>619.0</ele><time>2026-04-26T08:09:22.939Z</time></trkpt><trkpt lat="44.445355" lon="9.9412817"><ele>619.0</ele><time>2026-04-26T08:09:23.939Z</time></trkpt><trkpt lat="44.445495" lon="9.941275"><ele>619.0</ele><time>2026-04-26T08:09:24.939Z</time></trkpt><trkpt lat="44.4456333" lon="9.9412633"><ele>619.0</ele><time>2026-04-26T08:09:25.939Z</time></trkpt><trkpt lat="44.4457683" lon="9.9412467"><ele>625.75</ele><time>2026-04-26T08:09:26.939Z</time></trkpt><trkpt lat="44.4459117" lon="9.9412483"><ele>632.5</ele><time>2026-04-26T08:09:27.938Z</time></trkpt><trkpt lat="44.446035" lon="9.941235"><ele>639.25</ele><time>2026-04-26T08:09:28.939Z</time></trkpt><trkpt lat="44.4461417" lon="9.9411933"><ele>646.0</ele><time>2026-04-26T08:09:29.939Z</time></trkpt><trkpt lat="44.446235" lon="9.9411167"><ele>645.0</ele><time>2026-04-26T08:09:30.938Z</time></trkpt><trkpt lat="44.4463183" lon="9.9409883"><ele>644.0</ele><time>2026-04-26T08:09:31.939Z</time></trkpt><trkpt lat="44.4464467" lon="9.9406117"><ele>643.0</ele><time>2026-04-26T08:09:33.939Z</time></trkpt><trkpt lat="44.4465183" lon="9.9404417"><ele>643.0</ele><time>2026-04-26T08:09:34.939Z</time></trkpt><trkpt lat="44.44658" lon="9.940285"><ele>643.0</ele><time>2026-04-26T08:09:35.939Z</time></trkpt><trkpt lat="44.4466583" lon="9.9401767"><ele>643.0</ele><time>2026-04-26T08:09:36.939Z</time></trkpt><trkpt lat="44.44675" lon="9.940085"><ele>643.0</ele><time>2026-04-26T08:09:37.939Z</time></trkpt><trkpt lat="44.4468617" lon="9.9400217"><ele>640.0</ele><time>2026-04-26T08:09:38.939Z</time></trkpt><trkpt lat="44.4469983" lon="9.94"><ele>637.0</ele><time>2026-04-26T08:09:39.938Z</time></trkpt><trkpt lat="44.44713" lon="9.9400367"><ele>634.0</ele><time>2026-04-26T08:09:40.939Z</time></trkpt><trkpt lat="44.4472567" lon="9.9401233"><ele>631.0</ele><time>2026-04-26T08:09:41.939Z</time></trkpt><trkpt lat="44.4473733" lon="9.940235"><ele>639.25</ele><time>2026-04-26T08:09:42.939Z</time></trkpt><trkpt lat="44.4474817" lon="9.9403533"><ele>647.5</ele><time>2026-04-26T08:09:43.939Z</time></trkpt><trkpt lat="44.447595" lon="9.9404817"><ele>655.75</ele><time>2026-04-26T08:09:44.939Z</time></trkpt><trkpt lat="44.4477" lon="9.9405867"><ele>664.0</ele><time>2026-04-26T08:09:45.939Z</time></trkpt><trkpt lat="44.4478" lon="9.9406533"><ele>664.0</ele><time>2026-04-26T08:09:46.939Z</time></trkpt><trkpt lat="44.447905" lon="9.9406933"><ele>664.0</ele><time>2026-04-26T08:09:47.938Z</time></trkpt><trkpt lat="44.4480217" lon="9.9406533"><ele>664.0</ele><time>2026-04-26T08:09:48.939Z</time></trkpt><trkpt lat="44.4481583" lon="9.9405883"><ele>664.0</ele><time>2026-04-26T08:09:49.939Z</time></trkpt><trkpt lat="44.4483067" lon="9.94052"><ele>668.0</ele><time>2026-04-26T08:09:50.939Z</time></trkpt><trkpt lat="44.4484567" lon="9.94046"><ele>672.0</ele><time>2026-04-26T08:09:51.939Z</time></trkpt><trkpt lat="44.448595" lon="9.9403783"><ele>676.0</ele><time>2026-04-26T08:09:52.939Z</time></trkpt><trkpt lat="44.4488783" lon="9.940195"><ele>670.3333333333334</ele><time>2026-04-26T08:09:54.939Z</time></trkpt><trkpt lat="44.4490267" lon="9.9401017"><ele>664.6666666666666</ele><time>2026-04-26T08:09:55.939Z</time></trkpt><trkpt lat="44.4491717" lon="9.9400133"><ele>659.0</ele><time>2026-04-26T08:09:56.938Z</time></trkpt><trkpt lat="44.449305" lon="9.939935"><ele>659.0</ele><time>2026-04-26T08:09:57.939Z</time></trkpt><trkpt lat="44.4494267" lon="9.9398817"><ele>659.0</ele><time>2026-04-26T08:09:58.939Z</time></trkpt><trkpt lat="44.44955" lon="9.9398617"><ele>659.0</ele><time>2026-04-26T08:09:59.939Z</time></trkpt><trkpt lat="44.4496783" lon="9.9398717"><ele>659.0</ele><time>2026-04-26T08:10:00.939Z</time></trkpt><trkpt lat="44.4498067" lon="9.939905"><ele>662.5</ele><time>2026-04-26T08:10:01.938Z</time></trkpt><trkpt lat="44.449935" lon="9.9399067"><ele>666.0</ele><time>2026-04-26T08:10:02.939Z</time></trkpt><trkpt lat="44.4500733" lon="9.93987"><ele>669.5</ele><time>2026-04-26T08:10:03.939Z</time></trkpt><trkpt lat="44.4502117" lon="9.93982"><ele>673.0</ele><time>2026-04-26T08:10:04.938Z</time></trkpt><trkpt lat="44.4503567" lon="9.9397567"><ele>678.6666666666667</ele><time>2026-04-26T08:10:05.939Z</time></trkpt><trkpt lat="44.450505" lon="9.9396833"><ele>684.3333333333334</ele><time>2026-04-26T08:10:06.939Z</time></trkpt><trkpt lat="44.4506433" lon="9.9396067"><ele>690.0</ele><time>2026-04-26T08:10:07.938Z</time></trkpt><trkpt lat="44.4507833" lon="9.939535"><ele>690.0</ele><time>2026-04-26T08:10:08.939Z</time></trkpt><trkpt lat="44.450925" lon="9.9394383"><ele>690.0</ele><time>2026-04-26T08:10:09.939Z</time></trkpt><trkpt lat="44.4510483" lon="9.93936"><ele>690.0</ele><time>2026-04-26T08:10:10.939Z</time></trkpt><trkpt lat="44.4511483" lon="9.9392683"><ele>690.0</ele><time>2026-04-26T08:10:11.939Z</time></trkpt><trkpt lat="44.4512283" lon="9.939215"><ele>690.0</ele><time>2026-04-26T08:10:12.939Z</time></trkpt><trkpt lat="44.451305" lon="9.9392283"><ele>690.0</ele><time>2026-04-26T08:10:13.938Z</time></trkpt><trkpt lat="44.4514367" lon="9.9393467"><ele>690.0</ele><time>2026-04-26T08:10:15.939Z</time></trkpt><trkpt lat="44.4515283" lon="9.9394483"><ele>690.0</ele><time>2026-04-26T08:10:16.939Z</time></trkpt><trkpt lat="44.4516233" lon="9.9395467"><ele>690.0</ele><time>2026-04-26T08:10:17.939Z</time></trkpt><trkpt lat="44.4517117" lon="9.9396583"><ele>690.0</ele><time>2026-04-26T08:10:18.939Z</time></trkpt><trkpt lat="44.4517867" lon="9.9397667"><ele>690.0</ele><time>2026-04-26T08:10:19.939Z</time></trkpt><trkpt lat="44.451835" lon="9.9398583"><ele>690.0</ele><time>2026-04-26T08:10:20.938Z</time></trkpt><trkpt lat="44.4518583" lon="9.939955"><ele>690.0</ele><time>2026-04-26T08:10:21.939Z</time></trkpt><trkpt lat="44.4518833" lon="9.9400483"><ele>691.3333333333334</ele><time>2026-04-26T08:10:22.939Z</time></trkpt><trkpt lat="44.451915" lon="9.9401333"><ele>692.6666666666666</ele><time>2026-04-26T08:10:23.939Z</time></trkpt><trkpt lat="44.4519817" lon="9.9402467"><ele>694.0</ele><time>2026-04-26T08:10:25.939Z</time></trkpt><trkpt lat="44.4520033" lon="9.9403517"><ele>695.3333333333333</ele><time>2026-04-26T08:10:27.939Z</time></trkpt><trkpt lat="44.4519817" lon="9.94049"><ele>696.6666666666666</ele><time>2026-04-26T08:10:29.939Z</time></trkpt><trkpt lat="44.451955" lon="9.940575"><ele>698.0</ele><time>2026-04-26T08:10:30.938Z</time></trkpt><trkpt lat="44.45192" lon="9.940665"><ele>698.0</ele><time>2026-04-26T08:10:31.939Z</time></trkpt><trkpt lat="44.4518717" lon="9.9407533"><ele>698.0</ele><time>2026-04-26T08:10:32.939Z</time></trkpt><trkpt lat="44.4518133" lon="9.9408233"><ele>698.0</ele><time>2026-04-26T08:10:33.939Z</time></trkpt><trkpt lat="44.4517417" lon="9.940875"><ele>698.0</ele><time>2026-04-26T08:10:34.939Z</time></trkpt><trkpt lat="44.4515867" lon="9.940925"><ele>698.0</ele><time>2026-04-26T08:10:36.939Z</time></trkpt><trkpt lat="44.4515233" lon="9.940985"><ele>699.8333333333333</ele><time>2026-04-26T08:10:37.939Z</time></trkpt><trkpt lat="44.45147" lon="9.9410567"><ele>701.6666666666666</ele><time>2026-04-26T08:10:38.938Z</time></trkpt><trkpt lat="44.45142" lon="9.9411567"><ele>703.5</ele><time>2026-04-26T08:10:39.939Z</time></trkpt><trkpt lat="44.4513717" lon="9.9412683"><ele>705.3333333333334</ele><time>2026-04-26T08:10:40.939Z</time></trkpt><trkpt lat="44.4513367" lon="9.94139"><ele>707.1666666666667</ele><time>2026-04-26T08:10:41.939Z</time></trkpt><trkpt lat="44.4513133" lon="9.9415183"><ele>709.0</ele><time>2026-04-26T08:10:42.939Z</time></trkpt><trkpt lat="44.4512983" lon="9.9416567"><ele>711.2</ele><time>2026-04-26T08:10:43.939Z</time></trkpt><trkpt lat="44.4512833" lon="9.9418017"><ele>713.4000000000001</ele><time>2026-04-26T08:10:44.939Z</time></trkpt><trkpt lat="44.4512617" lon="9.9419217"><ele>715.6</ele><time>2026-04-26T08:10:45.939Z</time></trkpt><trkpt lat="44.45122" lon="9.9420367"><ele>717.8</ele><time>2026-04-26T08:10:46.938Z</time></trkpt><trkpt lat="44.4511733" lon="9.9421667"><ele>720.0</ele><time>2026-04-26T08:10:47.938Z</time></trkpt><trkpt lat="44.45113" lon="9.94229"><ele>720.0</ele><time>2026-04-26T08:10:48.938Z</time></trkpt><trkpt lat="44.4510783" lon="9.94238"><ele>720.0</ele><time>2026-04-26T08:10:49.939Z</time></trkpt><trkpt lat="44.4510117" lon="9.9424283"><ele>720.0</ele><time>2026-04-26T08:10:50.939Z</time></trkpt><trkpt lat="44.450885" lon="9.9423867"><ele>720.0</ele><time>2026-04-26T08:10:52.939Z</time></trkpt><trkpt lat="44.450835" lon="9.9423217"><ele>720.0</ele><time>2026-04-26T08:10:53.939Z</time></trkpt><trkpt lat="44.4508133" lon="9.9422283"><ele>720.0</ele><time>2026-04-26T08:10:54.939Z</time></trkpt><trkpt lat="44.450855" lon="9.94206"><ele>720.0</ele><time>2026-04-26T08:10:56.939Z</time></trkpt><trkpt lat="44.4509583" lon="9.9418267"><ele>720.0</ele><time>2026-04-26T08:10:58.939Z</time></trkpt><trkpt lat="44.45097" lon="9.94171"><ele>720.0</ele><time>2026-04-26T08:10:59.939Z</time></trkpt><trkpt lat="44.45096" lon="9.941605"><ele>720.0</ele><time>2026-04-26T08:11:00.939Z</time></trkpt><trkpt lat="44.45093" lon="9.941515"><ele>720.0</ele><time>2026-04-26T08:11:01.938Z</time></trkpt><trkpt lat="44.4508867" lon="9.9414367"><ele>719.2</ele><time>2026-04-26T08:11:02.939Z</time></trkpt><trkpt lat="44.450855" lon="9.941355"><ele>718.4</ele><time>2026-04-26T08:11:03.939Z</time></trkpt><trkpt lat="44.4508033" lon="9.9411833"><ele>717.5999999999999</ele><time>2026-04-26T08:11:05.939Z</time></trkpt><trkpt lat="44.45077" lon="9.941105"><ele>716.8</ele><time>2026-04-26T08:11:06.939Z</time></trkpt><trkpt lat="44.45067" lon="9.9409883"><ele>716.0</ele><time>2026-04-26T08:11:08.939Z</time></trkpt><trkpt lat="44.4506067" lon="9.940945"><ele>716.0</ele><time>2026-04-26T08:11:09.939Z</time></trkpt><trkpt lat="44.4505417" lon="9.940925"><ele>716.0</ele><time>2026-04-26T08:11:10.938Z</time></trkpt><trkpt lat="44.4504767" lon="9.940925"><ele>716.0</ele><time>2026-04-26T08:11:11.939Z</time></trkpt><trkpt lat="44.45037" lon="9.94097"><ele>716.0</ele><time>2026-04-26T08:11:13.939Z</time></trkpt><trkpt lat="44.4502583" lon="9.9410667"><ele>716.0</ele><time>2026-04-26T08:11:15.939Z</time></trkpt><trkpt lat="44.4502033" lon="9.9411367"><ele>716.0</ele><time>2026-04-26T08:11:16.939Z</time></trkpt><trkpt lat="44.4501617" lon="9.9412133"><ele>717.1999999999999</ele><time>2026-04-26T08:11:17.938Z</time></trkpt><trkpt lat="44.4500883" lon="9.94138"><ele>718.4</ele><time>2026-04-26T08:11:19.939Z</time></trkpt><trkpt lat="44.450045" lon="9.9414883"><ele>719.6</ele><time>2026-04-26T08:11:20.939Z</time></trkpt><trkpt lat="44.4499967" lon="9.941595"><ele>720.8</ele><time>2026-04-26T08:11:21.938Z</time></trkpt><trkpt lat="44.4499433" lon="9.9417017"><ele>722.0</ele><time>2026-04-26T08:11:22.938Z</time></trkpt><trkpt lat="44.4499067" lon="9.94181"><ele>724.4000000000001</ele><time>2026-04-26T08:11:23.938Z</time></trkpt><trkpt lat="44.4498867" lon="9.9419333"><ele>726.8000000000001</ele><time>2026-04-26T08:11:24.939Z</time></trkpt><trkpt lat="44.4498883" lon="9.9420683"><ele>729.2</ele><time>2026-04-26T08:11:25.939Z</time></trkpt><trkpt lat="44.4498983" lon="9.9422117"><ele>731.6</ele><time>2026-04-26T08:11:26.939Z</time></trkpt><trkpt lat="44.4499167" lon="9.9423533"><ele>734.0</ele><time>2026-04-26T08:11:27.939Z</time></trkpt><trkpt lat="44.4499483" lon="9.9424933"><ele>738.6</ele><time>2026-04-26T08:11:28.938Z</time></trkpt><trkpt lat="44.4499817" lon="9.942615"><ele>743.2</ele><time>2026-04-26T08:11:29.939Z</time></trkpt><trkpt lat="44.4500367" lon="9.9427367"><ele>747.8000000000001</ele><time>2026-04-26T08:11:30.939Z</time></trkpt><trkpt lat="44.4501017" lon="9.94282"><ele>752.4000000000001</ele><time>2026-04-26T08:11:31.939Z</time></trkpt><trkpt lat="44.4501867" lon="9.9429033"><ele>757.0</ele><time>2026-04-26T08:11:32.939Z</time></trkpt><trkpt lat="44.45027" lon="9.9429783"><ele>757.0</ele><time>2026-04-26T08:11:33.939Z</time></trkpt><trkpt lat="44.4503233" lon="9.943035"><ele>757.0</ele><time>2026-04-26T08:11:34.939Z</time></trkpt><trkpt lat="44.4503633" lon="9.9431583"><ele>757.0</ele><time>2026-04-26T08:11:36.938Z</time></trkpt><trkpt lat="44.45028" lon="9.943175"><ele>757.0</ele><time>2026-04-26T08:11:38.939Z</time></trkpt><trkpt lat="44.4501367" lon="9.943095"><ele>757.0</ele><time>2026-04-26T08:11:40.939Z</time></trkpt><trkpt lat="44.450055" lon="9.9430567"><ele>757.0</ele><time>2026-04-26T08:11:41.939Z</time></trkpt><trkpt lat="44.4499683" lon="9.943015"><ele>757.0</ele><time>2026-04-26T08:11:42.938Z</time></trkpt><trkpt lat="44.44989" lon="9.9429883"><ele>757.0</ele><time>2026-04-26T08:11:43.939Z</time></trkpt><trkpt lat="44.44978" lon="9.9430317"><ele>757.0</ele><time>2026-04-26T08:11:45.939Z</time></trkpt><trkpt lat="44.4498117" lon="9.9431533"><ele>757.0</ele><time>2026-04-26T08:11:48.939Z</time></trkpt><trkpt lat="44.4498883" lon="9.9431967"><ele>757.0</ele><time>2026-04-26T08:11:49.939Z</time></trkpt><trkpt lat="44.4499917" lon="9.943265"><ele>757.0</ele><time>2026-04-26T08:11:50.939Z</time></trkpt><trkpt lat="44.4501" lon="9.9433317"><ele>757.0</ele><time>2026-04-26T08:11:51.939Z</time></trkpt><trkpt lat="44.45017" lon="9.9433917"><ele>757.0</ele><time>2026-04-26T08:11:52.938Z</time></trkpt><trkpt lat="44.45022" lon="9.9434583"><ele>757.0</ele><time>2026-04-26T08:11:54.939Z</time></trkpt><trkpt lat="44.45016" lon="9.9434933"><ele>757.0</ele><time>2026-04-26T08:12:07.939Z</time></trkpt><trkpt lat="44.449965" lon="9.943435"><ele>760.1666666666667</ele><time>2026-04-26T08:12:11.939Z</time></trkpt><trkpt lat="44.4498883" lon="9.9434317"><ele>763.3333333333334</ele><time>2026-04-26T08:12:12.939Z</time></trkpt><trkpt lat="44.4498017" lon="9.9434317"><ele>766.5</ele><time>2026-04-26T08:12:13.939Z</time></trkpt><trkpt lat="44.449725" lon="9.943425"><ele>769.6666666666667</ele><time>2026-04-26T08:12:14.939Z</time></trkpt><trkpt lat="44.449655" lon="9.9434067"><ele>772.8333333333334</ele><time>2026-04-26T08:12:15.939Z</time></trkpt><trkpt lat="44.44954" lon="9.9433467"><ele>776.0</ele><time>2026-04-26T08:12:17.939Z</time></trkpt><trkpt lat="44.4494717" lon="9.943305"><ele>776.0000000000001</ele><time>2026-04-26T08:12:18.939Z</time></trkpt><trkpt lat="44.44941" lon="9.943255"><ele>776.0</ele><time>2026-04-26T08:12:19.939Z</time></trkpt><trkpt lat="44.449355" lon="9.9431917"><ele>776.0</ele><time>2026-04-26T08:12:20.939Z</time></trkpt><trkpt lat="44.4493083" lon="9.9431233"><ele>776.0</ele><time>2026-04-26T08:12:21.939Z</time></trkpt><trkpt lat="44.4492133" lon="9.9430033"><ele>776.0000000000001</ele><time>2026-04-26T08:12:23.939Z</time></trkpt><trkpt lat="44.4491467" lon="9.942965"><ele>776.0</ele><time>2026-04-26T08:12:25.939Z</time></trkpt><trkpt lat="44.4492383" lon="9.9429867"><ele>776.0</ele><time>2026-04-26T08:12:44.939Z</time></trkpt><trkpt lat="44.4493883" lon="9.9431283"><ele>776.0</ele><time>2026-04-26T08:12:46.938Z</time></trkpt><trkpt lat="44.4494617" lon="9.9431917"><ele>776.0</ele><time>2026-04-26T08:12:47.939Z</time></trkpt><trkpt lat="44.449545" lon="9.9432483"><ele>776.0</ele><time>2026-04-26T08:12:48.939Z</time></trkpt><trkpt lat="44.4496367" lon="9.9432867"><ele>779.1999999999999</ele><time>2026-04-26T08:12:49.939Z</time></trkpt><trkpt lat="44.4497467" lon="9.94333"><ele>782.4</ele><time>2026-04-26T08:12:50.939Z</time></trkpt><trkpt lat="44.44984" lon="9.9433433"><ele>785.6</ele><time>2026-04-26T08:12:51.939Z</time></trkpt><trkpt lat="44.4499267" lon="9.9433633"><ele>788.8</ele><time>2026-04-26T08:12:52.939Z</time></trkpt><trkpt lat="44.45001" lon="9.9433983"><ele>792.0</ele><time>2026-04-26T08:12:53.939Z</time></trkpt><trkpt lat="44.45009" lon="9.9434217"><ele>792.0</ele><time>2026-04-26T08:12:54.939Z</time></trkpt><trkpt lat="44.450155" lon="9.9434383"><ele>792.0</ele><time>2026-04-26T08:12:55.939Z</time></trkpt><trkpt lat="44.450295" lon="9.9434367"><ele>792.0</ele><time>2026-04-26T08:12:57.939Z</time></trkpt><trkpt lat="44.4503817" lon="9.94346"><ele>792.0</ele><time>2026-04-26T08:12:58.939Z</time></trkpt><trkpt lat="44.4504733" lon="9.94349"><ele>792.0</ele><time>2026-04-26T08:12:59.939Z</time></trkpt><trkpt lat="44.450595" lon="9.9435533"><ele>787.4000000000001</ele><time>2026-04-26T08:13:00.939Z</time></trkpt><trkpt lat="44.450705" lon="9.9436217"><ele>782.8000000000001</ele><time>2026-04-26T08:13:01.939Z</time></trkpt><trkpt lat="44.4507767" lon="9.9436783"><ele>778.2</ele><time>2026-04-26T08:13:02.939Z</time></trkpt><trkpt lat="44.45083" lon="9.9437933"><ele>773.6</ele><time>2026-04-26T08:13:03.939Z</time></trkpt><trkpt lat="44.4508633" lon="9.943925"><ele>769.0</ele><time>2026-04-26T08:13:04.939Z</time></trkpt><trkpt lat="44.4509" lon="9.9440633"><ele>777.5</ele><time>2026-04-26T08:13:05.939Z</time></trkpt><trkpt lat="44.4510267" lon="9.944335"><ele>786.0</ele><time>2026-04-26T08:13:07.939Z</time></trkpt><trkpt lat="44.4511" lon="9.9444567"><ele>794.5</ele><time>2026-04-26T08:13:08.938Z</time></trkpt><trkpt lat="44.4511783" lon="9.9445317"><ele>803.0</ele><time>2026-04-26T08:13:09.938Z</time></trkpt><trkpt lat="44.4512817" lon="9.9445783"><ele>800.25</ele><time>2026-04-26T08:13:10.939Z</time></trkpt><trkpt lat="44.4513983" lon="9.9446017"><ele>797.5</ele><time>2026-04-26T08:13:11.939Z</time></trkpt><trkpt lat="44.4515183" lon="9.944595"><ele>794.75</ele><time>2026-04-26T08:13:12.938Z</time></trkpt><trkpt lat="44.4516483" lon="9.9445917"><ele>792.0</ele><time>2026-04-26T08:13:13.939Z</time></trkpt><trkpt lat="44.45177" lon="9.9445717"><ele>792.0</ele><time>2026-04-26T08:13:14.939Z</time></trkpt><trkpt lat="44.4518733" lon="9.94454"><ele>792.0</ele><time>2026-04-26T08:13:15.939Z</time></trkpt><trkpt lat="44.451965" lon="9.9444783"><ele>792.0</ele><time>2026-04-26T08:13:16.939Z</time></trkpt><trkpt lat="44.4520467" lon="9.9443817"><ele>792.0</ele><time>2026-04-26T08:13:17.939Z</time></trkpt><trkpt lat="44.452125" lon="9.9443017"><ele>792.0</ele><time>2026-04-26T08:13:18.938Z</time></trkpt><trkpt lat="44.4522067" lon="9.9442633"><ele>793.0</ele><time>2026-04-26T08:13:19.939Z</time></trkpt><trkpt lat="44.4522917" lon="9.944235"><ele>794.0</ele><time>2026-04-26T08:13:20.939Z</time></trkpt><trkpt lat="44.4523783" lon="9.9442317"><ele>795.0</ele><time>2026-04-26T08:13:21.939Z</time></trkpt><trkpt lat="44.45248" lon="9.9442483"><ele>796.0</ele><time>2026-04-26T08:13:22.939Z</time></trkpt><trkpt lat="44.4525967" lon="9.9443017"><ele>797.0</ele><time>2026-04-26T08:13:23.939Z</time></trkpt><trkpt lat="44.45271" lon="9.94436"><ele>797.0</ele><time>2026-04-26T08:13:24.939Z</time></trkpt><trkpt lat="44.4528083" lon="9.944425"><ele>797.0</ele><time>2026-04-26T08:13:25.939Z</time></trkpt><trkpt lat="44.452885" lon="9.944495"><ele>797.0</ele><time>2026-04-26T08:13:26.939Z</time></trkpt><trkpt lat="44.45298" lon="9.9447083"><ele>797.0</ele><time>2026-04-26T08:13:28.938Z</time></trkpt><trkpt lat="44.453025" lon="9.9448617"><ele>795.75</ele><time>2026-04-26T08:13:29.939Z</time></trkpt><trkpt lat="44.453065" lon="9.9450117"><ele>794.5</ele><time>2026-04-26T08:13:30.939Z</time></trkpt><trkpt lat="44.45311" lon="9.9451683"><ele>793.25</ele><time>2026-04-26T08:13:31.938Z</time></trkpt><trkpt lat="44.4531517" lon="9.94532"><ele>792.0</ele><time>2026-04-26T08:13:32.939Z</time></trkpt><trkpt lat="44.453195" lon="9.9454617"><ele>792.0</ele><time>2026-04-26T08:13:33.939Z</time></trkpt><trkpt lat="44.4532333" lon="9.94559"><ele>792.0</ele><time>2026-04-26T08:13:34.939Z</time></trkpt><trkpt lat="44.4532817" lon="9.9457117"><ele>792.0</ele><time>2026-04-26T08:13:35.939Z</time></trkpt><trkpt lat="44.45335" lon="9.9458333"><ele>792.0</ele><time>2026-04-26T08:13:36.939Z</time></trkpt><trkpt lat="44.45341" lon="9.9459383"><ele>792.0</ele><time>2026-04-26T08:13:37.939Z</time></trkpt><trkpt lat="44.453485" lon="9.946005"><ele>791.6</ele><time>2026-04-26T08:13:38.939Z</time></trkpt><trkpt lat="44.4535733" lon="9.94605"><ele>791.2</ele><time>2026-04-26T08:13:39.939Z</time></trkpt><trkpt lat="44.4536617" lon="9.946065"><ele>790.8</ele><time>2026-04-26T08:13:40.938Z</time></trkpt><trkpt lat="44.4537417" lon="9.946055"><ele>790.4</ele><time>2026-04-26T08:13:41.939Z</time></trkpt><trkpt lat="44.4538083" lon="9.9460317"><ele>790.0</ele><time>2026-04-26T08:13:42.939Z</time></trkpt><trkpt lat="44.4539017" lon="9.94593"><ele>794.2</ele><time>2026-04-26T08:13:44.939Z</time></trkpt><trkpt lat="44.4539433" lon="9.945855"><ele>798.4</ele><time>2026-04-26T08:13:45.939Z</time></trkpt><trkpt lat="44.4539883" lon="9.9457733"><ele>802.5999999999999</ele><time>2026-04-26T08:13:46.939Z</time></trkpt><trkpt lat="44.4540467" lon="9.9456883"><ele>806.8</ele><time>2026-04-26T08:13:47.938Z</time></trkpt><trkpt lat="44.454175" lon="9.9454967"><ele>811.0</ele><time>2026-04-26T08:13:49.938Z</time></trkpt><trkpt lat="44.4542367" lon="9.9454117"><ele>810.9999999999999</ele><time>2026-04-26T08:13:50.939Z</time></trkpt><trkpt lat="44.4542833" lon="9.9453283"><ele>811.0</ele><time>2026-04-26T08:13:51.939Z</time></trkpt><trkpt lat="44.4543283" lon="9.94525"><ele>811.0</ele><time>2026-04-26T08:13:52.938Z</time></trkpt><trkpt lat="44.4543767" lon="9.9451617"><ele>811.0</ele><time>2026-04-26T08:13:53.939Z</time></trkpt><trkpt lat="44.45442" lon="9.9450933"><ele>810.9999999999999</ele><time>2026-04-26T08:13:54.939Z</time></trkpt><trkpt lat="44.4544683" lon="9.9449767"><ele>811.0</ele><time>2026-04-26T08:13:56.939Z</time></trkpt><trkpt lat="44.4544817" lon="9.9448683"><ele>809.5999999999999</ele><time>2026-04-26T08:14:07.938Z</time></trkpt><trkpt lat="44.4545217" lon="9.9447883"><ele>808.2</ele><time>2026-04-26T08:14:08.939Z</time></trkpt><trkpt lat="44.454645" lon="9.9446517"><ele>806.8</ele><time>2026-04-26T08:14:10.939Z</time></trkpt><trkpt lat="44.4547133" lon="9.9445967"><ele>805.4000000000001</ele><time>2026-04-26T08:14:11.939Z</time></trkpt><trkpt lat="44.454795" lon="9.9445667"><ele>804.0</ele><time>2026-04-26T08:14:12.939Z</time></trkpt><trkpt lat="44.454875" lon="9.944535"><ele>810.1666666666666</ele><time>2026-04-26T08:14:13.939Z</time></trkpt><trkpt lat="44.4549483" lon="9.94451"><ele>816.3333333333333</ele><time>2026-04-26T08:14:14.938Z</time></trkpt><trkpt lat="44.4550233" lon="9.9444833"><ele>822.5</ele><time>2026-04-26T08:14:15.939Z</time></trkpt><trkpt lat="44.4550967" lon="9.9444667"><ele>828.6666666666666</ele><time>2026-04-26T08:14:16.939Z</time></trkpt><trkpt lat="44.455185" lon="9.944455"><ele>834.8333333333333</ele><time>2026-04-26T08:14:17.939Z</time></trkpt><trkpt lat="44.4552733" lon="9.9444383"><ele>841.0</ele><time>2026-04-26T08:14:18.939Z</time></trkpt><trkpt lat="44.4553617" lon="9.9444183"><ele>840.9999999999999</ele><time>2026-04-26T08:14:19.938Z</time></trkpt><trkpt lat="44.45545" lon="9.9443917"><ele>841.0</ele><time>2026-04-26T08:14:20.939Z</time></trkpt><trkpt lat="44.4555233" lon="9.9443733"><ele>841.0</ele><time>2026-04-26T08:14:21.938Z</time></trkpt><trkpt lat="44.455595" lon="9.944345"><ele>841.0</ele><time>2026-04-26T08:14:22.939Z</time></trkpt><trkpt lat="44.4556583" lon="9.9442917"><ele>840.9999999999999</ele><time>2026-04-26T08:14:23.939Z</time></trkpt><trkpt lat="44.4557283" lon="9.9442483"><ele>841.0</ele><time>2026-04-26T08:14:24.939Z</time></trkpt><trkpt lat="44.4558" lon="9.944205"><ele>843.75</ele><time>2026-04-26T08:14:25.939Z</time></trkpt><trkpt lat="44.4558883" lon="9.9441383"><ele>846.5</ele><time>2026-04-26T08:14:27.938Z</time></trkpt><trkpt lat="44.4558667" lon="9.9440233"><ele>849.25</ele><time>2026-04-26T08:14:30.939Z</time></trkpt><trkpt lat="44.45564" lon="9.9439717"><ele>852.0</ele><time>2026-04-26T08:14:34.939Z</time></trkpt><trkpt lat="44.4555633" lon="9.943945"><ele>852.0</ele><time>2026-04-26T08:14:35.939Z</time></trkpt><trkpt lat="44.4554967" lon="9.9439017"><ele>852.0</ele><time>2026-04-26T08:14:36.939Z</time></trkpt><trkpt lat="44.4554433" lon="9.9438367"><ele>852.0</ele><time>2026-04-26T08:14:37.938Z</time></trkpt><trkpt lat="44.4554183" lon="9.9437533"><ele>852.0</ele><time>2026-04-26T08:14:38.939Z</time></trkpt><trkpt lat="44.4554383" lon="9.943575"><ele>852.0</ele><time>2026-04-26T08:14:40.938Z</time></trkpt><trkpt lat="44.4554517" lon="9.9434733"><ele>852.0</ele><time>2026-04-26T08:14:41.939Z</time></trkpt><trkpt lat="44.45545" lon="9.9433717"><ele>851.8333333333334</ele><time>2026-04-26T08:14:42.939Z</time></trkpt><trkpt lat="44.45546" lon="9.94327"><ele>851.6666666666667</ele><time>2026-04-26T08:14:43.939Z</time></trkpt><trkpt lat="44.4554867" lon="9.943175"><ele>851.5</ele><time>2026-04-26T08:14:44.939Z</time></trkpt><trkpt lat="44.4555317" lon="9.9430933"><ele>851.3333333333334</ele><time>2026-04-26T08:14:45.939Z</time></trkpt><trkpt lat="44.4555983" lon="9.9430267"><ele>851.1666666666667</ele><time>2026-04-26T08:14:46.939Z</time></trkpt><trkpt lat="44.455675" lon="9.9429683"><ele>851.0</ele><time>2026-04-26T08:14:47.938Z</time></trkpt><trkpt lat="44.4557567" lon="9.9429233"><ele>851.0</ele><time>2026-04-26T08:14:48.939Z</time></trkpt><trkpt lat="44.4558517" lon="9.9428683"><ele>851.0</ele><time>2026-04-26T08:14:49.939Z</time></trkpt><trkpt lat="44.4559533" lon="9.9428217"><ele>851.0</ele><time>2026-04-26T08:14:50.939Z</time></trkpt><trkpt lat="44.4560667" lon="9.9427883"><ele>851.0</ele><time>2026-04-26T08:14:51.939Z</time></trkpt><trkpt lat="44.4562883" lon="9.9427317"><ele>849.4</ele><time>2026-04-26T08:14:53.939Z</time></trkpt><trkpt lat="44.45639" lon="9.9426917"><ele>847.8</ele><time>2026-04-26T08:14:54.938Z</time></trkpt><trkpt lat="44.4564867" lon="9.9426467"><ele>846.1999999999999</ele><time>2026-04-26T08:14:55.939Z</time></trkpt><trkpt lat="44.456575" lon="9.9426017"><ele>844.5999999999999</ele><time>2026-04-26T08:14:56.939Z</time></trkpt><trkpt lat="44.4566733" lon="9.9425517"><ele>843.0</ele><time>2026-04-26T08:14:57.939Z</time></trkpt><trkpt lat="44.4567633" lon="9.942515"><ele>843.0</ele><time>2026-04-26T08:14:58.939Z</time></trkpt><trkpt lat="44.45684" lon="9.94246"><ele>843.0</ele><time>2026-04-26T08:14:59.939Z</time></trkpt><trkpt lat="44.4568967" lon="9.9424133"><ele>843.0</ele><time>2026-04-26T08:15:00.938Z</time></trkpt><trkpt lat="44.4569967" lon="9.942445"><ele>843.0</ele><time>2026-04-26T08:15:02.939Z</time></trkpt><trkpt lat="44.4570683" lon="9.94254"><ele>843.0</ele><time>2026-04-26T08:15:04.939Z</time></trkpt><trkpt lat="44.4570467" lon="9.9427083"><ele>847.0</ele><time>2026-04-26T08:15:06.938Z</time></trkpt><trkpt lat="44.4570417" lon="9.942875"><ele>851.0</ele><time>2026-04-26T08:15:08.939Z</time></trkpt><trkpt lat="44.4571317" lon="9.9430083"><ele>855.0</ele><time>2026-04-26T08:15:10.939Z</time></trkpt><trkpt lat="44.4572" lon="9.943075"><ele>859.0</ele><time>2026-04-26T08:15:11.939Z</time></trkpt><trkpt lat="44.4572467" lon="9.943135"><ele>863.0</ele><time>2026-04-26T08:15:12.939Z</time></trkpt><trkpt lat="44.457315" lon="9.943325"><ele>866.6666666666667</ele><time>2026-04-26T08:15:14.939Z</time></trkpt><trkpt lat="44.4573567" lon="9.9434317"><ele>870.3333333333334</ele><time>2026-04-26T08:15:15.939Z</time></trkpt><trkpt lat="44.4574083" lon="9.9435233"><ele>874.0</ele><time>2026-04-26T08:15:16.939Z</time></trkpt><trkpt lat="44.457465" lon="9.943605"><ele>877.6666666666667</ele><time>2026-04-26T08:15:17.939Z</time></trkpt><trkpt lat="44.4575367" lon="9.9436483"><ele>881.3333333333334</ele><time>2026-04-26T08:15:18.939Z</time></trkpt><trkpt lat="44.4576183" lon="9.9436617"><ele>885.0</ele><time>2026-04-26T08:15:19.938Z</time></trkpt><trkpt lat="44.4577" lon="9.9436667"><ele>885.0</ele><time>2026-04-26T08:15:20.939Z</time></trkpt><trkpt lat="44.4577683" lon="9.9437017"><ele>885.0</ele><time>2026-04-26T08:15:21.939Z</time></trkpt><trkpt lat="44.4578233" lon="9.9437683"><ele>885.0</ele><time>2026-04-26T08:15:22.939Z</time></trkpt><trkpt lat="44.457855" lon="9.9438667"><ele>885.0</ele><time>2026-04-26T08:15:23.938Z</time></trkpt><trkpt lat="44.457865" lon="9.9439817"><ele>885.0</ele><time>2026-04-26T08:15:24.939Z</time></trkpt><trkpt lat="44.4578533" lon="9.944115"><ele>885.0</ele><time>2026-04-26T08:15:25.939Z</time></trkpt><trkpt lat="44.4578483" lon="9.94427"><ele>886.8</ele><time>2026-04-26T08:15:26.939Z</time></trkpt><trkpt lat="44.45785" lon="9.9444167"><ele>888.6</ele><time>2026-04-26T08:15:27.938Z</time></trkpt><trkpt lat="44.4578583" lon="9.94457"><ele>890.4000000000001</ele><time>2026-04-26T08:15:28.939Z</time></trkpt><trkpt lat="44.4578683" lon="9.94472"><ele>892.2</ele><time>2026-04-26T08:15:29.939Z</time></trkpt><trkpt lat="44.4578783" lon="9.9448667"><ele>894.0</ele><time>2026-04-26T08:15:30.939Z</time></trkpt><trkpt lat="44.4578883" lon="9.9449933"><ele>894.0</ele><time>2026-04-26T08:15:31.939Z</time></trkpt><trkpt lat="44.4579" lon="9.94512"><ele>894.0000000000001</ele><time>2026-04-26T08:15:32.939Z</time></trkpt><trkpt lat="44.4579217" lon="9.9452267"><ele>894.0000000000001</ele><time>2026-04-26T08:15:33.939Z</time></trkpt><trkpt lat="44.45809" lon="9.9453733"><ele>894.0</ele><time>2026-04-26T08:15:37.939Z</time></trkpt><trkpt lat="44.4581533" lon="9.9453783"><ele>894.0</ele><time>2026-04-26T08:15:38.939Z</time></trkpt><trkpt lat="44.4582283" lon="9.9453933"><ele>893.6666666666666</ele><time>2026-04-26T08:15:39.939Z</time></trkpt><trkpt lat="44.4583033" lon="9.9454167"><ele>893.3333333333333</ele><time>2026-04-26T08:15:40.938Z</time></trkpt><trkpt lat="44.458375" lon="9.9454833"><ele>893.0</ele><time>2026-04-26T08:15:41.938Z</time></trkpt><trkpt lat="44.4584317" lon="9.9455683"><ele>892.6666666666666</ele><time>2026-04-26T08:15:42.939Z</time></trkpt><trkpt lat="44.4584783" lon="9.9456783"><ele>892.3333333333333</ele><time>2026-04-26T08:15:43.939Z</time></trkpt><trkpt lat="44.45853" lon="9.9458"><ele>892.0</ele><time>2026-04-26T08:15:44.939Z</time></trkpt><trkpt lat="44.4585867" lon="9.9459133"><ele>894.3333333333333</ele><time>2026-04-26T08:15:45.939Z</time></trkpt><trkpt lat="44.4586383" lon="9.946025"><ele>896.6666666666666</ele><time>2026-04-26T08:15:46.939Z</time></trkpt><trkpt lat="44.45869" lon="9.9461333"><ele>899.0</ele><time>2026-04-26T08:15:47.939Z</time></trkpt><trkpt lat="44.458725" lon="9.9462383"><ele>901.3333333333333</ele><time>2026-04-26T08:15:48.939Z</time></trkpt><trkpt lat="44.4587467" lon="9.9463467"><ele>903.6666666666666</ele><time>2026-04-26T08:15:49.939Z</time></trkpt><trkpt lat="44.4587467" lon="9.9464617"><ele>906.0</ele><time>2026-04-26T08:15:50.939Z</time></trkpt><trkpt lat="44.4587467" lon="9.9465933"><ele>905.8</ele><time>2026-04-26T08:15:51.939Z</time></trkpt><trkpt lat="44.4587467" lon="9.9467167"><ele>905.5999999999999</ele><time>2026-04-26T08:15:52.939Z</time></trkpt><trkpt lat="44.4587417" lon="9.946845"><ele>905.4</ele><time>2026-04-26T08:15:53.939Z</time></trkpt><trkpt lat="44.4587567" lon="9.9469667"><ele>905.2</ele><time>2026-04-26T08:15:54.939Z</time></trkpt><trkpt lat="44.4588433" lon="9.9471467"><ele>905.0</ele><time>2026-04-26T08:15:56.939Z</time></trkpt><trkpt lat="44.4589117" lon="9.947195"><ele>906.8333333333334</ele><time>2026-04-26T08:15:57.938Z</time></trkpt><trkpt lat="44.4589933" lon="9.94721"><ele>908.6666666666667</ele><time>2026-04-26T08:15:58.938Z</time></trkpt><trkpt lat="44.45907" lon="9.94718"><ele>910.5</ele><time>2026-04-26T08:15:59.939Z</time></trkpt><trkpt lat="44.4591417" lon="9.9471167"><ele>912.3333333333333</ele><time>2026-04-26T08:16:00.939Z</time></trkpt><trkpt lat="44.45922" lon="9.9470583"><ele>914.1666666666666</ele><time>2026-04-26T08:16:01.939Z</time></trkpt><trkpt lat="44.459295" lon="9.9470117"><ele>916.0</ele><time>2026-04-26T08:16:02.939Z</time></trkpt><trkpt lat="44.4593767" lon="9.9469683"><ele>916.0</ele><time>2026-04-26T08:16:03.938Z</time></trkpt><trkpt lat="44.4594717" lon="9.94694"><ele>915.9999999999999</ele><time>2026-04-26T08:16:04.939Z</time></trkpt><trkpt lat="44.459565" lon="9.9469367"><ele>915.9999999999999</ele><time>2026-04-26T08:16:05.939Z</time></trkpt><trkpt lat="44.4596433" lon="9.9469483"><ele>916.0</ele><time>2026-04-26T08:16:06.939Z</time></trkpt><trkpt lat="44.459745" lon="9.9470117"><ele>916.0</ele><time>2026-04-26T08:16:08.939Z</time></trkpt><trkpt lat="44.4597767" lon="9.94713"><ele>916.0</ele><time>2026-04-26T08:16:10.939Z</time></trkpt><trkpt lat="44.4597267" lon="9.9471917"><ele>915.9999999999999</ele><time>2026-04-26T08:16:12.938Z</time></trkpt><trkpt lat="44.4596633" lon="9.9472083"><ele>915.9999999999999</ele><time>2026-04-26T08:16:13.939Z</time></trkpt><trkpt lat="44.4595683" lon="9.94723"><ele>916.0</ele><time>2026-04-26T08:16:14.939Z</time></trkpt><trkpt lat="44.4594517" lon="9.9472817"><ele>916.0</ele><time>2026-04-26T08:16:15.938Z</time></trkpt><trkpt lat="44.459245" lon="9.9474983"><ele>914.1999999999999</ele><time>2026-04-26T08:16:17.939Z</time></trkpt><trkpt lat="44.4591567" lon="9.9476167"><ele>912.3999999999999</ele><time>2026-04-26T08:16:18.939Z</time></trkpt><trkpt lat="44.45907" lon="9.9476867"><ele>910.6</ele><time>2026-04-26T08:16:19.939Z</time></trkpt><trkpt lat="44.4589733" lon="9.947725"><ele>908.8</ele><time>2026-04-26T08:16:20.939Z</time></trkpt><trkpt lat="44.45887" lon="9.9477483"><ele>907.0</ele><time>2026-04-26T08:16:21.939Z</time></trkpt><trkpt lat="44.45878" lon="9.947765"><ele>906.9999999999999</ele><time>2026-04-26T08:16:22.939Z</time></trkpt><trkpt lat="44.4587117" lon="9.94779"><ele>907.0</ele><time>2026-04-26T08:16:23.939Z</time></trkpt><trkpt lat="44.4586633" lon="9.9478683"><ele>907.0</ele><time>2026-04-26T08:16:25.939Z</time></trkpt><trkpt lat="44.4587333" lon="9.94795"><ele>907.0</ele><time>2026-04-26T08:16:27.939Z</time></trkpt><trkpt lat="44.4588067" lon="9.9479567"><ele>906.9999999999999</ele><time>2026-04-26T08:16:28.939Z</time></trkpt><trkpt lat="44.4589067" lon="9.947935"><ele>907.0</ele><time>2026-04-26T08:16:29.939Z</time></trkpt><trkpt lat="44.459015" lon="9.9479083"><ele>913.0</ele><time>2026-04-26T08:16:30.939Z</time></trkpt><trkpt lat="44.459125" lon="9.9478817"><ele>919.0</ele><time>2026-04-26T08:16:31.939Z</time></trkpt><trkpt lat="44.459225" lon="9.947835"><ele>925.0</ele><time>2026-04-26T08:16:32.938Z</time></trkpt><trkpt lat="44.4593233" lon="9.9477783"><ele>931.0</ele><time>2026-04-26T08:16:33.939Z</time></trkpt><trkpt lat="44.4594133" lon="9.9477417"><ele>937.0</ele><time>2026-04-26T08:16:34.939Z</time></trkpt><trkpt lat="44.4595083" lon="9.9477367"><ele>937.0</ele><time>2026-04-26T08:16:35.939Z</time></trkpt><trkpt lat="44.459605" lon="9.947745"><ele>937.0</ele><time>2026-04-26T08:16:36.939Z</time></trkpt><trkpt lat="44.4598117" lon="9.94774"><ele>937.0</ele><time>2026-04-26T08:16:38.939Z</time></trkpt><trkpt lat="44.4599083" lon="9.9477483"><ele>937.0</ele><time>2026-04-26T08:16:39.939Z</time></trkpt><trkpt lat="44.4599933" lon="9.9477633"><ele>938.2</ele><time>2026-04-26T08:16:40.939Z</time></trkpt><trkpt lat="44.4600617" lon="9.947795"><ele>939.4000000000001</ele><time>2026-04-26T08:16:41.939Z</time></trkpt><trkpt lat="44.4601183" lon="9.947885"><ele>940.5999999999999</ele><time>2026-04-26T08:16:43.939Z</time></trkpt><trkpt lat="44.460005" lon="9.9479317"><ele>941.8</ele><time>2026-04-26T08:16:46.939Z</time></trkpt><trkpt lat="44.4599167" lon="9.9479167"><ele>943.0</ele><time>2026-04-26T08:16:47.939Z</time></trkpt><trkpt lat="44.459825" lon="9.947935"><ele>943.0</ele><time>2026-04-26T08:16:48.939Z</time></trkpt><trkpt lat="44.4597233" lon="9.9479883"><ele>943.0</ele><time>2026-04-26T08:16:49.938Z</time></trkpt><trkpt lat="44.4596233" lon="9.9480583"><ele>943.0</ele><time>2026-04-26T08:16:50.939Z</time></trkpt><trkpt lat="44.4595217" lon="9.94815"><ele>943.0</ele><time>2026-04-26T08:16:51.939Z</time></trkpt><trkpt lat="44.4594333" lon="9.948245"><ele>941.8</ele><time>2026-04-26T08:16:52.939Z</time></trkpt><trkpt lat="44.4593467" lon="9.948325"><ele>940.5999999999999</ele><time>2026-04-26T08:16:53.939Z</time></trkpt><trkpt lat="44.45925" lon="9.9483717"><ele>939.4000000000001</ele><time>2026-04-26T08:16:54.939Z</time></trkpt><trkpt lat="44.45915" lon="9.9484083"><ele>938.2</ele><time>2026-04-26T08:16:55.939Z</time></trkpt><trkpt lat="44.45905" lon="9.9484417"><ele>937.0</ele><time>2026-04-26T08:16:56.938Z</time></trkpt><trkpt lat="44.4589683" lon="9.9484717"><ele>940.4000000000001</ele><time>2026-04-26T08:16:57.939Z</time></trkpt><trkpt lat="44.4588517" lon="9.9485833"><ele>943.8000000000001</ele><time>2026-04-26T08:16:59.939Z</time></trkpt><trkpt lat="44.4588367" lon="9.9487017"><ele>947.2</ele><time>2026-04-26T08:17:01.938Z</time></trkpt><trkpt lat="44.4589217" lon="9.9487283"><ele>950.6</ele><time>2026-04-26T08:17:03.939Z</time></trkpt><trkpt lat="44.4590083" lon="9.9486733"><ele>954.0</ele><time>2026-04-26T08:17:04.939Z</time></trkpt><trkpt lat="44.4591117" lon="9.9486183"><ele>954.0</ele><time>2026-04-26T08:17:05.939Z</time></trkpt><trkpt lat="44.4592117" lon="9.948595"><ele>954.0000000000001</ele><time>2026-04-26T08:17:06.938Z</time></trkpt><trkpt lat="44.4593117" lon="9.9486083"><ele>954.0000000000001</ele><time>2026-04-26T08:17:07.939Z</time></trkpt><trkpt lat="44.45942" lon="9.9486217"><ele>954.0</ele><time>2026-04-26T08:17:08.938Z</time></trkpt><trkpt lat="44.4595383" lon="9.9486167"><ele>954.0</ele><time>2026-04-26T08:17:09.939Z</time></trkpt><trkpt lat="44.4596583" lon="9.94859"><ele>955.0</ele><time>2026-04-26T08:17:10.939Z</time></trkpt><trkpt lat="44.459755" lon="9.9485667"><ele>956.0000000000001</ele><time>2026-04-26T08:17:11.939Z</time></trkpt><trkpt lat="44.4598433" lon="9.9485433"><ele>957.0000000000001</ele><time>2026-04-26T08:17:12.939Z</time></trkpt><trkpt lat="44.459945" lon="9.9485783"><ele>958.0</ele><time>2026-04-26T08:17:14.939Z</time></trkpt><trkpt lat="44.4599767" lon="9.9486667"><ele>959.0</ele><time>2026-04-26T08:17:15.939Z</time></trkpt><trkpt lat="44.459985" lon="9.948795"><ele>959.0</ele><time>2026-04-26T08:17:16.939Z</time></trkpt><trkpt lat="44.4599767" lon="9.9489433"><ele>959.0000000000001</ele><time>2026-04-26T08:17:17.939Z</time></trkpt><trkpt lat="44.459975" lon="9.9490667"><ele>959.0000000000001</ele><time>2026-04-26T08:17:18.938Z</time></trkpt><trkpt lat="44.4600417" lon="9.9492483"><ele>959.0</ele><time>2026-04-26T08:17:20.939Z</time></trkpt><trkpt lat="44.4600983" lon="9.949295"><ele>959.0</ele><time>2026-04-26T08:17:21.939Z</time></trkpt><trkpt lat="44.460175" lon="9.9493317"><ele>960.3333333333334</ele><time>2026-04-26T08:17:22.939Z</time></trkpt><trkpt lat="44.4602583" lon="9.9493667"><ele>961.6666666666667</ele><time>2026-04-26T08:17:23.939Z</time></trkpt><trkpt lat="44.460325" lon="9.94944"><ele>963.0</ele><time>2026-04-26T08:17:24.939Z</time></trkpt><trkpt lat="44.4603783" lon="9.9495283"><ele>964.3333333333333</ele><time>2026-04-26T08:17:25.939Z</time></trkpt><trkpt lat="44.46042" lon="9.9496467"><ele>965.6666666666666</ele><time>2026-04-26T08:17:26.939Z</time></trkpt><trkpt lat="44.4604367" lon="9.9497817"><ele>967.0</ele><time>2026-04-26T08:17:27.939Z</time></trkpt><trkpt lat="44.460445" lon="9.9499233"><ele>968.0</ele><time>2026-04-26T08:17:28.938Z</time></trkpt><trkpt lat="44.4604417" lon="9.950075"><ele>969.0</ele><time>2026-04-26T08:17:29.938Z</time></trkpt><trkpt lat="44.4604217" lon="9.9502083"><ele>970.0</ele><time>2026-04-26T08:17:30.939Z</time></trkpt><trkpt lat="44.4603833" lon="9.95035"><ele>971.0</ele><time>2026-04-26T08:17:31.939Z</time></trkpt><trkpt lat="44.4603267" lon="9.9504667"><ele>972.0</ele><time>2026-04-26T08:17:32.939Z</time></trkpt><trkpt lat="44.4602683" lon="9.9505917"><ele>972.0</ele><time>2026-04-26T08:17:33.939Z</time></trkpt><trkpt lat="44.4602233" lon="9.9507217"><ele>972.0</ele><time>2026-04-26T08:17:34.939Z</time></trkpt><trkpt lat="44.460195" lon="9.9508517"><ele>972.0</ele><time>2026-04-26T08:17:35.939Z</time></trkpt><trkpt lat="44.4601717" lon="9.9509933"><ele>972.0</ele><time>2026-04-26T08:17:36.939Z</time></trkpt><trkpt lat="44.4601483" lon="9.951145"><ele>972.0</ele><time>2026-04-26T08:17:37.939Z</time></trkpt><trkpt lat="44.4601267" lon="9.9512867"><ele>973.75</ele><time>2026-04-26T08:17:38.939Z</time></trkpt><trkpt lat="44.4601167" lon="9.95143"><ele>975.5</ele><time>2026-04-26T08:17:39.939Z</time></trkpt><trkpt lat="44.460145" lon="9.9517183"><ele>977.25</ele><time>2026-04-26T08:17:41.939Z</time></trkpt><trkpt lat="44.4601883" lon="9.951835"><ele>979.0</ele><time>2026-04-26T08:17:42.939Z</time></trkpt><trkpt lat="44.4602433" lon="9.9519367"><ele>979.1666666666666</ele><time>2026-04-26T08:17:43.939Z</time></trkpt><trkpt lat="44.4603033" lon="9.9520267"><ele>979.3333333333333</ele><time>2026-04-26T08:17:44.938Z</time></trkpt><trkpt lat="44.4603633" lon="9.9520967"><ele>979.5</ele><time>2026-04-26T08:17:45.938Z</time></trkpt><trkpt lat="44.4604333" lon="9.9521567"><ele>979.6666666666667</ele><time>2026-04-26T08:17:46.939Z</time></trkpt><trkpt lat="44.4605183" lon="9.9522083"><ele>979.8333333333334</ele><time>2026-04-26T08:17:47.939Z</time></trkpt><trkpt lat="44.4606117" lon="9.95224"><ele>980.0</ele><time>2026-04-26T08:17:48.939Z</time></trkpt><trkpt lat="44.46071" lon="9.9522467"><ele>980.0</ele><time>2026-04-26T08:17:49.939Z</time></trkpt><trkpt lat="44.46081" lon="9.95224"><ele>980.0</ele><time>2026-04-26T08:17:50.939Z</time></trkpt><trkpt lat="44.4609017" lon="9.952215"><ele>980.0</ele><time>2026-04-26T08:17:51.939Z</time></trkpt><trkpt lat="44.4610017" lon="9.9521833"><ele>980.0</ele><time>2026-04-26T08:17:52.939Z</time></trkpt><trkpt lat="44.4611" lon="9.9521583"><ele>980.0</ele><time>2026-04-26T08:17:53.938Z</time></trkpt><trkpt lat="44.4611883" lon="9.952145"><ele>980.0000000000001</ele><time>2026-04-26T08:17:54.939Z</time></trkpt><trkpt lat="44.4612583" lon="9.9521583"><ele>980.0</ele><time>2026-04-26T08:17:55.939Z</time></trkpt><trkpt lat="44.4613383" lon="9.9521867"><ele>980.0</ele><time>2026-04-26T08:17:56.939Z</time></trkpt><trkpt lat="44.4614217" lon="9.9522267"><ele>980.0</ele><time>2026-04-26T08:17:57.939Z</time></trkpt><trkpt lat="44.4615067" lon="9.9522783"><ele>980.0000000000001</ele><time>2026-04-26T08:17:58.939Z</time></trkpt><trkpt lat="44.46159" lon="9.9523283"><ele>980.0</ele><time>2026-04-26T08:17:59.939Z</time></trkpt><trkpt lat="44.4616783" lon="9.9523733"><ele>980.8</ele><time>2026-04-26T08:18:00.938Z</time></trkpt><trkpt lat="44.4618417" lon="9.95247"><ele>981.6</ele><time>2026-04-26T08:18:02.939Z</time></trkpt><trkpt lat="44.4619317" lon="9.9525017"><ele>982.4000000000001</ele><time>2026-04-26T08:18:04.939Z</time></trkpt><trkpt lat="44.461995" lon="9.9525033"><ele>983.2</ele><time>2026-04-26T08:18:07.939Z</time></trkpt><trkpt lat="44.4620583" lon="9.9524517"><ele>984.0</ele><time>2026-04-26T08:18:10.939Z</time></trkpt><trkpt lat="44.4620467" lon="9.952365"><ele>984.0</ele><time>2026-04-26T08:21:15.938Z</time></trkpt><trkpt lat="44.4619633" lon="9.9525067"><ele>984.0</ele><time>2026-04-26T08:21:21.938Z</time></trkpt><trkpt lat="44.4620017" lon="9.9525767"><ele>984.0</ele><time>2026-04-26T08:21:23.938Z</time></trkpt><trkpt lat="44.46209" lon="9.9526433"><ele>984.0</ele><time>2026-04-26T08:21:25.938Z</time></trkpt><trkpt lat="44.4621517" lon="9.9526867"><ele>984.0</ele><time>2026-04-26T08:21:26.938Z</time></trkpt><trkpt lat="44.46222" lon="9.9527183"><ele>984.0</ele><time>2026-04-26T08:21:27.938Z</time></trkpt><trkpt lat="44.462295" lon="9.9527567"><ele>984.5714285714287</ele><time>2026-04-26T08:21:28.938Z</time></trkpt><trkpt lat="44.4623533" lon="9.9528017"><ele>985.1428571428571</ele><time>2026-04-26T08:21:29.938Z</time></trkpt><trkpt lat="44.4624083" lon="9.95287"><ele>985.7142857142858</ele><time>2026-04-26T08:21:30.938Z</time></trkpt><trkpt lat="44.46246" lon="9.9529433"><ele>986.2857142857143</ele><time>2026-04-26T08:21:31.938Z</time></trkpt><trkpt lat="44.462495" lon="9.9530367"><ele>986.8571428571429</ele><time>2026-04-26T08:21:32.938Z</time></trkpt><trkpt lat="44.462515" lon="9.95313"><ele>987.4285714285714</ele><time>2026-04-26T08:21:33.937Z</time></trkpt><trkpt lat="44.4625233" lon="9.953225"><ele>988.0</ele><time>2026-04-26T08:21:34.938Z</time></trkpt><trkpt lat="44.4625367" lon="9.9533317"><ele>989.0</ele><time>2026-04-26T08:21:35.938Z</time></trkpt><trkpt lat="44.46255" lon="9.9534317"><ele>990.0</ele><time>2026-04-26T08:21:36.938Z</time></trkpt><trkpt lat="44.4625717" lon="9.9536417"><ele>991.0</ele><time>2026-04-26T08:21:38.938Z</time></trkpt><trkpt lat="44.4625783" lon="9.95373"><ele>992.0</ele><time>2026-04-26T08:21:39.938Z</time></trkpt><trkpt lat="44.4626517" lon="9.9538517"><ele>993.0</ele><time>2026-04-26T08:21:41.938Z</time></trkpt><trkpt lat="44.4627783" lon="9.95388"><ele>993.0</ele><time>2026-04-26T08:21:43.938Z</time></trkpt><trkpt lat="44.4628583" lon="9.9538667"><ele>993.0</ele><time>2026-04-26T08:21:44.938Z</time></trkpt><trkpt lat="44.4629283" lon="9.9538267"><ele>993.0</ele><time>2026-04-26T08:21:45.938Z</time></trkpt><trkpt lat="44.4629933" lon="9.9537733"><ele>993.0</ele><time>2026-04-26T08:21:46.938Z</time></trkpt><trkpt lat="44.4630333" lon="9.9537033"><ele>993.0</ele><time>2026-04-26T08:21:47.938Z</time></trkpt><trkpt lat="44.4630633" lon="9.953625"><ele>993.0</ele><time>2026-04-26T08:21:48.938Z</time></trkpt><trkpt lat="44.463085" lon="9.95353"><ele>993.0</ele><time>2026-04-26T08:21:49.938Z</time></trkpt><trkpt lat="44.4631033" lon="9.9534383"><ele>992.8333333333334</ele><time>2026-04-26T08:21:50.937Z</time></trkpt><trkpt lat="44.463175" lon="9.953375"><ele>992.6666666666667</ele><time>2026-04-26T08:21:52.938Z</time></trkpt><trkpt lat="44.46323" lon="9.953455"><ele>992.5</ele><time>2026-04-26T08:21:54.938Z</time></trkpt><trkpt lat="44.4632317" lon="9.9535433"><ele>992.3333333333334</ele><time>2026-04-26T08:21:55.937Z</time></trkpt><trkpt lat="44.4632283" lon="9.9536717"><ele>992.1666666666667</ele><time>2026-04-26T08:21:56.938Z</time></trkpt><trkpt lat="44.46323" lon="9.9538133"><ele>992.0</ele><time>2026-04-26T08:21:57.938Z</time></trkpt><trkpt lat="44.4632583" lon="9.9540317"><ele>992.0000000000001</ele><time>2026-04-26T08:21:59.938Z</time></trkpt><trkpt lat="44.4632883" lon="9.9541383"><ele>992.0</ele><time>2026-04-26T08:22:00.938Z</time></trkpt><trkpt lat="44.4633183" lon="9.9542383"><ele>992.0</ele><time>2026-04-26T08:22:01.937Z</time></trkpt><trkpt lat="44.4633533" lon="9.9543367"><ele>992.0</ele><time>2026-04-26T08:22:02.937Z</time></trkpt><trkpt lat="44.463385" lon="9.954435"><ele>992.0000000000001</ele><time>2026-04-26T08:22:03.938Z</time></trkpt><trkpt lat="44.4634233" lon="9.9545383"><ele>992.0</ele><time>2026-04-26T08:22:04.937Z</time></trkpt><trkpt lat="44.4634633" lon="9.954635"><ele>992.3333333333334</ele><time>2026-04-26T08:22:05.938Z</time></trkpt><trkpt lat="44.46351" lon="9.9547317"><ele>992.6666666666667</ele><time>2026-04-26T08:22:06.938Z</time></trkpt><trkpt lat="44.4635467" lon="9.9548317"><ele>993.0</ele><time>2026-04-26T08:22:07.938Z</time></trkpt><trkpt lat="44.4635717" lon="9.9549333"><ele>993.3333333333333</ele><time>2026-04-26T08:22:08.938Z</time></trkpt><trkpt lat="44.4635817" lon="9.9550417"><ele>993.6666666666666</ele><time>2026-04-26T08:22:09.937Z</time></trkpt><trkpt lat="44.463625" lon="9.9551817"><ele>994.0</ele><time>2026-04-26T08:22:11.937Z</time></trkpt><trkpt lat="44.4637283" lon="9.95523"><ele>998.2</ele><time>2026-04-26T08:22:13.938Z</time></trkpt><trkpt lat="44.46379" lon="9.9552117"><ele>1002.4000000000001</ele><time>2026-04-26T08:22:14.938Z</time></trkpt><trkpt lat="44.4638717" lon="9.9550783"><ele>1006.6</ele><time>2026-04-26T08:22:16.938Z</time></trkpt><trkpt lat="44.4638883" lon="9.95498"><ele>1010.8</ele><time>2026-04-26T08:22:17.937Z</time></trkpt><trkpt lat="44.4639017" lon="9.9548717"><ele>1015.0</ele><time>2026-04-26T08:22:18.938Z</time></trkpt><trkpt lat="44.4639467" lon="9.9546383"><ele>1014.9999999999999</ele><time>2026-04-26T08:22:20.938Z</time></trkpt><trkpt lat="44.46398" lon="9.95453"><ele>1015.0</ele><time>2026-04-26T08:22:21.938Z</time></trkpt><trkpt lat="44.46401" lon="9.95444"><ele>1015.0</ele><time>2026-04-26T08:22:22.938Z</time></trkpt><trkpt lat="44.4640417" lon="9.95435"><ele>1015.0</ele><time>2026-04-26T08:22:23.938Z</time></trkpt><trkpt lat="44.4640783" lon="9.9542617"><ele>1014.9999999999999</ele><time>2026-04-26T08:22:24.937Z</time></trkpt><trkpt lat="44.464115" lon="9.9541867"><ele>1015.0</ele><time>2026-04-26T08:22:25.938Z</time></trkpt><trkpt lat="44.4641883" lon="9.95406"><ele>1014.8</ele><time>2026-04-26T08:22:27.938Z</time></trkpt><trkpt lat="44.4642767" lon="9.9539517"><ele>1014.6</ele><time>2026-04-26T08:23:20.938Z</time></trkpt><trkpt lat="44.4644283" lon="9.9538883"><ele>1014.4000000000001</ele><time>2026-04-26T08:23:24.938Z</time></trkpt><trkpt lat="44.4644917" lon="9.9539133"><ele>1014.2</ele><time>2026-04-26T08:23:37.938Z</time></trkpt><trkpt lat="44.46457" lon="9.9539183"><ele>1014.0</ele><time>2026-04-26T08:24:36.937Z</time></trkpt><trkpt lat="44.464705" lon="9.953745"><ele>1020.6</ele><time>2026-04-26T08:24:40.938Z</time></trkpt><trkpt lat="44.4647017" lon="9.953565"><ele>1027.2</ele><time>2026-04-26T08:24:42.937Z</time></trkpt><trkpt lat="44.4646933" lon="9.95346"><ele>1033.8000000000002</ele><time>2026-04-26T08:24:43.938Z</time></trkpt><trkpt lat="44.4647033" lon="9.953365"><ele>1040.4</ele><time>2026-04-26T08:24:44.937Z</time></trkpt><trkpt lat="44.4647633" lon="9.9531933"><ele>1047.0</ele><time>2026-04-26T08:24:46.938Z</time></trkpt><trkpt lat="44.4648033" lon="9.95309"><ele>1047.0000000000002</ele><time>2026-04-26T08:24:47.938Z</time></trkpt><trkpt lat="44.464835" lon="9.952985"><ele>1047.0</ele><time>2026-04-26T08:24:48.938Z</time></trkpt><trkpt lat="44.4648567" lon="9.9528867"><ele>1047.0</ele><time>2026-04-26T08:24:49.938Z</time></trkpt><trkpt lat="44.464875" lon="9.9527933"><ele>1047.0</ele><time>2026-04-26T08:24:50.937Z</time></trkpt><trkpt lat="44.464885" lon="9.9527"><ele>1047.0</ele><time>2026-04-26T08:24:51.938Z</time></trkpt><trkpt lat="44.4648817" lon="9.9526083"><ele>1047.0000000000002</ele><time>2026-04-26T08:24:52.938Z</time></trkpt><trkpt lat="44.46487" lon="9.9525117"><ele>1047.0</ele><time>2026-04-26T08:24:53.937Z</time></trkpt><trkpt lat="44.4648617" lon="9.9524083"><ele>1047.0</ele><time>2026-04-26T08:24:54.938Z</time></trkpt><trkpt lat="44.46485" lon="9.9522933"><ele>1047.0</ele><time>2026-04-26T08:24:55.938Z</time></trkpt><trkpt lat="44.4648333" lon="9.9521783"><ele>1047.0</ele><time>2026-04-26T08:24:56.938Z</time></trkpt><trkpt lat="44.4648167" lon="9.9520617"><ele>1047.0</ele><time>2026-04-26T08:24:57.938Z</time></trkpt><trkpt lat="44.4647933" lon="9.95186"><ele>1047.0</ele><time>2026-04-26T08:24:59.938Z</time></trkpt><trkpt lat="44.4647717" lon="9.9517467"><ele>1047.6</ele><time>2026-04-26T08:25:00.937Z</time></trkpt><trkpt lat="44.4647433" lon="9.9516433"><ele>1048.2</ele><time>2026-04-26T08:25:01.938Z</time></trkpt><trkpt lat="44.4647333" lon="9.951555"><ele>1048.8</ele><time>2026-04-26T08:25:02.938Z</time></trkpt><trkpt lat="44.4647217" lon="9.9513917"><ele>1049.4</ele><time>2026-04-26T08:25:04.938Z</time></trkpt><trkpt lat="44.4646817" lon="9.9512383"><ele>1050.0</ele><time>2026-04-26T08:25:06.938Z</time></trkpt><trkpt lat="44.4646417" lon="9.9510817"><ele>1050.0</ele><time>2026-04-26T08:25:08.937Z</time></trkpt><trkpt lat="44.46468" lon="9.9509033"><ele>1050.0</ele><time>2026-04-26T08:25:10.938Z</time></trkpt><trkpt lat="44.464735" lon="9.9507633"><ele>1050.0</ele><time>2026-04-26T08:25:12.938Z</time></trkpt><trkpt lat="44.4648233" lon="9.95068"><ele>1050.0</ele><time>2026-04-26T08:25:14.937Z</time></trkpt><trkpt lat="44.4649083" lon="9.9506133"><ele>1048.75</ele><time>2026-04-26T08:25:16.937Z</time></trkpt><trkpt lat="44.4649267" lon="9.950465"><ele>1047.5</ele><time>2026-04-26T08:25:18.938Z</time></trkpt><trkpt lat="44.4649233" lon="9.9501683"><ele>1046.25</ele><time>2026-04-26T08:25:21.938Z</time></trkpt><trkpt lat="44.4649233" lon="9.95007"><ele>1045.0</ele><time>2026-04-26T08:25:22.937Z</time></trkpt><trkpt lat="44.4649167" lon="9.9499683"><ele>1044.6666666666665</ele><time>2026-04-26T08:25:23.938Z</time></trkpt><trkpt lat="44.4649167" lon="9.949865"><ele>1044.3333333333333</ele><time>2026-04-26T08:25:24.938Z</time></trkpt><trkpt lat="44.464925" lon="9.9497733"><ele>1044.0</ele><time>2026-04-26T08:25:25.938Z</time></trkpt><trkpt lat="44.464925" lon="9.9496733"><ele>1043.6666666666667</ele><time>2026-04-26T08:25:26.938Z</time></trkpt><trkpt lat="44.464925" lon="9.94956"><ele>1043.3333333333335</ele><time>2026-04-26T08:25:27.938Z</time></trkpt><trkpt lat="44.4649233" lon="9.949445"><ele>1043.0</ele><time>2026-04-26T08:25:28.937Z</time></trkpt><trkpt lat="44.464915" lon="9.9493383"><ele>1043.0</ele><time>2026-04-26T08:25:29.938Z</time></trkpt><trkpt lat="44.4649" lon="9.9492383"><ele>1043.0</ele><time>2026-04-26T08:25:30.938Z</time></trkpt><trkpt lat="44.464885" lon="9.949145"><ele>1043.0</ele><time>2026-04-26T08:25:31.938Z</time></trkpt><trkpt lat="44.46485" lon="9.9489967"><ele>1043.0</ele><time>2026-04-26T08:25:33.938Z</time></trkpt><trkpt lat="44.46483" lon="9.948855"><ele>1043.0</ele><time>2026-04-26T08:25:35.938Z</time></trkpt><trkpt lat="44.4648783" lon="9.9486883"><ele>1042.8333333333335</ele><time>2026-04-26T08:25:37.938Z</time></trkpt><trkpt lat="44.464915" lon="9.9485933"><ele>1042.6666666666667</ele><time>2026-04-26T08:25:38.938Z</time></trkpt><trkpt lat="44.46495" lon="9.9484883"><ele>1042.5</ele><time>2026-04-26T08:25:39.937Z</time></trkpt><trkpt lat="44.46498" lon="9.9483867"><ele>1042.3333333333333</ele><time>2026-04-26T08:25:40.938Z</time></trkpt><trkpt lat="44.4650467" lon="9.9482133"><ele>1042.1666666666665</ele><time>2026-04-26T08:25:42.938Z</time></trkpt><trkpt lat="44.465075" lon="9.9481317"><ele>1042.0</ele><time>2026-04-26T08:25:43.938Z</time></trkpt><trkpt lat="44.4650767" lon="9.9480417"><ele>1040.857142857143</ele><time>2026-04-26T08:25:44.937Z</time></trkpt><trkpt lat="44.4650683" lon="9.9479533"><ele>1039.7142857142858</ele><time>2026-04-26T08:25:45.938Z</time></trkpt><trkpt lat="44.4650633" lon="9.9478483"><ele>1038.5714285714287</ele><time>2026-04-26T08:25:46.938Z</time></trkpt><trkpt lat="44.4650717" lon="9.9477383"><ele>1037.4285714285716</ele><time>2026-04-26T08:25:47.938Z</time></trkpt><trkpt lat="44.4650883" lon="9.94763"><ele>1036.2857142857144</ele><time>2026-04-26T08:25:48.938Z</time></trkpt><trkpt lat="44.46511" lon="9.9475283"><ele>1035.142857142857</ele><time>2026-04-26T08:25:49.938Z</time></trkpt><trkpt lat="44.465135" lon="9.9474367"><ele>1034.0</ele><time>2026-04-26T08:25:50.938Z</time></trkpt><trkpt lat="44.46515" lon="9.947345"><ele>1033.0</ele><time>2026-04-26T08:25:51.938Z</time></trkpt><trkpt lat="44.4651383" lon="9.9471667"><ele>1032.0</ele><time>2026-04-26T08:25:53.938Z</time></trkpt><trkpt lat="44.4651167" lon="9.9470617"><ele>1031.0</ele><time>2026-04-26T08:25:54.938Z</time></trkpt><trkpt lat="44.46509" lon="9.9469433"><ele>1030.0</ele><time>2026-04-26T08:25:55.938Z</time></trkpt><trkpt lat="44.4650633" lon="9.9468233"><ele>1029.0</ele><time>2026-04-26T08:25:56.938Z</time></trkpt><trkpt lat="44.4650417" lon="9.9467167"><ele>1030.25</ele><time>2026-04-26T08:25:57.938Z</time></trkpt><trkpt lat="44.4650217" lon="9.9466233"><ele>1031.5</ele><time>2026-04-26T08:25:58.938Z</time></trkpt><trkpt lat="44.46499" lon="9.94646"><ele>1032.75</ele><time>2026-04-26T08:26:00.938Z</time></trkpt><trkpt lat="44.46497" lon="9.946305"><ele>1034.0</ele><time>2026-04-26T08:26:02.938Z</time></trkpt><trkpt lat="44.465005" lon="9.9460583"><ele>1034.0</ele><time>2026-04-26T08:26:05.937Z</time></trkpt><trkpt lat="44.46502" lon="9.945915"><ele>1034.0</ele><time>2026-04-26T08:26:07.938Z</time></trkpt><trkpt lat="44.465" lon="9.94581"><ele>1034.0</ele><time>2026-04-26T08:26:09.938Z</time></trkpt><trkpt lat="44.46501" lon="9.945685"><ele>1034.0</ele><time>2026-04-26T08:26:11.938Z</time></trkpt><trkpt lat="44.465095" lon="9.945585"><ele>1034.0</ele><time>2026-04-26T08:26:13.938Z</time></trkpt><trkpt lat="44.4652017" lon="9.9455867"><ele>1034.2</ele><time>2026-04-26T08:26:15.938Z</time></trkpt><trkpt lat="44.465275" lon="9.9456667"><ele>1034.4</ele><time>2026-04-26T08:26:17.937Z</time></trkpt><trkpt lat="44.4653733" lon="9.9457167"><ele>1034.6</ele><time>2026-04-26T08:26:19.938Z</time></trkpt><trkpt lat="44.46549" lon="9.9456883"><ele>1034.8</ele><time>2026-04-26T08:26:21.938Z</time></trkpt><trkpt lat="44.4655967" lon="9.9455883"><ele>1035.0</ele><time>2026-04-26T08:26:23.938Z</time></trkpt><trkpt lat="44.465745" lon="9.9454267"><ele>1035.0</ele><time>2026-04-26T08:26:26.938Z</time></trkpt><trkpt lat="44.465795" lon="9.9453533"><ele>1035.0</ele><time>2026-04-26T08:26:28.938Z</time></trkpt><trkpt lat="44.46575" lon="9.94522"><ele>1035.0</ele><time>2026-04-26T08:26:31.938Z</time></trkpt><trkpt lat="44.4657367" lon="9.9451"><ele>1035.0</ele><time>2026-04-26T08:26:33.938Z</time></trkpt><trkpt lat="44.4657933" lon="9.9449817"><ele>1035.0</ele><time>2026-04-26T08:26:35.938Z</time></trkpt><trkpt lat="44.4658567" lon="9.9449333"><ele>1035.0</ele><time>2026-04-26T08:26:36.938Z</time></trkpt><trkpt lat="44.4659417" lon="9.9448483"><ele>1030.8333333333333</ele><time>2026-04-26T08:26:38.938Z</time></trkpt><trkpt lat="44.4659417" lon="9.9447133"><ele>1026.6666666666667</ele><time>2026-04-26T08:26:40.938Z</time></trkpt><trkpt lat="44.46593" lon="9.9446133"><ele>1022.5</ele><time>2026-04-26T08:26:41.938Z</time></trkpt><trkpt lat="44.465905" lon="9.9444967"><ele>1018.3333333333334</ele><time>2026-04-26T08:26:42.937Z</time></trkpt><trkpt lat="44.4658717" lon="9.944385"><ele>1014.1666666666667</ele><time>2026-04-26T08:26:43.938Z</time></trkpt><trkpt lat="44.4658517" lon="9.9442867"><ele>1010.0</ele><time>2026-04-26T08:26:44.938Z</time></trkpt><trkpt lat="44.4658467" lon="9.9440833"><ele>1008.6666666666667</ele><time>2026-04-26T08:26:46.938Z</time></trkpt><trkpt lat="44.4658433" lon="9.943985"><ele>1007.3333333333334</ele><time>2026-04-26T08:26:47.938Z</time></trkpt><trkpt lat="44.4658267" lon="9.94387"><ele>1006.0</ele><time>2026-04-26T08:26:48.938Z</time></trkpt><trkpt lat="44.4658017" lon="9.9437583"><ele>1004.6666666666667</ele><time>2026-04-26T08:26:49.938Z</time></trkpt><trkpt lat="44.4657733" lon="9.9436617"><ele>1003.3333333333334</ele><time>2026-04-26T08:26:50.938Z</time></trkpt><trkpt lat="44.465735" lon="9.9435617"><ele>1002.0</ele><time>2026-04-26T08:26:51.938Z</time></trkpt><trkpt lat="44.4656967" lon="9.9434767"><ele>1002.4000000000001</ele><time>2026-04-26T08:26:52.938Z</time></trkpt><trkpt lat="44.4656683" lon="9.9433133"><ele>1002.8000000000001</ele><time>2026-04-26T08:26:54.937Z</time></trkpt><trkpt lat="44.4656633" lon="9.9432183"><ele>1003.2</ele><time>2026-04-26T08:26:55.938Z</time></trkpt><trkpt lat="44.4656367" lon="9.9430717"><ele>1003.6</ele><time>2026-04-26T08:26:57.938Z</time></trkpt><trkpt lat="44.4656267" lon="9.9429517"><ele>1004.0</ele><time>2026-04-26T08:26:59.937Z</time></trkpt><trkpt lat="44.4656783" lon="9.9428417"><ele>1004.0000000000001</ele><time>2026-04-26T08:27:01.937Z</time></trkpt><trkpt lat="44.4657617" lon="9.9427567"><ele>1004.0</ele><time>2026-04-26T08:27:03.938Z</time></trkpt><trkpt lat="44.46582" lon="9.94272"><ele>1004.0</ele><time>2026-04-26T08:27:04.937Z</time></trkpt><trkpt lat="44.46588" lon="9.9426817"><ele>1004.0</ele><time>2026-04-26T08:27:05.938Z</time></trkpt><trkpt lat="44.4659383" lon="9.942505"><ele>1004.0000000000001</ele><time>2026-04-26T08:27:12.938Z</time></trkpt><trkpt lat="44.4658917" lon="9.9424367"><ele>1004.0</ele><time>2026-04-26T08:27:14.937Z</time></trkpt><trkpt lat="44.4658583" lon="9.942335"><ele>1003.1666666666667</ele><time>2026-04-26T08:27:16.938Z</time></trkpt><trkpt lat="44.4657933" lon="9.9422367"><ele>1002.3333333333334</ele><time>2026-04-26T08:27:18.938Z</time></trkpt><trkpt lat="44.46575" lon="9.9421667"><ele>1001.5</ele><time>2026-04-26T08:27:19.938Z</time></trkpt><trkpt lat="44.4657033" lon="9.9421017"><ele>1000.6666666666667</ele><time>2026-04-26T08:27:20.938Z</time></trkpt><trkpt lat="44.4656483" lon="9.94201"><ele>999.8333333333334</ele><time>2026-04-26T08:27:21.938Z</time></trkpt><trkpt lat="44.4655967" lon="9.941935"><ele>999.0</ele><time>2026-04-26T08:27:22.938Z</time></trkpt><trkpt lat="44.4655367" lon="9.9418583"><ele>999.0</ele><time>2026-04-26T08:27:23.938Z</time></trkpt><trkpt lat="44.46548" lon="9.94177"><ele>999.0</ele><time>2026-04-26T08:27:24.937Z</time></trkpt><trkpt lat="44.465435" lon="9.9417083"><ele>999.0</ele><time>2026-04-26T08:27:25.938Z</time></trkpt><trkpt lat="44.465375" lon="9.9416667"><ele>999.0</ele><time>2026-04-26T08:27:26.938Z</time></trkpt><trkpt lat="44.4652883" lon="9.94153"><ele>999.0</ele><time>2026-04-26T08:27:28.938Z</time></trkpt><trkpt lat="44.4652667" lon="9.9414383"><ele>999.0</ele><time>2026-04-26T08:27:29.937Z</time></trkpt><trkpt lat="44.4652717" lon="9.94128"><ele>994.0</ele><time>2026-04-26T08:27:31.938Z</time></trkpt><trkpt lat="44.4652817" lon="9.941145"><ele>989.0</ele><time>2026-04-26T08:27:33.938Z</time></trkpt><trkpt lat="44.4653083" lon="9.9409767"><ele>984.0</ele><time>2026-04-26T08:27:35.938Z</time></trkpt><trkpt lat="44.465335" lon="9.9408183"><ele>979.0</ele><time>2026-04-26T08:27:37.938Z</time></trkpt><trkpt lat="44.4653833" lon="9.9406733"><ele>983.4000000000001</ele><time>2026-04-26T08:27:39.937Z</time></trkpt><trkpt lat="44.4654467" lon="9.9405467"><ele>987.8000000000001</ele><time>2026-04-26T08:27:41.938Z</time></trkpt><trkpt lat="44.4654933" lon="9.9404217"><ele>992.1999999999999</ele><time>2026-04-26T08:27:43.938Z</time></trkpt><trkpt lat="44.4655683" lon="9.9403183"><ele>996.5999999999999</ele><time>2026-04-26T08:27:45.938Z</time></trkpt><trkpt lat="44.4656017" lon="9.940195"><ele>1001.0</ele><time>2026-04-26T08:27:47.938Z</time></trkpt><trkpt lat="44.4654867" lon="9.939985"><ele>993.5000000000001</ele><time>2026-04-26T08:27:52.938Z</time></trkpt><trkpt lat="44.46544" lon="9.939915"><ele>986.0</ele><time>2026-04-26T08:27:53.937Z</time></trkpt><trkpt lat="44.4653983" lon="9.939835"><ele>978.5</ele><time>2026-04-26T08:27:54.937Z</time></trkpt><trkpt lat="44.465365" lon="9.939745"><ele>971.0</ele><time>2026-04-26T08:27:55.938Z</time></trkpt><trkpt lat="44.4653283" lon="9.9396533"><ele>963.5000000000001</ele><time>2026-04-26T08:27:56.938Z</time></trkpt><trkpt lat="44.465285" lon="9.939555"><ele>956.0</ele><time>2026-04-26T08:27:57.938Z</time></trkpt><trkpt lat="44.465245" lon="9.9394533"><ele>956.0000000000001</ele><time>2026-04-26T08:27:58.938Z</time></trkpt><trkpt lat="44.465205" lon="9.9393583"><ele>956.0</ele><time>2026-04-26T08:27:59.938Z</time></trkpt><trkpt lat="44.4651633" lon="9.93927"><ele>956.0</ele><time>2026-04-26T08:28:00.938Z</time></trkpt><trkpt lat="44.4651133" lon="9.939195"><ele>956.0</ele><time>2026-04-26T08:28:01.938Z</time></trkpt><trkpt lat="44.4650617" lon="9.93911"><ele>956.0000000000001</ele><time>2026-04-26T08:28:02.938Z</time></trkpt><trkpt lat="44.4650083" lon="9.939035"><ele>956.0</ele><time>2026-04-26T08:28:03.938Z</time></trkpt><trkpt lat="44.4649733" lon="9.938905"><ele>960.0</ele><time>2026-04-26T08:28:05.938Z</time></trkpt><trkpt lat="44.4649717" lon="9.93874"><ele>964.0</ele><time>2026-04-26T08:28:07.938Z</time></trkpt><trkpt lat="44.464995" lon="9.93856"><ele>968.0</ele><time>2026-04-26T08:28:09.937Z</time></trkpt><trkpt lat="44.4650267" lon="9.9382933"><ele>972.0</ele><time>2026-04-26T08:28:12.938Z</time></trkpt><trkpt lat="44.4650383" lon="9.9382033"><ele>972.0</ele><time>2026-04-26T08:28:13.938Z</time></trkpt><trkpt lat="44.46506" lon="9.9381183"><ele>972.0</ele><time>2026-04-26T08:28:14.938Z</time></trkpt><trkpt lat="44.4651133" lon="9.9379633"><ele>972.0</ele><time>2026-04-26T08:28:16.938Z</time></trkpt><trkpt lat="44.4651967" lon="9.93782"><ele>972.0</ele><time>2026-04-26T08:28:18.938Z</time></trkpt><trkpt lat="44.4652583" lon="9.9376733"><ele>972.0</ele><time>2026-04-26T08:28:20.938Z</time></trkpt><trkpt lat="44.4652967" lon="9.93751"><ele>967.8</ele><time>2026-04-26T08:28:22.937Z</time></trkpt><trkpt lat="44.46535" lon="9.9373717"><ele>963.6</ele><time>2026-04-26T08:28:24.938Z</time></trkpt><trkpt lat="44.4654033" lon="9.9372483"><ele>959.3999999999999</ele><time>2026-04-26T08:28:26.938Z</time></trkpt><trkpt lat="44.4654683" lon="9.9371033"><ele>955.1999999999999</ele><time>2026-04-26T08:28:28.938Z</time></trkpt><trkpt lat="44.4655033" lon="9.9370217"><ele>951.0</ele><time>2026-04-26T08:28:29.938Z</time></trkpt><trkpt lat="44.4655383" lon="9.9369267"><ele>953.3333333333334</ele><time>2026-04-26T08:28:30.937Z</time></trkpt><trkpt lat="44.4656183" lon="9.936745"><ele>955.6666666666667</ele><time>2026-04-26T08:28:32.938Z</time></trkpt><trkpt lat="44.46566" lon="9.9366667"><ele>958.0</ele><time>2026-04-26T08:28:33.937Z</time></trkpt><trkpt lat="44.4657083" lon="9.9365733"><ele>960.3333333333334</ele><time>2026-04-26T08:28:34.938Z</time></trkpt><trkpt lat="44.465745" lon="9.9364983"><ele>962.6666666666667</ele><time>2026-04-26T08:28:35.938Z</time></trkpt><trkpt lat="44.4657933" lon="9.9364317"><ele>965.0</ele><time>2026-04-26T08:28:36.938Z</time></trkpt><trkpt lat="44.4658817" lon="9.9363567"><ele>965.0</ele><time>2026-04-26T08:28:38.938Z</time></trkpt><trkpt lat="44.4659867" lon="9.9362217"><ele>965.0</ele><time>2026-04-26T08:28:40.938Z</time></trkpt><trkpt lat="44.4660433" lon="9.9361017"><ele>965.0</ele><time>2026-04-26T08:28:41.938Z</time></trkpt><trkpt lat="44.4661083" lon="9.9359683"><ele>965.0</ele><time>2026-04-26T08:28:42.938Z</time></trkpt><trkpt lat="44.4661733" lon="9.9358333"><ele>969.5</ele><time>2026-04-26T08:28:43.938Z</time></trkpt><trkpt lat="44.4662467" lon="9.93569"><ele>974.0</ele><time>2026-04-26T08:28:44.938Z</time></trkpt><trkpt lat="44.466315" lon="9.9355567"><ele>978.5</ele><time>2026-04-26T08:28:45.938Z</time></trkpt><trkpt lat="44.4663767" lon="9.935415"><ele>983.0</ele><time>2026-04-26T08:28:46.938Z</time></trkpt><trkpt lat="44.46644" lon="9.935305"><ele>983.0</ele><time>2026-04-26T08:28:47.938Z</time></trkpt><trkpt lat="44.46651" lon="9.9351967"><ele>983.0</ele><time>2026-04-26T08:28:48.938Z</time></trkpt><trkpt lat="44.46658" lon="9.9351167"><ele>983.0</ele><time>2026-04-26T08:28:49.938Z</time></trkpt><trkpt lat="44.4666617" lon="9.9350567"><ele>983.0</ele><time>2026-04-26T08:28:50.938Z</time></trkpt><trkpt lat="44.4667433" lon="9.9350433"><ele>983.0</ele><time>2026-04-26T08:28:51.938Z</time></trkpt><trkpt lat="44.4669417" lon="9.9350833"><ele>983.0000000000001</ele><time>2026-04-26T08:28:53.937Z</time></trkpt><trkpt lat="44.46704" lon="9.9351367"><ele>983.0</ele><time>2026-04-26T08:28:54.938Z</time></trkpt><trkpt lat="44.4671267" lon="9.9351867"><ele>983.0</ele><time>2026-04-26T08:28:55.938Z</time></trkpt><trkpt lat="44.4671967" lon="9.9351767"><ele>983.0</ele><time>2026-04-26T08:28:56.938Z</time></trkpt><trkpt lat="44.4672667" lon="9.93516"><ele>983.0000000000001</ele><time>2026-04-26T08:28:57.938Z</time></trkpt><trkpt lat="44.4673133" lon="9.935085"><ele>983.0</ele><time>2026-04-26T08:28:58.937Z</time></trkpt><trkpt lat="44.4673467" lon="9.934965"><ele>981.0</ele><time>2026-04-26T08:28:59.938Z</time></trkpt><trkpt lat="44.4673467" lon="9.934795"><ele>979.0</ele><time>2026-04-26T08:29:00.938Z</time></trkpt><trkpt lat="44.4673283" lon="9.9345967"><ele>977.0</ele><time>2026-04-26T08:29:01.938Z</time></trkpt><trkpt lat="44.46732" lon="9.9343783"><ele>975.0</ele><time>2026-04-26T08:29:02.938Z</time></trkpt><trkpt lat="44.46734" lon="9.9341867"><ele>975.0</ele><time>2026-04-26T08:29:03.938Z</time></trkpt><trkpt lat="44.4673817" lon="9.9340417"><ele>975.0</ele><time>2026-04-26T08:29:04.938Z</time></trkpt><trkpt lat="44.4674483" lon="9.9339483"><ele>975.0</ele><time>2026-04-26T08:29:05.938Z</time></trkpt><trkpt lat="44.4675333" lon="9.9339033"><ele>975.0</ele><time>2026-04-26T08:29:06.938Z</time></trkpt><trkpt lat="44.4676367" lon="9.933865"><ele>975.0</ele><time>2026-04-26T08:29:07.938Z</time></trkpt><trkpt lat="44.4677383" lon="9.93379"><ele>975.0</ele><time>2026-04-26T08:29:08.937Z</time></trkpt><trkpt lat="44.46782" lon="9.9336517"><ele>975.0</ele><time>2026-04-26T08:29:09.938Z</time></trkpt><trkpt lat="44.4679117" lon="9.933505"><ele>975.0</ele><time>2026-04-26T08:29:10.938Z</time></trkpt><trkpt lat="44.468025" lon="9.9334083"><ele>975.0</ele><time>2026-04-26T08:29:11.938Z</time></trkpt><trkpt lat="44.468155" lon="9.933355"><ele>980.3333333333333</ele><time>2026-04-26T08:29:12.938Z</time></trkpt><trkpt lat="44.46842" lon="9.9333383"><ele>985.6666666666666</ele><time>2026-04-26T08:29:14.938Z</time></trkpt><trkpt lat="44.46854" lon="9.9333717"><ele>991.0</ele><time>2026-04-26T08:29:15.938Z</time></trkpt><trkpt lat="44.4686467" lon="9.93339"><ele>991.0</ele><time>2026-04-26T08:29:16.937Z</time></trkpt><trkpt lat="44.468735" lon="9.9333733"><ele>990.9999999999999</ele><time>2026-04-26T08:29:17.938Z</time></trkpt><trkpt lat="44.46882" lon="9.9332683"><ele>990.9999999999999</ele><time>2026-04-26T08:29:19.938Z</time></trkpt><trkpt lat="44.4688367" lon="9.9331667"><ele>991.0</ele><time>2026-04-26T08:29:20.938Z</time></trkpt><trkpt lat="44.4688217" lon="9.9330183"><ele>991.0</ele><time>2026-04-26T08:29:21.937Z</time></trkpt><trkpt lat="44.4688133" lon="9.932845"><ele>994.5999999999999</ele><time>2026-04-26T08:29:22.938Z</time></trkpt><trkpt lat="44.4688117" lon="9.9326617"><ele>998.1999999999999</ele><time>2026-04-26T08:29:23.938Z</time></trkpt><trkpt lat="44.4688267" lon="9.932515"><ele>1001.8000000000001</ele><time>2026-04-26T08:29:24.938Z</time></trkpt><trkpt lat="44.4688517" lon="9.93238"><ele>1005.4000000000001</ele><time>2026-04-26T08:29:25.937Z</time></trkpt><trkpt lat="44.4689083" lon="9.9322433"><ele>1009.0</ele><time>2026-04-26T08:29:26.938Z</time></trkpt><trkpt lat="44.46897" lon="9.9321317"><ele>1009.0</ele><time>2026-04-26T08:29:27.938Z</time></trkpt><trkpt lat="44.4690467" lon="9.9320183"><ele>1009.0</ele><time>2026-04-26T08:29:28.938Z</time></trkpt><trkpt lat="44.4691283" lon="9.9318883"><ele>1009.0</ele><time>2026-04-26T08:29:29.938Z</time></trkpt><trkpt lat="44.4692167" lon="9.9317583"><ele>1009.0</ele><time>2026-04-26T08:29:30.938Z</time></trkpt><trkpt lat="44.4693117" lon="9.9316433"><ele>1011.3333333333333</ele><time>2026-04-26T08:29:31.938Z</time></trkpt><trkpt lat="44.4694117" lon="9.9315317"><ele>1013.6666666666667</ele><time>2026-04-26T08:29:32.938Z</time></trkpt><trkpt lat="44.4695233" lon="9.9314367"><ele>1016.0</ele><time>2026-04-26T08:29:33.938Z</time></trkpt><trkpt lat="44.4697383" lon="9.9312933"><ele>1016.0</ele><time>2026-04-26T08:29:35.938Z</time></trkpt><trkpt lat="44.4698433" lon="9.9312017"><ele>1016.0</ele><time>2026-04-26T08:29:36.937Z</time></trkpt><trkpt lat="44.4699367" lon="9.93108"><ele>1016.0</ele><time>2026-04-26T08:29:37.938Z</time></trkpt><trkpt lat="44.4700017" lon="9.9309433"><ele>1016.0</ele><time>2026-04-26T08:29:38.938Z</time></trkpt><trkpt lat="44.4700617" lon="9.93079"><ele>1010.75</ele><time>2026-04-26T08:29:39.938Z</time></trkpt><trkpt lat="44.4701033" lon="9.93063"><ele>1005.5</ele><time>2026-04-26T08:29:40.938Z</time></trkpt><trkpt lat="44.4701367" lon="9.9304617"><ele>1000.25</ele><time>2026-04-26T08:29:41.938Z</time></trkpt><trkpt lat="44.470175" lon="9.9302917"><ele>995.0</ele><time>2026-04-26T08:29:42.938Z</time></trkpt><trkpt lat="44.4702133" lon="9.9301283"><ele>992.0</ele><time>2026-04-26T08:29:43.938Z</time></trkpt><trkpt lat="44.47025" lon="9.9299667"><ele>989.0</ele><time>2026-04-26T08:29:44.938Z</time></trkpt><trkpt lat="44.47027" lon="9.92981"><ele>986.0</ele><time>2026-04-26T08:29:45.938Z</time></trkpt><trkpt lat="44.470285" lon="9.929655"><ele>983.0</ele><time>2026-04-26T08:29:46.938Z</time></trkpt><trkpt lat="44.4703017" lon="9.9294933"><ele>983.0</ele><time>2026-04-26T08:29:47.938Z</time></trkpt><trkpt lat="44.47032" lon="9.92935"><ele>983.0</ele><time>2026-04-26T08:29:48.938Z</time></trkpt><trkpt lat="44.4703583" lon="9.9292183"><ele>983.0</ele><time>2026-04-26T08:29:49.938Z</time></trkpt><trkpt lat="44.470385" lon="9.9290883"><ele>983.0</ele><time>2026-04-26T08:29:50.938Z</time></trkpt><trkpt lat="44.470395" lon="9.9289217"><ele>983.0</ele><time>2026-04-26T08:29:51.938Z</time></trkpt><trkpt lat="44.4703933" lon="9.92876"><ele>981.5</ele><time>2026-04-26T08:29:52.937Z</time></trkpt><trkpt lat="44.4703783" lon="9.9286017"><ele>980.0</ele><time>2026-04-26T08:29:53.938Z</time></trkpt><trkpt lat="44.4703583" lon="9.92846"><ele>978.5</ele><time>2026-04-26T08:29:54.938Z</time></trkpt><trkpt lat="44.4703667" lon="9.9281533"><ele>977.0</ele><time>2026-04-26T08:29:56.938Z</time></trkpt><trkpt lat="44.4704033" lon="9.9279883"><ele>976.25</ele><time>2026-04-26T08:29:57.938Z</time></trkpt><trkpt lat="44.470435" lon="9.927805"><ele>975.5</ele><time>2026-04-26T08:29:58.938Z</time></trkpt><trkpt lat="44.4704667" lon="9.927605"><ele>974.75</ele><time>2026-04-26T08:29:59.937Z</time></trkpt><trkpt lat="44.4704767" lon="9.927395"><ele>974.0</ele><time>2026-04-26T08:30:00.938Z</time></trkpt><trkpt lat="44.47048" lon="9.92718"><ele>985.0</ele><time>2026-04-26T08:30:01.938Z</time></trkpt><trkpt lat="44.4704917" lon="9.9269567"><ele>996.0</ele><time>2026-04-26T08:30:02.938Z</time></trkpt><trkpt lat="44.47052" lon="9.92674"><ele>1007.0</ele><time>2026-04-26T08:30:03.938Z</time></trkpt><trkpt lat="44.47053" lon="9.92652"><ele>1007.0</ele><time>2026-04-26T08:30:04.937Z</time></trkpt><trkpt lat="44.47053" lon="9.92631"><ele>1007.0</ele><time>2026-04-26T08:30:05.938Z</time></trkpt><trkpt lat="44.47053" lon="9.9261033"><ele>1007.0</ele><time>2026-04-26T08:30:06.938Z</time></trkpt><trkpt lat="44.4705383" lon="9.9259"><ele>1007.0</ele><time>2026-04-26T08:30:07.937Z</time></trkpt><trkpt lat="44.4705617" lon="9.9257067"><ele>1006.0</ele><time>2026-04-26T08:30:08.938Z</time></trkpt><trkpt lat="44.4706167" lon="9.9255183"><ele>1005.0</ele><time>2026-04-26T08:30:09.937Z</time></trkpt><trkpt lat="44.4706717" lon="9.9253233"><ele>1004.0</ele><time>2026-04-26T08:30:10.937Z</time></trkpt><trkpt lat="44.47072" lon="9.92513"><ele>1003.0</ele><time>2026-04-26T08:30:11.938Z</time></trkpt><trkpt lat="44.47076" lon="9.9249317"><ele>1000.0</ele><time>2026-04-26T08:30:12.938Z</time></trkpt><trkpt lat="44.470785" lon="9.92472"><ele>997.0</ele><time>2026-04-26T08:30:13.938Z</time></trkpt><trkpt lat="44.4708067" lon="9.9245083"><ele>994.0</ele><time>2026-04-26T08:30:14.938Z</time></trkpt><trkpt lat="44.47082" lon="9.9243083"><ele>991.0</ele><time>2026-04-26T08:30:15.938Z</time></trkpt><trkpt lat="44.470865" lon="9.9239667"><ele>990.1999999999999</ele><time>2026-04-26T08:30:17.938Z</time></trkpt><trkpt lat="44.4708817" lon="9.9238133"><ele>989.3999999999999</ele><time>2026-04-26T08:30:18.938Z</time></trkpt><trkpt lat="44.47087" lon="9.9236783"><ele>988.6</ele><time>2026-04-26T08:30:19.938Z</time></trkpt><trkpt lat="44.4708183" lon="9.9235617"><ele>987.8</ele><time>2026-04-26T08:30:20.937Z</time></trkpt><trkpt lat="44.4707483" lon="9.92345"><ele>987.0</ele><time>2026-04-26T08:30:21.938Z</time></trkpt><trkpt lat="44.470685" lon="9.92331"><ele>989.5</ele><time>2026-04-26T08:30:22.938Z</time></trkpt><trkpt lat="44.47065" lon="9.92315"><ele>992.0</ele><time>2026-04-26T08:30:23.938Z</time></trkpt><trkpt lat="44.47064" lon="9.922975"><ele>994.5</ele><time>2026-04-26T08:30:24.938Z</time></trkpt><trkpt lat="44.47064" lon="9.9227967"><ele>997.0</ele><time>2026-04-26T08:30:25.937Z</time></trkpt><trkpt lat="44.470625" lon="9.9226367"><ele>997.8</ele><time>2026-04-26T08:30:26.937Z</time></trkpt><trkpt lat="44.4706" lon="9.9225017"><ele>998.6</ele><time>2026-04-26T08:30:27.938Z</time></trkpt><trkpt lat="44.470535" lon="9.9223817"><ele>999.3999999999999</ele><time>2026-04-26T08:30:28.938Z</time></trkpt><trkpt lat="44.47046" lon="9.9222667"><ele>1000.1999999999999</ele><time>2026-04-26T08:30:29.938Z</time></trkpt><trkpt lat="44.4703883" lon="9.922165"><ele>1001.0</ele><time>2026-04-26T08:30:30.938Z</time></trkpt><trkpt lat="44.4703183" lon="9.92208"><ele>1001.0000000000001</ele><time>2026-04-26T08:30:31.938Z</time></trkpt><trkpt lat="44.4702483" lon="9.9220333"><ele>1001.0</ele><time>2026-04-26T08:30:32.938Z</time></trkpt><trkpt lat="44.4701783" lon="9.9220367"><ele>1001.0</ele><time>2026-04-26T08:30:33.938Z</time></trkpt><trkpt lat="44.4701067" lon="9.922085"><ele>1001.0</ele><time>2026-04-26T08:30:34.938Z</time></trkpt><trkpt lat="44.47004" lon="9.9221817"><ele>1001.0000000000001</ele><time>2026-04-26T08:30:35.938Z</time></trkpt><trkpt lat="44.469985" lon="9.9223117"><ele>1001.0</ele><time>2026-04-26T08:30:36.937Z</time></trkpt><trkpt lat="44.4699067" lon="9.92263"><ele>998.4</ele><time>2026-04-26T08:30:38.938Z</time></trkpt><trkpt lat="44.4698667" lon="9.9227833"><ele>995.8</ele><time>2026-04-26T08:30:39.938Z</time></trkpt><trkpt lat="44.4698517" lon="9.9229317"><ele>993.1999999999999</ele><time>2026-04-26T08:30:40.937Z</time></trkpt><trkpt lat="44.4698233" lon="9.923075"><ele>990.5999999999999</ele><time>2026-04-26T08:30:41.937Z</time></trkpt><trkpt lat="44.4697733" lon="9.9231917"><ele>988.0</ele><time>2026-04-26T08:30:42.938Z</time></trkpt><trkpt lat="44.4697017" lon="9.9232683"><ele>985.5999999999999</ele><time>2026-04-26T08:30:43.938Z</time></trkpt><trkpt lat="44.4696083" lon="9.923325"><ele>983.1999999999999</ele><time>2026-04-26T08:30:44.937Z</time></trkpt><trkpt lat="44.46951" lon="9.9233733"><ele>980.8</ele><time>2026-04-26T08:30:45.938Z</time></trkpt><trkpt lat="44.469405" lon="9.9234133"><ele>978.4</ele><time>2026-04-26T08:30:46.937Z</time></trkpt><trkpt lat="44.4692933" lon="9.9234083"><ele>976.0</ele><time>2026-04-26T08:30:47.937Z</time></trkpt><trkpt lat="44.4691833" lon="9.9233567"><ele>978.8</ele><time>2026-04-26T08:30:48.938Z</time></trkpt><trkpt lat="44.4690833" lon="9.923285"><ele>981.5999999999999</ele><time>2026-04-26T08:30:49.938Z</time></trkpt><trkpt lat="44.4689933" lon="9.923195"><ele>984.4</ele><time>2026-04-26T08:30:50.938Z</time></trkpt><trkpt lat="44.4689083" lon="9.9231"><ele>987.2</ele><time>2026-04-26T08:30:51.938Z</time></trkpt><trkpt lat="44.4688333" lon="9.9229733"><ele>990.0</ele><time>2026-04-26T08:30:52.938Z</time></trkpt><trkpt lat="44.46877" lon="9.9228517"><ele>990.0</ele><time>2026-04-26T08:30:53.937Z</time></trkpt><trkpt lat="44.4687217" lon="9.92271"><ele>990.0</ele><time>2026-04-26T08:30:54.937Z</time></trkpt><trkpt lat="44.4686683" lon="9.9225583"><ele>990.0</ele><time>2026-04-26T08:30:55.938Z</time></trkpt><trkpt lat="44.4686117" lon="9.922405"><ele>990.0</ele><time>2026-04-26T08:30:56.938Z</time></trkpt><trkpt lat="44.4685533" lon="9.9222483"><ele>993.6666666666667</ele><time>2026-04-26T08:30:57.938Z</time></trkpt><trkpt lat="44.4684417" lon="9.9219017"><ele>997.3333333333334</ele><time>2026-04-26T08:30:59.938Z</time></trkpt><trkpt lat="44.468385" lon="9.9217367"><ele>1001.0</ele><time>2026-04-26T08:31:00.938Z</time></trkpt><trkpt lat="44.4683183" lon="9.9215783"><ele>1003.8</ele><time>2026-04-26T08:31:01.938Z</time></trkpt><trkpt lat="44.4682467" lon="9.9214367"><ele>1006.5999999999999</ele><time>2026-04-26T08:31:02.938Z</time></trkpt><trkpt lat="44.4681683" lon="9.921325"><ele>1009.4</ele><time>2026-04-26T08:31:03.938Z</time></trkpt><trkpt lat="44.4681033" lon="9.9212317"><ele>1012.2</ele><time>2026-04-26T08:31:04.938Z</time></trkpt><trkpt lat="44.46806" lon="9.9211517"><ele>1015.0</ele><time>2026-04-26T08:31:05.938Z</time></trkpt><trkpt lat="44.4680317" lon="9.92101"><ele>1015.0</ele><time>2026-04-26T08:31:07.937Z</time></trkpt><trkpt lat="44.4681167" lon="9.9210067"><ele>1015.0</ele><time>2026-04-26T08:31:09.938Z</time></trkpt><trkpt lat="44.4681783" lon="9.9210683"><ele>1015.0</ele><time>2026-04-26T08:31:10.938Z</time></trkpt><trkpt lat="44.4682583" lon="9.9211817"><ele>1015.0</ele><time>2026-04-26T08:31:11.938Z</time></trkpt><trkpt lat="44.4683617" lon="9.9213533"><ele>1015.0</ele><time>2026-04-26T08:31:12.938Z</time></trkpt><trkpt lat="44.4684917" lon="9.9215683"><ele>1016.3333333333333</ele><time>2026-04-26T08:31:13.938Z</time></trkpt><trkpt lat="44.4686317" lon="9.9218217"><ele>1017.6666666666667</ele><time>2026-04-26T08:31:14.938Z</time></trkpt><trkpt lat="44.4687617" lon="9.9220517"><ele>1019.0</ele><time>2026-04-26T08:31:15.938Z</time></trkpt><trkpt lat="44.4688683" lon="9.9222383"><ele>1019.0</ele><time>2026-04-26T08:31:16.938Z</time></trkpt><trkpt lat="44.468965" lon="9.9223933"><ele>1019.0</ele><time>2026-04-26T08:31:17.937Z</time></trkpt><trkpt lat="44.4690583" lon="9.9224967"><ele>1019.0</ele><time>2026-04-26T08:31:18.938Z</time></trkpt><trkpt lat="44.4692817" lon="9.9225983"><ele>1019.0</ele><time>2026-04-26T08:31:20.938Z</time></trkpt><trkpt lat="44.469385" lon="9.92255"><ele>1019.0</ele><time>2026-04-26T08:31:21.938Z</time></trkpt><trkpt lat="44.4694517" lon="9.9224317"><ele>1019.0</ele><time>2026-04-26T08:31:22.938Z</time></trkpt><trkpt lat="44.4694967" lon="9.922265"><ele>1019.0</ele><time>2026-04-26T08:31:23.938Z</time></trkpt><trkpt lat="44.4695317" lon="9.9220983"><ele>1019.0</ele><time>2026-04-26T08:31:24.938Z</time></trkpt><trkpt lat="44.46957" lon="9.9219283"><ele>1019.0</ele><time>2026-04-26T08:31:25.937Z</time></trkpt><trkpt lat="44.469615" lon="9.921775"><ele>1019.0</ele><time>2026-04-26T08:31:26.938Z</time></trkpt><trkpt lat="44.4696667" lon="9.9216417"><ele>1019.0</ele><time>2026-04-26T08:31:27.938Z</time></trkpt><trkpt lat="44.4697183" lon="9.9215267"><ele>1018.6666666666667</ele><time>2026-04-26T08:31:28.938Z</time></trkpt><trkpt lat="44.4697667" lon="9.921415"><ele>1018.3333333333334</ele><time>2026-04-26T08:31:29.937Z</time></trkpt><trkpt lat="44.4697967" lon="9.9213167"><ele>1018.0</ele><time>2026-04-26T08:31:30.938Z</time></trkpt><trkpt lat="44.4698233" lon="9.9212233"><ele>1017.6666666666667</ele><time>2026-04-26T08:31:31.938Z</time></trkpt><trkpt lat="44.4698667" lon="9.9210933"><ele>1017.3333333333334</ele><time>2026-04-26T08:31:33.938Z</time></trkpt><trkpt lat="44.4698717" lon="9.9209933"><ele>1017.0</ele><time>2026-04-26T08:32:32.938Z</time></trkpt><trkpt lat="44.4699483" lon="9.9207983"><ele>1019.6666666666666</ele><time>2026-04-26T08:32:35.938Z</time></trkpt><trkpt lat="44.4699867" lon="9.92071"><ele>1022.3333333333333</ele><time>2026-04-26T08:32:36.938Z</time></trkpt><trkpt lat="44.4700333" lon="9.92063"><ele>1025.0</ele><time>2026-04-26T08:32:37.938Z</time></trkpt><trkpt lat="44.47009" lon="9.9205667"><ele>1027.6666666666665</ele><time>2026-04-26T08:32:38.937Z</time></trkpt><trkpt lat="44.4701583" lon="9.92053"><ele>1030.3333333333333</ele><time>2026-04-26T08:32:39.938Z</time></trkpt><trkpt lat="44.470255" lon="9.92052"><ele>1033.0</ele><time>2026-04-26T08:32:40.938Z</time></trkpt><trkpt lat="44.4703283" lon="9.920545"><ele>1033.0</ele><time>2026-04-26T08:32:41.938Z</time></trkpt><trkpt lat="44.470405" lon="9.9206433"><ele>1033.0</ele><time>2026-04-26T08:32:42.938Z</time></trkpt><trkpt lat="44.4705333" lon="9.9208383"><ele>1033.0</ele><time>2026-04-26T08:32:43.938Z</time></trkpt><trkpt lat="44.4706467" lon="9.9210183"><ele>1030.0</ele><time>2026-04-26T08:32:44.938Z</time></trkpt><trkpt lat="44.4707533" lon="9.92117"><ele>1027.0</ele><time>2026-04-26T08:32:45.938Z</time></trkpt><trkpt lat="44.470855" lon="9.9213033"><ele>1024.0</ele><time>2026-04-26T08:32:46.938Z</time></trkpt><trkpt lat="44.4709467" lon="9.9214433"><ele>1021.0</ele><time>2026-04-26T08:32:47.938Z</time></trkpt><trkpt lat="44.47104" lon="9.921575"><ele>1021.0</ele><time>2026-04-26T08:32:48.937Z</time></trkpt><trkpt lat="44.47113" lon="9.9217167"><ele>1021.0</ele><time>2026-04-26T08:32:49.937Z</time></trkpt><trkpt lat="44.4712083" lon="9.921865"><ele>1021.0</ele><time>2026-04-26T08:32:50.937Z</time></trkpt><trkpt lat="44.4712517" lon="9.9220333"><ele>1021.0</ele><time>2026-04-26T08:32:51.936Z</time></trkpt><trkpt lat="44.47126" lon="9.9222133"><ele>1025.3333333333333</ele><time>2026-04-26T08:32:52.937Z</time></trkpt><trkpt lat="44.4712467" lon="9.9223767"><ele>1029.6666666666667</ele><time>2026-04-26T08:32:53.937Z</time></trkpt><trkpt lat="44.4713" lon="9.92274"><ele>1034.0</ele><time>2026-04-26T08:32:55.937Z</time></trkpt><trkpt lat="44.47136" lon="9.922925"><ele>1034.0</ele><time>2026-04-26T08:32:56.936Z</time></trkpt><trkpt lat="44.4714517" lon="9.9231133"><ele>1034.0</ele><time>2026-04-26T08:32:57.937Z</time></trkpt><trkpt lat="44.47154" lon="9.9233083"><ele>1034.0</ele><time>2026-04-26T08:32:58.937Z</time></trkpt><trkpt lat="44.4716233" lon="9.9235033"><ele>1032.75</ele><time>2026-04-26T08:32:59.937Z</time></trkpt><trkpt lat="44.4716883" lon="9.92368"><ele>1031.5</ele><time>2026-04-26T08:33:00.937Z</time></trkpt><trkpt lat="44.4717467" lon="9.92383"><ele>1030.25</ele><time>2026-04-26T08:33:01.937Z</time></trkpt><trkpt lat="44.471795" lon="9.9239817"><ele>1029.0</ele><time>2026-04-26T08:33:02.936Z</time></trkpt><trkpt lat="44.47182" lon="9.9241433"><ele>1031.0</ele><time>2026-04-26T08:33:03.937Z</time></trkpt><trkpt lat="44.4718167" lon="9.92431"><ele>1033.0</ele><time>2026-04-26T08:33:04.937Z</time></trkpt><trkpt lat="44.47179" lon="9.924495"><ele>1035.0</ele><time>2026-04-26T08:33:05.937Z</time></trkpt><trkpt lat="44.4717467" lon="9.92468"><ele>1037.0</ele><time>2026-04-26T08:33:06.937Z</time></trkpt><trkpt lat="44.4716817" lon="9.9248633"><ele>1037.0</ele><time>2026-04-26T08:33:07.937Z</time></trkpt><trkpt lat="44.47162" lon="9.9250483"><ele>1037.0</ele><time>2026-04-26T08:33:08.937Z</time></trkpt><trkpt lat="44.4715533" lon="9.9252433"><ele>1037.0</ele><time>2026-04-26T08:33:09.937Z</time></trkpt><trkpt lat="44.471485" lon="9.9254367"><ele>1040.0</ele><time>2026-04-26T08:33:10.936Z</time></trkpt><trkpt lat="44.471425" lon="9.9256217"><ele>1043.0</ele><time>2026-04-26T08:33:11.937Z</time></trkpt><trkpt lat="44.4713767" lon="9.9258167"><ele>1046.0</ele><time>2026-04-26T08:33:12.937Z</time></trkpt><trkpt lat="44.4713517" lon="9.92602"><ele>1049.0</ele><time>2026-04-26T08:33:13.937Z</time></trkpt><trkpt lat="44.47134" lon="9.926225"><ele>1050.0</ele><time>2026-04-26T08:33:14.937Z</time></trkpt><trkpt lat="44.4713567" lon="9.9266667"><ele>1051.0</ele><time>2026-04-26T08:33:16.937Z</time></trkpt><trkpt lat="44.47137" lon="9.9268817"><ele>1048.6666666666665</ele><time>2026-04-26T08:33:17.937Z</time></trkpt><trkpt lat="44.4713683" lon="9.9270983"><ele>1046.3333333333333</ele><time>2026-04-26T08:33:18.937Z</time></trkpt><trkpt lat="44.4713567" lon="9.927315"><ele>1044.0</ele><time>2026-04-26T08:33:19.937Z</time></trkpt><trkpt lat="44.4713483" lon="9.927535"><ele>1042.5</ele><time>2026-04-26T08:33:20.937Z</time></trkpt><trkpt lat="44.4713567" lon="9.9277233"><ele>1041.0</ele><time>2026-04-26T08:33:21.937Z</time></trkpt><trkpt lat="44.4713767" lon="9.9278983"><ele>1039.5</ele><time>2026-04-26T08:33:22.937Z</time></trkpt><trkpt lat="44.4714167" lon="9.9280517"><ele>1038.0</ele><time>2026-04-26T08:33:23.937Z</time></trkpt><trkpt lat="44.4714683" lon="9.928195"><ele>1038.0</ele><time>2026-04-26T08:33:24.937Z</time></trkpt><trkpt lat="44.47151" lon="9.9283117"><ele>1038.0</ele><time>2026-04-26T08:33:25.937Z</time></trkpt><trkpt lat="44.471545" lon="9.9284183"><ele>1038.0</ele><time>2026-04-26T08:33:26.937Z</time></trkpt><trkpt lat="44.4715917" lon="9.9285167"><ele>1038.0</ele><time>2026-04-26T08:33:27.936Z</time></trkpt><trkpt lat="44.4716333" lon="9.928605"><ele>1038.0</ele><time>2026-04-26T08:33:28.937Z</time></trkpt><trkpt lat="44.47167" lon="9.928685"><ele>1038.0</ele><time>2026-04-26T08:33:29.937Z</time></trkpt><trkpt lat="44.47173" lon="9.9288317"><ele>1038.8</ele><time>2026-04-26T08:33:31.937Z</time></trkpt><trkpt lat="44.4717717" lon="9.928915"><ele>1039.6</ele><time>2026-04-26T08:33:32.937Z</time></trkpt><trkpt lat="44.471805" lon="9.9289983"><ele>1040.4</ele><time>2026-04-26T08:33:33.937Z</time></trkpt><trkpt lat="44.47185" lon="9.9291"><ele>1041.2</ele><time>2026-04-26T08:33:34.937Z</time></trkpt><trkpt lat="44.4719017" lon="9.9292"><ele>1042.0</ele><time>2026-04-26T08:33:35.937Z</time></trkpt><trkpt lat="44.4719967" lon="9.92945"><ele>1040.5</ele><time>2026-04-26T08:33:37.937Z</time></trkpt><trkpt lat="44.4720417" lon="9.929565"><ele>1039.0</ele><time>2026-04-26T08:33:38.937Z</time></trkpt><trkpt lat="44.4720783" lon="9.9296733"><ele>1037.5</ele><time>2026-04-26T08:33:39.937Z</time></trkpt><trkpt lat="44.472115" lon="9.9297717"><ele>1036.0</ele><time>2026-04-26T08:33:40.937Z</time></trkpt><trkpt lat="44.4721567" lon="9.9298717"><ele>1034.5</ele><time>2026-04-26T08:33:41.936Z</time></trkpt><trkpt lat="44.4722017" lon="9.9299833"><ele>1033.0</ele><time>2026-04-26T08:33:42.937Z</time></trkpt><trkpt lat="44.4722517" lon="9.930105"><ele>1033.0</ele><time>2026-04-26T08:33:43.937Z</time></trkpt><trkpt lat="44.4723" lon="9.9302483"><ele>1033.0</ele><time>2026-04-26T08:33:44.937Z</time></trkpt><trkpt lat="44.4723533" lon="9.9304133"><ele>1033.0</ele><time>2026-04-26T08:33:45.937Z</time></trkpt><trkpt lat="44.4723967" lon="9.93058"><ele>1033.0</ele><time>2026-04-26T08:33:46.937Z</time></trkpt><trkpt lat="44.472435" lon="9.9307517"><ele>1031.25</ele><time>2026-04-26T08:33:47.937Z</time></trkpt><trkpt lat="44.4724583" lon="9.9309317"><ele>1029.5</ele><time>2026-04-26T08:33:48.937Z</time></trkpt><trkpt lat="44.4724767" lon="9.931125"><ele>1027.75</ele><time>2026-04-26T08:33:49.937Z</time></trkpt><trkpt lat="44.4724717" lon="9.9313183"><ele>1026.0</ele><time>2026-04-26T08:33:50.937Z</time></trkpt><trkpt lat="44.4724433" lon="9.9315183"><ele>1026.0</ele><time>2026-04-26T08:33:51.937Z</time></trkpt><trkpt lat="44.4724083" lon="9.9317217"><ele>1026.0</ele><time>2026-04-26T08:33:52.937Z</time></trkpt><trkpt lat="44.4723667" lon="9.9319267"><ele>1026.0</ele><time>2026-04-26T08:33:53.937Z</time></trkpt><trkpt lat="44.4723033" lon="9.9321317"><ele>1022.6666666666667</ele><time>2026-04-26T08:33:54.937Z</time></trkpt><trkpt lat="44.472255" lon="9.9323483"><ele>1019.3333333333334</ele><time>2026-04-26T08:33:55.937Z</time></trkpt><trkpt lat="44.4722233" lon="9.9325517"><ele>1016.0</ele><time>2026-04-26T08:33:56.937Z</time></trkpt><trkpt lat="44.4720917" lon="9.93297"><ele>1019.0</ele><time>2026-04-26T08:33:58.937Z</time></trkpt><trkpt lat="44.472005" lon="9.9331667"><ele>1022.0</ele><time>2026-04-26T08:33:59.937Z</time></trkpt><trkpt lat="44.471925" lon="9.9333667"><ele>1025.0</ele><time>2026-04-26T08:34:00.937Z</time></trkpt><trkpt lat="44.4718383" lon="9.9335583"><ele>1025.0</ele><time>2026-04-26T08:34:01.937Z</time></trkpt><trkpt lat="44.471755" lon="9.933755"><ele>1025.0</ele><time>2026-04-26T08:34:02.937Z</time></trkpt><trkpt lat="44.471665" lon="9.9339617"><ele>1025.0</ele><time>2026-04-26T08:34:03.937Z</time></trkpt><trkpt lat="44.4715817" lon="9.9341617"><ele>1023.0</ele><time>2026-04-26T08:34:04.937Z</time></trkpt><trkpt lat="44.47151" lon="9.9343867"><ele>1021.0</ele><time>2026-04-26T08:34:05.937Z</time></trkpt><trkpt lat="44.4714567" lon="9.93459"><ele>1019.0</ele><time>2026-04-26T08:34:06.937Z</time></trkpt><trkpt lat="44.4714317" lon="9.9347683"><ele>1019.0000000000001</ele><time>2026-04-26T08:34:07.936Z</time></trkpt><trkpt lat="44.4714267" lon="9.9349183"><ele>1019.0</ele><time>2026-04-26T08:34:08.937Z</time></trkpt><trkpt lat="44.471435" lon="9.935035"><ele>1019.0</ele><time>2026-04-26T08:34:09.937Z</time></trkpt><trkpt lat="44.4714683" lon="9.93512"><ele>1019.0</ele><time>2026-04-26T08:34:10.937Z</time></trkpt><trkpt lat="44.4715317" lon="9.9351833"><ele>1019.0000000000001</ele><time>2026-04-26T08:34:11.937Z</time></trkpt><trkpt lat="44.4716083" lon="9.9352083"><ele>1019.0</ele><time>2026-04-26T08:34:12.937Z</time></trkpt><trkpt lat="44.4717167" lon="9.935195"><ele>1019.5</ele><time>2026-04-26T08:34:13.937Z</time></trkpt><trkpt lat="44.471845" lon="9.9351883"><ele>1020.0</ele><time>2026-04-26T08:34:14.937Z</time></trkpt><trkpt lat="44.471955" lon="9.9352167"><ele>1020.5</ele><time>2026-04-26T08:34:15.937Z</time></trkpt><trkpt lat="44.4720683" lon="9.9352933"><ele>1021.0</ele><time>2026-04-26T08:34:16.936Z</time></trkpt><trkpt lat="44.4721767" lon="9.93542"><ele>1021.0</ele><time>2026-04-26T08:34:17.937Z</time></trkpt><trkpt lat="44.4724" lon="9.9356783"><ele>1021.0</ele><time>2026-04-26T08:34:19.937Z</time></trkpt><trkpt lat="44.4725233" lon="9.9358083"><ele>1021.0</ele><time>2026-04-26T08:34:20.937Z</time></trkpt><trkpt lat="44.47264" lon="9.9359533"><ele>1023.0</ele><time>2026-04-26T08:34:21.937Z</time></trkpt><trkpt lat="44.4727367" lon="9.936105"><ele>1025.0</ele><time>2026-04-26T08:34:22.936Z</time></trkpt><trkpt lat="44.4728" lon="9.936275"><ele>1027.0</ele><time>2026-04-26T08:34:23.937Z</time></trkpt><trkpt lat="44.4728233" lon="9.936465"><ele>1029.0</ele><time>2026-04-26T08:34:24.937Z</time></trkpt><trkpt lat="44.4728117" lon="9.93667"><ele>1028.3333333333333</ele><time>2026-04-26T08:34:25.937Z</time></trkpt><trkpt lat="44.4727717" lon="9.93687"><ele>1027.6666666666665</ele><time>2026-04-26T08:34:26.937Z</time></trkpt><trkpt lat="44.4727183" lon="9.9370783"><ele>1027.0</ele><time>2026-04-26T08:34:27.936Z</time></trkpt><trkpt lat="44.47268" lon="9.9372983"><ele>1027.0</ele><time>2026-04-26T08:34:28.937Z</time></trkpt><trkpt lat="44.4726517" lon="9.93752"><ele>1027.0</ele><time>2026-04-26T08:34:29.937Z</time></trkpt><trkpt lat="44.472635" lon="9.9377483"><ele>1027.0</ele><time>2026-04-26T08:34:30.936Z</time></trkpt><trkpt lat="44.4726183" lon="9.9379733"><ele>1026.0</ele><time>2026-04-26T08:34:31.937Z</time></trkpt><trkpt lat="44.4726033" lon="9.9381883"><ele>1025.0</ele><time>2026-04-26T08:34:32.937Z</time></trkpt><trkpt lat="44.4725733" lon="9.9383917"><ele>1024.0</ele><time>2026-04-26T08:34:33.937Z</time></trkpt><trkpt lat="44.4725383" lon="9.93856"><ele>1023.0</ele><time>2026-04-26T08:34:34.936Z</time></trkpt><trkpt lat="44.47247" lon="9.938725"><ele>1022.75</ele><time>2026-04-26T08:34:35.937Z</time></trkpt><trkpt lat="44.4723917" lon="9.9388417"><ele>1022.5</ele><time>2026-04-26T08:34:36.937Z</time></trkpt><trkpt lat="44.4722983" lon="9.93894"><ele>1022.25</ele><time>2026-04-26T08:34:37.937Z</time></trkpt><trkpt lat="44.4722333" lon="9.9390483"><ele>1022.0</ele><time>2026-04-26T08:34:38.937Z</time></trkpt><trkpt lat="44.4721883" lon="9.9393183"><ele>1022.0</ele><time>2026-04-26T08:34:40.937Z</time></trkpt><trkpt lat="44.472205" lon="9.93947"><ele>1022.0</ele><time>2026-04-26T08:34:41.937Z</time></trkpt><trkpt lat="44.4722333" lon="9.9396283"><ele>1022.0</ele><time>2026-04-26T08:34:42.936Z</time></trkpt><trkpt lat="44.4722717" lon="9.939785"><ele>1022.0</ele><time>2026-04-26T08:34:43.937Z</time></trkpt><trkpt lat="44.47233" lon="9.9399333"><ele>1026.25</ele><time>2026-04-26T08:34:44.937Z</time></trkpt><trkpt lat="44.4724067" lon="9.9400533"><ele>1030.5</ele><time>2026-04-26T08:34:45.937Z</time></trkpt><trkpt lat="44.472505" lon="9.9401383"><ele>1034.75</ele><time>2026-04-26T08:34:46.937Z</time></trkpt><trkpt lat="44.47265" lon="9.9401733"><ele>1039.0</ele><time>2026-04-26T08:34:47.937Z</time></trkpt><trkpt lat="44.4728167" lon="9.9401983"><ele>1036.0</ele><time>2026-04-26T08:34:48.937Z</time></trkpt><trkpt lat="44.4729967" lon="9.9402133"><ele>1033.0</ele><time>2026-04-26T08:34:49.937Z</time></trkpt><trkpt lat="44.4731817" lon="9.9402283"><ele>1030.0</ele><time>2026-04-26T08:34:50.937Z</time></trkpt><trkpt lat="44.4733467" lon="9.94028"><ele>1030.0</ele><time>2026-04-26T08:34:51.936Z</time></trkpt><trkpt lat="44.4734883" lon="9.940395"><ele>1030.0</ele><time>2026-04-26T08:34:52.937Z</time></trkpt><trkpt lat="44.47361" lon="9.9405433"><ele>1030.0</ele><time>2026-04-26T08:34:53.937Z</time></trkpt><trkpt lat="44.4737067" lon="9.94074"><ele>1023.6666666666666</ele><time>2026-04-26T08:34:54.936Z</time></trkpt><trkpt lat="44.4738033" lon="9.9409333"><ele>1017.3333333333333</ele><time>2026-04-26T08:34:55.937Z</time></trkpt><trkpt lat="44.47391" lon="9.9411067"><ele>1011.0</ele><time>2026-04-26T08:34:56.937Z</time></trkpt><trkpt lat="44.47404" lon="9.9412267"><ele>1011.0</ele><time>2026-04-26T08:34:57.937Z</time></trkpt><trkpt lat="44.4741633" lon="9.94132"><ele>1011.0</ele><time>2026-04-26T08:34:58.937Z</time></trkpt><trkpt lat="44.47425" lon="9.94142"><ele>1011.0</ele><time>2026-04-26T08:34:59.937Z</time></trkpt><trkpt lat="44.4742717" lon="9.94167"><ele>1011.0</ele><time>2026-04-26T08:35:01.937Z</time></trkpt><trkpt lat="44.4742067" lon="9.9417933"><ele>1008.0</ele><time>2026-04-26T08:35:02.937Z</time></trkpt><trkpt lat="44.4740983" lon="9.941905"><ele>1005.0</ele><time>2026-04-26T08:35:03.937Z</time></trkpt><trkpt lat="44.47397" lon="9.9420267"><ele>1002.0</ele><time>2026-04-26T08:35:04.937Z</time></trkpt><trkpt lat="44.47385" lon="9.942155"><ele>999.0</ele><time>2026-04-26T08:35:05.937Z</time></trkpt><trkpt lat="44.473725" lon="9.9423033"><ele>1009.5</ele><time>2026-04-26T08:35:06.937Z</time></trkpt><trkpt lat="44.4735383" lon="9.942635"><ele>1020.0</ele><time>2026-04-26T08:35:08.936Z</time></trkpt><trkpt lat="44.473495" lon="9.942855"><ele>1020.0</ele><time>2026-04-26T08:35:09.937Z</time></trkpt><trkpt lat="44.4734867" lon="9.943065"><ele>1020.0</ele><time>2026-04-26T08:35:10.937Z</time></trkpt><trkpt lat="44.4735233" lon="9.9432833"><ele>1020.0</ele><time>2026-04-26T08:35:11.937Z</time></trkpt><trkpt lat="44.4735817" lon="9.9434917"><ele>1019.3333333333333</ele><time>2026-04-26T08:35:12.937Z</time></trkpt><trkpt lat="44.4736733" lon="9.9437083"><ele>1018.6666666666666</ele><time>2026-04-26T08:35:13.937Z</time></trkpt><trkpt lat="44.47378" lon="9.9439283"><ele>1018.0</ele><time>2026-04-26T08:35:14.936Z</time></trkpt><trkpt lat="44.4738867" lon="9.94416"><ele>1014.0</ele><time>2026-04-26T08:35:15.936Z</time></trkpt><trkpt lat="44.4739833" lon="9.9443917"><ele>1010.0</ele><time>2026-04-26T08:35:16.937Z</time></trkpt><trkpt lat="44.47406" lon="9.9446083"><ele>1006.0</ele><time>2026-04-26T08:35:17.937Z</time></trkpt><trkpt lat="44.4741283" lon="9.944835"><ele>1007.0</ele><time>2026-04-26T08:35:18.937Z</time></trkpt><trkpt lat="44.474185" lon="9.9450567"><ele>1008.0</ele><time>2026-04-26T08:35:19.937Z</time></trkpt><trkpt lat="44.4742217" lon="9.9452817"><ele>1009.0</ele><time>2026-04-26T08:35:20.936Z</time></trkpt><trkpt lat="44.4742983" lon="9.9456883"><ele>1009.0</ele><time>2026-04-26T08:35:22.937Z</time></trkpt><trkpt lat="44.474335" lon="9.9458783"><ele>1009.0</ele><time>2026-04-26T08:35:23.937Z</time></trkpt><trkpt lat="44.47438" lon="9.94605"><ele>1009.0</ele><time>2026-04-26T08:35:24.937Z</time></trkpt><trkpt lat="44.474445" lon="9.946195"><ele>1009.0</ele><time>2026-04-26T08:35:25.937Z</time></trkpt><trkpt lat="44.4745533" lon="9.9462933"><ele>1007.3333333333333</ele><time>2026-04-26T08:35:26.937Z</time></trkpt><trkpt lat="44.4747033" lon="9.9463783"><ele>1005.6666666666667</ele><time>2026-04-26T08:35:27.936Z</time></trkpt><trkpt lat="44.4748733" lon="9.946445"><ele>1004.0</ele><time>2026-04-26T08:35:28.937Z</time></trkpt><trkpt lat="44.47505" lon="9.9464917"><ele>1004.0</ele><time>2026-04-26T08:35:29.936Z</time></trkpt><trkpt lat="44.4752317" lon="9.9465133"><ele>1004.0</ele><time>2026-04-26T08:35:30.936Z</time></trkpt><trkpt lat="44.47542" lon="9.946545"><ele>1004.0</ele><time>2026-04-26T08:35:31.937Z</time></trkpt><trkpt lat="44.4755983" lon="9.9465767"><ele>1006.0</ele><time>2026-04-26T08:35:32.937Z</time></trkpt><trkpt lat="44.4757733" lon="9.9466367"><ele>1008.0</ele><time>2026-04-26T08:35:33.937Z</time></trkpt><trkpt lat="44.4759317" lon="9.946705"><ele>1010.0</ele><time>2026-04-26T08:35:34.937Z</time></trkpt><trkpt lat="44.4761033" lon="9.9467967"><ele>1010.0</ele><time>2026-04-26T08:35:35.937Z</time></trkpt><trkpt lat="44.47625" lon="9.946875"><ele>1010.0</ele><time>2026-04-26T08:35:36.936Z</time></trkpt><trkpt lat="44.4763833" lon="9.9469967"><ele>1010.0</ele><time>2026-04-26T08:35:37.937Z</time></trkpt><trkpt lat="44.4764983" lon="9.9471367"><ele>1008.6666666666667</ele><time>2026-04-26T08:35:38.937Z</time></trkpt><trkpt lat="44.4765883" lon="9.9473433"><ele>1007.3333333333333</ele><time>2026-04-26T08:35:39.936Z</time></trkpt><trkpt lat="44.4766833" lon="9.9475567"><ele>1006.0</ele><time>2026-04-26T08:35:40.937Z</time></trkpt><trkpt lat="44.476775" lon="9.947755"><ele>1006.0</ele><time>2026-04-26T08:35:41.937Z</time></trkpt><trkpt lat="44.477025" lon="9.94807"><ele>1006.0</ele><time>2026-04-26T08:35:43.937Z</time></trkpt><trkpt lat="44.477185" lon="9.9481683"><ele>1002.3333333333333</ele><time>2026-04-26T08:35:44.937Z</time></trkpt><trkpt lat="44.477335" lon="9.94825"><ele>998.6666666666667</ele><time>2026-04-26T08:35:45.937Z</time></trkpt><trkpt lat="44.47747" lon="9.94835"><ele>995.0</ele><time>2026-04-26T08:35:46.936Z</time></trkpt><trkpt lat="44.4775867" lon="9.9484933"><ele>995.0</ele><time>2026-04-26T08:35:47.937Z</time></trkpt><trkpt lat="44.47766" lon="9.94869"><ele>995.0</ele><time>2026-04-26T08:35:48.936Z</time></trkpt><trkpt lat="44.4776967" lon="9.9489067"><ele>995.0</ele><time>2026-04-26T08:35:49.937Z</time></trkpt><trkpt lat="44.477705" lon="9.94913"><ele>996.25</ele><time>2026-04-26T08:35:50.937Z</time></trkpt><trkpt lat="44.4777117" lon="9.9493467"><ele>997.5</ele><time>2026-04-26T08:35:51.937Z</time></trkpt><trkpt lat="44.4777167" lon="9.9495483"><ele>998.75</ele><time>2026-04-26T08:35:52.937Z</time></trkpt><trkpt lat="44.4777533" lon="9.94973"><ele>1000.0</ele><time>2026-04-26T08:35:53.937Z</time></trkpt><trkpt lat="44.4778317" lon="9.949885"><ele>1001.0</ele><time>2026-04-26T08:35:54.937Z</time></trkpt><trkpt lat="44.4779583" lon="9.9500083"><ele>1002.0</ele><time>2026-04-26T08:35:55.937Z</time></trkpt><trkpt lat="44.4780917" lon="9.9500883"><ele>1003.0</ele><time>2026-04-26T08:35:56.936Z</time></trkpt><trkpt lat="44.4782667" lon="9.9501117"><ele>1003.0</ele><time>2026-04-26T08:35:57.937Z</time></trkpt><trkpt lat="44.4784467" lon="9.9500967"><ele>1003.0</ele><time>2026-04-26T08:35:58.937Z</time></trkpt><trkpt lat="44.478615" lon="9.9500683"><ele>1003.0</ele><time>2026-04-26T08:35:59.937Z</time></trkpt><trkpt lat="44.4787833" lon="9.9500267"><ele>996.6666666666666</ele><time>2026-04-26T08:36:00.937Z</time></trkpt><trkpt lat="44.4789567" lon="9.9499933"><ele>990.3333333333333</ele><time>2026-04-26T08:36:01.937Z</time></trkpt><trkpt lat="44.479115" lon="9.9499633"><ele>984.0</ele><time>2026-04-26T08:36:02.937Z</time></trkpt><trkpt lat="44.4793967" lon="9.9499317"><ele>984.0</ele><time>2026-04-26T08:36:04.937Z</time></trkpt><trkpt lat="44.4795067" lon="9.9499167"><ele>984.0</ele><time>2026-04-26T08:36:05.937Z</time></trkpt><trkpt lat="44.4796183" lon="9.94989"><ele>984.0</ele><time>2026-04-26T08:36:06.937Z</time></trkpt><trkpt lat="44.4797333" lon="9.9498717"><ele>984.0</ele><time>2026-04-26T08:36:07.937Z</time></trkpt><trkpt lat="44.4798517" lon="9.9498517"><ele>984.0</ele><time>2026-04-26T08:36:08.937Z</time></trkpt><trkpt lat="44.4799733" lon="9.949835"><ele>984.0</ele><time>2026-04-26T08:36:09.937Z</time></trkpt><trkpt lat="44.4800933" lon="9.9498083"><ele>984.0</ele><time>2026-04-26T08:36:10.937Z</time></trkpt><trkpt lat="44.4802133" lon="9.94976"><ele>984.0</ele><time>2026-04-26T08:36:11.937Z</time></trkpt><trkpt lat="44.4803367" lon="9.949735"><ele>984.25</ele><time>2026-04-26T08:36:12.937Z</time></trkpt><trkpt lat="44.4804633" lon="9.9496917"><ele>984.5</ele><time>2026-04-26T08:36:13.937Z</time></trkpt><trkpt lat="44.4805867" lon="9.94962"><ele>984.75</ele><time>2026-04-26T08:36:14.937Z</time></trkpt><trkpt lat="44.4807067" lon="9.9494983"><ele>985.0</ele><time>2026-04-26T08:36:15.937Z</time></trkpt><trkpt lat="44.4808233" lon="9.9493417"><ele>980.0</ele><time>2026-04-26T08:36:16.936Z</time></trkpt><trkpt lat="44.4809417" lon="9.9491767"><ele>975.0</ele><time>2026-04-26T08:36:17.937Z</time></trkpt><trkpt lat="44.4810733" lon="9.9490117"><ele>970.0</ele><time>2026-04-26T08:36:18.937Z</time></trkpt><trkpt lat="44.4811983" lon="9.9488633"><ele>971.0</ele><time>2026-04-26T08:36:19.936Z</time></trkpt><trkpt lat="44.4813133" lon="9.948705"><ele>972.0</ele><time>2026-04-26T08:36:20.937Z</time></trkpt><trkpt lat="44.4814217" lon="9.948575"><ele>973.0</ele><time>2026-04-26T08:36:21.937Z</time></trkpt><trkpt lat="44.4815283" lon="9.9484817"><ele>974.0</ele><time>2026-04-26T08:36:22.937Z</time></trkpt><trkpt lat="44.4816283" lon="9.9484467"><ele>974.0</ele><time>2026-04-26T08:36:23.937Z</time></trkpt><trkpt lat="44.4818033" lon="9.94864"><ele>974.0</ele><time>2026-04-26T08:36:25.937Z</time></trkpt><trkpt lat="44.4818667" lon="9.9488033"><ele>974.0</ele><time>2026-04-26T08:36:26.937Z</time></trkpt><trkpt lat="44.4819233" lon="9.9490017"><ele>974.0</ele><time>2026-04-26T08:36:27.937Z</time></trkpt><trkpt lat="44.4820067" lon="9.949195"><ele>974.0</ele><time>2026-04-26T08:36:28.937Z</time></trkpt><trkpt lat="44.4821467" lon="9.9493533"><ele>974.0</ele><time>2026-04-26T08:36:29.936Z</time></trkpt><trkpt lat="44.48229" lon="9.9494867"><ele>973.3333333333334</ele><time>2026-04-26T08:36:30.937Z</time></trkpt><trkpt lat="44.48243" lon="9.9496117"><ele>972.6666666666667</ele><time>2026-04-26T08:36:31.937Z</time></trkpt><trkpt lat="44.4825633" lon="9.949745"><ele>972.0</ele><time>2026-04-26T08:36:32.937Z</time></trkpt><trkpt lat="44.482695" lon="9.9498733"><ele>972.0</ele><time>2026-04-26T08:36:33.937Z</time></trkpt><trkpt lat="44.4828167" lon="9.94997"><ele>972.0</ele><time>2026-04-26T08:36:34.937Z</time></trkpt><trkpt lat="44.4829583" lon="9.9499983"><ele>972.0</ele><time>2026-04-26T08:36:35.937Z</time></trkpt><trkpt lat="44.48312" lon="9.9499733"><ele>972.0</ele><time>2026-04-26T08:36:36.937Z</time></trkpt><trkpt lat="44.48329" lon="9.94995"><ele>973.6666666666667</ele><time>2026-04-26T08:36:37.937Z</time></trkpt><trkpt lat="44.4834633" lon="9.949975"><ele>975.3333333333334</ele><time>2026-04-26T08:36:38.937Z</time></trkpt><trkpt lat="44.4836233" lon="9.9500483"><ele>977.0</ele><time>2026-04-26T08:36:39.937Z</time></trkpt><trkpt lat="44.48377" lon="9.950155"><ele>968.0</ele><time>2026-04-26T08:36:40.937Z</time></trkpt><trkpt lat="44.4838983" lon="9.9503017"><ele>959.0</ele><time>2026-04-26T08:36:41.937Z</time></trkpt><trkpt lat="44.4839967" lon="9.9504617"><ele>950.0</ele><time>2026-04-26T08:36:42.937Z</time></trkpt><trkpt lat="44.484065" lon="9.9506567"><ele>950.0</ele><time>2026-04-26T08:36:43.937Z</time></trkpt><trkpt lat="44.4841217" lon="9.9508667"><ele>950.0</ele><time>2026-04-26T08:36:44.937Z</time></trkpt><trkpt lat="44.48421" lon="9.9513117"><ele>952.3333333333334</ele><time>2026-04-26T08:36:46.937Z</time></trkpt><trkpt lat="44.4842633" lon="9.9515433"><ele>954.6666666666667</ele><time>2026-04-26T08:36:47.937Z</time></trkpt><trkpt lat="44.484325" lon="9.9517717"><ele>957.0</ele><time>2026-04-26T08:36:48.936Z</time></trkpt><trkpt lat="44.4844117" lon="9.9519833"><ele>959.3333333333333</ele><time>2026-04-26T08:36:49.937Z</time></trkpt><trkpt lat="44.484525" lon="9.95219"><ele>961.6666666666666</ele><time>2026-04-26T08:36:50.937Z</time></trkpt><trkpt lat="44.4846383" lon="9.9523983"><ele>964.0</ele><time>2026-04-26T08:36:51.937Z</time></trkpt><trkpt lat="44.48474" lon="9.9526083"><ele>954.6666666666666</ele><time>2026-04-26T08:36:52.937Z</time></trkpt><trkpt lat="44.4848217" lon="9.9528133"><ele>945.3333333333333</ele><time>2026-04-26T08:36:53.937Z</time></trkpt><trkpt lat="44.4848917" lon="9.9530083"><ele>936.0</ele><time>2026-04-26T08:36:54.937Z</time></trkpt><trkpt lat="44.4849467" lon="9.9532083"><ele>935.6666666666667</ele><time>2026-04-26T08:36:55.936Z</time></trkpt><trkpt lat="44.4849867" lon="9.95342"><ele>935.3333333333334</ele><time>2026-04-26T08:36:56.937Z</time></trkpt><trkpt lat="44.48501" lon="9.9536483"><ele>935.0</ele><time>2026-04-26T08:36:57.937Z</time></trkpt><trkpt lat="44.4850233" lon="9.95389"><ele>935.0</ele><time>2026-04-26T08:36:58.937Z</time></trkpt><trkpt lat="44.4850183" lon="9.954125"><ele>935.0</ele><time>2026-04-26T08:36:59.937Z</time></trkpt><trkpt lat="44.4849933" lon="9.9543567"><ele>935.0</ele><time>2026-04-26T08:37:00.937Z</time></trkpt><trkpt lat="44.4849517" lon="9.9545783"><ele>932.6666666666667</ele><time>2026-04-26T08:37:01.937Z</time></trkpt><trkpt lat="44.484905" lon="9.9547933"><ele>930.3333333333333</ele><time>2026-04-26T08:37:02.937Z</time></trkpt><trkpt lat="44.4848567" lon="9.9550083"><ele>928.0</ele><time>2026-04-26T08:37:03.937Z</time></trkpt><trkpt lat="44.4848067" lon="9.9552267"><ele>921.0</ele><time>2026-04-26T08:37:04.937Z</time></trkpt><trkpt lat="44.4847533" lon="9.9554483"><ele>914.0</ele><time>2026-04-26T08:37:05.937Z</time></trkpt><trkpt lat="44.4846533" lon="9.9559067"><ele>910.6666666666667</ele><time>2026-04-26T08:37:07.937Z</time></trkpt><trkpt lat="44.484615" lon="9.95615"><ele>907.3333333333333</ele><time>2026-04-26T08:37:08.937Z</time></trkpt><trkpt lat="44.48458" lon="9.9564"><ele>904.0</ele><time>2026-04-26T08:37:09.937Z</time></trkpt><trkpt lat="44.4845517" lon="9.9566533"><ele>910.6666666666666</ele><time>2026-04-26T08:37:10.936Z</time></trkpt><trkpt lat="44.4845283" lon="9.95691"><ele>917.3333333333333</ele><time>2026-04-26T08:37:11.937Z</time></trkpt><trkpt lat="44.484495" lon="9.9571717"><ele>924.0</ele><time>2026-04-26T08:37:12.937Z</time></trkpt><trkpt lat="44.4844683" lon="9.957405"><ele>924.3333333333333</ele><time>2026-04-26T08:37:13.937Z</time></trkpt><trkpt lat="44.4844467" lon="9.9576483"><ele>924.6666666666666</ele><time>2026-04-26T08:37:14.937Z</time></trkpt><trkpt lat="44.4844317" lon="9.95788"><ele>925.0</ele><time>2026-04-26T08:37:15.937Z</time></trkpt><trkpt lat="44.48441" lon="9.9580983"><ele>925.0</ele><time>2026-04-26T08:37:16.936Z</time></trkpt><trkpt lat="44.4843983" lon="9.9582983"><ele>925.0</ele><time>2026-04-26T08:37:17.937Z</time></trkpt><trkpt lat="44.4844133" lon="9.9584783"><ele>925.0</ele><time>2026-04-26T08:37:18.937Z</time></trkpt><trkpt lat="44.4844617" lon="9.958615"><ele>925.0</ele><time>2026-04-26T08:37:19.937Z</time></trkpt><trkpt lat="44.48456" lon="9.9587083"><ele>921.75</ele><time>2026-04-26T08:37:20.936Z</time></trkpt><trkpt lat="44.4846817" lon="9.958755"><ele>918.5</ele><time>2026-04-26T08:37:21.937Z</time></trkpt><trkpt lat="44.48483" lon="9.9587817"><ele>915.25</ele><time>2026-04-26T08:37:22.936Z</time></trkpt><trkpt lat="44.48497" lon="9.9588033"><ele>912.0</ele><time>2026-04-26T08:37:23.937Z</time></trkpt><trkpt lat="44.485105" lon="9.95883"><ele>912.0</ele><time>2026-04-26T08:37:24.937Z</time></trkpt><trkpt lat="44.4852367" lon="9.9588567"><ele>912.0</ele><time>2026-04-26T08:37:25.937Z</time></trkpt><trkpt lat="44.4853617" lon="9.958885"><ele>912.0</ele><time>2026-04-26T08:37:26.937Z</time></trkpt><trkpt lat="44.48556" lon="9.9591033"><ele>906.75</ele><time>2026-04-26T08:37:28.936Z</time></trkpt><trkpt lat="44.4856133" lon="9.95929"><ele>901.5</ele><time>2026-04-26T08:37:29.937Z</time></trkpt><trkpt lat="44.485635" lon="9.9594917"><ele>896.25</ele><time>2026-04-26T08:37:30.937Z</time></trkpt><trkpt lat="44.48564" lon="9.9597067"><ele>891.0</ele><time>2026-04-26T08:37:31.937Z</time></trkpt><trkpt lat="44.485645" lon="9.9599183"><ele>891.6666666666667</ele><time>2026-04-26T08:37:32.937Z</time></trkpt><trkpt lat="44.48566" lon="9.9601367"><ele>892.3333333333334</ele><time>2026-04-26T08:37:33.936Z</time></trkpt><trkpt lat="44.4856683" lon="9.960355"><ele>893.0</ele><time>2026-04-26T08:37:34.937Z</time></trkpt><trkpt lat="44.4857017" lon="9.960575"><ele>893.0</ele><time>2026-04-26T08:37:35.936Z</time></trkpt><trkpt lat="44.4857417" lon="9.9607967"><ele>893.0</ele><time>2026-04-26T08:37:36.937Z</time></trkpt><trkpt lat="44.4857783" lon="9.9610133"><ele>893.0</ele><time>2026-04-26T08:37:37.937Z</time></trkpt><trkpt lat="44.485815" lon="9.9612383"><ele>893.0</ele><time>2026-04-26T08:37:38.937Z</time></trkpt><trkpt lat="44.48585" lon="9.9614733"><ele>893.0</ele><time>2026-04-26T08:37:39.937Z</time></trkpt><trkpt lat="44.4858867" lon="9.96171"><ele>893.0</ele><time>2026-04-26T08:37:40.937Z</time></trkpt><trkpt lat="44.4859367" lon="9.9619533"><ele>893.0</ele><time>2026-04-26T08:37:41.936Z</time></trkpt><trkpt lat="44.485985" lon="9.96219"><ele>893.0</ele><time>2026-04-26T08:37:42.937Z</time></trkpt><trkpt lat="44.486015" lon="9.9624067"><ele>893.0</ele><time>2026-04-26T08:37:43.937Z</time></trkpt><trkpt lat="44.4860417" lon="9.9626317"><ele>892.3333333333334</ele><time>2026-04-26T08:37:44.936Z</time></trkpt><trkpt lat="44.48603" lon="9.96286"><ele>891.6666666666667</ele><time>2026-04-26T08:37:45.937Z</time></trkpt><trkpt lat="44.485995" lon="9.96308"><ele>891.0</ele><time>2026-04-26T08:37:46.937Z</time></trkpt><trkpt lat="44.4859183" lon="9.9632933"><ele>890.0</ele><time>2026-04-26T08:37:47.937Z</time></trkpt><trkpt lat="44.485735" lon="9.9636867"><ele>889.0</ele><time>2026-04-26T08:37:49.937Z</time></trkpt><trkpt lat="44.4856583" lon="9.963885"><ele>889.0</ele><time>2026-04-26T08:37:50.937Z</time></trkpt><trkpt lat="44.4856083" lon="9.964095"><ele>889.0</ele><time>2026-04-26T08:37:51.937Z</time></trkpt><trkpt lat="44.4855967" lon="9.9643183"><ele>889.0</ele><time>2026-04-26T08:37:52.937Z</time></trkpt><trkpt lat="44.4856217" lon="9.964525"><ele>889.5</ele><time>2026-04-26T08:37:53.937Z</time></trkpt><trkpt lat="44.4856667" lon="9.9647"><ele>890.0</ele><time>2026-04-26T08:37:54.937Z</time></trkpt><trkpt lat="44.4857317" lon="9.96485"><ele>890.5</ele><time>2026-04-26T08:37:55.936Z</time></trkpt><trkpt lat="44.485825" lon="9.9649583"><ele>891.0</ele><time>2026-04-26T08:37:56.936Z</time></trkpt><trkpt lat="44.4859467" lon="9.964995"><ele>891.0</ele><time>2026-04-26T08:37:57.937Z</time></trkpt><trkpt lat="44.48609" lon="9.964955"><ele>891.0</ele><time>2026-04-26T08:37:58.937Z</time></trkpt><trkpt lat="44.48623" lon="9.96488"><ele>891.0</ele><time>2026-04-26T08:37:59.937Z</time></trkpt><trkpt lat="44.486375" lon="9.96478"><ele>886.6666666666667</ele><time>2026-04-26T08:38:00.937Z</time></trkpt><trkpt lat="44.4865283" lon="9.9646983"><ele>882.3333333333334</ele><time>2026-04-26T08:38:01.937Z</time></trkpt><trkpt lat="44.4866817" lon="9.9646633"><ele>878.0</ele><time>2026-04-26T08:38:02.937Z</time></trkpt><trkpt lat="44.4868267" lon="9.9646667"><ele>878.0</ele><time>2026-04-26T08:38:03.937Z</time></trkpt><trkpt lat="44.4869717" lon="9.9647067"><ele>878.0</ele><time>2026-04-26T08:38:04.937Z</time></trkpt><trkpt lat="44.4871217" lon="9.9647967"><ele>878.0</ele><time>2026-04-26T08:38:05.937Z</time></trkpt><trkpt lat="44.4872417" lon="9.9649383"><ele>875.3333333333334</ele><time>2026-04-26T08:38:06.936Z</time></trkpt><trkpt lat="44.4873467" lon="9.9651217"><ele>872.6666666666667</ele><time>2026-04-26T08:38:07.937Z</time></trkpt><trkpt lat="44.48744" lon="9.965315"><ele>870.0</ele><time>2026-04-26T08:38:08.937Z</time></trkpt><trkpt lat="44.4876017" lon="9.9656733"><ele>870.0</ele><time>2026-04-26T08:38:10.937Z</time></trkpt><trkpt lat="44.4876833" lon="9.9658417"><ele>870.0</ele><time>2026-04-26T08:38:11.937Z</time></trkpt><trkpt lat="44.487765" lon="9.9660133"><ele>870.0</ele><time>2026-04-26T08:38:12.937Z</time></trkpt><trkpt lat="44.4878483" lon="9.96615"><ele>870.0</ele><time>2026-04-26T08:38:13.937Z</time></trkpt><trkpt lat="44.4879583" lon="9.9662483"><ele>871.75</ele><time>2026-04-26T08:38:14.937Z</time></trkpt><trkpt lat="44.4880917" lon="9.9662783"><ele>873.5</ele><time>2026-04-26T08:38:15.937Z</time></trkpt><trkpt lat="44.4882317" lon="9.96626"><ele>875.25</ele><time>2026-04-26T08:38:16.937Z</time></trkpt><trkpt lat="44.4883583" lon="9.9661683"><ele>877.0</ele><time>2026-04-26T08:38:17.937Z</time></trkpt><trkpt lat="44.4884733" lon="9.966095"><ele>877.0</ele><time>2026-04-26T08:38:18.937Z</time></trkpt><trkpt lat="44.4886067" lon="9.9660683"><ele>877.0</ele><time>2026-04-26T08:38:19.937Z</time></trkpt><trkpt lat="44.4887283" lon="9.96612"><ele>877.0</ele><time>2026-04-26T08:38:20.937Z</time></trkpt><trkpt lat="44.4888417" lon="9.9662167"><ele>877.0</ele><time>2026-04-26T08:38:21.936Z</time></trkpt><trkpt lat="44.488945" lon="9.966365"><ele>877.0</ele><time>2026-04-26T08:38:22.937Z</time></trkpt><trkpt lat="44.4890367" lon="9.96652"><ele>877.0</ele><time>2026-04-26T08:38:23.937Z</time></trkpt><trkpt lat="44.4891367" lon="9.966655"><ele>877.0</ele><time>2026-04-26T08:38:24.937Z</time></trkpt><trkpt lat="44.48925" lon="9.96674"><ele>877.0</ele><time>2026-04-26T08:38:25.937Z</time></trkpt><trkpt lat="44.4893633" lon="9.9667717"><ele>877.0</ele><time>2026-04-26T08:38:26.937Z</time></trkpt><trkpt lat="44.489475" lon="9.9667517"><ele>877.0</ele><time>2026-04-26T08:38:27.937Z</time></trkpt><trkpt lat="44.48968" lon="9.9665017"><ele>877.0</ele><time>2026-04-26T08:38:29.937Z</time></trkpt><trkpt lat="44.489875" lon="9.9662183"><ele>877.0</ele><time>2026-04-26T08:38:31.937Z</time></trkpt><trkpt lat="44.4899717" lon="9.9661083"><ele>877.0</ele><time>2026-04-26T08:38:32.937Z</time></trkpt><trkpt lat="44.4900767" lon="9.966005"><ele>877.0</ele><time>2026-04-26T08:38:33.937Z</time></trkpt><trkpt lat="44.4902083" lon="9.965945"><ele>877.0</ele><time>2026-04-26T08:38:34.937Z</time></trkpt><trkpt lat="44.4903617" lon="9.9659233"><ele>878.0</ele><time>2026-04-26T08:38:35.937Z</time></trkpt><trkpt lat="44.4905233" lon="9.965915"><ele>879.0</ele><time>2026-04-26T08:38:36.937Z</time></trkpt><trkpt lat="44.49068" lon="9.9658983"><ele>880.0</ele><time>2026-04-26T08:38:37.937Z</time></trkpt><trkpt lat="44.49084" lon="9.9658967"><ele>880.0</ele><time>2026-04-26T08:38:38.937Z</time></trkpt><trkpt lat="44.49113" lon="9.96596"><ele>880.0</ele><time>2026-04-26T08:38:40.937Z</time></trkpt><trkpt lat="44.4912567" lon="9.96601"><ele>880.0</ele><time>2026-04-26T08:38:41.937Z</time></trkpt><trkpt lat="44.4913817" lon="9.9660633"><ele>878.0</ele><time>2026-04-26T08:38:42.937Z</time></trkpt><trkpt lat="44.4914917" lon="9.9661283"><ele>876.0</ele><time>2026-04-26T08:38:43.937Z</time></trkpt><trkpt lat="44.49161" lon="9.96619"><ele>874.0</ele><time>2026-04-26T08:38:44.937Z</time></trkpt><trkpt lat="44.4917267" lon="9.9662517"><ele>872.0</ele><time>2026-04-26T08:38:45.937Z</time></trkpt><trkpt lat="44.49184" lon="9.9663183"><ele>872.0</ele><time>2026-04-26T08:38:46.937Z</time></trkpt><trkpt lat="44.4919617" lon="9.9663817"><ele>872.0</ele><time>2026-04-26T08:38:47.937Z</time></trkpt><trkpt lat="44.49208" lon="9.9664467"><ele>872.0</ele><time>2026-04-26T08:38:48.937Z</time></trkpt><trkpt lat="44.4922017" lon="9.9665133"><ele>872.0</ele><time>2026-04-26T08:38:49.937Z</time></trkpt><trkpt lat="44.49233" lon="9.966585"><ele>870.6666666666667</ele><time>2026-04-26T08:38:50.936Z</time></trkpt><trkpt lat="44.4925567" lon="9.96681"><ele>869.3333333333333</ele><time>2026-04-26T08:38:52.937Z</time></trkpt><trkpt lat="44.4926083" lon="9.96699"><ele>868.0</ele><time>2026-04-26T08:38:53.937Z</time></trkpt><trkpt lat="44.4926167" lon="9.9672033"><ele>868.0</ele><time>2026-04-26T08:38:54.936Z</time></trkpt><trkpt lat="44.4926167" lon="9.96743"><ele>868.0</ele><time>2026-04-26T08:38:55.936Z</time></trkpt><trkpt lat="44.4926367" lon="9.967655"><ele>868.0</ele><time>2026-04-26T08:38:56.937Z</time></trkpt><trkpt lat="44.492675" lon="9.967865"><ele>868.6666666666666</ele><time>2026-04-26T08:38:57.937Z</time></trkpt><trkpt lat="44.49273" lon="9.9680667"><ele>869.3333333333333</ele><time>2026-04-26T08:38:58.936Z</time></trkpt><trkpt lat="44.4928417" lon="9.9684367"><ele>870.0</ele><time>2026-04-26T08:39:00.937Z</time></trkpt><trkpt lat="44.4928933" lon="9.9686167"><ele>869.75</ele><time>2026-04-26T08:39:01.936Z</time></trkpt><trkpt lat="44.492935" lon="9.968785"><ele>869.5</ele><time>2026-04-26T08:39:02.937Z</time></trkpt><trkpt lat="44.4929783" lon="9.968945"><ele>869.25</ele><time>2026-04-26T08:39:03.937Z</time></trkpt><trkpt lat="44.4930233" lon="9.9690983"><ele>869.0</ele><time>2026-04-26T08:39:04.937Z</time></trkpt><trkpt lat="44.493065" lon="9.9692433"><ele>869.0</ele><time>2026-04-26T08:39:05.937Z</time></trkpt><trkpt lat="44.4931067" lon="9.9693833"><ele>869.0000000000001</ele><time>2026-04-26T08:39:06.937Z</time></trkpt><trkpt lat="44.4931467" lon="9.9695083"><ele>869.0000000000001</ele><time>2026-04-26T08:39:07.937Z</time></trkpt><trkpt lat="44.4931883" lon="9.96964"><ele>869.0</ele><time>2026-04-26T08:39:08.937Z</time></trkpt><trkpt lat="44.4932283" lon="9.969785"><ele>869.0</ele><time>2026-04-26T08:39:09.937Z</time></trkpt><trkpt lat="44.49327" lon="9.9699417"><ele>876.6666666666667</ele><time>2026-04-26T08:39:10.937Z</time></trkpt><trkpt lat="44.4933217" lon="9.9700983"><ele>884.3333333333333</ele><time>2026-04-26T08:39:11.937Z</time></trkpt><trkpt lat="44.4934467" lon="9.9704133"><ele>892.0</ele><time>2026-04-26T08:39:13.937Z</time></trkpt><trkpt lat="44.4935533" lon="9.9705533"><ele>892.0</ele><time>2026-04-26T08:39:14.937Z</time></trkpt><trkpt lat="44.493695" lon="9.9706767"><ele>892.0</ele><time>2026-04-26T08:39:15.937Z</time></trkpt><trkpt lat="44.4938383" lon="9.970795"><ele>892.0</ele><time>2026-04-26T08:39:16.936Z</time></trkpt><trkpt lat="44.4939817" lon="9.9709167"><ele>887.25</ele><time>2026-04-26T08:39:17.937Z</time></trkpt><trkpt lat="44.49409" lon="9.97104"><ele>882.5</ele><time>2026-04-26T08:39:18.937Z</time></trkpt><trkpt lat="44.494145" lon="9.9712033"><ele>877.75</ele><time>2026-04-26T08:39:19.937Z</time></trkpt><trkpt lat="44.49414" lon="9.9713883"><ele>873.0</ele><time>2026-04-26T08:39:20.937Z</time></trkpt><trkpt lat="44.4940783" lon="9.9715633"><ele>875.0</ele><time>2026-04-26T08:39:21.937Z</time></trkpt><trkpt lat="44.49403" lon="9.9717217"><ele>877.0</ele><time>2026-04-26T08:39:22.937Z</time></trkpt><trkpt lat="44.493985" lon="9.9718917"><ele>879.0</ele><time>2026-04-26T08:39:23.937Z</time></trkpt><trkpt lat="44.4939683" lon="9.9720717"><ele>881.0</ele><time>2026-04-26T08:39:24.937Z</time></trkpt><trkpt lat="44.4939883" lon="9.9722417"><ele>881.0</ele><time>2026-04-26T08:39:25.937Z</time></trkpt><trkpt lat="44.494025" lon="9.9723883"><ele>881.0</ele><time>2026-04-26T08:39:26.936Z</time></trkpt><trkpt lat="44.49411" lon="9.9724933"><ele>881.0</ele><time>2026-04-26T08:39:27.937Z</time></trkpt><trkpt lat="44.49421" lon="9.9726033"><ele>881.0</ele><time>2026-04-26T08:39:28.937Z</time></trkpt><trkpt lat="44.4943433" lon="9.9727067"><ele>882.3333333333334</ele><time>2026-04-26T08:39:29.937Z</time></trkpt><trkpt lat="44.49449" lon="9.97281"><ele>883.6666666666667</ele><time>2026-04-26T08:39:30.937Z</time></trkpt><trkpt lat="44.49465" lon="9.972915"><ele>885.0</ele><time>2026-04-26T08:39:31.937Z</time></trkpt><trkpt lat="44.4948117" lon="9.9730217"><ele>885.0</ele><time>2026-04-26T08:39:32.937Z</time></trkpt><trkpt lat="44.4951533" lon="9.97322"><ele>885.0</ele><time>2026-04-26T08:39:34.937Z</time></trkpt><trkpt lat="44.4953217" lon="9.9733267"><ele>890.0</ele><time>2026-04-26T08:39:35.937Z</time></trkpt><trkpt lat="44.4954867" lon="9.97342"><ele>895.0</ele><time>2026-04-26T08:39:36.937Z</time></trkpt><trkpt lat="44.495655" lon="9.973495"><ele>900.0</ele><time>2026-04-26T08:39:37.937Z</time></trkpt><trkpt lat="44.4958333" lon="9.9735533"><ele>900.0</ele><time>2026-04-26T08:39:38.937Z</time></trkpt><trkpt lat="44.496015" lon="9.97361"><ele>900.0</ele><time>2026-04-26T08:39:39.937Z</time></trkpt><trkpt lat="44.4961883" lon="9.9736533"><ele>900.0</ele><time>2026-04-26T08:39:40.936Z</time></trkpt><trkpt lat="44.4963617" lon="9.9737083"><ele>895.3333333333333</ele><time>2026-04-26T08:39:41.937Z</time></trkpt><trkpt lat="44.49652" lon="9.97379"><ele>890.6666666666666</ele><time>2026-04-26T08:39:42.937Z</time></trkpt><trkpt lat="44.4966783" lon="9.9739067"><ele>886.0</ele><time>2026-04-26T08:39:43.937Z</time></trkpt><trkpt lat="44.4968433" lon="9.9740117"><ele>886.0</ele><time>2026-04-26T08:39:44.936Z</time></trkpt><trkpt lat="44.4970117" lon="9.9740717"><ele>886.0</ele><time>2026-04-26T08:39:45.937Z</time></trkpt><trkpt lat="44.4971733" lon="9.9740867"><ele>886.0</ele><time>2026-04-26T08:39:46.937Z</time></trkpt><trkpt lat="44.4973167" lon="9.9741317"><ele>890.3333333333333</ele><time>2026-04-26T08:39:47.937Z</time></trkpt><trkpt lat="44.497445" lon="9.9742517"><ele>894.6666666666667</ele><time>2026-04-26T08:39:48.937Z</time></trkpt><trkpt lat="44.4975517" lon="9.97441"><ele>899.0</ele><time>2026-04-26T08:39:49.936Z</time></trkpt><trkpt lat="44.4976567" lon="9.9746017"><ele>899.0</ele><time>2026-04-26T08:39:50.937Z</time></trkpt><trkpt lat="44.4977833" lon="9.9747767"><ele>899.0</ele><time>2026-04-26T08:39:51.937Z</time></trkpt><trkpt lat="44.4979183" lon="9.974925"><ele>899.0</ele><time>2026-04-26T08:39:52.937Z</time></trkpt><trkpt lat="44.4980883" lon="9.975035"><ele>904.0</ele><time>2026-04-26T08:39:53.937Z</time></trkpt><trkpt lat="44.498445" lon="9.9751917"><ele>909.0</ele><time>2026-04-26T08:39:55.937Z</time></trkpt><trkpt lat="44.4986217" lon="9.97526"><ele>900.0</ele><time>2026-04-26T08:39:56.937Z</time></trkpt><trkpt lat="44.498795" lon="9.9753167"><ele>891.0</ele><time>2026-04-26T08:39:57.937Z</time></trkpt><trkpt lat="44.49896" lon="9.9753383"><ele>882.0</ele><time>2026-04-26T08:39:58.937Z</time></trkpt><trkpt lat="44.4991233" lon="9.975365"><ele>882.0</ele><time>2026-04-26T08:39:59.937Z</time></trkpt><trkpt lat="44.4992517" lon="9.9753933"><ele>882.0</ele><time>2026-04-26T08:40:00.937Z</time></trkpt><trkpt lat="44.4993333" lon="9.975505"><ele>882.0</ele><time>2026-04-26T08:40:01.937Z</time></trkpt><trkpt lat="44.4993633" lon="9.97566"><ele>882.0</ele><time>2026-04-26T08:40:02.937Z</time></trkpt><trkpt lat="44.499365" lon="9.97585"><ele>888.3333333333333</ele><time>2026-04-26T08:40:03.937Z</time></trkpt><trkpt lat="44.49937" lon="9.9760667"><ele>894.6666666666666</ele><time>2026-04-26T08:40:04.936Z</time></trkpt><trkpt lat="44.499405" lon="9.9762783"><ele>901.0</ele><time>2026-04-26T08:40:05.937Z</time></trkpt><trkpt lat="44.499475" lon="9.97649"><ele>903.6666666666666</ele><time>2026-04-26T08:40:06.937Z</time></trkpt><trkpt lat="44.49954" lon="9.9767"><ele>906.3333333333333</ele><time>2026-04-26T08:40:07.936Z</time></trkpt><trkpt lat="44.4996183" lon="9.9769217"><ele>909.0</ele><time>2026-04-26T08:40:08.937Z</time></trkpt><trkpt lat="44.4996833" lon="9.97713"><ele>893.6666666666667</ele><time>2026-04-26T08:40:09.937Z</time></trkpt><trkpt lat="44.4997417" lon="9.977345"><ele>878.3333333333334</ele><time>2026-04-26T08:40:10.937Z</time></trkpt><trkpt lat="44.4997783" lon="9.97757"><ele>863.0</ele><time>2026-04-26T08:40:11.936Z</time></trkpt><trkpt lat="44.4997833" lon="9.9777983"><ele>863.0</ele><time>2026-04-26T08:40:12.937Z</time></trkpt><trkpt lat="44.4997883" lon="9.97803"><ele>863.0</ele><time>2026-04-26T08:40:13.937Z</time></trkpt><trkpt lat="44.4997767" lon="9.97825"><ele>863.0</ele><time>2026-04-26T08:40:14.937Z</time></trkpt><trkpt lat="44.49977" lon="9.9786417"><ele>863.25</ele><time>2026-04-26T08:40:16.937Z</time></trkpt><trkpt lat="44.499795" lon="9.97882"><ele>863.5</ele><time>2026-04-26T08:40:17.936Z</time></trkpt><trkpt lat="44.49985" lon="9.979005"><ele>863.75</ele><time>2026-04-26T08:40:18.937Z</time></trkpt><trkpt lat="44.49991" lon="9.979185"><ele>864.0</ele><time>2026-04-26T08:40:19.937Z</time></trkpt><trkpt lat="44.4999667" lon="9.9793667"><ele>864.75</ele><time>2026-04-26T08:40:20.937Z</time></trkpt><trkpt lat="44.5000267" lon="9.979545"><ele>865.5</ele><time>2026-04-26T08:40:21.936Z</time></trkpt><trkpt lat="44.5000683" lon="9.97972"><ele>866.25</ele><time>2026-04-26T08:40:22.936Z</time></trkpt><trkpt lat="44.5000917" lon="9.9799083"><ele>867.0</ele><time>2026-04-26T08:40:23.937Z</time></trkpt><trkpt lat="44.500095" lon="9.980095"><ele>867.5</ele><time>2026-04-26T08:40:24.937Z</time></trkpt><trkpt lat="44.50009" lon="9.98029"><ele>868.0</ele><time>2026-04-26T08:40:25.937Z</time></trkpt><trkpt lat="44.5000767" lon="9.9804867"><ele>868.5</ele><time>2026-04-26T08:40:26.936Z</time></trkpt><trkpt lat="44.5000883" lon="9.9806867"><ele>869.0</ele><time>2026-04-26T08:40:27.937Z</time></trkpt><trkpt lat="44.5001317" lon="9.98089"><ele>874.6666666666667</ele><time>2026-04-26T08:40:28.937Z</time></trkpt><trkpt lat="44.5001983" lon="9.9810667"><ele>880.3333333333333</ele><time>2026-04-26T08:40:29.937Z</time></trkpt><trkpt lat="44.5002983" lon="9.9812517"><ele>886.0</ele><time>2026-04-26T08:40:30.937Z</time></trkpt><trkpt lat="44.50041" lon="9.9814083"><ele>882.6666666666666</ele><time>2026-04-26T08:40:31.937Z</time></trkpt><trkpt lat="44.5005267" lon="9.9815617"><ele>879.3333333333333</ele><time>2026-04-26T08:40:32.936Z</time></trkpt><trkpt lat="44.5006467" lon="9.9817183"><ele>876.0</ele><time>2026-04-26T08:40:33.937Z</time></trkpt><trkpt lat="44.5007683" lon="9.9818733"><ele>876.0</ele><time>2026-04-26T08:40:34.937Z</time></trkpt><trkpt lat="44.500905" lon="9.9820217"><ele>876.0</ele><time>2026-04-26T08:40:35.937Z</time></trkpt><trkpt lat="44.5012" lon="9.98224"><ele>873.25</ele><time>2026-04-26T08:40:37.937Z</time></trkpt><trkpt lat="44.501345" lon="9.9823033"><ele>870.5</ele><time>2026-04-26T08:40:38.937Z</time></trkpt><trkpt lat="44.5014817" lon="9.982385"><ele>867.75</ele><time>2026-04-26T08:40:39.937Z</time></trkpt><trkpt lat="44.5016017" lon="9.982495"><ele>865.0</ele><time>2026-04-26T08:40:40.936Z</time></trkpt><trkpt lat="44.5016917" lon="9.982635"><ele>865.0</ele><time>2026-04-26T08:40:41.937Z</time></trkpt><trkpt lat="44.5017583" lon="9.982815"><ele>865.0</ele><time>2026-04-26T08:40:42.937Z</time></trkpt><trkpt lat="44.5018017" lon="9.983025"><ele>865.0</ele><time>2026-04-26T08:40:43.937Z</time></trkpt><trkpt lat="44.50184" lon="9.98322"><ele>865.0</ele><time>2026-04-26T08:40:44.937Z</time></trkpt><trkpt lat="44.5018817" lon="9.9834467"><ele>865.0</ele><time>2026-04-26T08:40:45.937Z</time></trkpt><trkpt lat="44.5018883" lon="9.9836817"><ele>865.0</ele><time>2026-04-26T08:40:46.937Z</time></trkpt><trkpt lat="44.5018517" lon="9.9838983"><ele>865.0</ele><time>2026-04-26T08:40:47.936Z</time></trkpt><trkpt lat="44.5017983" lon="9.9841117"><ele>863.25</ele><time>2026-04-26T08:40:48.937Z</time></trkpt><trkpt lat="44.5017183" lon="9.9843067"><ele>861.5</ele><time>2026-04-26T08:40:49.936Z</time></trkpt><trkpt lat="44.5016333" lon="9.9844817"><ele>859.75</ele><time>2026-04-26T08:40:50.937Z</time></trkpt><trkpt lat="44.5015583" lon="9.9846367"><ele>858.0</ele><time>2026-04-26T08:40:51.936Z</time></trkpt><trkpt lat="44.5015067" lon="9.984805"><ele>858.0</ele><time>2026-04-26T08:40:52.937Z</time></trkpt><trkpt lat="44.501475" lon="9.98499"><ele>858.0</ele><time>2026-04-26T08:40:53.937Z</time></trkpt><trkpt lat="44.5014683" lon="9.9851717"><ele>858.0</ele><time>2026-04-26T08:40:54.937Z</time></trkpt><trkpt lat="44.5015317" lon="9.9853367"><ele>858.0</ele><time>2026-04-26T08:40:55.936Z</time></trkpt><trkpt lat="44.5016517" lon="9.985475"><ele>859.0</ele><time>2026-04-26T08:40:56.937Z</time></trkpt><trkpt lat="44.5019183" lon="9.9857417"><ele>860.0</ele><time>2026-04-26T08:40:58.937Z</time></trkpt><trkpt lat="44.5020183" lon="9.9859133"><ele>855.6666666666667</ele><time>2026-04-26T08:40:59.937Z</time></trkpt><trkpt lat="44.50211" lon="9.9861017"><ele>851.3333333333333</ele><time>2026-04-26T08:41:00.937Z</time></trkpt><trkpt lat="44.5021883" lon="9.9862817"><ele>847.0</ele><time>2026-04-26T08:41:01.937Z</time></trkpt><trkpt lat="44.5022267" lon="9.9864733"><ele>847.0</ele><time>2026-04-26T08:41:02.937Z</time></trkpt><trkpt lat="44.5022083" lon="9.986665"><ele>847.0</ele><time>2026-04-26T08:41:03.937Z</time></trkpt><trkpt lat="44.50215" lon="9.9868417"><ele>847.0</ele><time>2026-04-26T08:41:04.937Z</time></trkpt><trkpt lat="44.5021033" lon="9.9870133"><ele>847.0</ele><time>2026-04-26T08:41:05.937Z</time></trkpt><trkpt lat="44.502085" lon="9.987185"><ele>848.5</ele><time>2026-04-26T08:41:06.936Z</time></trkpt><trkpt lat="44.5021133" lon="9.9873533"><ele>850.0</ele><time>2026-04-26T08:41:07.937Z</time></trkpt><trkpt lat="44.5021733" lon="9.987475"><ele>851.5</ele><time>2026-04-26T08:41:08.936Z</time></trkpt><trkpt lat="44.5022683" lon="9.98755"><ele>853.0</ele><time>2026-04-26T08:41:09.937Z</time></trkpt><trkpt lat="44.50239" lon="9.98756"><ele>853.0</ele><time>2026-04-26T08:41:10.937Z</time></trkpt><trkpt lat="44.5025317" lon="9.98753"><ele>853.0</ele><time>2026-04-26T08:41:11.937Z</time></trkpt><trkpt lat="44.50268" lon="9.9874833"><ele>853.0</ele><time>2026-04-26T08:41:12.937Z</time></trkpt><trkpt lat="44.5028167" lon="9.987445"><ele>853.0</ele><time>2026-04-26T08:41:13.937Z</time></trkpt><trkpt lat="44.502945" lon="9.987435"><ele>853.25</ele><time>2026-04-26T08:41:14.936Z</time></trkpt><trkpt lat="44.5030533" lon="9.9874783"><ele>853.5</ele><time>2026-04-26T08:41:15.937Z</time></trkpt><trkpt lat="44.5031433" lon="9.9875883"><ele>853.75</ele><time>2026-04-26T08:41:16.937Z</time></trkpt><trkpt lat="44.5032083" lon="9.9877167"><ele>854.0</ele><time>2026-04-26T08:41:17.937Z</time></trkpt><trkpt lat="44.5033333" lon="9.987985"><ele>854.0</ele><time>2026-04-26T08:41:19.937Z</time></trkpt><trkpt lat="44.503395" lon="9.9881167"><ele>854.0</ele><time>2026-04-26T08:41:20.937Z</time></trkpt><trkpt lat="44.50347" lon="9.98826"><ele>854.0</ele><time>2026-04-26T08:41:21.937Z</time></trkpt><trkpt lat="44.5035483" lon="9.9883883"><ele>854.0</ele><time>2026-04-26T08:41:22.937Z</time></trkpt><trkpt lat="44.5036367" lon="9.9884867"><ele>853.75</ele><time>2026-04-26T08:41:23.937Z</time></trkpt><trkpt lat="44.5037333" lon="9.9885633"><ele>853.5</ele><time>2026-04-26T08:41:24.937Z</time></trkpt><trkpt lat="44.5038233" lon="9.9886533"><ele>853.25</ele><time>2026-04-26T08:41:25.937Z</time></trkpt><trkpt lat="44.5039217" lon="9.9887417"><ele>853.0</ele><time>2026-04-26T08:41:26.937Z</time></trkpt><trkpt lat="44.5040233" lon="9.9888233"><ele>853.0</ele><time>2026-04-26T08:41:27.937Z</time></trkpt><trkpt lat="44.5041317" lon="9.9888883"><ele>853.0</ele><time>2026-04-26T08:41:28.937Z</time></trkpt><trkpt lat="44.50425" lon="9.9889367"><ele>853.0</ele><time>2026-04-26T08:41:29.936Z</time></trkpt><trkpt lat="44.5043717" lon="9.988965"><ele>853.0</ele><time>2026-04-26T08:41:30.937Z</time></trkpt><trkpt lat="44.5044933" lon="9.9889717"><ele>852.0</ele><time>2026-04-26T08:41:31.936Z</time></trkpt><trkpt lat="44.50462" lon="9.9889733"><ele>851.0</ele><time>2026-04-26T08:41:32.937Z</time></trkpt><trkpt lat="44.5047433" lon="9.9889817"><ele>850.0</ele><time>2026-04-26T08:41:33.936Z</time></trkpt><trkpt lat="44.5048683" lon="9.9889917"><ele>849.0</ele><time>2026-04-26T08:41:34.936Z</time></trkpt><trkpt lat="44.504985" lon="9.9890067"><ele>849.0</ele><time>2026-04-26T08:41:35.936Z</time></trkpt><trkpt lat="44.5051" lon="9.9890467"><ele>849.0</ele><time>2026-04-26T08:41:36.937Z</time></trkpt><trkpt lat="44.5052117" lon="9.9891217"><ele>849.0</ele><time>2026-04-26T08:41:37.937Z</time></trkpt><trkpt lat="44.505315" lon="9.9892017"><ele>849.0</ele><time>2026-04-26T08:41:38.936Z</time></trkpt><trkpt lat="44.5054933" lon="9.9893767"><ele>848.4000000000001</ele><time>2026-04-26T08:41:40.937Z</time></trkpt><trkpt lat="44.5055783" lon="9.9894683"><ele>847.8</ele><time>2026-04-26T08:41:41.936Z</time></trkpt><trkpt lat="44.5056633" lon="9.9895617"><ele>847.2</ele><time>2026-04-26T08:41:42.937Z</time></trkpt><trkpt lat="44.5057417" lon="9.9896533"><ele>846.5999999999999</ele><time>2026-04-26T08:41:43.937Z</time></trkpt><trkpt lat="44.505815" lon="9.98974"><ele>846.0</ele><time>2026-04-26T08:41:44.937Z</time></trkpt><trkpt lat="44.5058917" lon="9.989825"><ele>846.0</ele><time>2026-04-26T08:41:45.937Z</time></trkpt><trkpt lat="44.50597" lon="9.98992"><ele>846.0</ele><time>2026-04-26T08:41:46.937Z</time></trkpt><trkpt lat="44.5060517" lon="9.9900133"><ele>846.0</ele><time>2026-04-26T08:41:47.937Z</time></trkpt><trkpt lat="44.506125" lon="9.9901183"><ele>846.0</ele><time>2026-04-26T08:41:48.937Z</time></trkpt><trkpt lat="44.5061983" lon="9.99023"><ele>846.0</ele><time>2026-04-26T08:41:49.937Z</time></trkpt><trkpt lat="44.5062633" lon="9.9903533"><ele>845.4</ele><time>2026-04-26T08:41:50.937Z</time></trkpt><trkpt lat="44.506305" lon="9.9905"><ele>844.8</ele><time>2026-04-26T08:41:51.937Z</time></trkpt><trkpt lat="44.506345" lon="9.99063"><ele>844.1999999999999</ele><time>2026-04-26T08:41:52.937Z</time></trkpt><trkpt lat="44.5063967" lon="9.9907533"><ele>843.5999999999999</ele><time>2026-04-26T08:41:53.937Z</time></trkpt><trkpt lat="44.5064483" lon="9.9908533"><ele>843.0</ele><time>2026-04-26T08:41:54.937Z</time></trkpt><trkpt lat="44.50651" lon="9.9909433"><ele>843.0</ele><time>2026-04-26T08:41:55.937Z</time></trkpt><trkpt lat="44.50657" lon="9.9910233"><ele>843.0</ele><time>2026-04-26T08:41:56.937Z</time></trkpt><trkpt lat="44.5066367" lon="9.9911033"><ele>843.0</ele><time>2026-04-26T08:41:57.937Z</time></trkpt><trkpt lat="44.5067" lon="9.9911967"><ele>843.0</ele><time>2026-04-26T08:41:58.936Z</time></trkpt><trkpt lat="44.506765" lon="9.991285"><ele>843.0</ele><time>2026-04-26T08:41:59.937Z</time></trkpt><trkpt lat="44.506905" lon="9.9914583"><ele>843.0</ele><time>2026-04-26T08:42:01.937Z</time></trkpt><trkpt lat="44.5069717" lon="9.9915333"><ele>843.0</ele><time>2026-04-26T08:42:02.936Z</time></trkpt><trkpt lat="44.5070417" lon="9.991615"><ele>843.0</ele><time>2026-04-26T08:42:03.937Z</time></trkpt><trkpt lat="44.5071117" lon="9.991695"><ele>843.0</ele><time>2026-04-26T08:42:04.936Z</time></trkpt><trkpt lat="44.5071733" lon="9.991785"><ele>843.0</ele><time>2026-04-26T08:42:05.937Z</time></trkpt><trkpt lat="44.507245" lon="9.9918767"><ele>843.0</ele><time>2026-04-26T08:42:06.937Z</time></trkpt><trkpt lat="44.5073283" lon="9.99196"><ele>843.0</ele><time>2026-04-26T08:42:07.937Z</time></trkpt><trkpt lat="44.50742" lon="9.9920583"><ele>843.0</ele><time>2026-04-26T08:42:08.937Z</time></trkpt><trkpt lat="44.5075217" lon="9.992155"><ele>843.0</ele><time>2026-04-26T08:42:09.937Z</time></trkpt><trkpt lat="44.5076217" lon="9.9922533"><ele>843.0</ele><time>2026-04-26T08:42:10.936Z</time></trkpt><trkpt lat="44.50772" lon="9.9923533"><ele>843.0</ele><time>2026-04-26T08:42:11.936Z</time></trkpt><trkpt lat="44.5078167" lon="9.99245"><ele>843.0</ele><time>2026-04-26T08:42:12.937Z</time></trkpt><trkpt lat="44.50791" lon="9.9925467"><ele>843.0</ele><time>2026-04-26T08:42:13.937Z</time></trkpt><trkpt lat="44.5079967" lon="9.9926617"><ele>843.5</ele><time>2026-04-26T08:42:14.937Z</time></trkpt><trkpt lat="44.5080733" lon="9.9927917"><ele>844.0</ele><time>2026-04-26T08:42:15.937Z</time></trkpt><trkpt lat="44.5081367" lon="9.9929367"><ele>844.5</ele><time>2026-04-26T08:42:16.937Z</time></trkpt><trkpt lat="44.50819" lon="9.9931017"><ele>845.0</ele><time>2026-04-26T08:42:17.937Z</time></trkpt><trkpt lat="44.508235" lon="9.9932767"><ele>842.25</ele><time>2026-04-26T08:42:18.936Z</time></trkpt><trkpt lat="44.5082833" lon="9.993445"><ele>839.5</ele><time>2026-04-26T08:42:19.937Z</time></trkpt><trkpt lat="44.5083233" lon="9.9935933"><ele>836.75</ele><time>2026-04-26T08:42:20.937Z</time></trkpt><trkpt lat="44.5083667" lon="9.9937417"><ele>834.0</ele><time>2026-04-26T08:42:21.936Z</time></trkpt><trkpt lat="44.5084633" lon="9.9940133"><ele>834.0</ele><time>2026-04-26T08:42:23.936Z</time></trkpt><trkpt lat="44.508515" lon="9.994145"><ele>834.0</ele><time>2026-04-26T08:42:24.937Z</time></trkpt><trkpt lat="44.5085833" lon="9.9942817"><ele>834.0</ele><time>2026-04-26T08:42:25.937Z</time></trkpt><trkpt lat="44.5086667" lon="9.99441"><ele>834.0</ele><time>2026-04-26T08:42:26.937Z</time></trkpt><trkpt lat="44.508765" lon="9.9945283"><ele>835.25</ele><time>2026-04-26T08:42:27.937Z</time></trkpt><trkpt lat="44.50888" lon="9.99462"><ele>836.5</ele><time>2026-04-26T08:42:28.937Z</time></trkpt><trkpt lat="44.509015" lon="9.9946783"><ele>837.75</ele><time>2026-04-26T08:42:29.937Z</time></trkpt><trkpt lat="44.5091567" lon="9.9947033"><ele>839.0</ele><time>2026-04-26T08:42:30.936Z</time></trkpt><trkpt lat="44.509315" lon="9.9947183"><ele>839.0</ele><time>2026-04-26T08:42:31.937Z</time></trkpt><trkpt lat="44.509485" lon="9.9947533"><ele>839.0</ele><time>2026-04-26T08:42:32.937Z</time></trkpt><trkpt lat="44.5096233" lon="9.9948433"><ele>839.0</ele><time>2026-04-26T08:42:33.937Z</time></trkpt><trkpt lat="44.5097233" lon="9.9949967"><ele>843.0</ele><time>2026-04-26T08:42:34.937Z</time></trkpt><trkpt lat="44.5097817" lon="9.9952083"><ele>847.0</ele><time>2026-04-26T08:42:35.937Z</time></trkpt><trkpt lat="44.5098383" lon="9.9954333"><ele>851.0</ele><time>2026-04-26T08:42:36.937Z</time></trkpt><trkpt lat="44.5099033" lon="9.9956217"><ele>851.0</ele><time>2026-04-26T08:42:37.937Z</time></trkpt><trkpt lat="44.5099967" lon="9.9957833"><ele>851.0</ele><time>2026-04-26T08:42:38.936Z</time></trkpt><trkpt lat="44.5101283" lon="9.9959133"><ele>851.0</ele><time>2026-04-26T08:42:39.937Z</time></trkpt><trkpt lat="44.5102783" lon="9.9960217"><ele>853.6666666666667</ele><time>2026-04-26T08:42:40.937Z</time></trkpt><trkpt lat="44.51041" lon="9.996165"><ele>856.3333333333333</ele><time>2026-04-26T08:42:41.937Z</time></trkpt><trkpt lat="44.51053" lon="9.996345"><ele>859.0</ele><time>2026-04-26T08:42:42.937Z</time></trkpt><trkpt lat="44.5107417" lon="9.99677"><ele>859.0</ele><time>2026-04-26T08:42:44.937Z</time></trkpt><trkpt lat="44.5108183" lon="9.9969983"><ele>859.0</ele><time>2026-04-26T08:42:45.937Z</time></trkpt><trkpt lat="44.5108717" lon="9.9972433"><ele>859.0</ele><time>2026-04-26T08:42:46.937Z</time></trkpt><trkpt lat="44.5109433" lon="9.99747"><ele>859.6666666666666</ele><time>2026-04-26T08:42:47.936Z</time></trkpt><trkpt lat="44.5110433" lon="9.9976667"><ele>860.3333333333333</ele><time>2026-04-26T08:42:48.937Z</time></trkpt><trkpt lat="44.5111683" lon="9.997835"><ele>861.0</ele><time>2026-04-26T08:42:49.937Z</time></trkpt><trkpt lat="44.5113117" lon="9.997975"><ele>861.0</ele><time>2026-04-26T08:42:50.937Z</time></trkpt><trkpt lat="44.5114683" lon="9.998085"><ele>861.0</ele><time>2026-04-26T08:42:51.937Z</time></trkpt><trkpt lat="44.5116383" lon="9.998125"><ele>861.0</ele><time>2026-04-26T08:42:52.937Z</time></trkpt><trkpt lat="44.5118217" lon="9.9981167"><ele>861.0</ele><time>2026-04-26T08:42:53.936Z</time></trkpt><trkpt lat="44.5119883" lon="9.9980533"><ele>861.0</ele><time>2026-04-26T08:42:54.937Z</time></trkpt><trkpt lat="44.5121317" lon="9.997955"><ele>861.0</ele><time>2026-04-26T08:42:55.937Z</time></trkpt><trkpt lat="44.5122667" lon="9.9978083"><ele>860.6666666666667</ele><time>2026-04-26T08:42:56.936Z</time></trkpt><trkpt lat="44.5123833" lon="9.99763"><ele>860.3333333333334</ele><time>2026-04-26T08:42:57.937Z</time></trkpt><trkpt lat="44.5124767" lon="9.997415"><ele>860.0</ele><time>2026-04-26T08:42:58.937Z</time></trkpt><trkpt lat="44.5125567" lon="9.9971867"><ele>864.0</ele><time>2026-04-26T08:42:59.937Z</time></trkpt><trkpt lat="44.512635" lon="9.9969567"><ele>868.0</ele><time>2026-04-26T08:43:00.937Z</time></trkpt><trkpt lat="44.5127133" lon="9.9967483"><ele>872.0</ele><time>2026-04-26T08:43:01.937Z</time></trkpt><trkpt lat="44.512795" lon="9.9965717"><ele>869.5</ele><time>2026-04-26T08:43:02.937Z</time></trkpt><trkpt lat="44.5129033" lon="9.99642"><ele>867.0</ele><time>2026-04-26T08:43:03.937Z</time></trkpt><trkpt lat="44.5131683" lon="9.9961967"><ele>867.0</ele><time>2026-04-26T08:43:05.937Z</time></trkpt><trkpt lat="44.5133317" lon="9.9961167"><ele>867.0</ele><time>2026-04-26T08:43:06.937Z</time></trkpt><trkpt lat="44.5135" lon="9.9960533"><ele>867.0</ele><time>2026-04-26T08:43:07.936Z</time></trkpt><trkpt lat="44.5136683" lon="9.99598"><ele>866.0</ele><time>2026-04-26T08:43:08.937Z</time></trkpt><trkpt lat="44.5138383" lon="9.9959133"><ele>865.0</ele><time>2026-04-26T08:43:09.937Z</time></trkpt><trkpt lat="44.51401" lon="9.99587"><ele>864.0</ele><time>2026-04-26T08:43:10.937Z</time></trkpt><trkpt lat="44.5142083" lon="9.99585"><ele>864.0</ele><time>2026-04-26T08:43:11.937Z</time></trkpt><trkpt lat="44.5143867" lon="9.9958667"><ele>864.0</ele><time>2026-04-26T08:43:12.937Z</time></trkpt><trkpt lat="44.5145683" lon="9.9958967"><ele>864.0</ele><time>2026-04-26T08:43:13.936Z</time></trkpt><trkpt lat="44.514755" lon="9.9959267"><ele>864.6666666666667</ele><time>2026-04-26T08:43:14.937Z</time></trkpt><trkpt lat="44.5149417" lon="9.9959517"><ele>865.3333333333334</ele><time>2026-04-26T08:43:15.937Z</time></trkpt><trkpt lat="44.5151333" lon="9.99597"><ele>866.0</ele><time>2026-04-26T08:43:16.937Z</time></trkpt><trkpt lat="44.5153167" lon="9.9959917"><ele>868.0</ele><time>2026-04-26T08:43:17.937Z</time></trkpt><trkpt lat="44.5155083" lon="9.9960133"><ele>870.0</ele><time>2026-04-26T08:43:18.936Z</time></trkpt><trkpt lat="44.5156933" lon="9.996035"><ele>872.0</ele><time>2026-04-26T08:43:19.937Z</time></trkpt><trkpt lat="44.51589" lon="9.996055"><ele>872.0</ele><time>2026-04-26T08:43:20.937Z</time></trkpt><trkpt lat="44.5160717" lon="9.9960767"><ele>872.0</ele><time>2026-04-26T08:43:21.937Z</time></trkpt><trkpt lat="44.516255" lon="9.996095"><ele>872.0</ele><time>2026-04-26T08:43:22.937Z</time></trkpt><trkpt lat="44.5164317" lon="9.9961133"><ele>873.3333333333334</ele><time>2026-04-26T08:43:23.937Z</time></trkpt><trkpt lat="44.5166067" lon="9.9961383"><ele>874.6666666666667</ele><time>2026-04-26T08:43:24.936Z</time></trkpt><trkpt lat="44.5167667" lon="9.9961433"><ele>876.0</ele><time>2026-04-26T08:43:25.937Z</time></trkpt><trkpt lat="44.51702" lon="9.9960817"><ele>876.25</ele><time>2026-04-26T08:43:27.937Z</time></trkpt><trkpt lat="44.5171217" lon="9.9959767"><ele>876.5</ele><time>2026-04-26T08:43:28.937Z</time></trkpt><trkpt lat="44.5171867" lon="9.995805"><ele>876.75</ele><time>2026-04-26T08:43:29.937Z</time></trkpt><trkpt lat="44.5172533" lon="9.9955983"><ele>877.0</ele><time>2026-04-26T08:43:30.936Z</time></trkpt><trkpt lat="44.5173283" lon="9.9954017"><ele>877.0</ele><time>2026-04-26T08:43:31.937Z</time></trkpt><trkpt lat="44.5174283" lon="9.9952233"><ele>877.0</ele><time>2026-04-26T08:43:32.936Z</time></trkpt><trkpt lat="44.5175417" lon="9.99506"><ele>877.0</ele><time>2026-04-26T08:43:33.936Z</time></trkpt><trkpt lat="44.51767" lon="9.9949083"><ele>878.0</ele><time>2026-04-26T08:43:34.937Z</time></trkpt><trkpt lat="44.5178017" lon="9.99475"><ele>879.0</ele><time>2026-04-26T08:43:35.937Z</time></trkpt><trkpt lat="44.51794" lon="9.9945933"><ele>880.0</ele><time>2026-04-26T08:43:36.937Z</time></trkpt><trkpt lat="44.5180767" lon="9.994435"><ele>880.0</ele><time>2026-04-26T08:43:37.936Z</time></trkpt><trkpt lat="44.5182167" lon="9.9942717"><ele>880.0</ele><time>2026-04-26T08:43:38.937Z</time></trkpt><trkpt lat="44.518355" lon="9.994115"><ele>880.0</ele><time>2026-04-26T08:43:39.937Z</time></trkpt><trkpt lat="44.51851" lon="9.9939917"><ele>882.3333333333333</ele><time>2026-04-26T08:43:40.936Z</time></trkpt><trkpt lat="44.5186683" lon="9.9939167"><ele>884.6666666666667</ele><time>2026-04-26T08:43:41.937Z</time></trkpt><trkpt lat="44.5188333" lon="9.9938967"><ele>887.0</ele><time>2026-04-26T08:43:42.936Z</time></trkpt><trkpt lat="44.5190033" lon="9.9939017"><ele>887.6666666666667</ele><time>2026-04-26T08:43:43.937Z</time></trkpt><trkpt lat="44.519165" lon="9.9939367"><ele>888.3333333333333</ele><time>2026-04-26T08:43:44.937Z</time></trkpt><trkpt lat="44.5193317" lon="9.9939783"><ele>889.0</ele><time>2026-04-26T08:43:45.937Z</time></trkpt><trkpt lat="44.5195033" lon="9.9940033"><ele>889.5</ele><time>2026-04-26T08:43:46.937Z</time></trkpt><trkpt lat="44.5198567" lon="9.99406"><ele>890.0</ele><time>2026-04-26T08:43:48.937Z</time></trkpt><trkpt lat="44.5200417" lon="9.9940683"><ele>890.0</ele><time>2026-04-26T08:43:49.937Z</time></trkpt><trkpt lat="44.5202267" lon="9.99407"><ele>890.0</ele><time>2026-04-26T08:43:50.936Z</time></trkpt><trkpt lat="44.5204133" lon="9.9940717"><ele>890.0</ele><time>2026-04-26T08:43:51.936Z</time></trkpt><trkpt lat="44.5205967" lon="9.99409"><ele>890.3333333333334</ele><time>2026-04-26T08:43:52.937Z</time></trkpt><trkpt lat="44.52077" lon="9.9941267"><ele>890.6666666666667</ele><time>2026-04-26T08:43:53.937Z</time></trkpt><trkpt lat="44.5209283" lon="9.9942"><ele>891.0</ele><time>2026-04-26T08:43:54.936Z</time></trkpt><trkpt lat="44.5210767" lon="9.9943267"><ele>891.0</ele><time>2026-04-26T08:43:55.937Z</time></trkpt><trkpt lat="44.5212167" lon="9.9944617"><ele>891.0</ele><time>2026-04-26T08:43:56.936Z</time></trkpt><trkpt lat="44.52136" lon="9.994595"><ele>891.0</ele><time>2026-04-26T08:43:57.937Z</time></trkpt><trkpt lat="44.52151" lon="9.994735"><ele>894.6666666666667</ele><time>2026-04-26T08:43:58.937Z</time></trkpt><trkpt lat="44.5216567" lon="9.9948717"><ele>898.3333333333334</ele><time>2026-04-26T08:43:59.937Z</time></trkpt><trkpt lat="44.5218" lon="9.9950183"><ele>902.0</ele><time>2026-04-26T08:44:00.936Z</time></trkpt><trkpt lat="44.5219267" lon="9.99519"><ele>902.0</ele><time>2026-04-26T08:44:01.937Z</time></trkpt><trkpt lat="44.5220383" lon="9.9953717"><ele>902.0</ele><time>2026-04-26T08:44:02.937Z</time></trkpt><trkpt lat="44.5221617" lon="9.99554"><ele>902.0</ele><time>2026-04-26T08:44:03.937Z</time></trkpt><trkpt lat="44.5223033" lon="9.9956683"><ele>906.0</ele><time>2026-04-26T08:44:04.937Z</time></trkpt><trkpt lat="44.522455" lon="9.995745"><ele>910.0</ele><time>2026-04-26T08:44:05.937Z</time></trkpt><trkpt lat="44.5226317" lon="9.99577"><ele>914.0</ele><time>2026-04-26T08:44:06.937Z</time></trkpt><trkpt lat="44.5228167" lon="9.9957617"><ele>916.5</ele><time>2026-04-26T08:44:07.937Z</time></trkpt><trkpt lat="44.523175" lon="9.9957483"><ele>919.0</ele><time>2026-04-26T08:44:09.937Z</time></trkpt><trkpt lat="44.5233567" lon="9.9957383"><ele>919.0</ele><time>2026-04-26T08:44:10.937Z</time></trkpt><trkpt lat="44.52354" lon="9.995735"><ele>919.0</ele><time>2026-04-26T08:44:11.937Z</time></trkpt><trkpt lat="44.5237167" lon="9.9957317"><ele>919.0</ele><time>2026-04-26T08:44:12.936Z</time></trkpt><trkpt lat="44.52389" lon="9.9957317"><ele>918.3333333333333</ele><time>2026-04-26T08:44:13.937Z</time></trkpt><trkpt lat="44.5240533" lon="9.9957183"><ele>917.6666666666667</ele><time>2026-04-26T08:44:14.937Z</time></trkpt><trkpt lat="44.52421" lon="9.9956967"><ele>917.0</ele><time>2026-04-26T08:44:15.937Z</time></trkpt><trkpt lat="44.5243467" lon="9.9956283"><ele>917.0</ele><time>2026-04-26T08:44:16.936Z</time></trkpt><trkpt lat="44.5244667" lon="9.995495"><ele>917.0</ele><time>2026-04-26T08:44:17.937Z</time></trkpt><trkpt lat="44.5245667" lon="9.9953233"><ele>917.0</ele><time>2026-04-26T08:44:18.936Z</time></trkpt><trkpt lat="44.5246483" lon="9.9951583"><ele>919.3333333333334</ele><time>2026-04-26T08:44:19.937Z</time></trkpt><trkpt lat="44.5247517" lon="9.9950117"><ele>921.6666666666667</ele><time>2026-04-26T08:44:20.937Z</time></trkpt><trkpt lat="44.5248833" lon="9.9949217"><ele>924.0</ele><time>2026-04-26T08:44:21.937Z</time></trkpt><trkpt lat="44.5250417" lon="9.9948783"><ele>924.0</ele><time>2026-04-26T08:44:22.937Z</time></trkpt><trkpt lat="44.5252117" lon="9.9948683"><ele>924.0</ele><time>2026-04-26T08:44:23.937Z</time></trkpt><trkpt lat="44.525385" lon="9.99486"><ele>924.0</ele><time>2026-04-26T08:44:24.937Z</time></trkpt><trkpt lat="44.5255633" lon="9.9948467"><ele>922.6666666666667</ele><time>2026-04-26T08:44:25.937Z</time></trkpt><trkpt lat="44.5257517" lon="9.994815"><ele>921.3333333333334</ele><time>2026-04-26T08:44:26.937Z</time></trkpt><trkpt lat="44.5259267" lon="9.994735"><ele>920.0</ele><time>2026-04-26T08:44:27.936Z</time></trkpt><trkpt lat="44.5260917" lon="9.994625"><ele>919.0</ele><time>2026-04-26T08:44:28.937Z</time></trkpt><trkpt lat="44.526425" lon="9.994375"><ele>918.0</ele><time>2026-04-26T08:44:30.937Z</time></trkpt><trkpt lat="44.5265767" lon="9.9943167"><ele>918.0</ele><time>2026-04-26T08:44:31.937Z</time></trkpt><trkpt lat="44.52672" lon="9.99431"><ele>918.0</ele><time>2026-04-26T08:44:32.937Z</time></trkpt><trkpt lat="44.5268583" lon="9.9943717"><ele>918.0</ele><time>2026-04-26T08:44:33.937Z</time></trkpt><trkpt lat="44.5269783" lon="9.9945067"><ele>918.0</ele><time>2026-04-26T08:44:34.936Z</time></trkpt><trkpt lat="44.52707" lon="9.9946867"><ele>916.3333333333333</ele><time>2026-04-26T08:44:35.937Z</time></trkpt><trkpt lat="44.5271483" lon="9.9948717"><ele>914.6666666666666</ele><time>2026-04-26T08:44:36.937Z</time></trkpt><trkpt lat="44.5272633" lon="9.9950117"><ele>913.0</ele><time>2026-04-26T08:44:37.937Z</time></trkpt><trkpt lat="44.5274033" lon="9.995115"><ele>913.0</ele><time>2026-04-26T08:44:38.937Z</time></trkpt><trkpt lat="44.5275683" lon="9.9951767"><ele>913.0</ele><time>2026-04-26T08:44:39.936Z</time></trkpt><trkpt lat="44.5277483" lon="9.9952117"><ele>913.0</ele><time>2026-04-26T08:44:40.937Z</time></trkpt><trkpt lat="44.5279233" lon="9.99525"><ele>917.6666666666666</ele><time>2026-04-26T08:44:41.936Z</time></trkpt><trkpt lat="44.52808" lon="9.995325"><ele>922.3333333333333</ele><time>2026-04-26T08:44:42.937Z</time></trkpt><trkpt lat="44.528215" lon="9.9954417"><ele>927.0</ele><time>2026-04-26T08:44:43.937Z</time></trkpt><trkpt lat="44.5283517" lon="9.995585"><ele>927.0</ele><time>2026-04-26T08:44:44.937Z</time></trkpt><trkpt lat="44.5284667" lon="9.995745"><ele>927.0</ele><time>2026-04-26T08:44:45.937Z</time></trkpt><trkpt lat="44.5285833" lon="9.9958833"><ele>927.0</ele><time>2026-04-26T08:44:46.937Z</time></trkpt><trkpt lat="44.5287033" lon="9.99597"><ele>925.6666666666667</ele><time>2026-04-26T08:44:47.937Z</time></trkpt><trkpt lat="44.528845" lon="9.9959933"><ele>924.3333333333334</ele><time>2026-04-26T08:44:48.937Z</time></trkpt><trkpt lat="44.5289883" lon="9.9959433"><ele>923.0</ele><time>2026-04-26T08:44:49.937Z</time></trkpt><trkpt lat="44.5292517" lon="9.9957683"><ele>925.0</ele><time>2026-04-26T08:44:51.937Z</time></trkpt><trkpt lat="44.5293833" lon="9.9957467"><ele>927.0</ele><time>2026-04-26T08:44:52.937Z</time></trkpt><trkpt lat="44.529525" lon="9.9957783"><ele>929.0</ele><time>2026-04-26T08:44:53.937Z</time></trkpt><trkpt lat="44.5296667" lon="9.99588"><ele>931.0</ele><time>2026-04-26T08:44:54.936Z</time></trkpt><trkpt lat="44.5298017" lon="9.9960017"><ele>931.0</ele><time>2026-04-26T08:44:55.936Z</time></trkpt><trkpt lat="44.5299467" lon="9.9961217"><ele>931.0</ele><time>2026-04-26T08:44:56.937Z</time></trkpt><trkpt lat="44.530095" lon="9.9962383"><ele>931.0</ele><time>2026-04-26T08:44:57.937Z</time></trkpt><trkpt lat="44.5302483" lon="9.9963583"><ele>929.0</ele><time>2026-04-26T08:44:58.937Z</time></trkpt><trkpt lat="44.5303933" lon="9.9964867"><ele>927.0</ele><time>2026-04-26T08:44:59.937Z</time></trkpt><trkpt lat="44.5305233" lon="9.9966"><ele>925.0</ele><time>2026-04-26T08:45:00.937Z</time></trkpt><trkpt lat="44.5306467" lon="9.9966983"><ele>925.0</ele><time>2026-04-26T08:45:01.937Z</time></trkpt><trkpt lat="44.530765" lon="9.996785"><ele>925.0</ele><time>2026-04-26T08:45:02.937Z</time></trkpt><trkpt lat="44.5308683" lon="9.9968583"><ele>925.0</ele><time>2026-04-26T08:45:03.937Z</time></trkpt><trkpt lat="44.53098" lon="9.9968917"><ele>925.0</ele><time>2026-04-26T08:45:04.937Z</time></trkpt><trkpt lat="44.53108" lon="9.9968917"><ele>925.0</ele><time>2026-04-26T08:45:05.937Z</time></trkpt><trkpt lat="44.5311717" lon="9.99687"><ele>925.0</ele><time>2026-04-26T08:45:06.937Z</time></trkpt><trkpt lat="44.531255" lon="9.9968617"><ele>925.0</ele><time>2026-04-26T08:45:07.937Z</time></trkpt><trkpt lat="44.5313233" lon="9.996855"><ele>925.0</ele><time>2026-04-26T08:45:08.937Z</time></trkpt><trkpt lat="44.5314333" lon="9.996855"><ele>925.0</ele><time>2026-04-26T08:45:10.937Z</time></trkpt><trkpt lat="44.53159" lon="9.9968217"><ele>928.2</ele><time>2026-04-26T08:45:12.937Z</time></trkpt><trkpt lat="44.5316917" lon="9.996805"><ele>931.4</ele><time>2026-04-26T08:45:13.937Z</time></trkpt><trkpt lat="44.5318083" lon="9.996805"><ele>934.5999999999999</ele><time>2026-04-26T08:45:14.937Z</time></trkpt><trkpt lat="44.53192" lon="9.9968067"><ele>937.8</ele><time>2026-04-26T08:45:15.936Z</time></trkpt><trkpt lat="44.5320333" lon="9.9968067"><ele>941.0</ele><time>2026-04-26T08:45:16.937Z</time></trkpt><trkpt lat="44.53216" lon="9.996785"><ele>942.25</ele><time>2026-04-26T08:45:17.937Z</time></trkpt><trkpt lat="44.5322883" lon="9.9967367"><ele>943.5</ele><time>2026-04-26T08:45:18.937Z</time></trkpt><trkpt lat="44.5324117" lon="9.9966717"><ele>944.75</ele><time>2026-04-26T08:45:19.937Z</time></trkpt><trkpt lat="44.5325417" lon="9.99659"><ele>946.0</ele><time>2026-04-26T08:45:20.937Z</time></trkpt><trkpt lat="44.5326767" lon="9.9965067"><ele>946.0</ele><time>2026-04-26T08:45:21.937Z</time></trkpt><trkpt lat="44.5328117" lon="9.9964067"><ele>946.0</ele><time>2026-04-26T08:45:22.937Z</time></trkpt><trkpt lat="44.532945" lon="9.9963033"><ele>946.0</ele><time>2026-04-26T08:45:23.937Z</time></trkpt><trkpt lat="44.5330783" lon="9.9961833"><ele>948.6666666666666</ele><time>2026-04-26T08:45:24.937Z</time></trkpt><trkpt lat="44.5332267" lon="9.9960917"><ele>951.3333333333333</ele><time>2026-04-26T08:45:25.937Z</time></trkpt><trkpt lat="44.5333733" lon="9.9960317"><ele>954.0</ele><time>2026-04-26T08:45:26.937Z</time></trkpt><trkpt lat="44.53352" lon="9.9959783"><ele>954.0</ele><time>2026-04-26T08:45:27.937Z</time></trkpt><trkpt lat="44.5336567" lon="9.9959433"><ele>954.0</ele><time>2026-04-26T08:45:28.936Z</time></trkpt><trkpt lat="44.5337917" lon="9.9959267"><ele>954.0</ele><time>2026-04-26T08:45:29.937Z</time></trkpt><trkpt lat="44.5339283" lon="9.9959517"><ele>954.0</ele><time>2026-04-26T08:45:30.937Z</time></trkpt><trkpt lat="44.5340617" lon="9.99601"><ele>954.0</ele><time>2026-04-26T08:45:31.936Z</time></trkpt><trkpt lat="44.5343017" lon="9.9962333"><ele>954.0</ele><time>2026-04-26T08:45:33.937Z</time></trkpt><trkpt lat="44.5343917" lon="9.99637"><ele>954.0</ele><time>2026-04-26T08:45:34.937Z</time></trkpt><trkpt lat="44.5344867" lon="9.996475"><ele>953.5</ele><time>2026-04-26T08:45:35.937Z</time></trkpt><trkpt lat="44.5345938" lon="9.9965401"><ele>953.0</ele><time>2026-04-26T08:45:36.937Z</time></trkpt><trkpt lat="44.534724" lon="9.9965713"><ele>952.5</ele><time>2026-04-26T08:45:37.937Z</time></trkpt><trkpt lat="44.5348585" lon="9.9966084"><ele>952.0</ele><time>2026-04-26T08:45:38.937Z</time></trkpt><trkpt lat="44.5349787" lon="9.9966638"><ele>952.0</ele><time>2026-04-26T08:45:39.937Z</time></trkpt><trkpt lat="44.5350891" lon="9.9967085"><ele>952.0</ele><time>2026-04-26T08:45:40.937Z</time></trkpt><trkpt lat="44.5351959" lon="9.996702"><ele>952.0</ele><time>2026-04-26T08:45:41.937Z</time></trkpt><trkpt lat="44.5352977" lon="9.996642"><ele>952.0</ele><time>2026-04-26T08:45:42.937Z</time></trkpt><trkpt lat="44.535391" lon="9.9965211"><ele>954.0</ele><time>2026-04-26T08:45:43.937Z</time></trkpt><trkpt lat="44.5354883" lon="9.9963783"><ele>956.0</ele><time>2026-04-26T08:45:44.937Z</time></trkpt><trkpt lat="44.5355945" lon="9.9962453"><ele>958.0</ele><time>2026-04-26T08:45:45.937Z</time></trkpt><trkpt lat="44.5356903" lon="9.9960975"><ele>960.0</ele><time>2026-04-26T08:45:46.937Z</time></trkpt><trkpt lat="44.5357673" lon="9.9959151"><ele>958.75</ele><time>2026-04-26T08:45:47.937Z</time></trkpt><trkpt lat="44.535828" lon="9.9957245"><ele>957.5</ele><time>2026-04-26T08:45:48.937Z</time></trkpt><trkpt lat="44.535885" lon="9.995554"><ele>956.25</ele><time>2026-04-26T08:45:49.937Z</time></trkpt><trkpt lat="44.5359587" lon="9.9954011"><ele>955.0</ele><time>2026-04-26T08:45:50.937Z</time></trkpt><trkpt lat="44.5360297" lon="9.9952732"><ele>955.0</ele><time>2026-04-26T08:45:51.936Z</time></trkpt><trkpt lat="44.5361032" lon="9.9951729"><ele>955.0</ele><time>2026-04-26T08:45:52.937Z</time></trkpt><trkpt lat="44.5362844" lon="9.9951067"><ele>955.0</ele><time>2026-04-26T08:45:54.937Z</time></trkpt><trkpt lat="44.5363781" lon="9.9951346"><ele>955.0</ele><time>2026-04-26T08:45:55.937Z</time></trkpt><trkpt lat="44.5364748" lon="9.9951934"><ele>955.8</ele><time>2026-04-26T08:45:56.937Z</time></trkpt><trkpt lat="44.5365745" lon="9.9952239"><ele>956.6</ele><time>2026-04-26T08:45:57.937Z</time></trkpt><trkpt lat="44.5366721" lon="9.995195"><ele>957.4000000000001</ele><time>2026-04-26T08:45:58.937Z</time></trkpt><trkpt lat="44.5367643" lon="9.9951128"><ele>958.2</ele><time>2026-04-26T08:45:59.937Z</time></trkpt><trkpt lat="44.5368636" lon="9.9950001"><ele>959.0</ele><time>2026-04-26T08:46:00.937Z</time></trkpt><trkpt lat="44.5369798" lon="9.9949142"><ele>960.3333333333334</ele><time>2026-04-26T08:46:01.937Z</time></trkpt><trkpt lat="44.5371125" lon="9.9948435"><ele>961.6666666666667</ele><time>2026-04-26T08:46:02.937Z</time></trkpt><trkpt lat="44.5372571" lon="9.9947683"><ele>963.0</ele><time>2026-04-26T08:46:03.937Z</time></trkpt><trkpt lat="44.5374023" lon="9.9946759"><ele>963.0</ele><time>2026-04-26T08:46:04.936Z</time></trkpt><trkpt lat="44.5375478" lon="9.9945714"><ele>963.0</ele><time>2026-04-26T08:46:05.937Z</time></trkpt><trkpt lat="44.5376873" lon="9.9944535"><ele>963.0</ele><time>2026-04-26T08:46:06.936Z</time></trkpt><trkpt lat="44.5378185" lon="9.9943291"><ele>963.6666666666667</ele><time>2026-04-26T08:46:07.937Z</time></trkpt><trkpt lat="44.5379524" lon="9.9941963"><ele>964.3333333333334</ele><time>2026-04-26T08:46:08.936Z</time></trkpt><trkpt lat="44.5380865" lon="9.9940717"><ele>965.0</ele><time>2026-04-26T08:46:09.937Z</time></trkpt><trkpt lat="44.5382216" lon="9.9939579"><ele>963.0</ele><time>2026-04-26T08:46:10.936Z</time></trkpt><trkpt lat="44.53836" lon="9.9938384"><ele>961.0</ele><time>2026-04-26T08:46:11.937Z</time></trkpt><trkpt lat="44.5384975" lon="9.9937048"><ele>959.0</ele><time>2026-04-26T08:46:12.937Z</time></trkpt><trkpt lat="44.5386318" lon="9.993572"><ele>958.0</ele><time>2026-04-26T08:46:13.937Z</time></trkpt><trkpt lat="44.5388958" lon="9.9933498"><ele>957.0</ele><time>2026-04-26T08:46:15.936Z</time></trkpt><trkpt lat="44.539018" lon="9.9932354"><ele>955.75</ele><time>2026-04-26T08:46:16.937Z</time></trkpt><trkpt lat="44.5391258" lon="9.9931011"><ele>954.5</ele><time>2026-04-26T08:46:17.937Z</time></trkpt><trkpt lat="44.539199" lon="9.9929501"><ele>953.25</ele><time>2026-04-26T08:46:18.937Z</time></trkpt><trkpt lat="44.5392476" lon="9.9927847"><ele>952.0</ele><time>2026-04-26T08:46:19.937Z</time></trkpt><trkpt lat="44.5392753" lon="9.992597"><ele>950.0</ele><time>2026-04-26T08:46:20.936Z</time></trkpt><trkpt lat="44.5393169" lon="9.9923972"><ele>948.0</ele><time>2026-04-26T08:46:21.937Z</time></trkpt><trkpt lat="44.5393764" lon="9.9922012"><ele>946.0</ele><time>2026-04-26T08:46:22.937Z</time></trkpt><trkpt lat="44.5394325" lon="9.9919981"><ele>946.0</ele><time>2026-04-26T08:46:23.937Z</time></trkpt><trkpt lat="44.5394817" lon="9.9918167"><ele>946.0</ele><time>2026-04-26T08:46:24.937Z</time></trkpt><trkpt lat="44.5395486" lon="9.9916663"><ele>946.0</ele><time>2026-04-26T08:46:25.937Z</time></trkpt><trkpt lat="44.5396423" lon="9.9915458"><ele>946.0</ele><time>2026-04-26T08:46:26.937Z</time></trkpt><trkpt lat="44.5397567" lon="9.991443"><ele>945.0</ele><time>2026-04-26T08:46:27.937Z</time></trkpt><trkpt lat="44.5398823" lon="9.9913449"><ele>944.0</ele><time>2026-04-26T08:46:28.937Z</time></trkpt><trkpt lat="44.5400073" lon="9.9912553"><ele>943.0</ele><time>2026-04-26T08:46:29.937Z</time></trkpt><trkpt lat="44.5401217" lon="9.991169"><ele>942.0</ele><time>2026-04-26T08:46:30.936Z</time></trkpt><trkpt lat="44.5402251" lon="9.9910745"><ele>942.0</ele><time>2026-04-26T08:46:31.937Z</time></trkpt><trkpt lat="44.5403028" lon="9.9909693"><ele>942.0</ele><time>2026-04-26T08:46:32.937Z</time></trkpt><trkpt lat="44.5403492" lon="9.9908418"><ele>942.0</ele><time>2026-04-26T08:46:33.937Z</time></trkpt><trkpt lat="44.5403799" lon="9.9906858"><ele>942.0</ele><time>2026-04-26T08:46:34.937Z</time></trkpt><trkpt lat="44.5404663" lon="9.9903424"><ele>940.75</ele><time>2026-04-26T08:46:36.936Z</time></trkpt><trkpt lat="44.5405132" lon="9.9901786"><ele>939.5</ele><time>2026-04-26T08:46:37.937Z</time></trkpt><trkpt lat="44.5405639" lon="9.9900187"><ele>938.25</ele><time>2026-04-26T08:46:38.937Z</time></trkpt><trkpt lat="44.5406404" lon="9.989862"><ele>937.0</ele><time>2026-04-26T08:46:39.937Z</time></trkpt><trkpt lat="44.5407277" lon="9.9897228"><ele>937.0</ele><time>2026-04-26T08:46:40.937Z</time></trkpt><trkpt lat="44.5408194" lon="9.9895844"><ele>937.0</ele><time>2026-04-26T08:46:41.937Z</time></trkpt><trkpt lat="44.5409144" lon="9.9894449"><ele>937.0</ele><time>2026-04-26T08:46:42.937Z</time></trkpt><trkpt lat="44.5410363" lon="9.9893289"><ele>937.0</ele><time>2026-04-26T08:46:43.937Z</time></trkpt><trkpt lat="44.5411699" lon="9.9892442"><ele>937.0</ele><time>2026-04-26T08:46:44.937Z</time></trkpt><trkpt lat="44.5413012" lon="9.9891645"><ele>937.0</ele><time>2026-04-26T08:46:45.937Z</time></trkpt><trkpt lat="44.5414169" lon="9.9890764"><ele>937.0</ele><time>2026-04-26T08:46:46.937Z</time></trkpt><trkpt lat="44.5415117" lon="9.9889761"><ele>937.0</ele><time>2026-04-26T08:46:47.937Z</time></trkpt><trkpt lat="44.5415712" lon="9.9888569"><ele>937.0</ele><time>2026-04-26T08:46:48.937Z</time></trkpt><trkpt lat="44.5416008" lon="9.9887009"><ele>937.0</ele><time>2026-04-26T08:46:49.937Z</time></trkpt><trkpt lat="44.5416098" lon="9.9885274"><ele>937.0</ele><time>2026-04-26T08:46:50.937Z</time></trkpt><trkpt lat="44.541628" lon="9.9883536"><ele>937.0</ele><time>2026-04-26T08:46:51.936Z</time></trkpt><trkpt lat="44.541683" lon="9.9881883"><ele>936.6666666666666</ele><time>2026-04-26T08:46:52.937Z</time></trkpt><trkpt lat="44.5417724" lon="9.9880304"><ele>936.3333333333333</ele><time>2026-04-26T08:46:53.937Z</time></trkpt><trkpt lat="44.5418803" lon="9.9878803"><ele>936.0</ele><time>2026-04-26T08:46:54.937Z</time></trkpt><trkpt lat="44.5419939" lon="9.9877222"><ele>931.0</ele><time>2026-04-26T08:46:55.937Z</time></trkpt><trkpt lat="44.5422175" lon="9.9873941"><ele>926.0</ele><time>2026-04-26T08:46:57.937Z</time></trkpt><trkpt lat="44.5423237" lon="9.9872276"><ele>926.0</ele><time>2026-04-26T08:46:58.937Z</time></trkpt><trkpt lat="44.5424332" lon="9.9870745"><ele>926.0</ele><time>2026-04-26T08:46:59.937Z</time></trkpt><trkpt lat="44.5425487" lon="9.9869541"><ele>926.0</ele><time>2026-04-26T08:47:00.937Z</time></trkpt><trkpt lat="44.5426643" lon="9.9868544"><ele>926.0</ele><time>2026-04-26T08:47:01.937Z</time></trkpt><trkpt lat="44.5427576" lon="9.986748"><ele>926.25</ele><time>2026-04-26T08:47:02.937Z</time></trkpt><trkpt lat="44.5428317" lon="9.9866025"><ele>926.5</ele><time>2026-04-26T08:47:03.937Z</time></trkpt><trkpt lat="44.5428922" lon="9.9864306"><ele>926.75</ele><time>2026-04-26T08:47:04.937Z</time></trkpt><trkpt lat="44.5429441" lon="9.9862337"><ele>927.0</ele><time>2026-04-26T08:47:05.937Z</time></trkpt><trkpt lat="44.5429985" lon="9.9860229"><ele>924.6666666666667</ele><time>2026-04-26T08:47:06.937Z</time></trkpt><trkpt lat="44.5430457" lon="9.9858004"><ele>922.3333333333334</ele><time>2026-04-26T08:47:07.937Z</time></trkpt><trkpt lat="44.5430891" lon="9.9855796"><ele>920.0</ele><time>2026-04-26T08:47:08.937Z</time></trkpt><trkpt lat="44.5431436" lon="9.9853742"><ele>920.0</ele><time>2026-04-26T08:47:09.937Z</time></trkpt><trkpt lat="44.5432174" lon="9.9851893"><ele>920.0</ele><time>2026-04-26T08:47:10.936Z</time></trkpt><trkpt lat="44.5433129" lon="9.9850285"><ele>920.0</ele><time>2026-04-26T08:47:11.936Z</time></trkpt><trkpt lat="44.5434178" lon="9.9848892"><ele>920.0</ele><time>2026-04-26T08:47:12.937Z</time></trkpt><trkpt lat="44.5435137" lon="9.9847502"><ele>919.0</ele><time>2026-04-26T08:47:13.937Z</time></trkpt><trkpt lat="44.5435916" lon="9.9845971"><ele>918.0</ele><time>2026-04-26T08:47:14.937Z</time></trkpt><trkpt lat="44.543645" lon="9.9844154"><ele>917.0</ele><time>2026-04-26T08:47:15.937Z</time></trkpt><trkpt lat="44.543692" lon="9.9842112"><ele>916.0</ele><time>2026-04-26T08:47:16.937Z</time></trkpt><trkpt lat="44.5438099" lon="9.9838266"><ele>915.5</ele><time>2026-04-26T08:47:18.937Z</time></trkpt><trkpt lat="44.5438727" lon="9.983667"><ele>915.0</ele><time>2026-04-26T08:47:19.937Z</time></trkpt><trkpt lat="44.5439494" lon="9.9835344"><ele>914.5</ele><time>2026-04-26T08:47:20.937Z</time></trkpt><trkpt lat="44.5440381" lon="9.983424"><ele>914.0</ele><time>2026-04-26T08:47:21.937Z</time></trkpt><trkpt lat="44.5441399" lon="9.9833479"><ele>914.0</ele><time>2026-04-26T08:47:22.937Z</time></trkpt><trkpt lat="44.5442473" lon="9.9832929"><ele>914.0000000000001</ele><time>2026-04-26T08:47:23.937Z</time></trkpt><trkpt lat="44.544348" lon="9.9832586"><ele>914.0000000000001</ele><time>2026-04-26T08:47:24.937Z</time></trkpt><trkpt lat="44.5444484" lon="9.9832139"><ele>914.0</ele><time>2026-04-26T08:47:25.937Z</time></trkpt><trkpt lat="44.5445498" lon="9.9831345"><ele>914.0</ele><time>2026-04-26T08:47:26.937Z</time></trkpt><trkpt lat="44.5446496" lon="9.9830309"><ele>912.0</ele><time>2026-04-26T08:47:27.936Z</time></trkpt><trkpt lat="44.5447461" lon="9.9829138"><ele>910.0000000000001</ele><time>2026-04-26T08:47:28.937Z</time></trkpt><trkpt lat="44.5448321" lon="9.982797"><ele>908.0000000000001</ele><time>2026-04-26T08:47:29.937Z</time></trkpt><trkpt lat="44.5448997" lon="9.982704"><ele>906.0</ele><time>2026-04-26T08:47:30.937Z</time></trkpt><trkpt lat="44.5449532" lon="9.9826369"><ele>904.0</ele><time>2026-04-26T08:47:31.937Z</time></trkpt><trkpt lat="44.5450353" lon="9.982608"><ele>904.0</ele><time>2026-04-26T08:47:48.937Z</time></trkpt><trkpt lat="44.5452175" lon="9.9826185"><ele>904.0000000000001</ele><time>2026-04-26T08:47:52.937Z</time></trkpt><trkpt lat="44.5452894" lon="9.9826078"><ele>904.0000000000001</ele><time>2026-04-26T08:47:54.937Z</time></trkpt><trkpt lat="44.5453591" lon="9.9825408"><ele>904.0</ele><time>2026-04-26T08:47:57.937Z</time></trkpt><trkpt lat="44.545414" lon="9.9824527"><ele>904.0</ele><time>2026-04-26T08:48:00.937Z</time></trkpt><trkpt lat="44.5454568" lon="9.9823763"><ele>903.9999999999999</ele><time>2026-04-26T08:48:02.936Z</time></trkpt><trkpt lat="44.5455044" lon="9.9823094"><ele>904.0</ele><time>2026-04-26T08:48:05.937Z</time></trkpt><trkpt lat="44.5454943" lon="9.9824112"><ele>904.0</ele><time>2026-04-26T08:48:45.936Z</time></trkpt><trkpt lat="44.5454097" lon="9.9825565"><ele>904.0</ele><time>2026-04-26T08:48:49.937Z</time></trkpt><trkpt lat="44.5453445" lon="9.9825999"><ele>903.9999999999999</ele><time>2026-04-26T08:48:51.936Z</time></trkpt><trkpt lat="44.5452468" lon="9.9826054"><ele>904.0</ele><time>2026-04-26T08:48:53.936Z</time></trkpt><trkpt lat="44.5451732" lon="9.9826238"><ele>904.0</ele><time>2026-04-26T08:48:55.936Z</time></trkpt><trkpt lat="44.545153" lon="9.9827147"><ele>904.0000000000001</ele><time>2026-04-26T08:48:58.935Z</time></trkpt><trkpt lat="44.5452239" lon="9.9828153"><ele>904.0000000000001</ele><time>2026-04-26T08:49:01.936Z</time></trkpt><trkpt lat="44.5452878" lon="9.9828863"><ele>904.0</ele><time>2026-04-26T08:49:03.936Z</time></trkpt><trkpt lat="44.5453683" lon="9.9829513"><ele>904.0</ele><time>2026-04-26T08:49:13.936Z</time></trkpt><trkpt lat="44.5455041" lon="9.9830424"><ele>901.8571428571429</ele><time>2026-04-26T08:49:17.936Z</time></trkpt><trkpt lat="44.545586" lon="9.9830777"><ele>899.7142857142857</ele><time>2026-04-26T08:49:19.936Z</time></trkpt><trkpt lat="44.545654" lon="9.983103"><ele>897.5714285714286</ele><time>2026-04-26T08:49:21.936Z</time></trkpt><trkpt lat="44.5457189" lon="9.983134"><ele>895.4285714285714</ele><time>2026-04-26T08:49:23.936Z</time></trkpt><trkpt lat="44.5457857" lon="9.9831635"><ele>893.2857142857142</ele><time>2026-04-26T08:49:25.936Z</time></trkpt><trkpt lat="44.5458465" lon="9.9831869"><ele>891.1428571428571</ele><time>2026-04-26T08:49:27.936Z</time></trkpt><trkpt lat="44.5459356" lon="9.9832016"><ele>889.0</ele><time>2026-04-26T08:49:30.936Z</time></trkpt><trkpt lat="44.546" lon="9.9832139"><ele>889.0</ele><time>2026-04-26T08:49:32.936Z</time></trkpt><trkpt lat="44.5460694" lon="9.9832381"><ele>889.0000000000001</ele><time>2026-04-26T08:49:35.936Z</time></trkpt><trkpt lat="44.5462065" lon="9.9832756"><ele>889.0000000000001</ele><time>2026-04-26T08:49:39.936Z</time></trkpt><trkpt lat="44.5462753" lon="9.9833125"><ele>889.0</ele><time>2026-04-26T08:49:41.936Z</time></trkpt><trkpt lat="44.5463574" lon="9.9833683"><ele>889.0</ele><time>2026-04-26T08:49:44.935Z</time></trkpt><trkpt lat="44.5464248" lon="9.9834263"><ele>885.6</ele><time>2026-04-26T08:49:46.936Z</time></trkpt><trkpt lat="44.5464988" lon="9.983464"><ele>882.2</ele><time>2026-04-26T08:49:48.936Z</time></trkpt><trkpt lat="44.546567" lon="9.9834847"><ele>878.8000000000001</ele><time>2026-04-26T08:49:50.936Z</time></trkpt><trkpt lat="44.5466483" lon="9.9835138"><ele>875.4000000000001</ele><time>2026-04-26T08:49:52.936Z</time></trkpt><trkpt lat="44.5467631" lon="9.9835563"><ele>872.0</ele><time>2026-04-26T08:49:54.936Z</time></trkpt><trkpt lat="44.5468702" lon="9.9835948"><ele>868.5</ele><time>2026-04-26T08:49:56.936Z</time></trkpt><trkpt lat="44.5470494" lon="9.9836161"><ele>865.0</ele><time>2026-04-26T08:50:00.936Z</time></trkpt><trkpt lat="44.5471441" lon="9.9836303"><ele>861.5</ele><time>2026-04-26T08:50:02.935Z</time></trkpt><trkpt lat="44.5472519" lon="9.9836629"><ele>858.0</ele><time>2026-04-26T08:50:04.935Z</time></trkpt><trkpt lat="44.5473676" lon="9.9837075"><ele>858.0</ele><time>2026-04-26T08:50:06.935Z</time></trkpt><trkpt lat="44.5474496" lon="9.9837352"><ele>858.0</ele><time>2026-04-26T08:50:08.936Z</time></trkpt><trkpt lat="44.5475171" lon="9.9837433"><ele>858.0</ele><time>2026-04-26T08:50:13.936Z</time></trkpt><trkpt lat="44.5475949" lon="9.9837498"><ele>858.0</ele><time>2026-04-26T08:50:15.936Z</time></trkpt><trkpt lat="44.5476806" lon="9.9837484"><ele>858.0</ele><time>2026-04-26T08:50:17.935Z</time></trkpt><trkpt lat="44.5478457" lon="9.9838142"><ele>855.6666666666666</ele><time>2026-04-26T08:50:27.935Z</time></trkpt><trkpt lat="44.5479155" lon="9.9838683"><ele>853.3333333333333</ele><time>2026-04-26T08:50:29.936Z</time></trkpt><trkpt lat="44.5479793" lon="9.9839191"><ele>851.0</ele><time>2026-04-26T08:50:31.936Z</time></trkpt><trkpt lat="44.5480543" lon="9.983971"><ele>848.6666666666666</ele><time>2026-04-26T08:50:33.935Z</time></trkpt><trkpt lat="44.5481347" lon="9.9840093"><ele>846.3333333333333</ele><time>2026-04-26T08:50:35.936Z</time></trkpt><trkpt lat="44.5482068" lon="9.9840515"><ele>844.0</ele><time>2026-04-26T08:50:37.936Z</time></trkpt><trkpt lat="44.548273" lon="9.9840792"><ele>843.9999999999999</ele><time>2026-04-26T08:50:39.936Z</time></trkpt><trkpt lat="44.5484069" lon="9.9840643"><ele>844.0</ele><time>2026-04-26T08:50:43.935Z</time></trkpt><trkpt lat="44.5484779" lon="9.9840358"><ele>844.0</ele><time>2026-04-26T08:50:45.935Z</time></trkpt><trkpt lat="44.5485429" lon="9.9840095"><ele>844.0</ele><time>2026-04-26T08:50:48.936Z</time></trkpt><trkpt lat="44.5486064" lon="9.9839827"><ele>843.9999999999999</ele><time>2026-04-26T08:50:52.936Z</time></trkpt><trkpt lat="44.5486843" lon="9.9839725"><ele>844.0</ele><time>2026-04-26T08:50:57.936Z</time></trkpt><trkpt lat="44.5487736" lon="9.9839574"><ele>840.6666666666666</ele><time>2026-04-26T08:51:00.936Z</time></trkpt><trkpt lat="44.5489042" lon="9.983932"><ele>837.3333333333333</ele><time>2026-04-26T08:51:05.936Z</time></trkpt><trkpt lat="44.5489997" lon="9.9839225"><ele>834.0</ele><time>2026-04-26T08:51:08.936Z</time></trkpt><trkpt lat="44.5490661" lon="9.9838933"><ele>830.6666666666667</ele><time>2026-04-26T08:51:10.936Z</time></trkpt><trkpt lat="44.5491292" lon="9.9838563"><ele>827.3333333333334</ele><time>2026-04-26T08:51:12.936Z</time></trkpt><trkpt lat="44.5491917" lon="9.9838347"><ele>824.0</ele><time>2026-04-26T08:51:15.935Z</time></trkpt><trkpt lat="44.5492733" lon="9.983787"><ele>824.0</ele><time>2026-04-26T08:51:25.935Z</time></trkpt><trkpt lat="44.549416" lon="9.9837003"><ele>824.0</ele><time>2026-04-26T08:51:29.935Z</time></trkpt><trkpt lat="44.5494781" lon="9.983672"><ele>824.0</ele><time>2026-04-26T08:51:31.936Z</time></trkpt><trkpt lat="44.5495398" lon="9.9836332"><ele>824.0</ele><time>2026-04-26T08:51:33.936Z</time></trkpt><trkpt lat="44.5496363" lon="9.9835992"><ele>824.0</ele><time>2026-04-26T08:51:36.936Z</time></trkpt><trkpt lat="44.549713" lon="9.9835929"><ele>820.2</ele><time>2026-04-26T08:51:38.936Z</time></trkpt><trkpt lat="44.5498071" lon="9.9836047"><ele>816.4000000000001</ele><time>2026-04-26T08:51:40.935Z</time></trkpt><trkpt lat="44.5498964" lon="9.9836256"><ele>812.6</ele><time>2026-04-26T08:51:42.936Z</time></trkpt><trkpt lat="44.549963" lon="9.9836275"><ele>808.8</ele><time>2026-04-26T08:51:44.936Z</time></trkpt><trkpt lat="44.5500385" lon="9.9836523"><ele>805.0</ele><time>2026-04-26T08:51:47.936Z</time></trkpt><trkpt lat="44.5502031" lon="9.9838346"><ele>804.9999999999999</ele><time>2026-04-26T08:51:51.936Z</time></trkpt><trkpt lat="44.5503139" lon="9.9839004"><ele>805.0</ele><time>2026-04-26T08:51:53.935Z</time></trkpt><trkpt lat="44.550431" lon="9.9838741"><ele>805.0</ele><time>2026-04-26T08:51:55.936Z</time></trkpt><trkpt lat="44.5504915" lon="9.9838413"><ele>805.0</ele><time>2026-04-26T08:51:56.936Z</time></trkpt><trkpt lat="44.5505517" lon="9.9838095"><ele>804.9999999999999</ele><time>2026-04-26T08:51:57.936Z</time></trkpt><trkpt lat="44.5506123" lon="9.9837827"><ele>805.0</ele><time>2026-04-26T08:51:58.936Z</time></trkpt><trkpt lat="44.5507151" lon="9.9837633"><ele>805.0</ele><time>2026-04-26T08:52:00.936Z</time></trkpt><trkpt lat="44.5507822" lon="9.9837816"><ele>805.0</ele><time>2026-04-26T08:52:02.936Z</time></trkpt><trkpt lat="44.5506744" lon="9.9838121"><ele>805.0</ele><time>2026-04-26T08:52:16.936Z</time></trkpt><trkpt lat="44.5505269" lon="9.9838576"><ele>805.0</ele><time>2026-04-26T08:52:18.936Z</time></trkpt><trkpt lat="44.5504464" lon="9.983893"><ele>805.0</ele><time>2026-04-26T08:52:19.936Z</time></trkpt><trkpt lat="44.5503601" lon="9.9839209"><ele>804.9999999999999</ele><time>2026-04-26T08:52:20.936Z</time></trkpt><trkpt lat="44.5502804" lon="9.9839238"><ele>805.0</ele><time>2026-04-26T08:52:21.936Z</time></trkpt><trkpt lat="44.5502102" lon="9.9838899"><ele>805.0</ele><time>2026-04-26T08:52:22.935Z</time></trkpt><trkpt lat="44.550149" lon="9.9838242"><ele>805.0</ele><time>2026-04-26T08:52:23.936Z</time></trkpt><trkpt lat="44.5500847" lon="9.9837381"><ele>804.9999999999999</ele><time>2026-04-26T08:52:24.936Z</time></trkpt><trkpt lat="44.5500273" lon="9.9836527"><ele>805.0</ele><time>2026-04-26T08:52:25.936Z</time></trkpt><trkpt lat="44.5499886" lon="9.9835724"><ele>804.9999999999999</ele><time>2026-04-26T08:52:26.936Z</time></trkpt><trkpt lat="44.5499682" lon="9.9834865"><ele>805.0</ele><time>2026-04-26T08:52:27.936Z</time></trkpt><trkpt lat="44.5499597" lon="9.9833876"><ele>805.0</ele><time>2026-04-26T08:52:28.936Z</time></trkpt><trkpt lat="44.5499528" lon="9.9832833"><ele>805.0</ele><time>2026-04-26T08:52:29.936Z</time></trkpt><trkpt lat="44.5499543" lon="9.9831673"><ele>804.9999999999999</ele><time>2026-04-26T08:52:30.936Z</time></trkpt><trkpt lat="44.5499641" lon="9.9830426"><ele>805.0</ele><time>2026-04-26T08:52:31.936Z</time></trkpt><trkpt lat="44.5499703" lon="9.9829181"><ele>805.1666666666666</ele><time>2026-04-26T08:52:32.936Z</time></trkpt><trkpt lat="44.5499627" lon="9.9828058"><ele>805.3333333333333</ele><time>2026-04-26T08:52:33.936Z</time></trkpt><trkpt lat="44.5499541" lon="9.9827057"><ele>805.5</ele><time>2026-04-26T08:52:34.936Z</time></trkpt><trkpt lat="44.5499535" lon="9.982607"><ele>805.6666666666667</ele><time>2026-04-26T08:52:35.936Z</time></trkpt><trkpt lat="44.5499672" lon="9.9825121"><ele>805.8333333333334</ele><time>2026-04-26T08:52:36.936Z</time></trkpt><trkpt lat="44.5499921" lon="9.9824151"><ele>806.0</ele><time>2026-04-26T08:52:37.936Z</time></trkpt><trkpt lat="44.5500542" lon="9.9821921"><ele>805.8</ele><time>2026-04-26T08:52:39.936Z</time></trkpt><trkpt lat="44.5500853" lon="9.9820624"><ele>805.5999999999999</ele><time>2026-04-26T08:52:40.936Z</time></trkpt><trkpt lat="44.5501061" lon="9.9819187"><ele>805.4</ele><time>2026-04-26T08:52:41.936Z</time></trkpt><trkpt lat="44.550116" lon="9.9817794"><ele>805.2</ele><time>2026-04-26T08:52:42.936Z</time></trkpt><trkpt lat="44.5501221" lon="9.9816572"><ele>805.0</ele><time>2026-04-26T08:52:43.936Z</time></trkpt><trkpt lat="44.5501158" lon="9.9815497"><ele>805.0</ele><time>2026-04-26T08:52:44.936Z</time></trkpt><trkpt lat="44.5501012" lon="9.9814358"><ele>805.0</ele><time>2026-04-26T08:52:45.936Z</time></trkpt><trkpt lat="44.5500912" lon="9.9813083"><ele>805.0</ele><time>2026-04-26T08:52:46.936Z</time></trkpt><trkpt lat="44.5500984" lon="9.9811761"><ele>805.0</ele><time>2026-04-26T08:52:47.936Z</time></trkpt><trkpt lat="44.550124" lon="9.981051"><ele>805.0</ele><time>2026-04-26T08:52:48.935Z</time></trkpt><trkpt lat="44.5501583" lon="9.9809322"><ele>805.9999999999999</ele><time>2026-04-26T08:52:49.936Z</time></trkpt><trkpt lat="44.550185" lon="9.98081"><ele>807.0</ele><time>2026-04-26T08:52:50.935Z</time></trkpt><trkpt lat="44.5502" lon="9.9806891"><ele>808.0</ele><time>2026-04-26T08:52:51.935Z</time></trkpt><trkpt lat="44.5502104" lon="9.9805703"><ele>809.0</ele><time>2026-04-26T08:52:52.936Z</time></trkpt><trkpt lat="44.5502344" lon="9.9804511"><ele>809.9999999999999</ele><time>2026-04-26T08:52:53.936Z</time></trkpt><trkpt lat="44.5502649" lon="9.9803371"><ele>811.0</ele><time>2026-04-26T08:52:54.935Z</time></trkpt><trkpt lat="44.5503114" lon="9.9802237"><ele>811.0</ele><time>2026-04-26T08:52:55.936Z</time></trkpt><trkpt lat="44.5503727" lon="9.9801054"><ele>811.0</ele><time>2026-04-26T08:52:56.936Z</time></trkpt><trkpt lat="44.5504431" lon="9.9799897"><ele>811.0</ele><time>2026-04-26T08:52:57.935Z</time></trkpt><trkpt lat="44.5505184" lon="9.9798767"><ele>811.0</ele><time>2026-04-26T08:52:58.936Z</time></trkpt><trkpt lat="44.5506445" lon="9.9796529"><ele>810.9999999999999</ele><time>2026-04-26T08:53:00.935Z</time></trkpt><trkpt lat="44.5507071" lon="9.9795404"><ele>811.0</ele><time>2026-04-26T08:53:01.935Z</time></trkpt><trkpt lat="44.550772" lon="9.979445"><ele>811.0</ele><time>2026-04-26T08:53:02.936Z</time></trkpt><trkpt lat="44.55084" lon="9.979369"><ele>811.0</ele><time>2026-04-26T08:53:03.936Z</time></trkpt><trkpt lat="44.5509054" lon="9.9792945"><ele>810.9999999999999</ele><time>2026-04-26T08:53:04.935Z</time></trkpt><trkpt lat="44.5509658" lon="9.9792296"><ele>811.0</ele><time>2026-04-26T08:53:05.936Z</time></trkpt><trkpt lat="44.5510226" lon="9.979158"><ele>811.0</ele><time>2026-04-26T08:53:06.936Z</time></trkpt><trkpt lat="44.5510754" lon="9.9790594"><ele>811.0</ele><time>2026-04-26T08:53:07.936Z</time></trkpt><trkpt lat="44.5511288" lon="9.9789466"><ele>811.0</ele><time>2026-04-26T08:53:08.936Z</time></trkpt><trkpt lat="44.5511856" lon="9.9788252"><ele>811.0</ele><time>2026-04-26T08:53:09.936Z</time></trkpt><trkpt lat="44.55125" lon="9.9787075"><ele>811.0</ele><time>2026-04-26T08:53:10.936Z</time></trkpt><trkpt lat="44.5513251" lon="9.9785957"><ele>809.8</ele><time>2026-04-26T08:53:11.936Z</time></trkpt><trkpt lat="44.5514057" lon="9.9784993"><ele>808.5999999999999</ele><time>2026-04-26T08:53:12.936Z</time></trkpt><trkpt lat="44.5514807" lon="9.9784033"><ele>807.4</ele><time>2026-04-26T08:53:13.936Z</time></trkpt><trkpt lat="44.5515399" lon="9.9783097"><ele>806.2</ele><time>2026-04-26T08:53:14.936Z</time></trkpt><trkpt lat="44.5515845" lon="9.9782238"><ele>805.0</ele><time>2026-04-26T08:53:15.936Z</time></trkpt><trkpt lat="44.5516223" lon="9.9781261"><ele>805.0</ele><time>2026-04-26T08:53:16.936Z</time></trkpt><trkpt lat="44.5516668" lon="9.9780248"><ele>805.0</ele><time>2026-04-26T08:53:17.936Z</time></trkpt><trkpt lat="44.5517145" lon="9.977918"><ele>805.0</ele><time>2026-04-26T08:53:18.936Z</time></trkpt><trkpt lat="44.5517685" lon="9.9778129"><ele>805.0</ele><time>2026-04-26T08:53:19.936Z</time></trkpt><trkpt lat="44.5518976" lon="9.9776259"><ele>805.0</ele><time>2026-04-26T08:53:21.936Z</time></trkpt><trkpt lat="44.551979" lon="9.9775385"><ele>805.0</ele><time>2026-04-26T08:53:22.936Z</time></trkpt><trkpt lat="44.5520726" lon="9.9774534"><ele>805.0</ele><time>2026-04-26T08:53:23.936Z</time></trkpt><trkpt lat="44.5521775" lon="9.9773719"><ele>805.0</ele><time>2026-04-26T08:53:24.936Z</time></trkpt><trkpt lat="44.5522865" lon="9.9772953"><ele>802.75</ele><time>2026-04-26T08:53:25.936Z</time></trkpt><trkpt lat="44.5523884" lon="9.9772246"><ele>800.5</ele><time>2026-04-26T08:53:26.936Z</time></trkpt><trkpt lat="44.5524907" lon="9.9771487"><ele>798.25</ele><time>2026-04-26T08:53:27.936Z</time></trkpt><trkpt lat="44.5525946" lon="9.9770812"><ele>796.0</ele><time>2026-04-26T08:53:28.935Z</time></trkpt><trkpt lat="44.5527846" lon="9.9769789"><ele>795.9999999999999</ele><time>2026-04-26T08:53:30.935Z</time></trkpt><trkpt lat="44.5528525" lon="9.976936"><ele>796.0</ele><time>2026-04-26T08:53:31.936Z</time></trkpt><trkpt lat="44.5529011" lon="9.9768794"><ele>796.0</ele><time>2026-04-26T08:53:32.936Z</time></trkpt><trkpt lat="44.5529448" lon="9.976801"><ele>796.0</ele><time>2026-04-26T08:53:33.936Z</time></trkpt><trkpt lat="44.5529752" lon="9.9766894"><ele>795.9999999999999</ele><time>2026-04-26T08:53:34.936Z</time></trkpt><trkpt lat="44.5529881" lon="9.976559"><ele>796.0</ele><time>2026-04-26T08:53:35.936Z</time></trkpt><trkpt lat="44.5529883" lon="9.9764187"><ele>794.0</ele><time>2026-04-26T08:53:36.936Z</time></trkpt><trkpt lat="44.5529867" lon="9.9762794"><ele>792.0</ele><time>2026-04-26T08:53:37.936Z</time></trkpt><trkpt lat="44.5529847" lon="9.9761375"><ele>790.0</ele><time>2026-04-26T08:53:38.935Z</time></trkpt><trkpt lat="44.5529875" lon="9.9759927"><ele>788.0</ele><time>2026-04-26T08:53:39.936Z</time></trkpt><trkpt lat="44.5529984" lon="9.9758508"><ele>786.0</ele><time>2026-04-26T08:53:40.936Z</time></trkpt><trkpt lat="44.5530074" lon="9.9755516"><ele>786.0</ele><time>2026-04-26T08:53:42.936Z</time></trkpt><trkpt lat="44.5529888" lon="9.9754087"><ele>786.0</ele><time>2026-04-26T08:53:43.935Z</time></trkpt><trkpt lat="44.5529633" lon="9.9752611"><ele>786.0</ele><time>2026-04-26T08:53:44.936Z</time></trkpt><trkpt lat="44.5529342" lon="9.9751207"><ele>786.0</ele><time>2026-04-26T08:53:45.936Z</time></trkpt><trkpt lat="44.5529118" lon="9.9749906"><ele>786.0</ele><time>2026-04-26T08:53:46.935Z</time></trkpt><trkpt lat="44.5529104" lon="9.9748706"><ele>787.1666666666666</ele><time>2026-04-26T08:53:47.936Z</time></trkpt><trkpt lat="44.5529333" lon="9.9747629"><ele>788.3333333333333</ele><time>2026-04-26T08:53:48.935Z</time></trkpt><trkpt lat="44.5529733" lon="9.9746727"><ele>789.5</ele><time>2026-04-26T08:53:49.936Z</time></trkpt><trkpt lat="44.5530168" lon="9.9745909"><ele>790.6666666666666</ele><time>2026-04-26T08:53:50.936Z</time></trkpt><trkpt lat="44.5530527" lon="9.9745027"><ele>791.8333333333333</ele><time>2026-04-26T08:53:51.936Z</time></trkpt><trkpt lat="44.5530858" lon="9.9744039"><ele>793.0</ele><time>2026-04-26T08:53:52.936Z</time></trkpt><trkpt lat="44.5531192" lon="9.9742903"><ele>793.4</ele><time>2026-04-26T08:53:53.936Z</time></trkpt><trkpt lat="44.5531569" lon="9.9741752"><ele>793.8</ele><time>2026-04-26T08:53:54.935Z</time></trkpt><trkpt lat="44.5532014" lon="9.9740584"><ele>794.2</ele><time>2026-04-26T08:53:55.936Z</time></trkpt><trkpt lat="44.5532517" lon="9.9739435"><ele>794.6</ele><time>2026-04-26T08:53:56.935Z</time></trkpt><trkpt lat="44.5533042" lon="9.9738456"><ele>795.0</ele><time>2026-04-26T08:53:57.936Z</time></trkpt><trkpt lat="44.5533558" lon="9.973746"><ele>795.0</ele><time>2026-04-26T08:53:58.936Z</time></trkpt><trkpt lat="44.5533969" lon="9.973645"><ele>795.0</ele><time>2026-04-26T08:53:59.936Z</time></trkpt><trkpt lat="44.5534229" lon="9.9735466"><ele>795.0</ele><time>2026-04-26T08:54:00.935Z</time></trkpt><trkpt lat="44.5534382" lon="9.9734081"><ele>795.0</ele><time>2026-04-26T08:54:02.935Z</time></trkpt><trkpt lat="44.5535967" lon="9.9734383"><ele>795.0</ele><time>2026-04-26T08:54:06.936Z</time></trkpt><trkpt lat="44.553665" lon="9.97343"><ele>790.8</ele><time>2026-04-26T08:54:07.935Z</time></trkpt><trkpt lat="44.5537333" lon="9.973375"><ele>786.6</ele><time>2026-04-26T08:54:08.936Z</time></trkpt><trkpt lat="44.5537917" lon="9.973275"><ele>782.4000000000001</ele><time>2026-04-26T08:54:09.936Z</time></trkpt><trkpt lat="44.553835" lon="9.973105"><ele>778.2</ele><time>2026-04-26T08:54:10.936Z</time></trkpt><trkpt lat="44.55389" lon="9.97293"><ele>774.0</ele><time>2026-04-26T08:54:11.936Z</time></trkpt><trkpt lat="44.553965" lon="9.9727667"><ele>773.6</ele><time>2026-04-26T08:54:12.936Z</time></trkpt><trkpt lat="44.5540417" lon="9.972635"><ele>773.2</ele><time>2026-04-26T08:54:13.936Z</time></trkpt><trkpt lat="44.5541233" lon="9.9725417"><ele>772.8000000000001</ele><time>2026-04-26T08:54:14.936Z</time></trkpt><trkpt lat="44.5542133" lon="9.9725133"><ele>772.4000000000001</ele><time>2026-04-26T08:54:15.936Z</time></trkpt><trkpt lat="44.5543033" lon="9.972545"><ele>772.0</ele><time>2026-04-26T08:54:16.936Z</time></trkpt><trkpt lat="44.55439" lon="9.9725783"><ele>772.0</ele><time>2026-04-26T08:54:17.936Z</time></trkpt><trkpt lat="44.55447" lon="9.9725833"><ele>772.0</ele><time>2026-04-26T08:54:18.936Z</time></trkpt><trkpt lat="44.5545417" lon="9.9725717"><ele>772.0</ele><time>2026-04-26T08:54:19.935Z</time></trkpt><trkpt lat="44.5546017" lon="9.9723967"><ele>772.0</ele><time>2026-04-26T08:54:21.936Z</time></trkpt><trkpt lat="44.55458" lon="9.9722533"><ele>772.0</ele><time>2026-04-26T08:54:22.936Z</time></trkpt><trkpt lat="44.5545283" lon="9.9721017"><ele>771.75</ele><time>2026-04-26T08:54:23.936Z</time></trkpt><trkpt lat="44.55443" lon="9.9717867"><ele>771.5</ele><time>2026-04-26T08:54:25.936Z</time></trkpt><trkpt lat="44.55443" lon="9.97163"><ele>771.25</ele><time>2026-04-26T08:54:26.936Z</time></trkpt><trkpt lat="44.5544483" lon="9.9715083"><ele>771.0</ele><time>2026-04-26T08:54:27.936Z</time></trkpt><trkpt lat="44.554465" lon="9.9713867"><ele>769.8333333333334</ele><time>2026-04-26T08:54:28.935Z</time></trkpt><trkpt lat="44.55445" lon="9.9712883"><ele>768.6666666666666</ele><time>2026-04-26T08:54:29.936Z</time></trkpt><trkpt lat="44.5544133" lon="9.9712083"><ele>767.5</ele><time>2026-04-26T08:54:30.936Z</time></trkpt><trkpt lat="44.554355" lon="9.9711517"><ele>766.3333333333333</ele><time>2026-04-26T08:54:31.936Z</time></trkpt><trkpt lat="44.55426" lon="9.9711333"><ele>765.1666666666666</ele><time>2026-04-26T08:54:32.936Z</time></trkpt><trkpt lat="44.5541333" lon="9.9711333"><ele>764.0</ele><time>2026-04-26T08:54:33.936Z</time></trkpt><trkpt lat="44.553995" lon="9.971135"><ele>764.0</ele><time>2026-04-26T08:54:34.936Z</time></trkpt><trkpt lat="44.5538667" lon="9.9711117"><ele>764.0</ele><time>2026-04-26T08:54:35.936Z</time></trkpt><trkpt lat="44.5537517" lon="9.9710533"><ele>764.0</ele><time>2026-04-26T08:54:36.935Z</time></trkpt><trkpt lat="44.5536667" lon="9.9709517"><ele>764.0</ele><time>2026-04-26T08:54:37.936Z</time></trkpt><trkpt lat="44.5535833" lon="9.970825"><ele>763.0</ele><time>2026-04-26T08:54:38.935Z</time></trkpt><trkpt lat="44.5535117" lon="9.97069"><ele>762.0</ele><time>2026-04-26T08:54:39.936Z</time></trkpt><trkpt lat="44.5534683" lon="9.9705733"><ele>761.0</ele><time>2026-04-26T08:54:40.936Z</time></trkpt><trkpt lat="44.553465" lon="9.970455"><ele>760.0</ele><time>2026-04-26T08:54:41.936Z</time></trkpt><trkpt lat="44.5535133" lon="9.97035"><ele>759.0</ele><time>2026-04-26T08:54:42.936Z</time></trkpt><trkpt lat="44.55359" lon="9.9702567"><ele>759.0</ele><time>2026-04-26T08:54:43.936Z</time></trkpt><trkpt lat="44.5536783" lon="9.97019"><ele>759.0</ele><time>2026-04-26T08:54:44.936Z</time></trkpt><trkpt lat="44.5537817" lon="9.970105"><ele>759.0</ele><time>2026-04-26T08:54:45.936Z</time></trkpt><trkpt lat="44.5539833" lon="9.9699017"><ele>757.4000000000001</ele><time>2026-04-26T08:54:47.935Z</time></trkpt><trkpt lat="44.5540833" lon="9.9698217"><ele>755.8</ele><time>2026-04-26T08:54:48.936Z</time></trkpt><trkpt lat="44.5541633" lon="9.9698083"><ele>754.2</ele><time>2026-04-26T08:54:49.936Z</time></trkpt><trkpt lat="44.5542433" lon="9.9698433"><ele>752.5999999999999</ele><time>2026-04-26T08:54:50.936Z</time></trkpt><trkpt lat="44.5543167" lon="9.9699333"><ele>751.0</ele><time>2026-04-26T08:54:51.936Z</time></trkpt><trkpt lat="44.5543783" lon="9.970055"><ele>751.0</ele><time>2026-04-26T08:54:52.936Z</time></trkpt><trkpt lat="44.5544433" lon="9.9701817"><ele>751.0</ele><time>2026-04-26T08:54:53.936Z</time></trkpt><trkpt lat="44.5545333" lon="9.970265"><ele>751.0</ele><time>2026-04-26T08:54:54.935Z</time></trkpt><trkpt lat="44.55464" lon="9.97032"><ele>751.0</ele><time>2026-04-26T08:54:55.936Z</time></trkpt><trkpt lat="44.5547567" lon="9.9703467"><ele>748.25</ele><time>2026-04-26T08:54:56.936Z</time></trkpt><trkpt lat="44.5548783" lon="9.97036"><ele>745.5</ele><time>2026-04-26T08:54:57.936Z</time></trkpt><trkpt lat="44.555005" lon="9.970375"><ele>742.75</ele><time>2026-04-26T08:54:58.936Z</time></trkpt><trkpt lat="44.5551383" lon="9.9704"><ele>740.0</ele><time>2026-04-26T08:54:59.936Z</time></trkpt><trkpt lat="44.5552717" lon="9.9704267"><ele>736.75</ele><time>2026-04-26T08:55:00.935Z</time></trkpt><trkpt lat="44.5553933" lon="9.9704533"><ele>733.5</ele><time>2026-04-26T08:55:01.935Z</time></trkpt><trkpt lat="44.55551" lon="9.9704617"><ele>730.25</ele><time>2026-04-26T08:55:02.936Z</time></trkpt><trkpt lat="44.5556283" lon="9.9704633"><ele>727.0</ele><time>2026-04-26T08:55:03.936Z</time></trkpt><trkpt lat="44.55574" lon="9.9704833"><ele>727.0</ele><time>2026-04-26T08:55:04.936Z</time></trkpt><trkpt lat="44.5558367" lon="9.970555"><ele>727.0</ele><time>2026-04-26T08:55:05.936Z</time></trkpt><trkpt lat="44.5559167" lon="9.9706817"><ele>727.0</ele><time>2026-04-26T08:55:06.936Z</time></trkpt><trkpt lat="44.5560517" lon="9.9709983"><ele>729.0</ele><time>2026-04-26T08:55:08.936Z</time></trkpt><trkpt lat="44.55613" lon="9.9711517"><ele>731.0</ele><time>2026-04-26T08:55:09.936Z</time></trkpt><trkpt lat="44.556225" lon="9.971275"><ele>733.0</ele><time>2026-04-26T08:55:10.936Z</time></trkpt><trkpt lat="44.5563383" lon="9.971365"><ele>735.0</ele><time>2026-04-26T08:55:11.936Z</time></trkpt><trkpt lat="44.5564633" lon="9.97144"><ele>732.0</ele><time>2026-04-26T08:55:12.936Z</time></trkpt><trkpt lat="44.5565983" lon="9.9715117"><ele>729.0</ele><time>2026-04-26T08:55:13.936Z</time></trkpt><trkpt lat="44.55674" lon="9.9715867"><ele>726.0</ele><time>2026-04-26T08:55:14.936Z</time></trkpt><trkpt lat="44.55688" lon="9.9716617"><ele>723.0</ele><time>2026-04-26T08:55:15.936Z</time></trkpt><trkpt lat="44.55702" lon="9.9717217"><ele>719.75</ele><time>2026-04-26T08:55:16.936Z</time></trkpt><trkpt lat="44.5571583" lon="9.9717683"><ele>716.5</ele><time>2026-04-26T08:55:17.936Z</time></trkpt><trkpt lat="44.5573017" lon="9.9717817"><ele>713.25</ele><time>2026-04-26T08:55:18.936Z</time></trkpt><trkpt lat="44.5574367" lon="9.97181"><ele>710.0</ele><time>2026-04-26T08:55:19.936Z</time></trkpt><trkpt lat="44.5575667" lon="9.971855"><ele>710.0</ele><time>2026-04-26T08:55:20.936Z</time></trkpt><trkpt lat="44.5576883" lon="9.9719367"><ele>710.0</ele><time>2026-04-26T08:55:21.936Z</time></trkpt><trkpt lat="44.5577967" lon="9.9720533"><ele>710.0</ele><time>2026-04-26T08:55:22.936Z</time></trkpt><trkpt lat="44.5579167" lon="9.9721783"><ele>710.0</ele><time>2026-04-26T08:55:23.936Z</time></trkpt><trkpt lat="44.5580383" lon="9.972305"><ele>705.6666666666666</ele><time>2026-04-26T08:55:24.936Z</time></trkpt><trkpt lat="44.5581717" lon="9.9724417"><ele>701.3333333333334</ele><time>2026-04-26T08:55:25.936Z</time></trkpt><trkpt lat="44.5583083" lon="9.9725733"><ele>697.0</ele><time>2026-04-26T08:55:26.935Z</time></trkpt><trkpt lat="44.5584367" lon="9.9727017"><ele>697.0</ele><time>2026-04-26T08:55:27.936Z</time></trkpt><trkpt lat="44.5586633" lon="9.97295"><ele>697.0</ele><time>2026-04-26T08:55:29.936Z</time></trkpt><trkpt lat="44.55877" lon="9.9730683"><ele>697.0</ele><time>2026-04-26T08:55:30.936Z</time></trkpt><trkpt lat="44.5588833" lon="9.97316"><ele>694.75</ele><time>2026-04-26T08:55:31.936Z</time></trkpt><trkpt lat="44.55899" lon="9.9732417"><ele>692.5</ele><time>2026-04-26T08:55:32.936Z</time></trkpt><trkpt lat="44.559095" lon="9.973325"><ele>690.25</ele><time>2026-04-26T08:55:33.936Z</time></trkpt><trkpt lat="44.5591967" lon="9.9733933"><ele>688.0</ele><time>2026-04-26T08:55:34.935Z</time></trkpt><trkpt lat="44.559305" lon="9.97346"><ele>687.0</ele><time>2026-04-26T08:55:35.935Z</time></trkpt><trkpt lat="44.55942" lon="9.973525"><ele>686.0</ele><time>2026-04-26T08:55:36.936Z</time></trkpt><trkpt lat="44.5595433" lon="9.9736017"><ele>685.0</ele><time>2026-04-26T08:55:37.936Z</time></trkpt><trkpt lat="44.5596733" lon="9.97369"><ele>684.0</ele><time>2026-04-26T08:55:38.936Z</time></trkpt><trkpt lat="44.5598133" lon="9.9737683"><ele>684.0</ele><time>2026-04-26T08:55:39.936Z</time></trkpt><trkpt lat="44.5599633" lon="9.9738233"><ele>684.0</ele><time>2026-04-26T08:55:40.935Z</time></trkpt><trkpt lat="44.5601267" lon="9.973865"><ele>684.0</ele><time>2026-04-26T08:55:41.936Z</time></trkpt><trkpt lat="44.56029" lon="9.9739083"><ele>683.6666666666666</ele><time>2026-04-26T08:55:42.936Z</time></trkpt><trkpt lat="44.5604467" lon="9.9739617"><ele>683.3333333333333</ele><time>2026-04-26T08:55:43.936Z</time></trkpt><trkpt lat="44.5605967" lon="9.97403"><ele>683.0</ele><time>2026-04-26T08:55:44.936Z</time></trkpt><trkpt lat="44.5607483" lon="9.9741"><ele>683.0</ele><time>2026-04-26T08:55:45.936Z</time></trkpt><trkpt lat="44.5608983" lon="9.9741733"><ele>683.0</ele><time>2026-04-26T08:55:46.936Z</time></trkpt><trkpt lat="44.5610583" lon="9.9742567"><ele>683.0</ele><time>2026-04-26T08:55:47.936Z</time></trkpt><trkpt lat="44.5611967" lon="9.9743433"><ele>682.6666666666666</ele><time>2026-04-26T08:55:48.936Z</time></trkpt><trkpt lat="44.5613233" lon="9.9744233"><ele>682.3333333333334</ele><time>2026-04-26T08:55:49.936Z</time></trkpt><trkpt lat="44.5614433" lon="9.9744817"><ele>682.0</ele><time>2026-04-26T08:55:50.936Z</time></trkpt><trkpt lat="44.5616917" lon="9.97452"><ele>682.0</ele><time>2026-04-26T08:55:52.936Z</time></trkpt><trkpt lat="44.5618183" lon="9.9745067"><ele>682.0</ele><time>2026-04-26T08:55:53.936Z</time></trkpt><trkpt lat="44.5619367" lon="9.9744867"><ele>682.0</ele><time>2026-04-26T08:55:54.936Z</time></trkpt><trkpt lat="44.5620467" lon="9.974475"><ele>682.0</ele><time>2026-04-26T08:55:55.935Z</time></trkpt><trkpt lat="44.562155" lon="9.9744817"><ele>682.4000000000001</ele><time>2026-04-26T08:55:56.936Z</time></trkpt><trkpt lat="44.56226" lon="9.9744967"><ele>682.8000000000001</ele><time>2026-04-26T08:55:57.936Z</time></trkpt><trkpt lat="44.5623683" lon="9.974515"><ele>683.2</ele><time>2026-04-26T08:55:58.936Z</time></trkpt><trkpt lat="44.5624833" lon="9.9745417"><ele>683.6</ele><time>2026-04-26T08:55:59.936Z</time></trkpt><trkpt lat="44.5625983" lon="9.974575"><ele>684.0</ele><time>2026-04-26T08:56:00.936Z</time></trkpt><trkpt lat="44.562715" lon="9.97461"><ele>684.0</ele><time>2026-04-26T08:56:01.935Z</time></trkpt><trkpt lat="44.5628283" lon="9.97463"><ele>684.0</ele><time>2026-04-26T08:56:02.936Z</time></trkpt><trkpt lat="44.5629467" lon="9.9746317"><ele>684.0</ele><time>2026-04-26T08:56:03.936Z</time></trkpt><trkpt lat="44.5630667" lon="9.9746083"><ele>684.0</ele><time>2026-04-26T08:56:04.936Z</time></trkpt><trkpt lat="44.5631767" lon="9.974545"><ele>683.0</ele><time>2026-04-26T08:56:05.936Z</time></trkpt><trkpt lat="44.5632867" lon="9.9744667"><ele>682.0</ele><time>2026-04-26T08:56:06.935Z</time></trkpt><trkpt lat="44.5633917" lon="9.9743733"><ele>681.0</ele><time>2026-04-26T08:56:07.936Z</time></trkpt><trkpt lat="44.5635" lon="9.9742533"><ele>680.0</ele><time>2026-04-26T08:56:08.935Z</time></trkpt><trkpt lat="44.5635983" lon="9.9741433"><ele>682.3333333333333</ele><time>2026-04-26T08:56:09.936Z</time></trkpt><trkpt lat="44.5637017" lon="9.9740317"><ele>684.6666666666666</ele><time>2026-04-26T08:56:10.936Z</time></trkpt><trkpt lat="44.5638083" lon="9.973925"><ele>687.0</ele><time>2026-04-26T08:56:11.936Z</time></trkpt><trkpt lat="44.56403" lon="9.9737567"><ele>687.0</ele><time>2026-04-26T08:56:13.935Z</time></trkpt><trkpt lat="44.5641317" lon="9.9736933"><ele>687.0</ele><time>2026-04-26T08:56:14.935Z</time></trkpt><trkpt lat="44.5642233" lon="9.9736317"><ele>687.0</ele><time>2026-04-26T08:56:15.936Z</time></trkpt><trkpt lat="44.5643033" lon="9.9735467"><ele>687.0</ele><time>2026-04-26T08:56:16.936Z</time></trkpt><trkpt lat="44.5643717" lon="9.973435"><ele>687.0</ele><time>2026-04-26T08:56:17.935Z</time></trkpt><trkpt lat="44.5644283" lon="9.97331"><ele>686.4000000000001</ele><time>2026-04-26T08:56:18.935Z</time></trkpt><trkpt lat="44.564475" lon="9.9731967"><ele>685.8000000000001</ele><time>2026-04-26T08:56:19.936Z</time></trkpt><trkpt lat="44.564525" lon="9.9730783"><ele>685.2</ele><time>2026-04-26T08:56:20.936Z</time></trkpt><trkpt lat="44.5645967" lon="9.9729633"><ele>684.6</ele><time>2026-04-26T08:56:21.936Z</time></trkpt><trkpt lat="44.5646783" lon="9.972855"><ele>684.0</ele><time>2026-04-26T08:56:22.936Z</time></trkpt><trkpt lat="44.564765" lon="9.9727483"><ele>684.75</ele><time>2026-04-26T08:56:23.936Z</time></trkpt><trkpt lat="44.5648617" lon="9.97266"><ele>685.5</ele><time>2026-04-26T08:56:24.936Z</time></trkpt><trkpt lat="44.5649617" lon="9.9725917"><ele>686.25</ele><time>2026-04-26T08:56:25.936Z</time></trkpt><trkpt lat="44.5650633" lon="9.9725217"><ele>687.0</ele><time>2026-04-26T08:56:26.936Z</time></trkpt><trkpt lat="44.5651633" lon="9.9724417"><ele>687.0</ele><time>2026-04-26T08:56:27.936Z</time></trkpt><trkpt lat="44.56527" lon="9.9723517"><ele>687.0</ele><time>2026-04-26T08:56:28.936Z</time></trkpt><trkpt lat="44.5653733" lon="9.97228"><ele>687.0</ele><time>2026-04-26T08:56:29.936Z</time></trkpt><trkpt lat="44.56547" lon="9.9722417"><ele>687.0</ele><time>2026-04-26T08:56:30.935Z</time></trkpt><trkpt lat="44.5655617" lon="9.9722483"><ele>687.0</ele><time>2026-04-26T08:56:31.936Z</time></trkpt><trkpt lat="44.5656467" lon="9.9722767"><ele>687.25</ele><time>2026-04-26T08:56:32.936Z</time></trkpt><trkpt lat="44.5658" lon="9.972465"><ele>687.5</ele><time>2026-04-26T08:56:34.936Z</time></trkpt><trkpt lat="44.5658733" lon="9.9725883"><ele>687.75</ele><time>2026-04-26T08:56:35.936Z</time></trkpt><trkpt lat="44.5659417" lon="9.9727183"><ele>688.0</ele><time>2026-04-26T08:56:36.935Z</time></trkpt><trkpt lat="44.5660167" lon="9.9728467"><ele>689.0</ele><time>2026-04-26T08:56:37.936Z</time></trkpt><trkpt lat="44.5660933" lon="9.972975"><ele>690.0</ele><time>2026-04-26T08:56:38.936Z</time></trkpt><trkpt lat="44.5661867" lon="9.97309"><ele>691.0</ele><time>2026-04-26T08:56:39.936Z</time></trkpt><trkpt lat="44.56628" lon="9.973185"><ele>692.0</ele><time>2026-04-26T08:56:40.935Z</time></trkpt><trkpt lat="44.56636" lon="9.97327"><ele>692.0</ele><time>2026-04-26T08:56:41.936Z</time></trkpt><trkpt lat="44.56643" lon="9.97333"><ele>692.0</ele><time>2026-04-26T08:56:42.936Z</time></trkpt><trkpt lat="44.5664933" lon="9.9733867"><ele>692.0</ele><time>2026-04-26T08:56:43.935Z</time></trkpt><trkpt lat="44.5665583" lon="9.9734117"><ele>692.0</ele><time>2026-04-26T08:56:44.935Z</time></trkpt><trkpt lat="44.5666283" lon="9.9734183"><ele>692.0</ele><time>2026-04-26T08:56:45.935Z</time></trkpt><trkpt lat="44.5667183" lon="9.9734233"><ele>692.0</ele><time>2026-04-26T08:56:46.935Z</time></trkpt><trkpt lat="44.5668267" lon="9.973435"><ele>691.5</ele><time>2026-04-26T08:56:47.935Z</time></trkpt><trkpt lat="44.5669533" lon="9.973455"><ele>691.0</ele><time>2026-04-26T08:56:48.935Z</time></trkpt><trkpt lat="44.5670917" lon="9.9734817"><ele>690.5</ele><time>2026-04-26T08:56:49.935Z</time></trkpt><trkpt lat="44.5672217" lon="9.973515"><ele>690.0</ele><time>2026-04-26T08:56:50.935Z</time></trkpt><trkpt lat="44.5673417" lon="9.97354"><ele>693.5</ele><time>2026-04-26T08:56:51.934Z</time></trkpt><trkpt lat="44.5674483" lon="9.9735733"><ele>697.0</ele><time>2026-04-26T08:56:52.935Z</time></trkpt><trkpt lat="44.5675233" lon="9.97362"><ele>700.5</ele><time>2026-04-26T08:56:53.935Z</time></trkpt><trkpt lat="44.5676067" lon="9.9738367"><ele>704.0</ele><time>2026-04-26T08:56:57.935Z</time></trkpt><trkpt lat="44.56764" lon="9.9739583"><ele>704.0</ele><time>2026-04-26T08:56:59.935Z</time></trkpt><trkpt lat="44.5677" lon="9.9741183"><ele>704.0</ele><time>2026-04-26T08:57:01.935Z</time></trkpt><trkpt lat="44.567735" lon="9.9742117"><ele>704.0</ele><time>2026-04-26T08:57:02.935Z</time></trkpt><trkpt lat="44.5677767" lon="9.9743717"><ele>704.0</ele><time>2026-04-26T08:57:04.935Z</time></trkpt><trkpt lat="44.5678017" lon="9.9744767"><ele>704.0</ele><time>2026-04-26T08:57:06.935Z</time></trkpt><trkpt lat="44.5678217" lon="9.9743883"><ele>704.0</ele><time>2026-04-26T08:57:10.935Z</time></trkpt><trkpt lat="44.5677483" lon="9.974215"><ele>704.0</ele><time>2026-04-26T08:57:12.934Z</time></trkpt><trkpt lat="44.5676967" lon="9.9740983"><ele>704.0</ele><time>2026-04-26T08:57:13.935Z</time></trkpt><trkpt lat="44.5676433" lon="9.9739733"><ele>704.0</ele><time>2026-04-26T08:57:14.935Z</time></trkpt><trkpt lat="44.5675583" lon="9.973735"><ele>704.0</ele><time>2026-04-26T08:57:16.935Z</time></trkpt><trkpt lat="44.5675267" lon="9.9736433"><ele>704.0</ele><time>2026-04-26T08:57:17.935Z</time></trkpt><trkpt lat="44.5674367" lon="9.97354"><ele>704.0</ele><time>2026-04-26T08:57:19.934Z</time></trkpt><trkpt lat="44.5673033" lon="9.97352"><ele>704.0</ele><time>2026-04-26T08:57:21.934Z</time></trkpt><trkpt lat="44.56722" lon="9.973505"><ele>704.0</ele><time>2026-04-26T08:57:22.934Z</time></trkpt><trkpt lat="44.5671233" lon="9.9734883"><ele>701.6666666666666</ele><time>2026-04-26T08:57:23.935Z</time></trkpt><trkpt lat="44.5670267" lon="9.973475"><ele>699.3333333333333</ele><time>2026-04-26T08:57:24.935Z</time></trkpt><trkpt lat="44.56693" lon="9.9734533"><ele>697.0</ele><time>2026-04-26T08:57:25.934Z</time></trkpt><trkpt lat="44.5668317" lon="9.9734317"><ele>694.6666666666666</ele><time>2026-04-26T08:57:26.935Z</time></trkpt><trkpt lat="44.5667467" lon="9.973415"><ele>692.3333333333334</ele><time>2026-04-26T08:57:27.935Z</time></trkpt><trkpt lat="44.5666833" lon="9.9734067"><ele>690.0</ele><time>2026-04-26T08:57:28.935Z</time></trkpt><trkpt lat="44.566605" lon="9.9733967"><ele>690.0</ele><time>2026-04-26T08:57:30.935Z</time></trkpt><trkpt lat="44.56652" lon="9.9733633"><ele>690.0</ele><time>2026-04-26T08:57:33.935Z</time></trkpt><trkpt lat="44.5664767" lon="9.9734417"><ele>690.0</ele><time>2026-04-26T08:57:37.935Z</time></trkpt><trkpt lat="44.5665583" lon="9.9733083"><ele>690.0</ele><time>2026-04-26T08:58:03.935Z</time></trkpt><trkpt lat="44.566635" lon="9.9730983"><ele>690.4</ele><time>2026-04-26T08:58:06.935Z</time></trkpt><trkpt lat="44.566675" lon="9.9729983"><ele>690.8</ele><time>2026-04-26T08:58:07.935Z</time></trkpt><trkpt lat="44.566705" lon="9.97287"><ele>691.2</ele><time>2026-04-26T08:58:08.935Z</time></trkpt><trkpt lat="44.5667333" lon="9.97273"><ele>691.6</ele><time>2026-04-26T08:58:09.935Z</time></trkpt><trkpt lat="44.5667717" lon="9.9726083"><ele>692.0</ele><time>2026-04-26T08:58:10.935Z</time></trkpt><trkpt lat="44.566825" lon="9.9725183"><ele>692.8</ele><time>2026-04-26T08:58:11.935Z</time></trkpt><trkpt lat="44.5668983" lon="9.9724383"><ele>693.6</ele><time>2026-04-26T08:58:12.934Z</time></trkpt><trkpt lat="44.5669783" lon="9.9723817"><ele>694.4</ele><time>2026-04-26T08:58:13.934Z</time></trkpt><trkpt lat="44.5670717" lon="9.9723267"><ele>695.1999999999999</ele><time>2026-04-26T08:58:14.935Z</time></trkpt><trkpt lat="44.567165" lon="9.9722617"><ele>696.0</ele><time>2026-04-26T08:58:15.935Z</time></trkpt><trkpt lat="44.567245" lon="9.9722"><ele>696.0</ele><time>2026-04-26T08:58:16.935Z</time></trkpt><trkpt lat="44.5673133" lon="9.972135"><ele>696.0</ele><time>2026-04-26T08:58:17.935Z</time></trkpt><trkpt lat="44.5673667" lon="9.97203"><ele>696.0</ele><time>2026-04-26T08:58:18.935Z</time></trkpt><trkpt lat="44.5674283" lon="9.9719217"><ele>696.0</ele><time>2026-04-26T08:58:19.935Z</time></trkpt><trkpt lat="44.5674967" lon="9.9718283"><ele>696.0</ele><time>2026-04-26T08:58:20.935Z</time></trkpt><trkpt lat="44.5675583" lon="9.9717367"><ele>695.5999999999999</ele><time>2026-04-26T08:58:21.935Z</time></trkpt><trkpt lat="44.5676" lon="9.9716383"><ele>695.2</ele><time>2026-04-26T08:58:22.935Z</time></trkpt><trkpt lat="44.5676533" lon="9.9715267"><ele>694.8</ele><time>2026-04-26T08:58:23.935Z</time></trkpt><trkpt lat="44.567715" lon="9.9714333"><ele>694.4000000000001</ele><time>2026-04-26T08:58:24.935Z</time></trkpt><trkpt lat="44.56784" lon="9.971315"><ele>694.0</ele><time>2026-04-26T08:58:26.935Z</time></trkpt><trkpt lat="44.5679033" lon="9.97129"><ele>694.0</ele><time>2026-04-26T08:58:27.935Z</time></trkpt><trkpt lat="44.5679667" lon="9.97129"><ele>694.0</ele><time>2026-04-26T08:58:28.934Z</time></trkpt><trkpt lat="44.5680417" lon="9.9713217"><ele>694.0</ele><time>2026-04-26T08:58:29.934Z</time></trkpt><trkpt lat="44.5681317" lon="9.9713817"><ele>694.0</ele><time>2026-04-26T08:58:30.935Z</time></trkpt><trkpt lat="44.5682467" lon="9.9714567"><ele>694.0</ele><time>2026-04-26T08:58:31.935Z</time></trkpt><trkpt lat="44.5683683" lon="9.9715083"><ele>694.0</ele><time>2026-04-26T08:58:32.935Z</time></trkpt><trkpt lat="44.5684733" lon="9.971545"><ele>694.0</ele><time>2026-04-26T08:58:33.935Z</time></trkpt><trkpt lat="44.5685433" lon="9.9715983"><ele>694.0</ele><time>2026-04-26T08:58:34.934Z</time></trkpt><trkpt lat="44.5685983" lon="9.971665"><ele>694.0</ele><time>2026-04-26T08:58:35.935Z</time></trkpt><trkpt lat="44.5686467" lon="9.9717483"><ele>694.0</ele><time>2026-04-26T08:58:36.935Z</time></trkpt><trkpt lat="44.5686967" lon="9.9718283"><ele>694.0</ele><time>2026-04-26T08:58:37.934Z</time></trkpt><trkpt lat="44.5687567" lon="9.9718967"><ele>694.8000000000001</ele><time>2026-04-26T08:58:38.935Z</time></trkpt><trkpt lat="44.5688317" lon="9.97195"><ele>695.6</ele><time>2026-04-26T08:58:39.935Z</time></trkpt><trkpt lat="44.5689183" lon="9.9719833"><ele>696.4</ele><time>2026-04-26T08:58:40.935Z</time></trkpt><trkpt lat="44.5690167" lon="9.9719983"><ele>697.2</ele><time>2026-04-26T08:58:41.935Z</time></trkpt><trkpt lat="44.5691283" lon="9.9719983"><ele>698.0</ele><time>2026-04-26T08:58:42.935Z</time></trkpt><trkpt lat="44.5692467" lon="9.97199"><ele>698.0</ele><time>2026-04-26T08:58:43.935Z</time></trkpt><trkpt lat="44.56935" lon="9.971985"><ele>698.0</ele><time>2026-04-26T08:58:44.935Z</time></trkpt><trkpt lat="44.569475" lon="9.971985"><ele>698.0</ele><time>2026-04-26T08:58:45.934Z</time></trkpt><trkpt lat="44.5695883" lon="9.971995"><ele>698.0</ele><time>2026-04-26T08:58:46.935Z</time></trkpt><trkpt lat="44.5698367" lon="9.9719517"><ele>696.4</ele><time>2026-04-26T08:58:49.934Z</time></trkpt><trkpt lat="44.5699217" lon="9.9719033"><ele>694.8</ele><time>2026-04-26T08:58:50.934Z</time></trkpt><trkpt lat="44.5700217" lon="9.9718583"><ele>693.2</ele><time>2026-04-26T08:58:51.935Z</time></trkpt><trkpt lat="44.5701183" lon="9.9718233"><ele>691.6</ele><time>2026-04-26T08:58:52.934Z</time></trkpt><trkpt lat="44.5702183" lon="9.9718"><ele>690.0</ele><time>2026-04-26T08:58:53.935Z</time></trkpt><trkpt lat="44.5703033" lon="9.971755"><ele>686.6</ele><time>2026-04-26T08:58:54.935Z</time></trkpt><trkpt lat="44.5703883" lon="9.9716883"><ele>683.2</ele><time>2026-04-26T08:58:55.934Z</time></trkpt><trkpt lat="44.5704667" lon="9.971595"><ele>679.8</ele><time>2026-04-26T08:58:56.935Z</time></trkpt><trkpt lat="44.5705433" lon="9.9714917"><ele>676.4</ele><time>2026-04-26T08:58:57.934Z</time></trkpt><trkpt lat="44.5706233" lon="9.971395"><ele>673.0</ele><time>2026-04-26T08:58:58.935Z</time></trkpt><trkpt lat="44.5707017" lon="9.9713167"><ele>673.0</ele><time>2026-04-26T08:58:59.934Z</time></trkpt><trkpt lat="44.5707767" lon="9.9712517"><ele>673.0</ele><time>2026-04-26T08:59:00.935Z</time></trkpt><trkpt lat="44.5708417" lon="9.9712133"><ele>673.0</ele><time>2026-04-26T08:59:01.935Z</time></trkpt><trkpt lat="44.5709067" lon="9.9711883"><ele>673.0</ele><time>2026-04-26T08:59:02.934Z</time></trkpt><trkpt lat="44.5710067" lon="9.9711167"><ele>673.0</ele><time>2026-04-26T08:59:04.935Z</time></trkpt><trkpt lat="44.5710583" lon="9.9710033"><ele>673.0</ele><time>2026-04-26T08:59:06.934Z</time></trkpt><trkpt lat="44.571085" lon="9.9708983"><ele>673.0</ele><time>2026-04-26T08:59:08.935Z</time></trkpt><trkpt lat="44.5710633" lon="9.9709333"><ele>673.0</ele><time>2026-04-26T08:59:20.935Z</time></trkpt><trkpt lat="44.5710367" lon="9.9710233"><ele>673.0</ele><time>2026-04-26T08:59:21.935Z</time></trkpt><trkpt lat="44.570985" lon="9.9711167"><ele>673.0</ele><time>2026-04-26T08:59:22.935Z</time></trkpt><trkpt lat="44.5709167" lon="9.9711883"><ele>673.0</ele><time>2026-04-26T08:59:23.935Z</time></trkpt><trkpt lat="44.57084" lon="9.9712317"><ele>673.0</ele><time>2026-04-26T08:59:24.935Z</time></trkpt><trkpt lat="44.5707667" lon="9.971265"><ele>673.0</ele><time>2026-04-26T08:59:25.935Z</time></trkpt><trkpt lat="44.5706933" lon="9.9713217"><ele>673.0</ele><time>2026-04-26T08:59:26.935Z</time></trkpt><trkpt lat="44.5706133" lon="9.9714083"><ele>673.0</ele><time>2026-04-26T08:59:27.934Z</time></trkpt><trkpt lat="44.5705283" lon="9.9715133"><ele>673.0</ele><time>2026-04-26T08:59:28.935Z</time></trkpt><trkpt lat="44.5704417" lon="9.9716233"><ele>673.0</ele><time>2026-04-26T08:59:29.935Z</time></trkpt><trkpt lat="44.570275" lon="9.971785"><ele>676.4</ele><time>2026-04-26T08:59:31.935Z</time></trkpt><trkpt lat="44.5701817" lon="9.9718267"><ele>679.8</ele><time>2026-04-26T08:59:32.935Z</time></trkpt><trkpt lat="44.57009" lon="9.9718517"><ele>683.2</ele><time>2026-04-26T08:59:33.935Z</time></trkpt><trkpt lat="44.57" lon="9.9718833"><ele>686.6</ele><time>2026-04-26T08:59:34.935Z</time></trkpt><trkpt lat="44.56992" lon="9.9719333"><ele>690.0</ele><time>2026-04-26T08:59:35.935Z</time></trkpt><trkpt lat="44.569835" lon="9.97198"><ele>690.0</ele><time>2026-04-26T08:59:36.935Z</time></trkpt><trkpt lat="44.5697667" lon="9.9720133"><ele>690.0</ele><time>2026-04-26T08:59:37.935Z</time></trkpt><trkpt lat="44.569705" lon="9.972035"><ele>690.0</ele><time>2026-04-26T08:59:38.935Z</time></trkpt><trkpt lat="44.569615" lon="9.972035"><ele>690.0</ele><time>2026-04-26T08:59:40.934Z</time></trkpt><trkpt lat="44.5695367" lon="9.972"><ele>690.0</ele><time>2026-04-26T08:59:42.935Z</time></trkpt><trkpt lat="44.5694717" lon="9.9719883"><ele>690.0</ele><time>2026-04-26T08:59:45.935Z</time></trkpt><trkpt lat="44.569585" lon="9.9720083"><ele>690.0</ele><time>2026-04-26T08:59:58.935Z</time></trkpt><trkpt lat="44.5697633" lon="9.9720083"><ele>690.0</ele><time>2026-04-26T09:00:00.935Z</time></trkpt><trkpt lat="44.56985" lon="9.972025"><ele>690.0</ele><time>2026-04-26T09:00:01.934Z</time></trkpt><trkpt lat="44.5699283" lon="9.97204"><ele>690.0</ele><time>2026-04-26T09:00:02.935Z</time></trkpt><trkpt lat="44.5699917" lon="9.9720617"><ele>690.0</ele><time>2026-04-26T09:00:03.934Z</time></trkpt><trkpt lat="44.5700767" lon="9.972155"><ele>690.0</ele><time>2026-04-26T09:00:05.935Z</time></trkpt><trkpt lat="44.5701383" lon="9.9722817"><ele>690.0</ele><time>2026-04-26T09:00:07.935Z</time></trkpt><trkpt lat="44.5702" lon="9.9724"><ele>690.0</ele><time>2026-04-26T09:00:09.935Z</time></trkpt><trkpt lat="44.5702817" lon="9.97246"><ele>690.0</ele><time>2026-04-26T09:00:11.935Z</time></trkpt><trkpt lat="44.5704033" lon="9.9724967"><ele>690.0</ele><time>2026-04-26T09:00:13.935Z</time></trkpt><trkpt lat="44.5705117" lon="9.9725567"><ele>692.5</ele><time>2026-04-26T09:00:15.935Z</time></trkpt><trkpt lat="44.5705683" lon="9.9725967"><ele>695.0</ele><time>2026-04-26T09:00:16.934Z</time></trkpt><trkpt lat="44.5706317" lon="9.9726333"><ele>697.5</ele><time>2026-04-26T09:00:17.934Z</time></trkpt><trkpt lat="44.5706917" lon="9.9726867"><ele>700.0</ele><time>2026-04-26T09:00:18.935Z</time></trkpt><trkpt lat="44.5707467" lon="9.9727517"><ele>702.5</ele><time>2026-04-26T09:00:19.935Z</time></trkpt><trkpt lat="44.57086" lon="9.9729117"><ele>705.0</ele><time>2026-04-26T09:00:21.935Z</time></trkpt><trkpt lat="44.5709217" lon="9.97298"><ele>705.0</ele><time>2026-04-26T09:00:22.935Z</time></trkpt><trkpt lat="44.570985" lon="9.97304"><ele>705.0</ele><time>2026-04-26T09:00:23.935Z</time></trkpt><trkpt lat="44.5710433" lon="9.97309"><ele>705.0</ele><time>2026-04-26T09:00:24.935Z</time></trkpt><trkpt lat="44.5711567" lon="9.9731617"><ele>705.0</ele><time>2026-04-26T09:00:26.934Z</time></trkpt><trkpt lat="44.5712583" lon="9.973255"><ele>705.0</ele><time>2026-04-26T09:00:28.935Z</time></trkpt><trkpt lat="44.5713267" lon="9.9733833"><ele>705.8</ele><time>2026-04-26T09:00:30.935Z</time></trkpt><trkpt lat="44.5713967" lon="9.97355"><ele>706.6</ele><time>2026-04-26T09:00:32.934Z</time></trkpt><trkpt lat="44.5714467" lon="9.9736467"><ele>707.4000000000001</ele><time>2026-04-26T09:00:33.934Z</time></trkpt><trkpt lat="44.5714933" lon="9.9737283"><ele>708.2</ele><time>2026-04-26T09:00:34.935Z</time></trkpt><trkpt lat="44.5715383" lon="9.9738133"><ele>709.0</ele><time>2026-04-26T09:00:35.935Z</time></trkpt><trkpt lat="44.5715917" lon="9.9738917"><ele>709.0</ele><time>2026-04-26T09:00:36.935Z</time></trkpt><trkpt lat="44.571645" lon="9.97397"><ele>709.0</ele><time>2026-04-26T09:00:37.935Z</time></trkpt><trkpt lat="44.5717033" lon="9.9740333"><ele>709.0</ele><time>2026-04-26T09:00:38.935Z</time></trkpt><trkpt lat="44.5717567" lon="9.9740833"><ele>709.0</ele><time>2026-04-26T09:00:39.935Z</time></trkpt><trkpt lat="44.5718467" lon="9.9741817"><ele>709.0</ele><time>2026-04-26T09:00:41.935Z</time></trkpt><trkpt lat="44.5719283" lon="9.9744283"><ele>708.4000000000001</ele><time>2026-04-26T09:00:45.935Z</time></trkpt><trkpt lat="44.571995" lon="9.9745433"><ele>707.8</ele><time>2026-04-26T09:00:47.935Z</time></trkpt><trkpt lat="44.572085" lon="9.9746717"><ele>707.2</ele><time>2026-04-26T09:00:49.934Z</time></trkpt><trkpt lat="44.5721183" lon="9.97475"><ele>706.5999999999999</ele><time>2026-04-26T09:00:50.934Z</time></trkpt><trkpt lat="44.5721817" lon="9.9748883"><ele>706.0</ele><time>2026-04-26T09:00:52.934Z</time></trkpt><trkpt lat="44.5722483" lon="9.9750233"><ele>705.1999999999999</ele><time>2026-04-26T09:00:54.935Z</time></trkpt><trkpt lat="44.57228" lon="9.9751633"><ele>704.4</ele><time>2026-04-26T09:00:56.935Z</time></trkpt><trkpt lat="44.5723067" lon="9.97525"><ele>703.6</ele><time>2026-04-26T09:00:58.935Z</time></trkpt><trkpt lat="44.5723667" lon="9.9753483"><ele>702.8</ele><time>2026-04-26T09:01:29.934Z</time></trkpt><trkpt lat="44.5724533" lon="9.97556"><ele>702.0</ele><time>2026-04-26T09:01:33.935Z</time></trkpt><trkpt lat="44.5724867" lon="9.975645"><ele>702.0</ele><time>2026-04-26T09:01:35.934Z</time></trkpt><trkpt lat="44.5725283" lon="9.97573"><ele>702.0</ele><time>2026-04-26T09:01:37.934Z</time></trkpt><trkpt lat="44.57258" lon="9.9757867"><ele>702.0</ele><time>2026-04-26T09:01:39.934Z</time></trkpt><trkpt lat="44.5726567" lon="9.97586"><ele>702.0</ele><time>2026-04-26T09:01:42.934Z</time></trkpt><trkpt lat="44.5727267" lon="9.975915"><ele>702.0</ele><time>2026-04-26T09:01:45.935Z</time></trkpt><trkpt lat="44.57281" lon="9.97598"><ele>702.0</ele><time>2026-04-26T09:01:48.935Z</time></trkpt><trkpt lat="44.5729217" lon="9.9760367"><ele>697.75</ele><time>2026-04-26T09:01:50.935Z</time></trkpt><trkpt lat="44.5730917" lon="9.9761383"><ele>693.5</ele><time>2026-04-26T09:01:53.934Z</time></trkpt><trkpt lat="44.5731883" lon="9.9761467"><ele>689.25</ele><time>2026-04-26T09:01:55.935Z</time></trkpt><trkpt lat="44.5732667" lon="9.9760933"><ele>685.0</ele><time>2026-04-26T09:01:57.934Z</time></trkpt><trkpt lat="44.5733517" lon="9.976015"><ele>685.0</ele><time>2026-04-26T09:01:59.934Z</time></trkpt><trkpt lat="44.5734483" lon="9.975965"><ele>685.0</ele><time>2026-04-26T09:02:01.935Z</time></trkpt><trkpt lat="44.5735817" lon="9.9759683"><ele>685.0</ele><time>2026-04-26T09:02:03.935Z</time></trkpt><trkpt lat="44.5736567" lon="9.9759933"><ele>685.0</ele><time>2026-04-26T09:02:04.934Z</time></trkpt><trkpt lat="44.5737317" lon="9.9760317"><ele>685.0</ele><time>2026-04-26T09:02:05.935Z</time></trkpt><trkpt lat="44.573805" lon="9.976065"><ele>683.1666666666667</ele><time>2026-04-26T09:02:06.934Z</time></trkpt><trkpt lat="44.5738783" lon="9.9760933"><ele>681.3333333333334</ele><time>2026-04-26T09:02:07.934Z</time></trkpt><trkpt lat="44.573955" lon="9.9761067"><ele>679.5</ele><time>2026-04-26T09:02:08.935Z</time></trkpt><trkpt lat="44.5740433" lon="9.9761133"><ele>677.6666666666666</ele><time>2026-04-26T09:02:09.935Z</time></trkpt><trkpt lat="44.5741317" lon="9.9761067"><ele>675.8333333333333</ele><time>2026-04-26T09:02:10.935Z</time></trkpt><trkpt lat="44.57421" lon="9.97611"><ele>674.0</ele><time>2026-04-26T09:02:11.935Z</time></trkpt><trkpt lat="44.5744083" lon="9.9761033"><ele>674.0</ele><time>2026-04-26T09:02:14.935Z</time></trkpt><trkpt lat="44.5744733" lon="9.97608"><ele>674.0</ele><time>2026-04-26T09:02:15.934Z</time></trkpt><trkpt lat="44.5745833" lon="9.9760467"><ele>674.0</ele><time>2026-04-26T09:02:17.935Z</time></trkpt><trkpt lat="44.5746767" lon="9.97602"><ele>674.0</ele><time>2026-04-26T09:02:19.935Z</time></trkpt><trkpt lat="44.5747767" lon="9.9759517"><ele>674.0</ele><time>2026-04-26T09:02:25.935Z</time></trkpt><trkpt lat="44.5748733" lon="9.975855"><ele>673.0</ele><time>2026-04-26T09:02:27.935Z</time></trkpt><trkpt lat="44.5749667" lon="9.9757583"><ele>672.0</ele><time>2026-04-26T09:02:29.935Z</time></trkpt><trkpt lat="44.5750217" lon="9.9757017"><ele>671.0</ele><time>2026-04-26T09:02:30.935Z</time></trkpt><trkpt lat="44.575075" lon="9.9756483"><ele>670.0</ele><time>2026-04-26T09:02:31.935Z</time></trkpt><trkpt lat="44.575135" lon="9.9756"><ele>669.0</ele><time>2026-04-26T09:02:32.934Z</time></trkpt><trkpt lat="44.57528" lon="9.975515"><ele>669.0</ele><time>2026-04-26T09:02:34.935Z</time></trkpt><trkpt lat="44.5753517" lon="9.9754817"><ele>669.0</ele><time>2026-04-26T09:02:35.935Z</time></trkpt><trkpt lat="44.5754217" lon="9.9754383"><ele>669.0</ele><time>2026-04-26T09:02:36.935Z</time></trkpt><trkpt lat="44.5754883" lon="9.975395"><ele>669.0</ele><time>2026-04-26T09:02:37.935Z</time></trkpt><trkpt lat="44.575555" lon="9.9753433"><ele>669.0</ele><time>2026-04-26T09:02:38.935Z</time></trkpt><trkpt lat="44.5756233" lon="9.9752933"><ele>669.0</ele><time>2026-04-26T09:02:39.935Z</time></trkpt><trkpt lat="44.5757033" lon="9.9752383"><ele>667.5</ele><time>2026-04-26T09:02:40.935Z</time></trkpt><trkpt lat="44.5757833" lon="9.97519"><ele>666.0</ele><time>2026-04-26T09:02:41.935Z</time></trkpt><trkpt lat="44.5758583" lon="9.9751517"><ele>664.5</ele><time>2026-04-26T09:02:42.935Z</time></trkpt><trkpt lat="44.57592" lon="9.9751183"><ele>663.0</ele><time>2026-04-26T09:02:43.935Z</time></trkpt><trkpt lat="44.5760233" lon="9.9750633"><ele>661.5</ele><time>2026-04-26T09:02:45.935Z</time></trkpt><trkpt lat="44.576105" lon="9.9750283"><ele>660.0</ele><time>2026-04-26T09:02:47.935Z</time></trkpt><trkpt lat="44.576165" lon="9.97498"><ele>659.4</ele><time>2026-04-26T09:02:49.935Z</time></trkpt><trkpt lat="44.5762533" lon="9.97491"><ele>658.8</ele><time>2026-04-26T09:02:51.935Z</time></trkpt><trkpt lat="44.5763083" lon="9.974865"><ele>658.2</ele><time>2026-04-26T09:02:52.935Z</time></trkpt><trkpt lat="44.576365" lon="9.974815"><ele>657.6</ele><time>2026-04-26T09:02:53.935Z</time></trkpt><trkpt lat="44.576485" lon="9.9746617"><ele>657.0</ele><time>2026-04-26T09:02:56.935Z</time></trkpt><trkpt lat="44.5765433" lon="9.9745683"><ele>657.0</ele><time>2026-04-26T09:02:58.934Z</time></trkpt><trkpt lat="44.5766067" lon="9.9744733"><ele>657.0</ele><time>2026-04-26T09:03:00.935Z</time></trkpt><trkpt lat="44.57669" lon="9.974345"><ele>657.0</ele><time>2026-04-26T09:03:02.935Z</time></trkpt><trkpt lat="44.5767417" lon="9.9742733"><ele>657.0</ele><time>2026-04-26T09:03:03.935Z</time></trkpt><trkpt lat="44.576795" lon="9.9742"><ele>657.0</ele><time>2026-04-26T09:03:04.935Z</time></trkpt><trkpt lat="44.5768533" lon="9.9741267"><ele>657.0</ele><time>2026-04-26T09:03:05.935Z</time></trkpt><trkpt lat="44.5769" lon="9.974055"><ele>657.8</ele><time>2026-04-26T09:03:06.935Z</time></trkpt><trkpt lat="44.576945" lon="9.9739817"><ele>658.6</ele><time>2026-04-26T09:03:07.935Z</time></trkpt><trkpt lat="44.5770233" lon="9.9738567"><ele>659.4</ele><time>2026-04-26T09:03:09.935Z</time></trkpt><trkpt lat="44.57712" lon="9.97375"><ele>660.1999999999999</ele><time>2026-04-26T09:03:11.934Z</time></trkpt><trkpt lat="44.5771733" lon="9.9736983"><ele>661.0</ele><time>2026-04-26T09:03:12.935Z</time></trkpt><trkpt lat="44.5772833" lon="9.9736067"><ele>659.0</ele><time>2026-04-26T09:03:14.935Z</time></trkpt><trkpt lat="44.57745" lon="9.973385"><ele>657.0</ele><time>2026-04-26T09:03:18.935Z</time></trkpt><trkpt lat="44.5775133" lon="9.9733183"><ele>655.0</ele><time>2026-04-26T09:03:20.935Z</time></trkpt><trkpt lat="44.5776017" lon="9.9732317"><ele>653.0</ele><time>2026-04-26T09:03:30.935Z</time></trkpt><trkpt lat="44.57767" lon="9.9732167"><ele>653.0</ele><time>2026-04-26T09:03:32.935Z</time></trkpt><trkpt lat="44.5777567" lon="9.9732283"><ele>653.0</ele><time>2026-04-26T09:03:35.935Z</time></trkpt><trkpt lat="44.5778883" lon="9.97324"><ele>653.0</ele><time>2026-04-26T09:03:39.935Z</time></trkpt><trkpt lat="44.5779633" lon="9.9732617"><ele>653.0</ele><time>2026-04-26T09:03:41.935Z</time></trkpt><trkpt lat="44.57806" lon="9.9733233"><ele>653.0</ele><time>2026-04-26T09:03:44.935Z</time></trkpt><trkpt lat="44.5781783" lon="9.9733517"><ele>651.8</ele><time>2026-04-26T09:03:46.935Z</time></trkpt><trkpt lat="44.5782967" lon="9.9733533"><ele>650.5999999999999</ele><time>2026-04-26T09:03:48.935Z</time></trkpt><trkpt lat="44.5784017" lon="9.97334"><ele>649.4000000000001</ele><time>2026-04-26T09:03:50.935Z</time></trkpt><trkpt lat="44.57851" lon="9.97331"><ele>648.2</ele><time>2026-04-26T09:03:52.935Z</time></trkpt><trkpt lat="44.5785733" lon="9.97329"><ele>647.0</ele><time>2026-04-26T09:03:53.935Z</time></trkpt><trkpt lat="44.5786983" lon="9.9732783"><ele>644.6666666666666</ele><time>2026-04-26T09:03:55.934Z</time></trkpt><trkpt lat="44.578775" lon="9.9732817"><ele>642.3333333333333</ele><time>2026-04-26T09:03:56.933Z</time></trkpt><trkpt lat="44.57893" lon="9.9733217"><ele>640.0</ele><time>2026-04-26T09:03:58.934Z</time></trkpt><trkpt lat="44.578995" lon="9.9733533"><ele>637.6666666666666</ele><time>2026-04-26T09:03:59.934Z</time></trkpt><trkpt lat="44.5790567" lon="9.9733883"><ele>635.3333333333334</ele><time>2026-04-26T09:04:00.934Z</time></trkpt><trkpt lat="44.5791167" lon="9.9734167"><ele>633.0</ele><time>2026-04-26T09:04:01.934Z</time></trkpt><trkpt lat="44.57918" lon="9.9734383"><ele>631.8</ele><time>2026-04-26T09:04:02.934Z</time></trkpt><trkpt lat="44.5792733" lon="9.9735"><ele>630.5999999999999</ele><time>2026-04-26T09:04:04.934Z</time></trkpt><trkpt lat="44.5793517" lon="9.9736383"><ele>629.4000000000001</ele><time>2026-04-26T09:04:06.934Z</time></trkpt><trkpt lat="44.5793883" lon="9.9737383"><ele>628.2</ele><time>2026-04-26T09:04:07.934Z</time></trkpt><trkpt lat="44.5794267" lon="9.973825"><ele>627.0</ele><time>2026-04-26T09:04:08.934Z</time></trkpt><trkpt lat="44.5794633" lon="9.9739067"><ele>627.0</ele><time>2026-04-26T09:04:09.934Z</time></trkpt><trkpt lat="44.57951" lon="9.9740017"><ele>627.0</ele><time>2026-04-26T09:04:10.934Z</time></trkpt><trkpt lat="44.579565" lon="9.9741033"><ele>627.0</ele><time>2026-04-26T09:04:11.934Z</time></trkpt><trkpt lat="44.5796117" lon="9.9742017"><ele>627.0</ele><time>2026-04-26T09:04:12.934Z</time></trkpt><trkpt lat="44.5796667" lon="9.9743017"><ele>627.0</ele><time>2026-04-26T09:04:13.933Z</time></trkpt><trkpt lat="44.579715" lon="9.9743917"><ele>627.0</ele><time>2026-04-26T09:04:14.934Z</time></trkpt><trkpt lat="44.579765" lon="9.9744967"><ele>625.6</ele><time>2026-04-26T09:04:15.934Z</time></trkpt><trkpt lat="44.5798033" lon="9.9745933"><ele>624.2</ele><time>2026-04-26T09:04:16.933Z</time></trkpt><trkpt lat="44.5798517" lon="9.9746617"><ele>622.8</ele><time>2026-04-26T09:04:17.934Z</time></trkpt><trkpt lat="44.58007" lon="9.9747467"><ele>621.4</ele><time>2026-04-26T09:04:21.934Z</time></trkpt><trkpt lat="44.580135" lon="9.9747467"><ele>620.0</ele><time>2026-04-26T09:04:22.934Z</time></trkpt><trkpt lat="44.580255" lon="9.9747667"><ele>620.0</ele><time>2026-04-26T09:04:24.934Z</time></trkpt><trkpt lat="44.58032" lon="9.9747783"><ele>620.0</ele><time>2026-04-26T09:04:25.934Z</time></trkpt><trkpt lat="44.5803883" lon="9.9747867"><ele>620.0</ele><time>2026-04-26T09:04:26.933Z</time></trkpt><trkpt lat="44.5804533" lon="9.9747917"><ele>620.0</ele><time>2026-04-26T09:04:27.933Z</time></trkpt><trkpt lat="44.5805633" lon="9.974785"><ele>620.0</ele><time>2026-04-26T09:04:29.933Z</time></trkpt><trkpt lat="44.58068" lon="9.9747683"><ele>620.0</ele><time>2026-04-26T09:04:31.934Z</time></trkpt><trkpt lat="44.5807967" lon="9.9747883"><ele>618.5</ele><time>2026-04-26T09:04:33.934Z</time></trkpt><trkpt lat="44.5809" lon="9.9748667"><ele>617.0</ele><time>2026-04-26T09:04:35.934Z</time></trkpt><trkpt lat="44.5809917" lon="9.9749817"><ele>615.5</ele><time>2026-04-26T09:04:37.933Z</time></trkpt><trkpt lat="44.581095" lon="9.9750683"><ele>614.0</ele><time>2026-04-26T09:04:39.934Z</time></trkpt><trkpt lat="44.5812833" lon="9.9750817"><ele>610.0</ele><time>2026-04-26T09:04:42.933Z</time></trkpt><trkpt lat="44.581405" lon="9.9751133"><ele>606.0</ele><time>2026-04-26T09:04:44.934Z</time></trkpt><trkpt lat="44.5814683" lon="9.9751217"><ele>602.0</ele><time>2026-04-26T09:04:45.934Z</time></trkpt><trkpt lat="44.581535" lon="9.9751233"><ele>598.0</ele><time>2026-04-26T09:04:46.934Z</time></trkpt><trkpt lat="44.581645" lon="9.9751183"><ele>594.0</ele><time>2026-04-26T09:04:48.934Z</time></trkpt><trkpt lat="44.5817733" lon="9.9751483"><ele>594.0</ele><time>2026-04-26T09:04:50.933Z</time></trkpt><trkpt lat="44.5818367" lon="9.9751883"><ele>594.0</ele><time>2026-04-26T09:04:51.934Z</time></trkpt><trkpt lat="44.5819" lon="9.97523"><ele>594.0</ele><time>2026-04-26T09:04:52.934Z</time></trkpt><trkpt lat="44.581965" lon="9.9752633"><ele>594.0</ele><time>2026-04-26T09:04:53.934Z</time></trkpt><trkpt lat="44.5820233" lon="9.9753"><ele>594.0</ele><time>2026-04-26T09:04:54.934Z</time></trkpt><trkpt lat="44.5820783" lon="9.9753467"><ele>594.0</ele><time>2026-04-26T09:04:55.934Z</time></trkpt><trkpt lat="44.5821333" lon="9.9753983"><ele>594.0</ele><time>2026-04-26T09:04:56.934Z</time></trkpt><trkpt lat="44.5821883" lon="9.9754617"><ele>592.2</ele><time>2026-04-26T09:04:57.934Z</time></trkpt><trkpt lat="44.582245" lon="9.9755233"><ele>590.4</ele><time>2026-04-26T09:04:58.933Z</time></trkpt><trkpt lat="44.5823033" lon="9.9755683"><ele>588.6</ele><time>2026-04-26T09:04:59.934Z</time></trkpt><trkpt lat="44.5823633" lon="9.9756"><ele>586.8</ele><time>2026-04-26T09:05:00.934Z</time></trkpt><trkpt lat="44.5825583" lon="9.9755717"><ele>585.0</ele><time>2026-04-26T09:05:03.934Z</time></trkpt><trkpt lat="44.582685" lon="9.9755683"><ele>585.0</ele><time>2026-04-26T09:05:05.934Z</time></trkpt><trkpt lat="44.5828183" lon="9.9755883"><ele>585.0</ele><time>2026-04-26T09:05:07.934Z</time></trkpt><trkpt lat="44.5828917" lon="9.9755917"><ele>585.0</ele><time>2026-04-26T09:05:08.934Z</time></trkpt><trkpt lat="44.582965" lon="9.9755983"><ele>585.0</ele><time>2026-04-26T09:05:09.934Z</time></trkpt><trkpt lat="44.583045" lon="9.9755883"><ele>585.0</ele><time>2026-04-26T09:05:10.934Z</time></trkpt><trkpt lat="44.5831233" lon="9.9755733"><ele>585.0</ele><time>2026-04-26T09:05:11.934Z</time></trkpt><trkpt lat="44.583205" lon="9.9755567"><ele>582.6666666666666</ele><time>2026-04-26T09:05:12.934Z</time></trkpt><trkpt lat="44.5832917" lon="9.97554"><ele>580.3333333333334</ele><time>2026-04-26T09:05:13.934Z</time></trkpt><trkpt lat="44.5833767" lon="9.975525"><ele>578.0</ele><time>2026-04-26T09:05:14.934Z</time></trkpt><trkpt lat="44.5834683" lon="9.975515"><ele>575.6666666666667</ele><time>2026-04-26T09:05:15.934Z</time></trkpt><trkpt lat="44.583555" lon="9.9755067"><ele>573.3333333333334</ele><time>2026-04-26T09:05:16.934Z</time></trkpt><trkpt lat="44.5836367" lon="9.9755033"><ele>571.0</ele><time>2026-04-26T09:05:17.934Z</time></trkpt><trkpt lat="44.5837117" lon="9.975495"><ele>569.0</ele><time>2026-04-26T09:05:18.933Z</time></trkpt><trkpt lat="44.583785" lon="9.97549"><ele>567.0</ele><time>2026-04-26T09:05:19.934Z</time></trkpt><trkpt lat="44.5838517" lon="9.9754833"><ele>565.0</ele><time>2026-04-26T09:05:20.933Z</time></trkpt><trkpt lat="44.5839183" lon="9.9754817"><ele>563.0</ele><time>2026-04-26T09:05:21.934Z</time></trkpt><trkpt lat="44.5840717" lon="9.9756583"><ele>561.0</ele><time>2026-04-26T09:05:25.934Z</time></trkpt><trkpt lat="44.5841767" lon="9.9757067"><ele>561.0</ele><time>2026-04-26T09:05:27.934Z</time></trkpt><trkpt lat="44.5842383" lon="9.9756883"><ele>561.0</ele><time>2026-04-26T09:05:28.934Z</time></trkpt><trkpt lat="44.5843033" lon="9.9756617"><ele>561.0</ele><time>2026-04-26T09:05:29.934Z</time></trkpt><trkpt lat="44.584365" lon="9.9756417"><ele>561.0</ele><time>2026-04-26T09:05:30.934Z</time></trkpt><trkpt lat="44.5844833" lon="9.9756967"><ele>561.0</ele><time>2026-04-26T09:05:32.933Z</time></trkpt><trkpt lat="44.5845283" lon="9.9757617"><ele>561.0</ele><time>2026-04-26T09:05:33.934Z</time></trkpt><trkpt lat="44.5845767" lon="9.9758267"><ele>557.5714285714286</ele><time>2026-04-26T09:05:34.934Z</time></trkpt><trkpt lat="44.5846317" lon="9.97587"><ele>554.1428571428571</ele><time>2026-04-26T09:05:35.934Z</time></trkpt><trkpt lat="44.584745" lon="9.9758567"><ele>550.7142857142857</ele><time>2026-04-26T09:05:37.934Z</time></trkpt><trkpt lat="44.584805" lon="9.9758183"><ele>547.2857142857142</ele><time>2026-04-26T09:05:38.934Z</time></trkpt><trkpt lat="44.5848567" lon="9.9757567"><ele>543.8571428571429</ele><time>2026-04-26T09:05:39.933Z</time></trkpt><trkpt lat="44.5848983" lon="9.975675"><ele>540.4285714285713</ele><time>2026-04-26T09:05:40.934Z</time></trkpt><trkpt lat="44.5849383" lon="9.9756033"><ele>537.0</ele><time>2026-04-26T09:05:41.934Z</time></trkpt><trkpt lat="44.58497" lon="9.9755267"><ele>537.0</ele><time>2026-04-26T09:05:42.934Z</time></trkpt><trkpt lat="44.584985" lon="9.9752467"><ele>537.0</ele><time>2026-04-26T09:05:46.934Z</time></trkpt><trkpt lat="44.58498" lon="9.97512"><ele>537.0</ele><time>2026-04-26T09:05:48.934Z</time></trkpt><trkpt lat="44.5850117" lon="9.97498"><ele>537.0</ele><time>2026-04-26T09:05:50.934Z</time></trkpt><trkpt lat="44.5850567" lon="9.9748817"><ele>537.2</ele><time>2026-04-26T09:05:52.934Z</time></trkpt><trkpt lat="44.5851367" lon="9.9748667"><ele>537.4000000000001</ele><time>2026-04-26T09:05:55.934Z</time></trkpt><trkpt lat="44.585195" lon="9.9747767"><ele>537.5999999999999</ele><time>2026-04-26T09:06:00.934Z</time></trkpt><trkpt lat="44.5851917" lon="9.9745867"><ele>537.8</ele><time>2026-04-26T09:06:02.934Z</time></trkpt><trkpt lat="44.5851783" lon="9.9744533"><ele>538.0</ele><time>2026-04-26T09:06:03.933Z</time></trkpt><trkpt lat="44.585135" lon="9.9741317"><ele>536.25</ele><time>2026-04-26T09:06:05.933Z</time></trkpt><trkpt lat="44.58511" lon="9.9739617"><ele>534.5</ele><time>2026-04-26T09:06:06.934Z</time></trkpt><trkpt lat="44.5850867" lon="9.9737933"><ele>532.75</ele><time>2026-04-26T09:06:07.934Z</time></trkpt><trkpt lat="44.5850617" lon="9.9736483"><ele>531.0</ele><time>2026-04-26T09:06:08.934Z</time></trkpt><trkpt lat="44.5850333" lon="9.973505"><ele>529.6</ele><time>2026-04-26T09:06:09.934Z</time></trkpt><trkpt lat="44.5850067" lon="9.9733533"><ele>528.2</ele><time>2026-04-26T09:06:10.934Z</time></trkpt><trkpt lat="44.5849933" lon="9.9732033"><ele>526.8</ele><time>2026-04-26T09:06:11.934Z</time></trkpt><trkpt lat="44.585" lon="9.9730467"><ele>525.4</ele><time>2026-04-26T09:06:12.934Z</time></trkpt><trkpt lat="44.5850317" lon="9.9728967"><ele>524.0</ele><time>2026-04-26T09:06:13.933Z</time></trkpt><trkpt lat="44.5850667" lon="9.9727517"><ele>524.0</ele><time>2026-04-26T09:06:14.934Z</time></trkpt><trkpt lat="44.5851117" lon="9.9726133"><ele>524.0</ele><time>2026-04-26T09:06:15.934Z</time></trkpt><trkpt lat="44.5851583" lon="9.9724883"><ele>524.0</ele><time>2026-04-26T09:06:16.934Z</time></trkpt><trkpt lat="44.585215" lon="9.97238"><ele>524.0</ele><time>2026-04-26T09:06:17.934Z</time></trkpt><trkpt lat="44.58528" lon="9.97231"><ele>524.0</ele><time>2026-04-26T09:06:18.934Z</time></trkpt><trkpt lat="44.5853633" lon="9.9722817"><ele>521.0</ele><time>2026-04-26T09:06:19.933Z</time></trkpt><trkpt lat="44.5854517" lon="9.9723033"><ele>518.0</ele><time>2026-04-26T09:06:20.934Z</time></trkpt><trkpt lat="44.5855283" lon="9.97237"><ele>515.0</ele><time>2026-04-26T09:06:21.933Z</time></trkpt><trkpt lat="44.5856017" lon="9.9724767"><ele>512.0</ele><time>2026-04-26T09:06:22.934Z</time></trkpt><trkpt lat="44.5856667" lon="9.97262"><ele>509.0</ele><time>2026-04-26T09:06:23.934Z</time></trkpt><trkpt lat="44.5857233" lon="9.972785"><ele>509.0</ele><time>2026-04-26T09:06:24.934Z</time></trkpt><trkpt lat="44.5858317" lon="9.9731117"><ele>509.0</ele><time>2026-04-26T09:06:26.934Z</time></trkpt><trkpt lat="44.585905" lon="9.97326"><ele>509.0</ele><time>2026-04-26T09:06:27.934Z</time></trkpt><trkpt lat="44.5860033" lon="9.973385"><ele>507.5</ele><time>2026-04-26T09:06:28.934Z</time></trkpt><trkpt lat="44.5861167" lon="9.9734967"><ele>506.0</ele><time>2026-04-26T09:06:29.933Z</time></trkpt><trkpt lat="44.5862333" lon="9.97361"><ele>504.5</ele><time>2026-04-26T09:06:30.934Z</time></trkpt><trkpt lat="44.586355" lon="9.9737233"><ele>503.0</ele><time>2026-04-26T09:06:31.934Z</time></trkpt><trkpt lat="44.5864783" lon="9.9738367"><ele>503.0</ele><time>2026-04-26T09:06:32.934Z</time></trkpt><trkpt lat="44.5865917" lon="9.9739467"><ele>503.0</ele><time>2026-04-26T09:06:33.934Z</time></trkpt><trkpt lat="44.5866967" lon="9.9740417"><ele>503.0</ele><time>2026-04-26T09:06:34.933Z</time></trkpt><trkpt lat="44.5868133" lon="9.9741467"><ele>503.0</ele><time>2026-04-26T09:06:35.933Z</time></trkpt><trkpt lat="44.5869217" lon="9.9742483"><ele>501.2</ele><time>2026-04-26T09:06:36.934Z</time></trkpt><trkpt lat="44.5870133" lon="9.9743367"><ele>499.4</ele><time>2026-04-26T09:06:37.934Z</time></trkpt><trkpt lat="44.5871" lon="9.9743783"><ele>497.59999999999997</ele><time>2026-04-26T09:06:38.933Z</time></trkpt><trkpt lat="44.5871933" lon="9.97438"><ele>495.79999999999995</ele><time>2026-04-26T09:06:39.934Z</time></trkpt><trkpt lat="44.587275" lon="9.97434"><ele>494.0</ele><time>2026-04-26T09:06:40.934Z</time></trkpt><trkpt lat="44.587335" lon="9.9742333"><ele>493.66666666666663</ele><time>2026-04-26T09:06:41.934Z</time></trkpt><trkpt lat="44.5873683" lon="9.97407"><ele>493.33333333333337</ele><time>2026-04-26T09:06:42.934Z</time></trkpt><trkpt lat="44.5873767" lon="9.97384"><ele>493.0</ele><time>2026-04-26T09:06:43.934Z</time></trkpt><trkpt lat="44.5873767" lon="9.9735883"><ele>493.0</ele><time>2026-04-26T09:06:44.934Z</time></trkpt><trkpt lat="44.5873817" lon="9.9733683"><ele>493.0</ele><time>2026-04-26T09:06:45.934Z</time></trkpt><trkpt lat="44.5873867" lon="9.9729917"><ele>493.0</ele><time>2026-04-26T09:06:47.934Z</time></trkpt><trkpt lat="44.58739" lon="9.972845"><ele>491.4</ele><time>2026-04-26T09:06:48.933Z</time></trkpt><trkpt lat="44.587405" lon="9.9727183"><ele>489.79999999999995</ele><time>2026-04-26T09:06:49.934Z</time></trkpt><trkpt lat="44.5874383" lon="9.97259"><ele>488.2</ele><time>2026-04-26T09:06:50.933Z</time></trkpt><trkpt lat="44.5874917" lon="9.9724917"><ele>486.6</ele><time>2026-04-26T09:06:51.934Z</time></trkpt><trkpt lat="44.5875683" lon="9.97242"><ele>485.0</ele><time>2026-04-26T09:06:52.934Z</time></trkpt><trkpt lat="44.5876633" lon="9.9723933"><ele>484.25</ele><time>2026-04-26T09:06:53.933Z</time></trkpt><trkpt lat="44.5877567" lon="9.9724333"><ele>483.5</ele><time>2026-04-26T09:06:54.933Z</time></trkpt><trkpt lat="44.5878483" lon="9.972505"><ele>482.75</ele><time>2026-04-26T09:06:55.934Z</time></trkpt><trkpt lat="44.587945" lon="9.972625"><ele>482.0</ele><time>2026-04-26T09:06:56.933Z</time></trkpt><trkpt lat="44.58804" lon="9.9727817"><ele>481.0</ele><time>2026-04-26T09:06:57.934Z</time></trkpt><trkpt lat="44.588135" lon="9.9729483"><ele>480.0</ele><time>2026-04-26T09:06:58.934Z</time></trkpt><trkpt lat="44.5882117" lon="9.9731117"><ele>479.0</ele><time>2026-04-26T09:06:59.934Z</time></trkpt><trkpt lat="44.588285" lon="9.9732583"><ele>478.0</ele><time>2026-04-26T09:07:00.934Z</time></trkpt><trkpt lat="44.588365" lon="9.973395"><ele>478.0</ele><time>2026-04-26T09:07:01.934Z</time></trkpt><trkpt lat="44.5884533" lon="9.973525"><ele>478.0</ele><time>2026-04-26T09:07:02.933Z</time></trkpt><trkpt lat="44.588535" lon="9.97365"><ele>478.0</ele><time>2026-04-26T09:07:03.934Z</time></trkpt><trkpt lat="44.58861" lon="9.9737683"><ele>478.0</ele><time>2026-04-26T09:07:04.934Z</time></trkpt><trkpt lat="44.58869" lon="9.9738833"><ele>475.0</ele><time>2026-04-26T09:07:05.933Z</time></trkpt><trkpt lat="44.5887583" lon="9.974"><ele>472.0</ele><time>2026-04-26T09:07:06.934Z</time></trkpt><trkpt lat="44.5889117" lon="9.974235"><ele>469.0</ele><time>2026-04-26T09:07:08.934Z</time></trkpt><trkpt lat="44.5889917" lon="9.9743467"><ele>466.0</ele><time>2026-04-26T09:07:09.934Z</time></trkpt><trkpt lat="44.589055" lon="9.9744233"><ele>466.00000000000006</ele><time>2026-04-26T09:07:10.934Z</time></trkpt><trkpt lat="44.58911" lon="9.97448"><ele>466.0</ele><time>2026-04-26T09:07:11.934Z</time></trkpt><trkpt lat="44.589185" lon="9.97456"><ele>466.0</ele><time>2026-04-26T09:07:13.934Z</time></trkpt><trkpt lat="44.5892633" lon="9.974635"><ele>466.0</ele><time>2026-04-26T09:07:15.934Z</time></trkpt><trkpt lat="44.589315" lon="9.9746917"><ele>466.00000000000006</ele><time>2026-04-26T09:07:16.933Z</time></trkpt><trkpt lat="44.5893617" lon="9.974755"><ele>466.0</ele><time>2026-04-26T09:07:17.934Z</time></trkpt><trkpt lat="44.5894233" lon="9.974835"><ele>466.0</ele><time>2026-04-26T09:07:19.934Z</time></trkpt><trkpt lat="44.589485" lon="9.9748767"><ele>466.0</ele><time>2026-04-26T09:07:36.934Z</time></trkpt><trkpt lat="44.5896383" lon="9.975015"><ele>466.0</ele><time>2026-04-26T09:07:38.934Z</time></trkpt><trkpt lat="44.5897433" lon="9.9750783"><ele>466.0</ele><time>2026-04-26T09:07:39.934Z</time></trkpt><trkpt lat="44.5898733" lon="9.9751117"><ele>462.33333333333337</ele><time>2026-04-26T09:07:40.934Z</time></trkpt><trkpt lat="44.590065" lon="9.9751133"><ele>458.66666666666663</ele><time>2026-04-26T09:07:41.933Z</time></trkpt><trkpt lat="44.5902683" lon="9.9751383"><ele>455.0</ele><time>2026-04-26T09:07:42.933Z</time></trkpt><trkpt lat="44.590465" lon="9.9751567"><ele>451.0</ele><time>2026-04-26T09:07:43.934Z</time></trkpt><trkpt lat="44.590625" lon="9.975185"><ele>447.0</ele><time>2026-04-26T09:07:44.933Z</time></trkpt><trkpt lat="44.5907767" lon="9.975205"><ele>443.0</ele><time>2026-04-26T09:07:45.933Z</time></trkpt><trkpt lat="44.590925" lon="9.97523"><ele>443.0</ele><time>2026-04-26T09:07:46.934Z</time></trkpt><trkpt lat="44.591065" lon="9.9752633"><ele>443.0</ele><time>2026-04-26T09:07:47.934Z</time></trkpt><trkpt lat="44.5911917" lon="9.9753217"><ele>443.0</ele><time>2026-04-26T09:07:48.934Z</time></trkpt><trkpt lat="44.59131" lon="9.9753967"><ele>443.0</ele><time>2026-04-26T09:07:49.934Z</time></trkpt><trkpt lat="44.5914233" lon="9.9754783"><ele>440.59999999999997</ele><time>2026-04-26T09:07:50.934Z</time></trkpt><trkpt lat="44.5915117" lon="9.9755533"><ele>438.19999999999993</ele><time>2026-04-26T09:07:51.934Z</time></trkpt><trkpt lat="44.591585" lon="9.975615"><ele>435.8</ele><time>2026-04-26T09:07:52.934Z</time></trkpt><trkpt lat="44.5916483" lon="9.9756517"><ele>433.4</ele><time>2026-04-26T09:07:53.934Z</time></trkpt><trkpt lat="44.5917633" lon="9.97572"><ele>431.0</ele><time>2026-04-26T09:07:55.934Z</time></trkpt><trkpt lat="44.5918167" lon="9.9758"><ele>429.75</ele><time>2026-04-26T09:07:56.934Z</time></trkpt><trkpt lat="44.5918783" lon="9.9758983"><ele>428.5</ele><time>2026-04-26T09:07:57.934Z</time></trkpt><trkpt lat="44.5920483" lon="9.976085"><ele>427.25</ele><time>2026-04-26T09:07:59.934Z</time></trkpt><trkpt lat="44.5921583" lon="9.97616"><ele>426.0</ele><time>2026-04-26T09:08:00.934Z</time></trkpt><trkpt lat="44.5922817" lon="9.9762217"><ele>425.0</ele><time>2026-04-26T09:08:01.934Z</time></trkpt><trkpt lat="44.5923883" lon="9.976265"><ele>424.0</ele><time>2026-04-26T09:08:02.933Z</time></trkpt><trkpt lat="44.5924817" lon="9.9763117"><ele>423.0</ele><time>2026-04-26T09:08:03.934Z</time></trkpt><trkpt lat="44.59255" lon="9.976365"><ele>422.0</ele><time>2026-04-26T09:08:04.934Z</time></trkpt><trkpt lat="44.592585" lon="9.9764483"><ele>421.0</ele><time>2026-04-26T09:08:05.934Z</time></trkpt><trkpt lat="44.5925183" lon="9.9766083"><ele>421.0</ele><time>2026-04-26T09:08:07.934Z</time></trkpt><trkpt lat="44.5924367" lon="9.9766733"><ele>421.0</ele><time>2026-04-26T09:08:08.934Z</time></trkpt><trkpt lat="44.5923383" lon="9.976755"><ele>421.0</ele><time>2026-04-26T09:08:09.934Z</time></trkpt><trkpt lat="44.59225" lon="9.976855"><ele>421.0</ele><time>2026-04-26T09:08:10.934Z</time></trkpt><trkpt lat="44.5921683" lon="9.9769867"><ele>421.0</ele><time>2026-04-26T09:08:11.934Z</time></trkpt><trkpt lat="44.592095" lon="9.9771417"><ele>419.0</ele><time>2026-04-26T09:08:12.934Z</time></trkpt><trkpt lat="44.59204" lon="9.9773017"><ele>417.0</ele><time>2026-04-26T09:08:13.934Z</time></trkpt><trkpt lat="44.59201" lon="9.97746"><ele>415.0</ele><time>2026-04-26T09:08:14.934Z</time></trkpt><trkpt lat="44.5919917" lon="9.977615"><ele>413.0</ele><time>2026-04-26T09:08:15.933Z</time></trkpt><trkpt lat="44.5919933" lon="9.9777767"><ele>413.0</ele><time>2026-04-26T09:08:16.934Z</time></trkpt><trkpt lat="44.59201" lon="9.97795"><ele>413.0</ele><time>2026-04-26T09:08:17.934Z</time></trkpt><trkpt lat="44.5920067" lon="9.9781333"><ele>413.0</ele><time>2026-04-26T09:08:18.934Z</time></trkpt><trkpt lat="44.591985" lon="9.9783083"><ele>413.0</ele><time>2026-04-26T09:08:19.934Z</time></trkpt><trkpt lat="44.5918617" lon="9.978605"><ele>409.79999999999995</ele><time>2026-04-26T09:08:21.933Z</time></trkpt><trkpt lat="44.5917817" lon="9.9787133"><ele>406.6</ele><time>2026-04-26T09:08:22.934Z</time></trkpt><trkpt lat="44.591695" lon="9.9787533"><ele>403.4</ele><time>2026-04-26T09:08:23.933Z</time></trkpt><trkpt lat="44.5916" lon="9.9787483"><ele>400.20000000000005</ele><time>2026-04-26T09:08:24.934Z</time></trkpt><trkpt lat="44.59151" lon="9.9787267"><ele>397.0</ele><time>2026-04-26T09:08:25.934Z</time></trkpt><trkpt lat="44.5914283" lon="9.978725"><ele>397.0</ele><time>2026-04-26T09:08:26.934Z</time></trkpt><trkpt lat="44.5913633" lon="9.97877"><ele>397.0</ele><time>2026-04-26T09:08:27.934Z</time></trkpt><trkpt lat="44.5913567" lon="9.978915"><ele>397.0</ele><time>2026-04-26T09:08:29.934Z</time></trkpt><trkpt lat="44.5914267" lon="9.9789833"><ele>397.0</ele><time>2026-04-26T09:08:30.934Z</time></trkpt><trkpt lat="44.591545" lon="9.9790167"><ele>397.0</ele><time>2026-04-26T09:08:31.934Z</time></trkpt><trkpt lat="44.5916667" lon="9.9790317"><ele>397.0</ele><time>2026-04-26T09:08:32.934Z</time></trkpt><trkpt lat="44.5917933" lon="9.9790517"><ele>397.0</ele><time>2026-04-26T09:08:33.934Z</time></trkpt><trkpt lat="44.5919267" lon="9.9790817"><ele>397.0</ele><time>2026-04-26T09:08:34.934Z</time></trkpt><trkpt lat="44.5920733" lon="9.9791233"><ele>397.0</ele><time>2026-04-26T09:08:35.934Z</time></trkpt><trkpt lat="44.5922117" lon="9.979195"><ele>392.5</ele><time>2026-04-26T09:08:36.934Z</time></trkpt><trkpt lat="44.5923433" lon="9.9792783"><ele>388.0</ele><time>2026-04-26T09:08:37.934Z</time></trkpt><trkpt lat="44.5924667" lon="9.9793517"><ele>383.5</ele><time>2026-04-26T09:08:38.933Z</time></trkpt><trkpt lat="44.5925867" lon="9.9793833"><ele>379.0</ele><time>2026-04-26T09:08:39.934Z</time></trkpt><trkpt lat="44.5927083" lon="9.9793717"><ele>379.0</ele><time>2026-04-26T09:08:40.934Z</time></trkpt><trkpt lat="44.592815" lon="9.9793367"><ele>379.0</ele><time>2026-04-26T09:08:41.933Z</time></trkpt><trkpt lat="44.5929817" lon="9.9791617"><ele>379.0</ele><time>2026-04-26T09:08:43.933Z</time></trkpt><trkpt lat="44.5930517" lon="9.97902"><ele>379.0</ele><time>2026-04-26T09:08:44.934Z</time></trkpt><trkpt lat="44.5931267" lon="9.9788917"><ele>379.25</ele><time>2026-04-26T09:08:45.934Z</time></trkpt><trkpt lat="44.5932283" lon="9.978795"><ele>379.5</ele><time>2026-04-26T09:08:46.934Z</time></trkpt><trkpt lat="44.5933533" lon="9.9787367"><ele>379.75</ele><time>2026-04-26T09:08:47.933Z</time></trkpt><trkpt lat="44.593475" lon="9.9787117"><ele>380.0</ele><time>2026-04-26T09:08:48.933Z</time></trkpt><trkpt lat="44.5935933" lon="9.9786933"><ele>375.75</ele><time>2026-04-26T09:08:49.934Z</time></trkpt><trkpt lat="44.5937083" lon="9.9786583"><ele>371.5</ele><time>2026-04-26T09:08:50.934Z</time></trkpt><trkpt lat="44.5938167" lon="9.9785917"><ele>367.25</ele><time>2026-04-26T09:08:51.934Z</time></trkpt><trkpt lat="44.593925" lon="9.978505"><ele>363.0</ele><time>2026-04-26T09:08:52.933Z</time></trkpt><trkpt lat="44.594025" lon="9.9783883"><ele>364.75</ele><time>2026-04-26T09:08:53.934Z</time></trkpt><trkpt lat="44.5941183" lon="9.978275"><ele>366.5</ele><time>2026-04-26T09:08:54.934Z</time></trkpt><trkpt lat="44.5942283" lon="9.9781883"><ele>368.25</ele><time>2026-04-26T09:08:55.934Z</time></trkpt><trkpt lat="44.5943383" lon="9.9781383"><ele>370.0</ele><time>2026-04-26T09:08:56.934Z</time></trkpt><trkpt lat="44.5944617" lon="9.9781233"><ele>367.75</ele><time>2026-04-26T09:08:57.934Z</time></trkpt><trkpt lat="44.5945917" lon="9.9781417"><ele>365.5</ele><time>2026-04-26T09:08:58.934Z</time></trkpt><trkpt lat="44.59471" lon="9.97819"><ele>363.25</ele><time>2026-04-26T09:08:59.934Z</time></trkpt><trkpt lat="44.5948317" lon="9.9782417"><ele>361.0</ele><time>2026-04-26T09:09:00.934Z</time></trkpt><trkpt lat="44.5949567" lon="9.9782783"><ele>361.0</ele><time>2026-04-26T09:09:01.934Z</time></trkpt><trkpt lat="44.595095" lon="9.9782933"><ele>361.0</ele><time>2026-04-26T09:09:02.934Z</time></trkpt><trkpt lat="44.5953633" lon="9.97832"><ele>361.0</ele><time>2026-04-26T09:09:04.934Z</time></trkpt><trkpt lat="44.5955017" lon="9.978335"><ele>358.5</ele><time>2026-04-26T09:09:05.934Z</time></trkpt><trkpt lat="44.5956283" lon="9.9783467"><ele>356.0</ele><time>2026-04-26T09:09:06.934Z</time></trkpt><trkpt lat="44.5957583" lon="9.9783633"><ele>353.5</ele><time>2026-04-26T09:09:07.934Z</time></trkpt><trkpt lat="44.5958883" lon="9.9784"><ele>351.0</ele><time>2026-04-26T09:09:08.934Z</time></trkpt><trkpt lat="44.5960133" lon="9.97846"><ele>347.5</ele><time>2026-04-26T09:09:09.933Z</time></trkpt><trkpt lat="44.596125" lon="9.97854"><ele>344.0</ele><time>2026-04-26T09:09:10.934Z</time></trkpt><trkpt lat="44.596225" lon="9.9786533"><ele>340.5</ele><time>2026-04-26T09:09:11.934Z</time></trkpt><trkpt lat="44.5963233" lon="9.9787717"><ele>337.0</ele><time>2026-04-26T09:09:12.933Z</time></trkpt><trkpt lat="44.5964267" lon="9.978905"><ele>336.75</ele><time>2026-04-26T09:09:13.934Z</time></trkpt><trkpt lat="44.5965267" lon="9.9790183"><ele>336.5</ele><time>2026-04-26T09:09:14.933Z</time></trkpt><trkpt lat="44.5966383" lon="9.979115"><ele>336.25</ele><time>2026-04-26T09:09:15.934Z</time></trkpt><trkpt lat="44.596735" lon="9.9791817"><ele>336.0</ele><time>2026-04-26T09:09:16.933Z</time></trkpt><trkpt lat="44.59684" lon="9.9792267"><ele>333.75</ele><time>2026-04-26T09:09:17.933Z</time></trkpt><trkpt lat="44.5969483" lon="9.97923"><ele>331.5</ele><time>2026-04-26T09:09:18.933Z</time></trkpt><trkpt lat="44.597075" lon="9.9792217"><ele>329.25</ele><time>2026-04-26T09:09:19.934Z</time></trkpt><trkpt lat="44.5971983" lon="9.9792067"><ele>327.0</ele><time>2026-04-26T09:09:20.934Z</time></trkpt><trkpt lat="44.5973167" lon="9.9791767"><ele>327.0</ele><time>2026-04-26T09:09:21.933Z</time></trkpt><trkpt lat="44.5974333" lon="9.979115"><ele>327.0</ele><time>2026-04-26T09:09:22.934Z</time></trkpt><trkpt lat="44.5975483" lon="9.9790317"><ele>327.0</ele><time>2026-04-26T09:09:23.933Z</time></trkpt><trkpt lat="44.5977617" lon="9.9788617"><ele>324.8</ele><time>2026-04-26T09:09:25.934Z</time></trkpt><trkpt lat="44.59786" lon="9.97882"><ele>322.6</ele><time>2026-04-26T09:09:26.934Z</time></trkpt><trkpt lat="44.5979517" lon="9.97882"><ele>320.40000000000003</ele><time>2026-04-26T09:09:27.934Z</time></trkpt><trkpt lat="44.5980483" lon="9.9788683"><ele>318.20000000000005</ele><time>2026-04-26T09:09:28.934Z</time></trkpt><trkpt lat="44.5981567" lon="9.978945"><ele>316.0</ele><time>2026-04-26T09:09:29.934Z</time></trkpt><trkpt lat="44.5982733" lon="9.979025"><ele>316.0</ele><time>2026-04-26T09:09:30.934Z</time></trkpt><trkpt lat="44.5983917" lon="9.9791117"><ele>316.0</ele><time>2026-04-26T09:09:31.933Z</time></trkpt><trkpt lat="44.5985033" lon="9.979215"><ele>316.0</ele><time>2026-04-26T09:09:32.934Z</time></trkpt><trkpt lat="44.5986083" lon="9.9793067"><ele>316.0</ele><time>2026-04-26T09:09:33.934Z</time></trkpt><trkpt lat="44.5987233" lon="9.9793867"><ele>313.6</ele><time>2026-04-26T09:09:34.934Z</time></trkpt><trkpt lat="44.5988367" lon="9.9794633"><ele>311.20000000000005</ele><time>2026-04-26T09:09:35.934Z</time></trkpt><trkpt lat="44.59894" lon="9.9795317"><ele>308.79999999999995</ele><time>2026-04-26T09:09:36.934Z</time></trkpt><trkpt lat="44.599025" lon="9.97959"><ele>306.4</ele><time>2026-04-26T09:09:37.934Z</time></trkpt><trkpt lat="44.5991083" lon="9.97963"><ele>304.0</ele><time>2026-04-26T09:09:38.934Z</time></trkpt><trkpt lat="44.59919" lon="9.9796383"><ele>304.0</ele><time>2026-04-26T09:09:39.934Z</time></trkpt><trkpt lat="44.599265" lon="9.9796367"><ele>304.0</ele><time>2026-04-26T09:09:40.934Z</time></trkpt><trkpt lat="44.599335" lon="9.979625"><ele>304.0</ele><time>2026-04-26T09:09:41.934Z</time></trkpt><trkpt lat="44.599395" lon="9.97958"><ele>304.0</ele><time>2026-04-26T09:09:42.934Z</time></trkpt><trkpt lat="44.5994683" lon="9.97953"><ele>304.0</ele><time>2026-04-26T09:09:43.934Z</time></trkpt><trkpt lat="44.5995417" lon="9.9794683"><ele>304.0</ele><time>2026-04-26T09:09:44.934Z</time></trkpt><trkpt lat="44.59968" lon="9.9792917"><ele>303.8</ele><time>2026-04-26T09:09:46.933Z</time></trkpt><trkpt lat="44.5997233" lon="9.9791717"><ele>303.59999999999997</ele><time>2026-04-26T09:09:47.934Z</time></trkpt><trkpt lat="44.5997517" lon="9.97903"><ele>303.4</ele><time>2026-04-26T09:09:48.934Z</time></trkpt><trkpt lat="44.5997933" lon="9.9788917"><ele>303.2</ele><time>2026-04-26T09:09:49.934Z</time></trkpt><trkpt lat="44.5998533" lon="9.9787633"><ele>303.0</ele><time>2026-04-26T09:09:50.934Z</time></trkpt><trkpt lat="44.5999167" lon="9.97864"><ele>303.0</ele><time>2026-04-26T09:09:51.934Z</time></trkpt><trkpt lat="44.599995" lon="9.97853"><ele>303.0</ele><time>2026-04-26T09:09:52.934Z</time></trkpt><trkpt lat="44.60009" lon="9.9784283"><ele>303.0</ele><time>2026-04-26T09:09:53.934Z</time></trkpt><trkpt lat="44.6001967" lon="9.9783467"><ele>303.0</ele><time>2026-04-26T09:09:54.934Z</time></trkpt><trkpt lat="44.600305" lon="9.9783033"><ele>302.75</ele><time>2026-04-26T09:09:55.934Z</time></trkpt><trkpt lat="44.600425" lon="9.978295"><ele>302.5</ele><time>2026-04-26T09:09:56.934Z</time></trkpt><trkpt lat="44.600545" lon="9.978285"><ele>302.25</ele><time>2026-04-26T09:09:57.933Z</time></trkpt><trkpt lat="44.6006517" lon="9.9782583"><ele>302.0</ele><time>2026-04-26T09:09:58.934Z</time></trkpt><trkpt lat="44.6007517" lon="9.9782267"><ele>302.0</ele><time>2026-04-26T09:09:59.934Z</time></trkpt><trkpt lat="44.6008383" lon="9.978175"><ele>302.0</ele><time>2026-04-26T09:10:00.934Z</time></trkpt><trkpt lat="44.6009083" lon="9.9780967"><ele>302.0</ele><time>2026-04-26T09:10:01.934Z</time></trkpt><trkpt lat="44.6009633" lon="9.9780083"><ele>302.0</ele><time>2026-04-26T09:10:02.933Z</time></trkpt><trkpt lat="44.6009683" lon="9.9778967"><ele>302.0</ele><time>2026-04-26T09:10:03.934Z</time></trkpt><trkpt lat="44.600945" lon="9.9777933"><ele>302.0</ele><time>2026-04-26T09:10:04.934Z</time></trkpt><trkpt lat="44.6009067" lon="9.9776767"><ele>301.33333333333337</ele><time>2026-04-26T09:10:05.933Z</time></trkpt><trkpt lat="44.6007817" lon="9.97739"><ele>300.6666666666667</ele><time>2026-04-26T09:10:07.934Z</time></trkpt><trkpt lat="44.600705" lon="9.9772167"><ele>300.0</ele><time>2026-04-26T09:10:08.933Z</time></trkpt><trkpt lat="44.60063" lon="9.97703"><ele>300.0</ele><time>2026-04-26T09:10:09.934Z</time></trkpt><trkpt lat="44.6005567" lon="9.9768483"><ele>300.0</ele><time>2026-04-26T09:10:10.934Z</time></trkpt><trkpt lat="44.60049" lon="9.976685"><ele>300.0</ele><time>2026-04-26T09:10:11.934Z</time></trkpt><trkpt lat="44.6004117" lon="9.9765417"><ele>300.0</ele><time>2026-04-26T09:10:12.933Z</time></trkpt><trkpt lat="44.6003133" lon="9.976435"><ele>300.0</ele><time>2026-04-26T09:10:13.934Z</time></trkpt><trkpt lat="44.6002017" lon="9.9763483"><ele>300.0</ele><time>2026-04-26T09:10:14.934Z</time></trkpt><trkpt lat="44.6000867" lon="9.9762467"><ele>300.0</ele><time>2026-04-26T09:10:15.934Z</time></trkpt><trkpt lat="44.59999" lon="9.97613"><ele>300.0</ele><time>2026-04-26T09:10:16.934Z</time></trkpt><trkpt lat="44.59993" lon="9.9760217"><ele>300.0</ele><time>2026-04-26T09:10:17.933Z</time></trkpt><trkpt lat="44.5999133" lon="9.975915"><ele>300.0</ele><time>2026-04-26T09:10:18.933Z</time></trkpt><trkpt lat="44.600015" lon="9.9758417"><ele>300.0</ele><time>2026-04-26T09:10:20.934Z</time></trkpt><trkpt lat="44.6000917" lon="9.9758817"><ele>300.0</ele><time>2026-04-26T09:10:21.934Z</time></trkpt><trkpt lat="44.6001817" lon="9.9759467"><ele>300.0</ele><time>2026-04-26T09:10:22.934Z</time></trkpt><trkpt lat="44.6002733" lon="9.9759783"><ele>295.3333333333333</ele><time>2026-04-26T09:10:23.934Z</time></trkpt><trkpt lat="44.6003583" lon="9.9759733"><ele>290.66666666666663</ele><time>2026-04-26T09:10:24.934Z</time></trkpt><trkpt lat="44.6004617" lon="9.9758967"><ele>286.0</ele><time>2026-04-26T09:10:25.934Z</time></trkpt><trkpt lat="44.6007717" lon="9.9758767"><ele>286.0</ele><time>2026-04-26T09:10:28.934Z</time></trkpt><trkpt lat="44.600835" lon="9.9759667"><ele>286.0</ele><time>2026-04-26T09:10:29.934Z</time></trkpt><trkpt lat="44.6008733" lon="9.976085"><ele>286.0</ele><time>2026-04-26T09:10:30.933Z</time></trkpt><trkpt lat="44.6009133" lon="9.9762267"><ele>286.0</ele><time>2026-04-26T09:10:31.934Z</time></trkpt><trkpt lat="44.6009667" lon="9.976375"><ele>286.0</ele><time>2026-04-26T09:10:32.934Z</time></trkpt><trkpt lat="44.6010317" lon="9.9765267"><ele>286.0</ele><time>2026-04-26T09:10:33.934Z</time></trkpt><trkpt lat="44.6011083" lon="9.97668"><ele>286.0</ele><time>2026-04-26T09:10:34.934Z</time></trkpt><trkpt lat="44.6011867" lon="9.9768267"><ele>286.0</ele><time>2026-04-26T09:10:35.933Z</time></trkpt><trkpt lat="44.6012767" lon="9.9769483"><ele>286.0</ele><time>2026-04-26T09:10:36.933Z</time></trkpt><trkpt lat="44.6013867" lon="9.9770533"><ele>285.75</ele><time>2026-04-26T09:10:37.933Z</time></trkpt><trkpt lat="44.6015" lon="9.9771467"><ele>285.5</ele><time>2026-04-26T09:10:38.933Z</time></trkpt><trkpt lat="44.6016117" lon="9.9772383"><ele>285.25</ele><time>2026-04-26T09:10:39.933Z</time></trkpt><trkpt lat="44.6017167" lon="9.9773283"><ele>285.0</ele><time>2026-04-26T09:10:40.933Z</time></trkpt><trkpt lat="44.6018117" lon="9.9774283"><ele>284.8</ele><time>2026-04-26T09:10:41.933Z</time></trkpt><trkpt lat="44.6018933" lon="9.9775433"><ele>284.6</ele><time>2026-04-26T09:10:42.932Z</time></trkpt><trkpt lat="44.601955" lon="9.977665"><ele>284.4</ele><time>2026-04-26T09:10:43.933Z</time></trkpt><trkpt lat="44.60201" lon="9.977805"><ele>284.2</ele><time>2026-04-26T09:10:44.933Z</time></trkpt><trkpt lat="44.6020633" lon="9.97792"><ele>284.0</ele><time>2026-04-26T09:10:45.933Z</time></trkpt><trkpt lat="44.6021467" lon="9.9779917"><ele>284.0</ele><time>2026-04-26T09:10:46.933Z</time></trkpt><trkpt lat="44.60226" lon="9.978025"><ele>284.0</ele><time>2026-04-26T09:10:47.933Z</time></trkpt><trkpt lat="44.6024917" lon="9.9781183"><ele>284.0</ele><time>2026-04-26T09:10:49.933Z</time></trkpt><trkpt lat="44.6025933" lon="9.9781767"><ele>284.0</ele><time>2026-04-26T09:10:50.933Z</time></trkpt><trkpt lat="44.6026683" lon="9.97827"><ele>284.0</ele><time>2026-04-26T09:10:51.933Z</time></trkpt><trkpt lat="44.602685" lon="9.97836"><ele>284.0</ele><time>2026-04-26T09:10:52.932Z</time></trkpt><trkpt lat="44.60262" lon="9.9785017"><ele>284.0</ele><time>2026-04-26T09:10:54.933Z</time></trkpt><trkpt lat="44.6025433" lon="9.978575"><ele>284.0</ele><time>2026-04-26T09:10:55.933Z</time></trkpt><trkpt lat="44.6024633" lon="9.97865"><ele>282.5</ele><time>2026-04-26T09:10:56.933Z</time></trkpt><trkpt lat="44.6023783" lon="9.97872"><ele>281.0</ele><time>2026-04-26T09:10:57.933Z</time></trkpt><trkpt lat="44.6023133" lon="9.9788033"><ele>279.5</ele><time>2026-04-26T09:10:58.933Z</time></trkpt><trkpt lat="44.602285" lon="9.97889"><ele>278.0</ele><time>2026-04-26T09:10:59.933Z</time></trkpt><trkpt lat="44.6023433" lon="9.978985"><ele>276.5</ele><time>2026-04-26T09:11:01.933Z</time></trkpt><trkpt lat="44.60242" lon="9.9789917"><ele>275.0</ele><time>2026-04-26T09:11:02.932Z</time></trkpt><trkpt lat="44.602515" lon="9.9789983"><ele>275.0</ele><time>2026-04-26T09:11:03.933Z</time></trkpt><trkpt lat="44.60263" lon="9.9790033"><ele>275.0</ele><time>2026-04-26T09:11:04.933Z</time></trkpt><trkpt lat="44.6027633" lon="9.979005"><ele>275.0</ele><time>2026-04-26T09:11:05.932Z</time></trkpt><trkpt lat="44.6028917" lon="9.9789983"><ele>275.0</ele><time>2026-04-26T09:11:06.932Z</time></trkpt><trkpt lat="44.6030017" lon="9.9789883"><ele>271.0</ele><time>2026-04-26T09:11:07.932Z</time></trkpt><trkpt lat="44.603085" lon="9.978955"><ele>267.0</ele><time>2026-04-26T09:11:08.933Z</time></trkpt><trkpt lat="44.60321" lon="9.9788"><ele>263.0</ele><time>2026-04-26T09:11:10.933Z</time></trkpt><trkpt lat="44.6032733" lon="9.9786917"><ele>259.0</ele><time>2026-04-26T09:11:11.933Z</time></trkpt><trkpt lat="44.6033383" lon="9.9785717"><ele>259.0</ele><time>2026-04-26T09:11:12.933Z</time></trkpt><trkpt lat="44.60341" lon="9.9784567"><ele>259.0</ele><time>2026-04-26T09:11:13.933Z</time></trkpt><trkpt lat="44.60346" lon="9.97839"><ele>259.0</ele><time>2026-04-26T09:11:14.933Z</time></trkpt><trkpt lat="44.6035133" lon="9.9784483"><ele>259.0</ele><time>2026-04-26T09:11:16.933Z</time></trkpt><trkpt lat="44.6034833" lon="9.9786567"><ele>259.0</ele><time>2026-04-26T09:11:18.933Z</time></trkpt><trkpt lat="44.6034383" lon="9.9788017"><ele>259.0</ele><time>2026-04-26T09:11:19.933Z</time></trkpt><trkpt lat="44.60339" lon="9.9789583"><ele>259.0</ele><time>2026-04-26T09:11:20.933Z</time></trkpt><trkpt lat="44.6033467" lon="9.9791267"><ele>259.0</ele><time>2026-04-26T09:11:21.933Z</time></trkpt><trkpt lat="44.603295" lon="9.9792617"><ele>259.0</ele><time>2026-04-26T09:11:22.933Z</time></trkpt><trkpt lat="44.60324" lon="9.97937"><ele>256.8333333333333</ele><time>2026-04-26T09:11:23.932Z</time></trkpt><trkpt lat="44.603165" lon="9.9794433"><ele>254.66666666666666</ele><time>2026-04-26T09:11:24.933Z</time></trkpt><trkpt lat="44.6030983" lon="9.979495"><ele>252.5</ele><time>2026-04-26T09:11:25.933Z</time></trkpt><trkpt lat="44.60304" lon="9.97953"><ele>250.33333333333331</ele><time>2026-04-26T09:11:26.932Z</time></trkpt><trkpt lat="44.60298" lon="9.97958"><ele>248.16666666666666</ele><time>2026-04-26T09:11:27.933Z</time></trkpt><trkpt lat="44.6029233" lon="9.97964"><ele>246.0</ele><time>2026-04-26T09:11:28.933Z</time></trkpt><trkpt lat="44.6028733" lon="9.9797883"><ele>246.0</ele><time>2026-04-26T09:11:30.933Z</time></trkpt><trkpt lat="44.6030117" lon="9.9798933"><ele>246.0</ele><time>2026-04-26T09:11:33.933Z</time></trkpt><trkpt lat="44.603105" lon="9.9798533"><ele>246.0</ele><time>2026-04-26T09:11:34.933Z</time></trkpt><trkpt lat="44.6032183" lon="9.979775"><ele>246.0</ele><time>2026-04-26T09:11:35.933Z</time></trkpt><trkpt lat="44.60333" lon="9.9796967"><ele>246.0</ele><time>2026-04-26T09:11:36.933Z</time></trkpt><trkpt lat="44.6034217" lon="9.9796183"><ele>246.00000000000003</ele><time>2026-04-26T09:11:37.932Z</time></trkpt><trkpt lat="44.603495" lon="9.979515"><ele>246.00000000000003</ele><time>2026-04-26T09:11:38.933Z</time></trkpt><trkpt lat="44.60354" lon="9.979395"><ele>246.0</ele><time>2026-04-26T09:11:39.932Z</time></trkpt><trkpt lat="44.6035833" lon="9.9792733"><ele>246.0</ele><time>2026-04-26T09:11:40.933Z</time></trkpt><trkpt lat="44.6036333" lon="9.97914"><ele>244.60000000000002</ele><time>2026-04-26T09:11:41.933Z</time></trkpt><trkpt lat="44.6036867" lon="9.9790333"><ele>243.20000000000002</ele><time>2026-04-26T09:11:42.933Z</time></trkpt><trkpt lat="44.60376" lon="9.9789383"><ele>241.79999999999998</ele><time>2026-04-26T09:11:43.933Z</time></trkpt><trkpt lat="44.6038467" lon="9.9788717"><ele>240.39999999999998</ele><time>2026-04-26T09:11:44.933Z</time></trkpt><trkpt lat="44.603945" lon="9.9788183"><ele>239.0</ele><time>2026-04-26T09:11:45.933Z</time></trkpt><trkpt lat="44.6040433" lon="9.9787833"><ele>239.0</ele><time>2026-04-26T09:11:46.933Z</time></trkpt><trkpt lat="44.60414" lon="9.978755"><ele>238.99999999999997</ele><time>2026-04-26T09:11:47.932Z</time></trkpt><trkpt lat="44.6042367" lon="9.9787333"><ele>238.99999999999997</ele><time>2026-04-26T09:11:48.933Z</time></trkpt><trkpt lat="44.60433" lon="9.97874"><ele>239.0</ele><time>2026-04-26T09:11:49.933Z</time></trkpt><trkpt lat="44.6043983" lon="9.978795"><ele>239.0</ele><time>2026-04-26T09:11:50.933Z</time></trkpt><trkpt lat="44.6044617" lon="9.9788883"><ele>238.0</ele><time>2026-04-26T09:11:51.933Z</time></trkpt><trkpt lat="44.6046083" lon="9.979115"><ele>237.0</ele><time>2026-04-26T09:11:53.933Z</time></trkpt><trkpt lat="44.604695" lon="9.9792367"><ele>236.0</ele><time>2026-04-26T09:11:54.933Z</time></trkpt><trkpt lat="44.6047817" lon="9.9793783"><ele>236.0</ele><time>2026-04-26T09:11:55.933Z</time></trkpt><trkpt lat="44.6048817" lon="9.97953"><ele>236.0</ele><time>2026-04-26T09:11:56.933Z</time></trkpt><trkpt lat="44.604975" lon="9.9796883"><ele>236.0</ele><time>2026-04-26T09:11:57.933Z</time></trkpt><trkpt lat="44.60507" lon="9.9798433"><ele>236.0</ele><time>2026-04-26T09:11:58.933Z</time></trkpt><trkpt lat="44.6051767" lon="9.98"><ele>236.0</ele><time>2026-04-26T09:11:59.933Z</time></trkpt><trkpt lat="44.60529" lon="9.980165"><ele>236.0</ele><time>2026-04-26T09:12:00.932Z</time></trkpt><trkpt lat="44.6053983" lon="9.9803383"><ele>236.0</ele><time>2026-04-26T09:12:01.933Z</time></trkpt><trkpt lat="44.6055" lon="9.980515"><ele>237.33333333333334</ele><time>2026-04-26T09:12:02.933Z</time></trkpt><trkpt lat="44.6056067" lon="9.980685"><ele>238.66666666666669</ele><time>2026-04-26T09:12:03.933Z</time></trkpt><trkpt lat="44.6057183" lon="9.9808483"><ele>240.0</ele><time>2026-04-26T09:12:04.932Z</time></trkpt><trkpt lat="44.605845" lon="9.9810017"><ele>241.0</ele><time>2026-04-26T09:12:05.933Z</time></trkpt><trkpt lat="44.60599" lon="9.9811433"><ele>242.0</ele><time>2026-04-26T09:12:06.933Z</time></trkpt><trkpt lat="44.6061383" lon="9.981275"><ele>243.0</ele><time>2026-04-26T09:12:07.932Z</time></trkpt><trkpt lat="44.6063" lon="9.9813883"><ele>243.0</ele><time>2026-04-26T09:12:08.933Z</time></trkpt><trkpt lat="44.6064483" lon="9.9814917"><ele>243.0</ele><time>2026-04-26T09:12:09.933Z</time></trkpt><trkpt lat="44.6065867" lon="9.9815983"><ele>243.0</ele><time>2026-04-26T09:12:10.933Z</time></trkpt><trkpt lat="44.6067117" lon="9.98172"><ele>246.0</ele><time>2026-04-26T09:12:11.933Z</time></trkpt><trkpt lat="44.606835" lon="9.9818467"><ele>249.0</ele><time>2026-04-26T09:12:12.933Z</time></trkpt><trkpt lat="44.6070583" lon="9.9821317"><ele>249.0</ele><time>2026-04-26T09:12:14.933Z</time></trkpt><trkpt lat="44.6071683" lon="9.9822717"><ele>249.0</ele><time>2026-04-26T09:12:15.933Z</time></trkpt><trkpt lat="44.6072767" lon="9.9823683"><ele>249.0</ele><time>2026-04-26T09:12:16.933Z</time></trkpt><trkpt lat="44.6073617" lon="9.98243"><ele>249.0</ele><time>2026-04-26T09:12:17.932Z</time></trkpt><trkpt lat="44.607445" lon="9.9824917"><ele>250.6</ele><time>2026-04-26T09:12:18.933Z</time></trkpt><trkpt lat="44.6075367" lon="9.98256"><ele>252.2</ele><time>2026-04-26T09:12:19.933Z</time></trkpt><trkpt lat="44.6076333" lon="9.9826333"><ele>253.79999999999998</ele><time>2026-04-26T09:12:20.933Z</time></trkpt><trkpt lat="44.607735" lon="9.9827117"><ele>255.39999999999998</ele><time>2026-04-26T09:12:21.933Z</time></trkpt><trkpt lat="44.607835" lon="9.9828"><ele>257.0</ele><time>2026-04-26T09:12:22.933Z</time></trkpt><trkpt lat="44.6079367" lon="9.982885"><ele>257.0</ele><time>2026-04-26T09:12:23.933Z</time></trkpt><trkpt lat="44.6080333" lon="9.9829817"><ele>257.0</ele><time>2026-04-26T09:12:24.933Z</time></trkpt><trkpt lat="44.60813" lon="9.9830867"><ele>257.0</ele><time>2026-04-26T09:12:25.933Z</time></trkpt><trkpt lat="44.6082167" lon="9.9832067"><ele>257.0</ele><time>2026-04-26T09:12:26.933Z</time></trkpt><trkpt lat="44.6082767" lon="9.9833267"><ele>259.33333333333337</ele><time>2026-04-26T09:12:27.933Z</time></trkpt><trkpt lat="44.60831" lon="9.9834367"><ele>261.6666666666667</ele><time>2026-04-26T09:12:28.933Z</time></trkpt><trkpt lat="44.6083233" lon="9.983545"><ele>264.0</ele><time>2026-04-26T09:12:29.933Z</time></trkpt><trkpt lat="44.6082933" lon="9.983655"><ele>266.3333333333333</ele><time>2026-04-26T09:12:30.933Z</time></trkpt><trkpt lat="44.608225" lon="9.9837483"><ele>268.66666666666663</ele><time>2026-04-26T09:12:31.933Z</time></trkpt><trkpt lat="44.6081483" lon="9.9838167"><ele>271.0</ele><time>2026-04-26T09:12:32.932Z</time></trkpt><trkpt lat="44.608085" lon="9.9838633"><ele>271.0</ele><time>2026-04-26T09:12:33.932Z</time></trkpt><trkpt lat="44.6081283" lon="9.9841083"><ele>271.0</ele><time>2026-04-26T09:12:37.933Z</time></trkpt><trkpt lat="44.6082" lon="9.9841983"><ele>271.0</ele><time>2026-04-26T09:12:38.933Z</time></trkpt><trkpt lat="44.6082417" lon="9.9843067"><ele>271.0</ele><time>2026-04-26T09:12:39.933Z</time></trkpt><trkpt lat="44.6082533" lon="9.984415"><ele>271.0</ele><time>2026-04-26T09:12:40.933Z</time></trkpt><trkpt lat="44.6082533" lon="9.9845383"><ele>273.40000000000003</ele><time>2026-04-26T09:12:41.932Z</time></trkpt><trkpt lat="44.6082667" lon="9.98466"><ele>275.8</ele><time>2026-04-26T09:12:42.933Z</time></trkpt><trkpt lat="44.6082883" lon="9.98477"><ele>278.20000000000005</ele><time>2026-04-26T09:12:43.933Z</time></trkpt><trkpt lat="44.6083417" lon="9.9848783"><ele>280.6</ele><time>2026-04-26T09:12:44.933Z</time></trkpt><trkpt lat="44.6084033" lon="9.9849733"><ele>283.0</ele><time>2026-04-26T09:12:45.933Z</time></trkpt><trkpt lat="44.608455" lon="9.9850883"><ele>284.8333333333333</ele><time>2026-04-26T09:12:46.933Z</time></trkpt><trkpt lat="44.6084917" lon="9.9852017"><ele>286.66666666666663</ele><time>2026-04-26T09:12:47.933Z</time></trkpt><trkpt lat="44.6084983" lon="9.9853083"><ele>288.5</ele><time>2026-04-26T09:12:48.933Z</time></trkpt><trkpt lat="44.6085017" lon="9.9854017"><ele>290.3333333333333</ele><time>2026-04-26T09:12:49.933Z</time></trkpt><trkpt lat="44.6084883" lon="9.9855117"><ele>292.1666666666667</ele><time>2026-04-26T09:12:50.933Z</time></trkpt><trkpt lat="44.608485" lon="9.9856383"><ele>294.0</ele><time>2026-04-26T09:12:51.933Z</time></trkpt><trkpt lat="44.6084883" lon="9.9857783"><ele>295.75</ele><time>2026-04-26T09:12:52.933Z</time></trkpt><trkpt lat="44.6085033" lon="9.9859083"><ele>297.5</ele><time>2026-04-26T09:12:53.933Z</time></trkpt><trkpt lat="44.6085383" lon="9.9860383"><ele>299.25</ele><time>2026-04-26T09:12:54.933Z</time></trkpt><trkpt lat="44.6086317" lon="9.98632"><ele>301.0</ele><time>2026-04-26T09:12:56.932Z</time></trkpt><trkpt lat="44.6086933" lon="9.986435"><ele>301.0</ele><time>2026-04-26T09:12:57.933Z</time></trkpt><trkpt lat="44.6087617" lon="9.98655"><ele>301.0</ele><time>2026-04-26T09:12:58.933Z</time></trkpt><trkpt lat="44.608825" lon="9.986645"><ele>301.0</ele><time>2026-04-26T09:12:59.933Z</time></trkpt><trkpt lat="44.6088833" lon="9.9867333"><ele>301.0</ele><time>2026-04-26T09:13:00.933Z</time></trkpt><trkpt lat="44.60894" lon="9.986805"><ele>301.0</ele><time>2026-04-26T09:13:01.933Z</time></trkpt><trkpt lat="44.6090183" lon="9.9868583"><ele>301.0</ele><time>2026-04-26T09:13:03.933Z</time></trkpt><trkpt lat="44.6091517" lon="9.9868583"><ele>301.8</ele><time>2026-04-26T09:13:05.933Z</time></trkpt><trkpt lat="44.6092483" lon="9.9868183"><ele>302.6</ele><time>2026-04-26T09:13:06.933Z</time></trkpt><trkpt lat="44.6093383" lon="9.986765"><ele>303.4</ele><time>2026-04-26T09:13:07.933Z</time></trkpt><trkpt lat="44.60943" lon="9.9867033"><ele>304.2</ele><time>2026-04-26T09:13:08.933Z</time></trkpt><trkpt lat="44.60952" lon="9.98663"><ele>305.0</ele><time>2026-04-26T09:13:09.933Z</time></trkpt><trkpt lat="44.6096067" lon="9.9865533"><ele>303.2</ele><time>2026-04-26T09:13:10.933Z</time></trkpt><trkpt lat="44.609685" lon="9.9864817"><ele>301.4</ele><time>2026-04-26T09:13:11.933Z</time></trkpt><trkpt lat="44.6097583" lon="9.98639"><ele>299.6</ele><time>2026-04-26T09:13:12.932Z</time></trkpt><trkpt lat="44.6098233" lon="9.9862833"><ele>297.8</ele><time>2026-04-26T09:13:13.933Z</time></trkpt><trkpt lat="44.6098767" lon="9.986175"><ele>296.0</ele><time>2026-04-26T09:13:14.933Z</time></trkpt><trkpt lat="44.6099467" lon="9.9860717"><ele>296.0</ele><time>2026-04-26T09:13:15.933Z</time></trkpt><trkpt lat="44.6101" lon="9.98591"><ele>296.0</ele><time>2026-04-26T09:13:17.933Z</time></trkpt><trkpt lat="44.610185" lon="9.9858867"><ele>296.0</ele><time>2026-04-26T09:13:18.933Z</time></trkpt><trkpt lat="44.6102567" lon="9.9859283"><ele>296.0</ele><time>2026-04-26T09:13:19.932Z</time></trkpt><trkpt lat="44.6103133" lon="9.986015"><ele>296.0</ele><time>2026-04-26T09:13:20.933Z</time></trkpt><trkpt lat="44.6103533" lon="9.9861417"><ele>292.25</ele><time>2026-04-26T09:13:21.933Z</time></trkpt><trkpt lat="44.6103983" lon="9.98628"><ele>288.5</ele><time>2026-04-26T09:13:22.932Z</time></trkpt><trkpt lat="44.6104417" lon="9.9864283"><ele>284.75</ele><time>2026-04-26T09:13:23.933Z</time></trkpt><trkpt lat="44.610475" lon="9.9866"><ele>281.0</ele><time>2026-04-26T09:13:24.933Z</time></trkpt><trkpt lat="44.610485" lon="9.9867733"><ele>281.0</ele><time>2026-04-26T09:13:25.933Z</time></trkpt><trkpt lat="44.6104883" lon="9.9869467"><ele>281.0</ele><time>2026-04-26T09:13:26.933Z</time></trkpt><trkpt lat="44.6104583" lon="9.9871117"><ele>281.0</ele><time>2026-04-26T09:13:27.933Z</time></trkpt><trkpt lat="44.6104217" lon="9.98726"><ele>281.0</ele><time>2026-04-26T09:13:28.933Z</time></trkpt><trkpt lat="44.6103733" lon="9.987395"><ele>283.1666666666667</ele><time>2026-04-26T09:13:29.932Z</time></trkpt><trkpt lat="44.6103183" lon="9.9875083"><ele>285.33333333333337</ele><time>2026-04-26T09:13:30.933Z</time></trkpt><trkpt lat="44.6102667" lon="9.9876117"><ele>287.5</ele><time>2026-04-26T09:13:31.933Z</time></trkpt><trkpt lat="44.6102267" lon="9.9877083"><ele>289.6666666666667</ele><time>2026-04-26T09:13:32.933Z</time></trkpt><trkpt lat="44.61019" lon="9.9878"><ele>291.8333333333333</ele><time>2026-04-26T09:13:33.933Z</time></trkpt><trkpt lat="44.61019" lon="9.98789"><ele>294.0</ele><time>2026-04-26T09:13:35.932Z</time></trkpt><trkpt lat="44.6102583" lon="9.9878967"><ele>293.5</ele><time>2026-04-26T09:13:37.933Z</time></trkpt><trkpt lat="44.6104167" lon="9.9878217"><ele>293.0</ele><time>2026-04-26T09:13:39.933Z</time></trkpt><trkpt lat="44.61051" lon="9.987775"><ele>292.5</ele><time>2026-04-26T09:13:40.933Z</time></trkpt><trkpt lat="44.61061" lon="9.9877317"><ele>292.0</ele><time>2026-04-26T09:13:41.933Z</time></trkpt><trkpt lat="44.6106967" lon="9.9876733"><ele>292.0</ele><time>2026-04-26T09:13:42.932Z</time></trkpt><trkpt lat="44.6107683" lon="9.9875933"><ele>292.0</ele><time>2026-04-26T09:13:43.933Z</time></trkpt><trkpt lat="44.6108417" lon="9.9875317"><ele>292.0</ele><time>2026-04-26T09:13:44.932Z</time></trkpt><trkpt lat="44.610925" lon="9.9875083"><ele>292.0</ele><time>2026-04-26T09:13:45.933Z</time></trkpt><trkpt lat="44.6110317" lon="9.987495"><ele>292.0</ele><time>2026-04-26T09:13:46.933Z</time></trkpt><trkpt lat="44.6111617" lon="9.9874883"><ele>286.5</ele><time>2026-04-26T09:13:47.933Z</time></trkpt><trkpt lat="44.6112933" lon="9.98748"><ele>281.0</ele><time>2026-04-26T09:13:48.932Z</time></trkpt><trkpt lat="44.6114467" lon="9.9874817"><ele>275.5</ele><time>2026-04-26T09:13:49.933Z</time></trkpt><trkpt lat="44.6115933" lon="9.9874717"><ele>270.0</ele><time>2026-04-26T09:13:50.933Z</time></trkpt><trkpt lat="44.61174" lon="9.9874517"><ele>270.0</ele><time>2026-04-26T09:13:51.932Z</time></trkpt><trkpt lat="44.6118883" lon="9.9874183"><ele>270.0</ele><time>2026-04-26T09:13:52.933Z</time></trkpt><trkpt lat="44.6120367" lon="9.987375"><ele>270.0</ele><time>2026-04-26T09:13:53.933Z</time></trkpt><trkpt lat="44.612175" lon="9.987315"><ele>270.0</ele><time>2026-04-26T09:13:54.933Z</time></trkpt><trkpt lat="44.6123167" lon="9.9872617"><ele>272.25</ele><time>2026-04-26T09:13:55.932Z</time></trkpt><trkpt lat="44.6124467" lon="9.9872283"><ele>274.5</ele><time>2026-04-26T09:13:56.933Z</time></trkpt><trkpt lat="44.612555" lon="9.9872267"><ele>276.75</ele><time>2026-04-26T09:13:57.933Z</time></trkpt><trkpt lat="44.61265" lon="9.9872733"><ele>279.0</ele><time>2026-04-26T09:13:58.933Z</time></trkpt><trkpt lat="44.6127733" lon="9.9875117"><ele>271.3333333333333</ele><time>2026-04-26T09:14:00.933Z</time></trkpt><trkpt lat="44.61284" lon="9.987695"><ele>263.66666666666663</ele><time>2026-04-26T09:14:01.933Z</time></trkpt><trkpt lat="44.6129283" lon="9.9878667"><ele>256.0</ele><time>2026-04-26T09:14:02.933Z</time></trkpt><trkpt lat="44.6130417" lon="9.988015"><ele>256.0</ele><time>2026-04-26T09:14:03.932Z</time></trkpt><trkpt lat="44.6131733" lon="9.9881333"><ele>256.0</ele><time>2026-04-26T09:14:04.933Z</time></trkpt><trkpt lat="44.6133033" lon="9.9882417"><ele>256.0</ele><time>2026-04-26T09:14:05.933Z</time></trkpt><trkpt lat="44.6134233" lon="9.988355"><ele>260.75</ele><time>2026-04-26T09:14:06.933Z</time></trkpt><trkpt lat="44.6135283" lon="9.98849"><ele>265.5</ele><time>2026-04-26T09:14:07.932Z</time></trkpt><trkpt lat="44.6136183" lon="9.9886433"><ele>270.25</ele><time>2026-04-26T09:14:08.932Z</time></trkpt><trkpt lat="44.6136983" lon="9.98881"><ele>275.0</ele><time>2026-04-26T09:14:09.933Z</time></trkpt><trkpt lat="44.61375" lon="9.988985"><ele>268.6</ele><time>2026-04-26T09:14:10.933Z</time></trkpt><trkpt lat="44.61378" lon="9.989145"><ele>262.2</ele><time>2026-04-26T09:14:11.933Z</time></trkpt><trkpt lat="44.6138033" lon="9.9892817"><ele>255.8</ele><time>2026-04-26T09:14:12.933Z</time></trkpt><trkpt lat="44.61383" lon="9.9893733"><ele>249.4</ele><time>2026-04-26T09:14:13.933Z</time></trkpt><trkpt lat="44.6138833" lon="9.9894917"><ele>243.0</ele><time>2026-04-26T09:14:15.933Z</time></trkpt><trkpt lat="44.613895" lon="9.9895917"><ele>243.0</ele><time>2026-04-26T09:14:16.933Z</time></trkpt><trkpt lat="44.6139083" lon="9.9897417"><ele>243.0</ele><time>2026-04-26T09:14:17.933Z</time></trkpt><trkpt lat="44.6139133" lon="9.989945"><ele>243.0</ele><time>2026-04-26T09:14:18.933Z</time></trkpt><trkpt lat="44.613935" lon="9.9901883"><ele>243.0</ele><time>2026-04-26T09:14:19.933Z</time></trkpt><trkpt lat="44.6140367" lon="9.9907467"><ele>251.5</ele><time>2026-04-26T09:14:21.933Z</time></trkpt><trkpt lat="44.6140767" lon="9.9910617"><ele>260.0</ele><time>2026-04-26T09:14:22.932Z</time></trkpt><trkpt lat="44.61413" lon="9.9914017"><ele>262.0</ele><time>2026-04-26T09:14:23.932Z</time></trkpt><trkpt lat="44.614185" lon="9.9917483"><ele>264.0</ele><time>2026-04-26T09:14:24.933Z</time></trkpt><trkpt lat="44.6142717" lon="9.9920817"><ele>264.0</ele><time>2026-04-26T09:14:25.933Z</time></trkpt><trkpt lat="44.6143167" lon="9.9923783"><ele>264.0</ele><time>2026-04-26T09:14:26.933Z</time></trkpt><trkpt lat="44.61436" lon="9.992625"><ele>264.0</ele><time>2026-04-26T09:14:27.932Z</time></trkpt><trkpt lat="44.6144067" lon="9.9928283"><ele>264.25</ele><time>2026-04-26T09:14:28.932Z</time></trkpt><trkpt lat="44.61445" lon="9.993015"><ele>264.5</ele><time>2026-04-26T09:14:29.932Z</time></trkpt><trkpt lat="44.6144817" lon="9.9931967"><ele>264.75</ele><time>2026-04-26T09:14:30.933Z</time></trkpt><trkpt lat="44.6145217" lon="9.9933883"><ele>265.0</ele><time>2026-04-26T09:14:31.933Z</time></trkpt><trkpt lat="44.61457" lon="9.9935933"><ele>265.0</ele><time>2026-04-26T09:14:32.933Z</time></trkpt><trkpt lat="44.614625" lon="9.993805"><ele>265.0</ele><time>2026-04-26T09:14:33.933Z</time></trkpt><trkpt lat="44.6147067" lon="9.9940183"><ele>265.0</ele><time>2026-04-26T09:14:34.933Z</time></trkpt><trkpt lat="44.6147883" lon="9.9942367"><ele>270.0</ele><time>2026-04-26T09:14:35.933Z</time></trkpt><trkpt lat="44.6148833" lon="9.994465"><ele>275.0</ele><time>2026-04-26T09:14:36.933Z</time></trkpt><trkpt lat="44.614975" lon="9.9947"><ele>280.0</ele><time>2026-04-26T09:14:37.933Z</time></trkpt><trkpt lat="44.61506" lon="9.9949383"><ele>278.0</ele><time>2026-04-26T09:14:38.933Z</time></trkpt><trkpt lat="44.6151483" lon="9.9951617"><ele>276.0</ele><time>2026-04-26T09:14:39.932Z</time></trkpt><trkpt lat="44.615225" lon="9.9953883"><ele>274.0</ele><time>2026-04-26T09:14:40.933Z</time></trkpt><trkpt lat="44.6154167" lon="9.996025"><ele>274.0</ele><time>2026-04-26T09:14:43.932Z</time></trkpt><trkpt lat="44.6154833" lon="9.996215"><ele>274.0</ele><time>2026-04-26T09:14:44.933Z</time></trkpt><trkpt lat="44.6155617" lon="9.9963983"><ele>274.0</ele><time>2026-04-26T09:14:45.933Z</time></trkpt><trkpt lat="44.6156417" lon="9.9965717"><ele>276.25</ele><time>2026-04-26T09:14:46.933Z</time></trkpt><trkpt lat="44.6157133" lon="9.9967433"><ele>278.5</ele><time>2026-04-26T09:14:47.933Z</time></trkpt><trkpt lat="44.6157733" lon="9.996915"><ele>280.75</ele><time>2026-04-26T09:14:48.933Z</time></trkpt><trkpt lat="44.61582" lon="9.99709"><ele>283.0</ele><time>2026-04-26T09:14:49.933Z</time></trkpt><trkpt lat="44.6158667" lon="9.9972633"><ele>283.0</ele><time>2026-04-26T09:14:50.933Z</time></trkpt><trkpt lat="44.61592" lon="9.9974333"><ele>283.0</ele><time>2026-04-26T09:14:51.932Z</time></trkpt><trkpt lat="44.6159883" lon="9.9975917"><ele>283.0</ele><time>2026-04-26T09:14:52.933Z</time></trkpt><trkpt lat="44.616075" lon="9.9977317"><ele>283.0</ele><time>2026-04-26T09:14:53.933Z</time></trkpt><trkpt lat="44.6161733" lon="9.9978567"><ele>283.25</ele><time>2026-04-26T09:14:54.933Z</time></trkpt><trkpt lat="44.6162733" lon="9.997965"><ele>283.5</ele><time>2026-04-26T09:14:55.933Z</time></trkpt><trkpt lat="44.61637" lon="9.998045"><ele>283.75</ele><time>2026-04-26T09:14:56.932Z</time></trkpt><trkpt lat="44.6164667" lon="9.99813"><ele>284.0</ele><time>2026-04-26T09:14:57.933Z</time></trkpt><trkpt lat="44.616575" lon="9.9981983"><ele>284.0</ele><time>2026-04-26T09:14:58.933Z</time></trkpt><trkpt lat="44.6167" lon="9.9982367"><ele>284.0</ele><time>2026-04-26T09:14:59.932Z</time></trkpt><trkpt lat="44.6168267" lon="9.99826"><ele>284.0</ele><time>2026-04-26T09:15:00.932Z</time></trkpt><trkpt lat="44.6169517" lon="9.9982917"><ele>284.0</ele><time>2026-04-26T09:15:01.933Z</time></trkpt><trkpt lat="44.6170783" lon="9.9983467"><ele>288.33333333333337</ele><time>2026-04-26T09:15:02.933Z</time></trkpt><trkpt lat="44.61732" lon="9.9985167"><ele>292.6666666666667</ele><time>2026-04-26T09:15:04.933Z</time></trkpt><trkpt lat="44.6174467" lon="9.9986117"><ele>297.0</ele><time>2026-04-26T09:15:05.933Z</time></trkpt><trkpt lat="44.6175817" lon="9.9987133"><ele>297.0</ele><time>2026-04-26T09:15:06.933Z</time></trkpt><trkpt lat="44.6177017" lon="9.9988267"><ele>297.0</ele><time>2026-04-26T09:15:07.933Z</time></trkpt><trkpt lat="44.6178217" lon="9.99896"><ele>297.0</ele><time>2026-04-26T09:15:08.933Z</time></trkpt><trkpt lat="44.6179167" lon="9.9991"><ele>297.0</ele><time>2026-04-26T09:15:09.933Z</time></trkpt><trkpt lat="44.6180117" lon="9.9992367"><ele>294.5</ele><time>2026-04-26T09:15:10.933Z</time></trkpt><trkpt lat="44.6181" lon="9.99938"><ele>292.0</ele><time>2026-04-26T09:15:11.933Z</time></trkpt><trkpt lat="44.61819" lon="9.99952"><ele>289.5</ele><time>2026-04-26T09:15:12.933Z</time></trkpt><trkpt lat="44.61832" lon="9.9996283"><ele>287.0</ele><time>2026-04-26T09:15:13.932Z</time></trkpt><trkpt lat="44.6184567" lon="9.9997083"><ele>287.0</ele><time>2026-04-26T09:15:14.933Z</time></trkpt><trkpt lat="44.6186067" lon="9.9997567"><ele>287.0</ele><time>2026-04-26T09:15:15.933Z</time></trkpt><trkpt lat="44.618755" lon="9.99981"><ele>287.0</ele><time>2026-04-26T09:15:16.933Z</time></trkpt><trkpt lat="44.6188833" lon="9.9998783"><ele>287.0</ele><time>2026-04-26T09:15:17.933Z</time></trkpt><trkpt lat="44.6190033" lon="9.9999583"><ele>281.5</ele><time>2026-04-26T09:15:18.933Z</time></trkpt><trkpt lat="44.61912" lon="10.0000667"><ele>276.0</ele><time>2026-04-26T09:15:19.933Z</time></trkpt><trkpt lat="44.6192267" lon="10.0001867"><ele>270.5</ele><time>2026-04-26T09:15:20.933Z</time></trkpt><trkpt lat="44.6193217" lon="10.0003133"><ele>265.0</ele><time>2026-04-26T09:15:21.933Z</time></trkpt><trkpt lat="44.61941" lon="10.0004467"><ele>260.0</ele><time>2026-04-26T09:15:22.933Z</time></trkpt><trkpt lat="44.6194883" lon="10.00059"><ele>255.0</ele><time>2026-04-26T09:15:23.933Z</time></trkpt><trkpt lat="44.6196183" lon="10.0008933"><ele>250.0</ele><time>2026-04-26T09:15:25.933Z</time></trkpt><trkpt lat="44.6196717" lon="10.0010583"><ele>250.0</ele><time>2026-04-26T09:15:26.933Z</time></trkpt><trkpt lat="44.61974" lon="10.0012"><ele>250.0</ele><time>2026-04-26T09:15:27.933Z</time></trkpt><trkpt lat="44.6198417" lon="10.0013067"><ele>250.0</ele><time>2026-04-26T09:15:28.933Z</time></trkpt><trkpt lat="44.61996" lon="10.001385"><ele>250.0</ele><time>2026-04-26T09:15:29.933Z</time></trkpt><trkpt lat="44.620085" lon="10.001455"><ele>250.0</ele><time>2026-04-26T09:15:30.933Z</time></trkpt><trkpt lat="44.6201933" lon="10.0015267"><ele>250.0</ele><time>2026-04-26T09:15:31.932Z</time></trkpt><trkpt lat="44.6203017" lon="10.0015933"><ele>250.0</ele><time>2026-04-26T09:15:32.933Z</time></trkpt><trkpt lat="44.62041" lon="10.0016667"><ele>250.0</ele><time>2026-04-26T09:15:33.932Z</time></trkpt><trkpt lat="44.6205183" lon="10.00174"><ele>251.25</ele><time>2026-04-26T09:15:34.933Z</time></trkpt><trkpt lat="44.62063" lon="10.001795"><ele>252.5</ele><time>2026-04-26T09:15:35.933Z</time></trkpt><trkpt lat="44.6207517" lon="10.00183"><ele>253.75</ele><time>2026-04-26T09:15:36.932Z</time></trkpt><trkpt lat="44.6208733" lon="10.0018533"><ele>255.0</ele><time>2026-04-26T09:15:37.933Z</time></trkpt><trkpt lat="44.620985" lon="10.0018983"><ele>255.0</ele><time>2026-04-26T09:15:38.932Z</time></trkpt><trkpt lat="44.6210833" lon="10.0019733"><ele>255.0</ele><time>2026-04-26T09:15:39.933Z</time></trkpt><trkpt lat="44.6211667" lon="10.0020917"><ele>255.0</ele><time>2026-04-26T09:15:40.933Z</time></trkpt><trkpt lat="44.6212383" lon="10.00224"><ele>255.0</ele><time>2026-04-26T09:15:41.933Z</time></trkpt><trkpt lat="44.6213183" lon="10.002385"><ele>254.66666666666669</ele><time>2026-04-26T09:15:42.933Z</time></trkpt><trkpt lat="44.6214117" lon="10.0025167"><ele>254.33333333333334</ele><time>2026-04-26T09:15:43.933Z</time></trkpt><trkpt lat="44.621515" lon="10.002625"><ele>254.0</ele><time>2026-04-26T09:15:44.932Z</time></trkpt><trkpt lat="44.6217433" lon="10.0028133"><ele>254.0</ele><time>2026-04-26T09:15:46.933Z</time></trkpt><trkpt lat="44.621855" lon="10.0029033"><ele>254.0</ele><time>2026-04-26T09:15:47.933Z</time></trkpt><trkpt lat="44.6219683" lon="10.0029817"><ele>254.0</ele><time>2026-04-26T09:15:48.933Z</time></trkpt><trkpt lat="44.6220683" lon="10.0030667"><ele>254.0</ele><time>2026-04-26T09:15:49.933Z</time></trkpt><trkpt lat="44.6221533" lon="10.00317"><ele>253.0</ele><time>2026-04-26T09:15:50.933Z</time></trkpt><trkpt lat="44.6222133" lon="10.0033017"><ele>252.0</ele><time>2026-04-26T09:15:51.933Z</time></trkpt><trkpt lat="44.62225" lon="10.0034517"><ele>251.0</ele><time>2026-04-26T09:15:52.932Z</time></trkpt><trkpt lat="44.62228" lon="10.0036017"><ele>250.0</ele><time>2026-04-26T09:15:53.932Z</time></trkpt><trkpt lat="44.6223133" lon="10.0037617"><ele>250.0</ele><time>2026-04-26T09:15:54.932Z</time></trkpt><trkpt lat="44.6223567" lon="10.0039233"><ele>250.0</ele><time>2026-04-26T09:15:55.933Z</time></trkpt><trkpt lat="44.6224133" lon="10.0040883"><ele>250.0</ele><time>2026-04-26T09:15:56.933Z</time></trkpt><trkpt lat="44.62248" lon="10.0042533"><ele>250.0</ele><time>2026-04-26T09:15:57.933Z</time></trkpt><trkpt lat="44.6225533" lon="10.00442"><ele>250.25</ele><time>2026-04-26T09:15:58.933Z</time></trkpt><trkpt lat="44.62263" lon="10.00459"><ele>250.5</ele><time>2026-04-26T09:15:59.932Z</time></trkpt><trkpt lat="44.622705" lon="10.0047617"><ele>250.75</ele><time>2026-04-26T09:16:00.933Z</time></trkpt><trkpt lat="44.6227783" lon="10.0049333"><ele>251.0</ele><time>2026-04-26T09:16:01.933Z</time></trkpt><trkpt lat="44.6228517" lon="10.0051033"><ele>248.0</ele><time>2026-04-26T09:16:02.932Z</time></trkpt><trkpt lat="44.6229267" lon="10.0052733"><ele>245.0</ele><time>2026-04-26T09:16:03.933Z</time></trkpt><trkpt lat="44.6230017" lon="10.0054433"><ele>242.0</ele><time>2026-04-26T09:16:04.933Z</time></trkpt><trkpt lat="44.6230767" lon="10.0056117"><ele>239.0</ele><time>2026-04-26T09:16:05.933Z</time></trkpt><trkpt lat="44.62323" lon="10.0059417"><ele>239.0</ele><time>2026-04-26T09:16:07.933Z</time></trkpt><trkpt lat="44.6233083" lon="10.0061083"><ele>239.0</ele><time>2026-04-26T09:16:08.932Z</time></trkpt><trkpt lat="44.6233833" lon="10.0062783"><ele>239.0</ele><time>2026-04-26T09:16:09.933Z</time></trkpt><trkpt lat="44.6234617" lon="10.0064483"><ele>239.0</ele><time>2026-04-26T09:16:10.932Z</time></trkpt><trkpt lat="44.62355" lon="10.006605"><ele>237.25</ele><time>2026-04-26T09:16:11.933Z</time></trkpt><trkpt lat="44.6236533" lon="10.0067467"><ele>235.5</ele><time>2026-04-26T09:16:12.933Z</time></trkpt><trkpt lat="44.6237683" lon="10.0068783"><ele>233.75</ele><time>2026-04-26T09:16:13.933Z</time></trkpt><trkpt lat="44.6238933" lon="10.0070017"><ele>232.0</ele><time>2026-04-26T09:16:14.933Z</time></trkpt><trkpt lat="44.6240183" lon="10.0071267"><ele>232.0</ele><time>2026-04-26T09:16:15.932Z</time></trkpt><trkpt lat="44.6241417" lon="10.00725"><ele>232.0</ele><time>2026-04-26T09:16:16.933Z</time></trkpt><trkpt lat="44.6242617" lon="10.00737"><ele>232.0</ele><time>2026-04-26T09:16:17.933Z</time></trkpt><trkpt lat="44.6243817" lon="10.007485"><ele>232.0</ele><time>2026-04-26T09:16:18.932Z</time></trkpt><trkpt lat="44.6244983" lon="10.0076017"><ele>231.5</ele><time>2026-04-26T09:16:19.933Z</time></trkpt><trkpt lat="44.62462" lon="10.0077133"><ele>231.0</ele><time>2026-04-26T09:16:20.933Z</time></trkpt><trkpt lat="44.6247417" lon="10.0078283"><ele>230.5</ele><time>2026-04-26T09:16:21.933Z</time></trkpt><trkpt lat="44.6248667" lon="10.0079467"><ele>230.0</ele><time>2026-04-26T09:16:22.933Z</time></trkpt><trkpt lat="44.6249883" lon="10.0080683"><ele>230.0</ele><time>2026-04-26T09:16:23.933Z</time></trkpt><trkpt lat="44.6251133" lon="10.0081933"><ele>230.0</ele><time>2026-04-26T09:16:24.932Z</time></trkpt><trkpt lat="44.6252367" lon="10.0083283"><ele>230.0</ele><time>2026-04-26T09:16:25.933Z</time></trkpt><trkpt lat="44.6253583" lon="10.008465"><ele>226.5</ele><time>2026-04-26T09:16:26.933Z</time></trkpt><trkpt lat="44.6256167" lon="10.0087083"><ele>223.0</ele><time>2026-04-26T09:16:28.932Z</time></trkpt><trkpt lat="44.6257483" lon="10.0088317"><ele>223.0</ele><time>2026-04-26T09:16:29.933Z</time></trkpt><trkpt lat="44.6258783" lon="10.0089717"><ele>223.0</ele><time>2026-04-26T09:16:30.933Z</time></trkpt><trkpt lat="44.6259967" lon="10.0091217"><ele>223.0</ele><time>2026-04-26T09:16:31.933Z</time></trkpt><trkpt lat="44.6261033" lon="10.0092833"><ele>221.33333333333331</ele><time>2026-04-26T09:16:32.933Z</time></trkpt><trkpt lat="44.626205" lon="10.00945"><ele>219.66666666666669</ele><time>2026-04-26T09:16:33.933Z</time></trkpt><trkpt lat="44.6263067" lon="10.009615"><ele>218.0</ele><time>2026-04-26T09:16:34.933Z</time></trkpt><trkpt lat="44.6264017" lon="10.0097817"><ele>218.0</ele><time>2026-04-26T09:16:35.932Z</time></trkpt><trkpt lat="44.6264933" lon="10.0099483"><ele>218.0</ele><time>2026-04-26T09:16:36.933Z</time></trkpt><trkpt lat="44.6265783" lon="10.0101033"><ele>218.0</ele><time>2026-04-26T09:16:37.933Z</time></trkpt><trkpt lat="44.6266517" lon="10.01025"><ele>218.0</ele><time>2026-04-26T09:16:38.933Z</time></trkpt><trkpt lat="44.6267167" lon="10.0103967"><ele>218.25</ele><time>2026-04-26T09:16:39.933Z</time></trkpt><trkpt lat="44.6267917" lon="10.0105467"><ele>218.5</ele><time>2026-04-26T09:16:40.933Z</time></trkpt><trkpt lat="44.62687" lon="10.0106983"><ele>218.75</ele><time>2026-04-26T09:16:41.932Z</time></trkpt><trkpt lat="44.6269517" lon="10.0108583"><ele>219.0</ele><time>2026-04-26T09:16:42.933Z</time></trkpt><trkpt lat="44.627035" lon="10.01103"><ele>218.0</ele><time>2026-04-26T09:16:43.933Z</time></trkpt><trkpt lat="44.627125" lon="10.011195"><ele>217.0</ele><time>2026-04-26T09:16:44.933Z</time></trkpt><trkpt lat="44.6272317" lon="10.011365"><ele>216.0</ele><time>2026-04-26T09:16:45.933Z</time></trkpt><trkpt lat="44.62734" lon="10.011535"><ele>220.0</ele><time>2026-04-26T09:16:46.933Z</time></trkpt><trkpt lat="44.627455" lon="10.0117083"><ele>224.0</ele><time>2026-04-26T09:16:47.932Z</time></trkpt><trkpt lat="44.6276517" lon="10.0120267"><ele>224.0</ele><time>2026-04-26T09:16:49.932Z</time></trkpt><trkpt lat="44.62775" lon="10.0121833"><ele>224.0</ele><time>2026-04-26T09:16:50.932Z</time></trkpt><trkpt lat="44.6278517" lon="10.01233"><ele>224.0</ele><time>2026-04-26T09:16:51.932Z</time></trkpt><trkpt lat="44.6279567" lon="10.01247"><ele>224.0</ele><time>2026-04-26T09:16:52.932Z</time></trkpt><trkpt lat="44.62806" lon="10.012605"><ele>222.75</ele><time>2026-04-26T09:16:53.932Z</time></trkpt><trkpt lat="44.62816" lon="10.012745"><ele>221.5</ele><time>2026-04-26T09:16:54.932Z</time></trkpt><trkpt lat="44.62827" lon="10.0128733"><ele>220.25</ele><time>2026-04-26T09:16:55.932Z</time></trkpt><trkpt lat="44.6283867" lon="10.012995"><ele>219.0</ele><time>2026-04-26T09:16:56.932Z</time></trkpt><trkpt lat="44.628515" lon="10.0130783"><ele>218.25</ele><time>2026-04-26T09:16:57.932Z</time></trkpt><trkpt lat="44.6286433" lon="10.0131317"><ele>217.5</ele><time>2026-04-26T09:16:58.932Z</time></trkpt><trkpt lat="44.6287617" lon="10.0131817"><ele>216.75</ele><time>2026-04-26T09:16:59.932Z</time></trkpt><trkpt lat="44.6288633" lon="10.0132483"><ele>216.0</ele><time>2026-04-26T09:17:00.932Z</time></trkpt><trkpt lat="44.6289483" lon="10.0133367"><ele>216.0</ele><time>2026-04-26T09:17:01.932Z</time></trkpt><trkpt lat="44.6290167" lon="10.0134517"><ele>216.0</ele><time>2026-04-26T09:17:02.932Z</time></trkpt><trkpt lat="44.629055" lon="10.0135983"><ele>216.0</ele><time>2026-04-26T09:17:03.932Z</time></trkpt><trkpt lat="44.6290667" lon="10.0137717"><ele>216.0</ele><time>2026-04-26T09:17:04.932Z</time></trkpt><trkpt lat="44.6290533" lon="10.0139533"><ele>217.33333333333331</ele><time>2026-04-26T09:17:05.931Z</time></trkpt><trkpt lat="44.6290367" lon="10.014155"><ele>218.66666666666666</ele><time>2026-04-26T09:17:06.932Z</time></trkpt><trkpt lat="44.62902" lon="10.014375"><ele>220.0</ele><time>2026-04-26T09:17:07.931Z</time></trkpt><trkpt lat="44.629005" lon="10.0146283"><ele>220.0</ele><time>2026-04-26T09:17:08.932Z</time></trkpt><trkpt lat="44.6289883" lon="10.01491"><ele>220.0</ele><time>2026-04-26T09:17:09.932Z</time></trkpt><trkpt lat="44.6289217" lon="10.0155933"><ele>215.5</ele><time>2026-04-26T09:17:11.932Z</time></trkpt><trkpt lat="44.6288717" lon="10.01594"><ele>211.0</ele><time>2026-04-26T09:17:12.932Z</time></trkpt><trkpt lat="44.6288333" lon="10.0162783"><ele>211.0</ele><time>2026-04-26T09:17:13.932Z</time></trkpt><trkpt lat="44.6287983" lon="10.0165967"><ele>211.0</ele><time>2026-04-26T09:17:14.932Z</time></trkpt><trkpt lat="44.6287733" lon="10.0168967"><ele>211.0</ele><time>2026-04-26T09:17:15.931Z</time></trkpt><trkpt lat="44.628755" lon="10.0171883"><ele>210.33333333333331</ele><time>2026-04-26T09:17:16.932Z</time></trkpt><trkpt lat="44.6287317" lon="10.017475"><ele>209.66666666666669</ele><time>2026-04-26T09:17:17.932Z</time></trkpt><trkpt lat="44.6286967" lon="10.017755"><ele>209.0</ele><time>2026-04-26T09:17:18.932Z</time></trkpt><trkpt lat="44.6286717" lon="10.018035"><ele>208.66666666666669</ele><time>2026-04-26T09:17:19.932Z</time></trkpt><trkpt lat="44.6286517" lon="10.0183167"><ele>208.33333333333331</ele><time>2026-04-26T09:17:20.932Z</time></trkpt><trkpt lat="44.6286433" lon="10.0186017"><ele>208.0</ele><time>2026-04-26T09:17:21.932Z</time></trkpt><trkpt lat="44.6286533" lon="10.01889"><ele>206.33333333333331</ele><time>2026-04-26T09:17:22.932Z</time></trkpt><trkpt lat="44.6286783" lon="10.01918"><ele>204.66666666666669</ele><time>2026-04-26T09:17:23.932Z</time></trkpt><trkpt lat="44.6287167" lon="10.01947"><ele>203.0</ele><time>2026-04-26T09:17:24.932Z</time></trkpt><trkpt lat="44.6287767" lon="10.0197583"><ele>202.66666666666669</ele><time>2026-04-26T09:17:25.932Z</time></trkpt><trkpt lat="44.62884" lon="10.0200517"><ele>202.33333333333331</ele><time>2026-04-26T09:17:26.932Z</time></trkpt><trkpt lat="44.6288967" lon="10.0203367"><ele>202.0</ele><time>2026-04-26T09:17:27.932Z</time></trkpt><trkpt lat="44.628955" lon="10.0206"><ele>203.33333333333331</ele><time>2026-04-26T09:17:28.931Z</time></trkpt><trkpt lat="44.6290333" lon="10.020845"><ele>204.66666666666669</ele><time>2026-04-26T09:17:29.932Z</time></trkpt><trkpt lat="44.6291283" lon="10.0210617"><ele>206.0</ele><time>2026-04-26T09:17:30.932Z</time></trkpt><trkpt lat="44.6292983" lon="10.0215067"><ele>202.66666666666669</ele><time>2026-04-26T09:17:32.932Z</time></trkpt><trkpt lat="44.6293667" lon="10.0217667"><ele>199.33333333333331</ele><time>2026-04-26T09:17:33.932Z</time></trkpt><trkpt lat="44.629445" lon="10.0220317"><ele>196.0</ele><time>2026-04-26T09:17:34.932Z</time></trkpt><trkpt lat="44.6295267" lon="10.02228"><ele>199.0</ele><time>2026-04-26T09:17:35.932Z</time></trkpt><trkpt lat="44.6296183" lon="10.0225117"><ele>202.0</ele><time>2026-04-26T09:17:36.932Z</time></trkpt><trkpt lat="44.6297217" lon="10.0227217"><ele>205.0</ele><time>2026-04-26T09:17:37.932Z</time></trkpt><trkpt lat="44.629815" lon="10.02294"><ele>205.0</ele><time>2026-04-26T09:17:38.932Z</time></trkpt><trkpt lat="44.62991" lon="10.023145"><ele>205.0</ele><time>2026-04-26T09:17:39.932Z</time></trkpt><trkpt lat="44.629985" lon="10.02335"><ele>205.0</ele><time>2026-04-26T09:17:40.932Z</time></trkpt><trkpt lat="44.6300667" lon="10.0235533"><ele>203.0</ele><time>2026-04-26T09:17:41.931Z</time></trkpt><trkpt lat="44.6301833" lon="10.0237433"><ele>201.0</ele><time>2026-04-26T09:17:42.932Z</time></trkpt><trkpt lat="44.630325" lon="10.02393"><ele>199.0</ele><time>2026-04-26T09:17:43.931Z</time></trkpt><trkpt lat="44.6304783" lon="10.0241183"><ele>202.0</ele><time>2026-04-26T09:17:44.932Z</time></trkpt><trkpt lat="44.63064" lon="10.02432"><ele>205.0</ele><time>2026-04-26T09:17:45.932Z</time></trkpt><trkpt lat="44.6307983" lon="10.0245367"><ele>208.0</ele><time>2026-04-26T09:17:46.931Z</time></trkpt><trkpt lat="44.6309617" lon="10.02474"><ele>208.0</ele><time>2026-04-26T09:17:47.932Z</time></trkpt><trkpt lat="44.631115" lon="10.0249533"><ele>208.0</ele><time>2026-04-26T09:17:48.932Z</time></trkpt><trkpt lat="44.6312617" lon="10.025185"><ele>208.0</ele><time>2026-04-26T09:17:49.932Z</time></trkpt><trkpt lat="44.6313933" lon="10.025425"><ele>208.5</ele><time>2026-04-26T09:17:50.932Z</time></trkpt><trkpt lat="44.6315183" lon="10.0256683"><ele>209.0</ele><time>2026-04-26T09:17:51.931Z</time></trkpt><trkpt lat="44.6317617" lon="10.02614"><ele>209.0</ele><time>2026-04-26T09:17:53.931Z</time></trkpt><trkpt lat="44.6318917" lon="10.026375"><ele>209.0</ele><time>2026-04-26T09:17:54.932Z</time></trkpt><trkpt lat="44.63202" lon="10.02661"><ele>209.0</ele><time>2026-04-26T09:17:55.932Z</time></trkpt><trkpt lat="44.6321483" lon="10.0268417"><ele>208.0</ele><time>2026-04-26T09:17:56.932Z</time></trkpt><trkpt lat="44.6322817" lon="10.0270733"><ele>207.0</ele><time>2026-04-26T09:17:57.932Z</time></trkpt><trkpt lat="44.63241" lon="10.027305"><ele>206.0</ele><time>2026-04-26T09:17:58.932Z</time></trkpt><trkpt lat="44.6325333" lon="10.0275383"><ele>206.0</ele><time>2026-04-26T09:17:59.932Z</time></trkpt><trkpt lat="44.63266" lon="10.027775"><ele>206.0</ele><time>2026-04-26T09:18:00.932Z</time></trkpt><trkpt lat="44.6327917" lon="10.0280067"><ele>206.0</ele><time>2026-04-26T09:18:01.932Z</time></trkpt><trkpt lat="44.6329183" lon="10.0282483"><ele>203.33333333333334</ele><time>2026-04-26T09:18:02.932Z</time></trkpt><trkpt lat="44.6330317" lon="10.0284967"><ele>200.66666666666669</ele><time>2026-04-26T09:18:03.932Z</time></trkpt><trkpt lat="44.633135" lon="10.0287417"><ele>198.0</ele><time>2026-04-26T09:18:04.931Z</time></trkpt><trkpt lat="44.6332433" lon="10.02898"><ele>201.0</ele><time>2026-04-26T09:18:05.932Z</time></trkpt><trkpt lat="44.6333567" lon="10.029225"><ele>204.0</ele><time>2026-04-26T09:18:06.932Z</time></trkpt><trkpt lat="44.6334683" lon="10.02947"><ele>207.0</ele><time>2026-04-26T09:18:07.931Z</time></trkpt><trkpt lat="44.63358" lon="10.0297117"><ele>203.66666666666669</ele><time>2026-04-26T09:18:08.931Z</time></trkpt><trkpt lat="44.6336883" lon="10.0299467"><ele>200.33333333333334</ele><time>2026-04-26T09:18:09.932Z</time></trkpt><trkpt lat="44.633795" lon="10.030195"><ele>197.0</ele><time>2026-04-26T09:18:10.932Z</time></trkpt><trkpt lat="44.6338833" lon="10.0304517"><ele>197.0</ele><time>2026-04-26T09:18:11.932Z</time></trkpt><trkpt lat="44.6339683" lon="10.030715"><ele>197.0</ele><time>2026-04-26T09:18:12.932Z</time></trkpt><trkpt lat="44.63412" lon="10.0312567"><ele>199.0</ele><time>2026-04-26T09:18:14.932Z</time></trkpt><trkpt lat="44.634195" lon="10.03153"><ele>201.0</ele><time>2026-04-26T09:18:15.932Z</time></trkpt><trkpt lat="44.63427" lon="10.0318033"><ele>203.0</ele><time>2026-04-26T09:18:16.932Z</time></trkpt><trkpt lat="44.6343333" lon="10.0320767"><ele>204.33333333333334</ele><time>2026-04-26T09:18:17.932Z</time></trkpt><trkpt lat="44.634395" lon="10.0323283"><ele>205.66666666666669</ele><time>2026-04-26T09:18:18.932Z</time></trkpt><trkpt lat="44.6344633" lon="10.032575"><ele>207.0</ele><time>2026-04-26T09:18:19.932Z</time></trkpt><trkpt lat="44.634545" lon="10.032805"><ele>205.0</ele><time>2026-04-26T09:18:20.932Z</time></trkpt><trkpt lat="44.63464" lon="10.0330283"><ele>203.0</ele><time>2026-04-26T09:18:21.932Z</time></trkpt><trkpt lat="44.6347433" lon="10.0332483"><ele>201.0</ele><time>2026-04-26T09:18:22.931Z</time></trkpt><trkpt lat="44.634855" lon="10.0334667"><ele>201.0</ele><time>2026-04-26T09:18:23.932Z</time></trkpt><trkpt lat="44.6349667" lon="10.0336833"><ele>201.0</ele><time>2026-04-26T09:18:24.932Z</time></trkpt><trkpt lat="44.63508" lon="10.0338983"><ele>201.0</ele><time>2026-04-26T09:18:25.932Z</time></trkpt><trkpt lat="44.635195" lon="10.034115"><ele>199.66666666666669</ele><time>2026-04-26T09:18:26.932Z</time></trkpt><trkpt lat="44.6353117" lon="10.0343167"><ele>198.33333333333334</ele><time>2026-04-26T09:18:27.932Z</time></trkpt><trkpt lat="44.635435" lon="10.0345083"><ele>197.0</ele><time>2026-04-26T09:18:28.932Z</time></trkpt><trkpt lat="44.6355633" lon="10.034675"><ele>197.0</ele><time>2026-04-26T09:18:29.932Z</time></trkpt><trkpt lat="44.6357083" lon="10.03482"><ele>197.0</ele><time>2026-04-26T09:18:30.932Z</time></trkpt><trkpt lat="44.6358667" lon="10.03494"><ele>197.0</ele><time>2026-04-26T09:18:31.932Z</time></trkpt><trkpt lat="44.6360267" lon="10.03505"><ele>196.5</ele><time>2026-04-26T09:18:32.932Z</time></trkpt><trkpt lat="44.6361817" lon="10.0351533"><ele>196.0</ele><time>2026-04-26T09:18:33.932Z</time></trkpt><trkpt lat="44.63649" lon="10.035375"><ele>196.0</ele><time>2026-04-26T09:18:35.932Z</time></trkpt><trkpt lat="44.636635" lon="10.0355"><ele>196.0</ele><time>2026-04-26T09:18:36.932Z</time></trkpt><trkpt lat="44.63677" lon="10.0356483"><ele>196.0</ele><time>2026-04-26T09:18:37.932Z</time></trkpt><trkpt lat="44.63689" lon="10.035815"><ele>194.66666666666666</ele><time>2026-04-26T09:18:38.932Z</time></trkpt><trkpt lat="44.637" lon="10.035995"><ele>193.33333333333331</ele><time>2026-04-26T09:18:39.932Z</time></trkpt><trkpt lat="44.637105" lon="10.0361933"><ele>192.0</ele><time>2026-04-26T09:18:40.932Z</time></trkpt><trkpt lat="44.6372183" lon="10.0363867"><ele>192.0</ele><time>2026-04-26T09:18:41.932Z</time></trkpt><trkpt lat="44.6373367" lon="10.036585"><ele>192.0</ele><time>2026-04-26T09:18:42.932Z</time></trkpt><trkpt lat="44.6374617" lon="10.036785"><ele>192.0</ele><time>2026-04-26T09:18:43.932Z</time></trkpt><trkpt lat="44.6375767" lon="10.0369967"><ele>192.33333333333331</ele><time>2026-04-26T09:18:44.932Z</time></trkpt><trkpt lat="44.6377" lon="10.0372017"><ele>192.66666666666666</ele><time>2026-04-26T09:18:45.932Z</time></trkpt><trkpt lat="44.6378233" lon="10.0374083"><ele>193.0</ele><time>2026-04-26T09:18:46.931Z</time></trkpt><trkpt lat="44.6379417" lon="10.03762"><ele>193.0</ele><time>2026-04-26T09:18:47.932Z</time></trkpt><trkpt lat="44.638065" lon="10.0378317"><ele>193.0</ele><time>2026-04-26T09:18:48.932Z</time></trkpt><trkpt lat="44.6381917" lon="10.0380467"><ele>193.0</ele><time>2026-04-26T09:18:49.932Z</time></trkpt><trkpt lat="44.63832" lon="10.0382683"><ele>192.0</ele><time>2026-04-26T09:18:50.931Z</time></trkpt><trkpt lat="44.6384467" lon="10.0384867"><ele>191.0</ele><time>2026-04-26T09:18:51.932Z</time></trkpt><trkpt lat="44.638575" lon="10.038705"><ele>190.0</ele><time>2026-04-26T09:18:52.932Z</time></trkpt><trkpt lat="44.638705" lon="10.0389217"><ele>192.5</ele><time>2026-04-26T09:18:53.932Z</time></trkpt><trkpt lat="44.638835" lon="10.0391417"><ele>195.0</ele><time>2026-04-26T09:18:54.931Z</time></trkpt><trkpt lat="44.6391017" lon="10.0395833"><ele>195.0</ele><time>2026-04-26T09:18:56.932Z</time></trkpt><trkpt lat="44.6392367" lon="10.0398067"><ele>195.0</ele><time>2026-04-26T09:18:57.932Z</time></trkpt><trkpt lat="44.6393733" lon="10.04003"><ele>195.0</ele><time>2026-04-26T09:18:58.931Z</time></trkpt><trkpt lat="44.6395067" lon="10.0402567"><ele>194.0</ele><time>2026-04-26T09:18:59.931Z</time></trkpt><trkpt lat="44.6396383" lon="10.04049"><ele>193.0</ele><time>2026-04-26T09:19:00.932Z</time></trkpt><trkpt lat="44.6397667" lon="10.0407217"><ele>192.0</ele><time>2026-04-26T09:19:01.932Z</time></trkpt><trkpt lat="44.6399" lon="10.040955"><ele>192.0</ele><time>2026-04-26T09:19:02.932Z</time></trkpt><trkpt lat="44.6400333" lon="10.041195"><ele>192.0</ele><time>2026-04-26T09:19:03.932Z</time></trkpt><trkpt lat="44.6401683" lon="10.0414333"><ele>192.0</ele><time>2026-04-26T09:19:04.932Z</time></trkpt><trkpt lat="44.6403017" lon="10.0416683"><ele>191.0</ele><time>2026-04-26T09:19:05.932Z</time></trkpt><trkpt lat="44.6404317" lon="10.0419033"><ele>190.0</ele><time>2026-04-26T09:19:06.932Z</time></trkpt><trkpt lat="44.640565" lon="10.042135"><ele>189.0</ele><time>2026-04-26T09:19:07.932Z</time></trkpt><trkpt lat="44.6407017" lon="10.0423617"><ele>190.0</ele><time>2026-04-26T09:19:08.932Z</time></trkpt><trkpt lat="44.6408367" lon="10.04258"><ele>191.0</ele><time>2026-04-26T09:19:09.932Z</time></trkpt><trkpt lat="44.640975" lon="10.0427917"><ele>192.0</ele><time>2026-04-26T09:19:10.932Z</time></trkpt><trkpt lat="44.6411167" lon="10.043"><ele>191.66666666666666</ele><time>2026-04-26T09:19:11.932Z</time></trkpt><trkpt lat="44.641255" lon="10.0431917"><ele>191.33333333333331</ele><time>2026-04-26T09:19:12.932Z</time></trkpt><trkpt lat="44.6414" lon="10.04339"><ele>191.0</ele><time>2026-04-26T09:19:13.932Z</time></trkpt><trkpt lat="44.64155" lon="10.0436017"><ele>191.0</ele><time>2026-04-26T09:19:14.932Z</time></trkpt><trkpt lat="44.6416983" lon="10.0438"><ele>191.0</ele><time>2026-04-26T09:19:15.932Z</time></trkpt><trkpt lat="44.6419967" lon="10.0441917"><ele>190.66666666666666</ele><time>2026-04-26T09:19:17.931Z</time></trkpt><trkpt lat="44.6421467" lon="10.044385"><ele>190.33333333333334</ele><time>2026-04-26T09:19:18.932Z</time></trkpt><trkpt lat="44.6423067" lon="10.044575"><ele>190.0</ele><time>2026-04-26T09:19:19.932Z</time></trkpt><trkpt lat="44.6424533" lon="10.0447717"><ele>190.0</ele><time>2026-04-26T09:19:20.932Z</time></trkpt><trkpt lat="44.6426083" lon="10.04496"><ele>190.0</ele><time>2026-04-26T09:19:21.93Z</time></trkpt><trkpt lat="44.642765" lon="10.045135"><ele>190.0</ele><time>2026-04-26T09:19:22.932Z</time></trkpt><trkpt lat="44.6429433" lon="10.0452933"><ele>189.66666666666669</ele><time>2026-04-26T09:19:23.932Z</time></trkpt><trkpt lat="44.64313" lon="10.0454333"><ele>189.33333333333334</ele><time>2026-04-26T09:19:24.932Z</time></trkpt><trkpt lat="44.6433133" lon="10.045565"><ele>189.0</ele><time>2026-04-26T09:19:25.932Z</time></trkpt><trkpt lat="44.6434933" lon="10.0456917"><ele>189.66666666666666</ele><time>2026-04-26T09:19:26.932Z</time></trkpt><trkpt lat="44.643675" lon="10.0458183"><ele>190.33333333333331</ele><time>2026-04-26T09:19:27.931Z</time></trkpt><trkpt lat="44.6438617" lon="10.045945"><ele>191.0</ele><time>2026-04-26T09:19:28.932Z</time></trkpt><trkpt lat="44.6440417" lon="10.0460717"><ele>191.0</ele><time>2026-04-26T09:19:29.932Z</time></trkpt><trkpt lat="44.6442433" lon="10.046155"><ele>191.0</ele><time>2026-04-26T09:19:30.931Z</time></trkpt><trkpt lat="44.6444467" lon="10.0461933"><ele>191.0</ele><time>2026-04-26T09:19:31.932Z</time></trkpt><trkpt lat="44.6446567" lon="10.04619"><ele>190.33333333333331</ele><time>2026-04-26T09:19:32.931Z</time></trkpt><trkpt lat="44.6448533" lon="10.0461833"><ele>189.66666666666666</ele><time>2026-04-26T09:19:33.932Z</time></trkpt><trkpt lat="44.6450567" lon="10.0461833"><ele>189.0</ele><time>2026-04-26T09:19:34.932Z</time></trkpt><trkpt lat="44.6452567" lon="10.046215"><ele>187.5</ele><time>2026-04-26T09:19:35.932Z</time></trkpt><trkpt lat="44.645455" lon="10.0462583"><ele>186.0</ele><time>2026-04-26T09:19:36.932Z</time></trkpt><trkpt lat="44.6458283" lon="10.0463933"><ele>186.0</ele><time>2026-04-26T09:19:38.932Z</time></trkpt><trkpt lat="44.6460167" lon="10.0464683"><ele>186.0</ele><time>2026-04-26T09:19:39.931Z</time></trkpt><trkpt lat="44.646205" lon="10.0465617"><ele>186.0</ele><time>2026-04-26T09:19:40.932Z</time></trkpt><trkpt lat="44.6463883" lon="10.0466433"><ele>187.0</ele><time>2026-04-26T09:19:41.931Z</time></trkpt><trkpt lat="44.6465717" lon="10.046745"><ele>188.0</ele><time>2026-04-26T09:19:42.932Z</time></trkpt><trkpt lat="44.646765" lon="10.04684"><ele>189.0</ele><time>2026-04-26T09:19:43.932Z</time></trkpt><trkpt lat="44.6469533" lon="10.0469417"><ele>187.33333333333334</ele><time>2026-04-26T09:19:44.932Z</time></trkpt><trkpt lat="44.64714" lon="10.0470367"><ele>185.66666666666669</ele><time>2026-04-26T09:19:45.931Z</time></trkpt><trkpt lat="44.64733" lon="10.0471083"><ele>184.0</ele><time>2026-04-26T09:19:46.932Z</time></trkpt><trkpt lat="44.647525" lon="10.0471667"><ele>184.0</ele><time>2026-04-26T09:19:47.931Z</time></trkpt><trkpt lat="44.6477233" lon="10.0472167"><ele>184.0</ele><time>2026-04-26T09:19:48.931Z</time></trkpt><trkpt lat="44.6479283" lon="10.0472733"><ele>184.0</ele><time>2026-04-26T09:19:49.932Z</time></trkpt><trkpt lat="44.6481283" lon="10.04733"><ele>184.33333333333334</ele><time>2026-04-26T09:19:50.932Z</time></trkpt><trkpt lat="44.6483333" lon="10.0473983"><ele>184.66666666666666</ele><time>2026-04-26T09:19:51.932Z</time></trkpt><trkpt lat="44.6485433" lon="10.0474617"><ele>185.0</ele><time>2026-04-26T09:19:52.932Z</time></trkpt><trkpt lat="44.648755" lon="10.0475233"><ele>185.0</ele><time>2026-04-26T09:19:53.932Z</time></trkpt><trkpt lat="44.648955" lon="10.0476"><ele>185.0</ele><time>2026-04-26T09:19:54.931Z</time></trkpt><trkpt lat="44.6491567" lon="10.047675"><ele>185.0</ele><time>2026-04-26T09:19:55.932Z</time></trkpt><trkpt lat="44.6493533" lon="10.04776"><ele>184.0</ele><time>2026-04-26T09:19:56.932Z</time></trkpt><trkpt lat="44.6495517" lon="10.0478517"><ele>183.0</ele><time>2026-04-26T09:19:57.932Z</time></trkpt><trkpt lat="44.64994" lon="10.0480567"><ele>183.0</ele><time>2026-04-26T09:19:59.931Z</time></trkpt><trkpt lat="44.6501283" lon="10.048165"><ele>183.0</ele><time>2026-04-26T09:20:00.932Z</time></trkpt><trkpt lat="44.6503167" lon="10.0482867"><ele>183.0</ele><time>2026-04-26T09:20:01.932Z</time></trkpt><trkpt lat="44.6505083" lon="10.04841"><ele>183.33333333333334</ele><time>2026-04-26T09:20:02.932Z</time></trkpt><trkpt lat="44.6506883" lon="10.04854"><ele>183.66666666666669</ele><time>2026-04-26T09:20:03.931Z</time></trkpt><trkpt lat="44.65087" lon="10.0486717"><ele>184.0</ele><time>2026-04-26T09:20:04.932Z</time></trkpt><trkpt lat="44.6510533" lon="10.04881"><ele>182.66666666666669</ele><time>2026-04-26T09:20:05.932Z</time></trkpt><trkpt lat="44.6512317" lon="10.0489483"><ele>181.33333333333334</ele><time>2026-04-26T09:20:06.932Z</time></trkpt><trkpt lat="44.6514167" lon="10.0490883"><ele>180.0</ele><time>2026-04-26T09:20:07.932Z</time></trkpt><trkpt lat="44.6515783" lon="10.0492033"><ele>181.0</ele><time>2026-04-26T09:20:08.932Z</time></trkpt><trkpt lat="44.6517517" lon="10.0493417"><ele>182.0</ele><time>2026-04-26T09:20:09.932Z</time></trkpt><trkpt lat="44.6519317" lon="10.0494833"><ele>183.0</ele><time>2026-04-26T09:20:10.931Z</time></trkpt><trkpt lat="44.6521133" lon="10.0496317"><ele>183.0</ele><time>2026-04-26T09:20:11.931Z</time></trkpt><trkpt lat="44.6522883" lon="10.0497717"><ele>183.0</ele><time>2026-04-26T09:20:12.932Z</time></trkpt><trkpt lat="44.6528533" lon="10.050595"><ele>182.66666666666666</ele><time>2026-04-26T09:20:16.94Z</time></trkpt><trkpt lat="44.6530067" lon="10.050825"><ele>182.33333333333331</ele><time>2026-04-26T09:20:17.941Z</time></trkpt><trkpt lat="44.65314" lon="10.0510317"><ele>182.0</ele><time>2026-04-26T09:20:18.941Z</time></trkpt><trkpt lat="44.6533517" lon="10.051495"><ele>182.33333333333331</ele><time>2026-04-26T09:20:20.941Z</time></trkpt><trkpt lat="44.6534683" lon="10.0517267"><ele>182.66666666666666</ele><time>2026-04-26T09:20:21.941Z</time></trkpt><trkpt lat="44.6535833" lon="10.05196"><ele>183.0</ele><time>2026-04-26T09:20:22.941Z</time></trkpt><trkpt lat="44.6536983" lon="10.0521933"><ele>181.66666666666666</ele><time>2026-04-26T09:20:23.941Z</time></trkpt><trkpt lat="44.6538117" lon="10.05243"><ele>180.33333333333331</ele><time>2026-04-26T09:20:24.94Z</time></trkpt><trkpt lat="44.6539283" lon="10.052665"><ele>179.0</ele><time>2026-04-26T09:20:25.941Z</time></trkpt><trkpt lat="44.6540367" lon="10.0528983"><ele>179.0</ele><time>2026-04-26T09:20:26.941Z</time></trkpt><trkpt lat="44.6541517" lon="10.0531417"><ele>179.0</ele><time>2026-04-26T09:20:27.941Z</time></trkpt><trkpt lat="44.6542733" lon="10.053395"><ele>179.0</ele><time>2026-04-26T09:20:28.941Z</time></trkpt><trkpt lat="44.654395" lon="10.0536433"><ele>177.66666666666666</ele><time>2026-04-26T09:20:29.941Z</time></trkpt><trkpt lat="44.65452" lon="10.0538917"><ele>176.33333333333334</ele><time>2026-04-26T09:20:30.941Z</time></trkpt><trkpt lat="44.6546383" lon="10.0541333"><ele>175.0</ele><time>2026-04-26T09:20:31.941Z</time></trkpt><trkpt lat="44.6547617" lon="10.054375"><ele>175.0</ele><time>2026-04-26T09:20:32.941Z</time></trkpt><trkpt lat="44.654885" lon="10.0546133"><ele>175.0</ele><time>2026-04-26T09:20:33.941Z</time></trkpt><trkpt lat="44.6550133" lon="10.05485"><ele>175.0</ele><time>2026-04-26T09:20:34.941Z</time></trkpt><trkpt lat="44.65514" lon="10.0550833"><ele>175.66666666666669</ele><time>2026-04-26T09:20:35.941Z</time></trkpt><trkpt lat="44.655275" lon="10.05531"><ele>176.33333333333334</ele><time>2026-04-26T09:20:36.941Z</time></trkpt><trkpt lat="44.655415" lon="10.055535"><ele>177.0</ele><time>2026-04-26T09:20:37.941Z</time></trkpt><trkpt lat="44.65556" lon="10.055745"><ele>176.66666666666666</ele><time>2026-04-26T09:20:38.941Z</time></trkpt><trkpt lat="44.6557083" lon="10.0559533"><ele>176.33333333333331</ele><time>2026-04-26T09:20:39.941Z</time></trkpt><trkpt lat="44.65586" lon="10.056145"><ele>176.0</ele><time>2026-04-26T09:20:40.941Z</time></trkpt><trkpt lat="44.6561333" lon="10.0565133"><ele>174.66666666666666</ele><time>2026-04-26T09:20:42.941Z</time></trkpt><trkpt lat="44.65626" lon="10.0566883"><ele>173.33333333333334</ele><time>2026-04-26T09:20:43.941Z</time></trkpt><trkpt lat="44.6563917" lon="10.0568567"><ele>172.0</ele><time>2026-04-26T09:20:44.941Z</time></trkpt><trkpt lat="44.6565233" lon="10.057015"><ele>172.0</ele><time>2026-04-26T09:20:45.94Z</time></trkpt><trkpt lat="44.6566483" lon="10.0571783"><ele>172.0</ele><time>2026-04-26T09:20:46.94Z</time></trkpt><trkpt lat="44.6567717" lon="10.0573483"><ele>172.0</ele><time>2026-04-26T09:20:47.941Z</time></trkpt><trkpt lat="44.6569017" lon="10.057525"><ele>171.66666666666669</ele><time>2026-04-26T09:20:48.94Z</time></trkpt><trkpt lat="44.6570383" lon="10.057705"><ele>171.33333333333334</ele><time>2026-04-26T09:20:49.94Z</time></trkpt><trkpt lat="44.657175" lon="10.0578933"><ele>171.0</ele><time>2026-04-26T09:20:50.941Z</time></trkpt><trkpt lat="44.6573183" lon="10.058085"><ele>171.0</ele><time>2026-04-26T09:20:51.941Z</time></trkpt><trkpt lat="44.65746" lon="10.0582667"><ele>171.0</ele><time>2026-04-26T09:20:52.941Z</time></trkpt><trkpt lat="44.6576017" lon="10.0584717"><ele>171.0</ele><time>2026-04-26T09:20:53.941Z</time></trkpt><trkpt lat="44.6577383" lon="10.0586767"><ele>171.33333333333334</ele><time>2026-04-26T09:20:54.94Z</time></trkpt><trkpt lat="44.6578617" lon="10.0589017"><ele>171.66666666666669</ele><time>2026-04-26T09:20:55.941Z</time></trkpt><trkpt lat="44.6579867" lon="10.0591217"><ele>172.0</ele><time>2026-04-26T09:20:56.941Z</time></trkpt><trkpt lat="44.6581183" lon="10.0593467"><ele>172.0</ele><time>2026-04-26T09:20:57.94Z</time></trkpt><trkpt lat="44.658245" lon="10.05958"><ele>172.0</ele><time>2026-04-26T09:20:58.941Z</time></trkpt><trkpt lat="44.6583717" lon="10.0598183"><ele>172.0</ele><time>2026-04-26T09:20:59.941Z</time></trkpt><trkpt lat="44.6585017" lon="10.06006"><ele>172.5</ele><time>2026-04-26T09:21:00.94Z</time></trkpt><trkpt lat="44.65864" lon="10.0602983"><ele>173.0</ele><time>2026-04-26T09:21:01.941Z</time></trkpt><trkpt lat="44.6589" lon="10.0607883"><ele>173.0</ele><time>2026-04-26T09:21:03.94Z</time></trkpt><trkpt lat="44.6590417" lon="10.0610217"><ele>173.0</ele><time>2026-04-26T09:21:04.94Z</time></trkpt><trkpt lat="44.65918" lon="10.0612633"><ele>173.0</ele><time>2026-04-26T09:21:05.941Z</time></trkpt><trkpt lat="44.6593183" lon="10.0614983"><ele>171.33333333333331</ele><time>2026-04-26T09:21:06.941Z</time></trkpt><trkpt lat="44.6594517" lon="10.0617317"><ele>169.66666666666666</ele><time>2026-04-26T09:21:07.941Z</time></trkpt><trkpt lat="44.6595883" lon="10.0619633"><ele>168.0</ele><time>2026-04-26T09:21:08.941Z</time></trkpt><trkpt lat="44.65972" lon="10.062195"><ele>168.0</ele><time>2026-04-26T09:21:09.941Z</time></trkpt><trkpt lat="44.6598483" lon="10.0624183"><ele>168.0</ele><time>2026-04-26T09:21:10.941Z</time></trkpt><trkpt lat="44.659975" lon="10.0626383"><ele>168.0</ele><time>2026-04-26T09:21:11.94Z</time></trkpt><trkpt lat="44.6601" lon="10.06286"><ele>168.0</ele><time>2026-04-26T09:21:12.941Z</time></trkpt><trkpt lat="44.6602217" lon="10.063075"><ele>168.0</ele><time>2026-04-26T09:21:13.941Z</time></trkpt><trkpt lat="44.6603367" lon="10.0632867"><ele>168.0</ele><time>2026-04-26T09:21:14.941Z</time></trkpt><trkpt lat="44.660455" lon="10.063495"><ele>168.0</ele><time>2026-04-26T09:21:15.941Z</time></trkpt><trkpt lat="44.6605767" lon="10.0637033"><ele>168.0</ele><time>2026-04-26T09:21:16.941Z</time></trkpt><trkpt lat="44.6606917" lon="10.06391"><ele>168.0</ele><time>2026-04-26T09:21:17.94Z</time></trkpt><trkpt lat="44.6608083" lon="10.06412"><ele>166.33333333333334</ele><time>2026-04-26T09:21:18.941Z</time></trkpt><trkpt lat="44.6609167" lon="10.0643483"><ele>164.66666666666669</ele><time>2026-04-26T09:21:19.941Z</time></trkpt><trkpt lat="44.66103" lon="10.064565"><ele>163.0</ele><time>2026-04-26T09:21:20.941Z</time></trkpt><trkpt lat="44.6611483" lon="10.0647817"><ele>165.0</ele><time>2026-04-26T09:21:21.941Z</time></trkpt><trkpt lat="44.6612617" lon="10.0650033"><ele>167.0</ele><time>2026-04-26T09:21:22.941Z</time></trkpt><trkpt lat="44.6614933" lon="10.0654567"><ele>167.0</ele><time>2026-04-26T09:21:24.941Z</time></trkpt><trkpt lat="44.6616117" lon="10.06568"><ele>167.0</ele><time>2026-04-26T09:21:25.941Z</time></trkpt><trkpt lat="44.6617283" lon="10.06591"><ele>167.0</ele><time>2026-04-26T09:21:26.941Z</time></trkpt><trkpt lat="44.661845" lon="10.066145"><ele>167.33333333333331</ele><time>2026-04-26T09:21:27.941Z</time></trkpt><trkpt lat="44.6619667" lon="10.0663767"><ele>167.66666666666666</ele><time>2026-04-26T09:21:28.941Z</time></trkpt><trkpt lat="44.6620917" lon="10.0666067"><ele>168.0</ele><time>2026-04-26T09:21:29.941Z</time></trkpt><trkpt lat="44.6622233" lon="10.0668367"><ele>168.0</ele><time>2026-04-26T09:21:30.94Z</time></trkpt><trkpt lat="44.66236" lon="10.067065"><ele>168.0</ele><time>2026-04-26T09:21:31.94Z</time></trkpt><trkpt lat="44.6625033" lon="10.06729"><ele>168.0</ele><time>2026-04-26T09:21:32.941Z</time></trkpt><trkpt lat="44.6626467" lon="10.0675117"><ele>167.66666666666666</ele><time>2026-04-26T09:21:33.941Z</time></trkpt><trkpt lat="44.66278" lon="10.0677317"><ele>167.33333333333331</ele><time>2026-04-26T09:21:34.941Z</time></trkpt><trkpt lat="44.6629167" lon="10.0679617"><ele>167.0</ele><time>2026-04-26T09:21:35.941Z</time></trkpt><trkpt lat="44.6630583" lon="10.0681867"><ele>167.66666666666666</ele><time>2026-04-26T09:21:36.941Z</time></trkpt><trkpt lat="44.6632" lon="10.0684133"><ele>168.33333333333334</ele><time>2026-04-26T09:21:37.941Z</time></trkpt><trkpt lat="44.663345" lon="10.0686283"><ele>169.0</ele><time>2026-04-26T09:21:38.941Z</time></trkpt><trkpt lat="44.6635117" lon="10.0688267"><ele>168.33333333333334</ele><time>2026-04-26T09:21:39.941Z</time></trkpt><trkpt lat="44.663685" lon="10.0690167"><ele>167.66666666666666</ele><time>2026-04-26T09:21:40.941Z</time></trkpt><trkpt lat="44.6638617" lon="10.0692"><ele>167.0</ele><time>2026-04-26T09:21:41.94Z</time></trkpt><trkpt lat="44.6640367" lon="10.0693783"><ele>167.0</ele><time>2026-04-26T09:21:42.941Z</time></trkpt><trkpt lat="44.6642167" lon="10.069555"><ele>167.0</ele><time>2026-04-26T09:21:43.941Z</time></trkpt><trkpt lat="44.66457" lon="10.069915"><ele>166.66666666666666</ele><time>2026-04-26T09:21:45.941Z</time></trkpt><trkpt lat="44.6647417" lon="10.0700867"><ele>166.33333333333334</ele><time>2026-04-26T09:21:46.94Z</time></trkpt><trkpt lat="44.664905" lon="10.070255"><ele>166.0</ele><time>2026-04-26T09:21:47.941Z</time></trkpt><trkpt lat="44.6650683" lon="10.0704233"><ele>166.0</ele><time>2026-04-26T09:21:48.941Z</time></trkpt><trkpt lat="44.66523" lon="10.0705917"><ele>166.0</ele><time>2026-04-26T09:21:49.941Z</time></trkpt><trkpt lat="44.6653867" lon="10.0707533"><ele>166.0</ele><time>2026-04-26T09:21:50.941Z</time></trkpt><trkpt lat="44.6655467" lon="10.0709117"><ele>165.33333333333334</ele><time>2026-04-26T09:21:51.94Z</time></trkpt><trkpt lat="44.6657033" lon="10.07108"><ele>164.66666666666666</ele><time>2026-04-26T09:21:52.941Z</time></trkpt><trkpt lat="44.6658583" lon="10.0712483"><ele>164.0</ele><time>2026-04-26T09:21:53.941Z</time></trkpt><trkpt lat="44.6660167" lon="10.07141"><ele>164.0</ele><time>2026-04-26T09:21:54.941Z</time></trkpt><trkpt lat="44.6661767" lon="10.07158"><ele>164.0</ele><time>2026-04-26T09:21:55.941Z</time></trkpt><trkpt lat="44.666345" lon="10.0717417"><ele>164.0</ele><time>2026-04-26T09:21:56.941Z</time></trkpt><trkpt lat="44.6665117" lon="10.0719017"><ele>164.0</ele><time>2026-04-26T09:21:57.941Z</time></trkpt><trkpt lat="44.66667" lon="10.072065"><ele>164.0</ele><time>2026-04-26T09:21:58.941Z</time></trkpt><trkpt lat="44.6668267" lon="10.07223"><ele>164.0</ele><time>2026-04-26T09:21:59.94Z</time></trkpt><trkpt lat="44.6669917" lon="10.0724067"><ele>164.0</ele><time>2026-04-26T09:22:00.94Z</time></trkpt><trkpt lat="44.6671517" lon="10.0725867"><ele>164.0</ele><time>2026-04-26T09:22:01.94Z</time></trkpt><trkpt lat="44.6673" lon="10.0727683"><ele>164.0</ele><time>2026-04-26T09:22:02.941Z</time></trkpt><trkpt lat="44.667435" lon="10.0729617"><ele>164.0</ele><time>2026-04-26T09:22:03.941Z</time></trkpt><trkpt lat="44.667565" lon="10.0731583"><ele>164.0</ele><time>2026-04-26T09:22:04.941Z</time></trkpt><trkpt lat="44.667865" lon="10.073565"><ele>163.0</ele><time>2026-04-26T09:22:06.941Z</time></trkpt><trkpt lat="44.668025" lon="10.073745"><ele>162.0</ele><time>2026-04-26T09:22:07.941Z</time></trkpt><trkpt lat="44.6681917" lon="10.0739167"><ele>161.0</ele><time>2026-04-26T09:22:08.941Z</time></trkpt><trkpt lat="44.668365" lon="10.074085"><ele>160.66666666666666</ele><time>2026-04-26T09:22:09.941Z</time></trkpt><trkpt lat="44.6685383" lon="10.07426"><ele>160.33333333333334</ele><time>2026-04-26T09:22:10.941Z</time></trkpt><trkpt lat="44.6687067" lon="10.0744317"><ele>160.0</ele><time>2026-04-26T09:22:11.941Z</time></trkpt><trkpt lat="44.6688717" lon="10.074605"><ele>160.0</ele><time>2026-04-26T09:22:12.941Z</time></trkpt><trkpt lat="44.6690383" lon="10.0747733"><ele>160.0</ele><time>2026-04-26T09:22:13.941Z</time></trkpt><trkpt lat="44.6692033" lon="10.07494"><ele>160.0</ele><time>2026-04-26T09:22:14.941Z</time></trkpt><trkpt lat="44.6693667" lon="10.0751067"><ele>159.33333333333334</ele><time>2026-04-26T09:22:15.941Z</time></trkpt><trkpt lat="44.66953" lon="10.0752717"><ele>158.66666666666666</ele><time>2026-04-26T09:22:16.941Z</time></trkpt><trkpt lat="44.66969" lon="10.0754433"><ele>158.0</ele><time>2026-04-26T09:22:17.94Z</time></trkpt><trkpt lat="44.6698483" lon="10.0756133"><ele>158.66666666666666</ele><time>2026-04-26T09:22:18.94Z</time></trkpt><trkpt lat="44.670005" lon="10.07579"><ele>159.33333333333334</ele><time>2026-04-26T09:22:19.941Z</time></trkpt><trkpt lat="44.6701583" lon="10.0759667"><ele>160.0</ele><time>2026-04-26T09:22:20.941Z</time></trkpt><trkpt lat="44.670315" lon="10.076145"><ele>160.0</ele><time>2026-04-26T09:22:21.941Z</time></trkpt><trkpt lat="44.670475" lon="10.07633"><ele>160.0</ele><time>2026-04-26T09:22:22.941Z</time></trkpt><trkpt lat="44.6706333" lon="10.0765133"><ele>160.0</ele><time>2026-04-26T09:22:23.941Z</time></trkpt><trkpt lat="44.6708" lon="10.0766983"><ele>160.0</ele><time>2026-04-26T09:22:24.94Z</time></trkpt><trkpt lat="44.6709633" lon="10.07688"><ele>160.0</ele><time>2026-04-26T09:22:25.94Z</time></trkpt><trkpt lat="44.671295" lon="10.0772517"><ele>159.33333333333334</ele><time>2026-04-26T09:22:27.941Z</time></trkpt><trkpt lat="44.6714717" lon="10.07744"><ele>158.66666666666666</ele><time>2026-04-26T09:22:28.941Z</time></trkpt><trkpt lat="44.671645" lon="10.0776267"><ele>158.0</ele><time>2026-04-26T09:22:29.941Z</time></trkpt><trkpt lat="44.671815" lon="10.07781"><ele>158.0</ele><time>2026-04-26T09:22:30.941Z</time></trkpt><trkpt lat="44.67198" lon="10.077995"><ele>158.0</ele><time>2026-04-26T09:22:31.941Z</time></trkpt><trkpt lat="44.67215" lon="10.078185"><ele>158.0</ele><time>2026-04-26T09:22:32.941Z</time></trkpt><trkpt lat="44.6723033" lon="10.0783667"><ele>158.0</ele><time>2026-04-26T09:22:33.941Z</time></trkpt><trkpt lat="44.672445" lon="10.078535"><ele>158.0</ele><time>2026-04-26T09:22:34.941Z</time></trkpt><trkpt lat="44.6725717" lon="10.078695"><ele>158.0</ele><time>2026-04-26T09:22:35.94Z</time></trkpt><trkpt lat="44.6726967" lon="10.0788567"><ele>158.0</ele><time>2026-04-26T09:22:36.941Z</time></trkpt><trkpt lat="44.67293" lon="10.079175"><ele>158.0</ele><time>2026-04-26T09:22:38.941Z</time></trkpt><trkpt lat="44.673055" lon="10.07934"><ele>158.0</ele><time>2026-04-26T09:22:39.941Z</time></trkpt><trkpt lat="44.6731817" lon="10.07951"><ele>158.0</ele><time>2026-04-26T09:22:40.941Z</time></trkpt><trkpt lat="44.673315" lon="10.0796817"><ele>158.0</ele><time>2026-04-26T09:22:41.941Z</time></trkpt><trkpt lat="44.6734483" lon="10.0798617"><ele>159.33333333333331</ele><time>2026-04-26T09:22:42.941Z</time></trkpt><trkpt lat="44.67358" lon="10.080045"><ele>160.66666666666666</ele><time>2026-04-26T09:22:43.941Z</time></trkpt><trkpt lat="44.673695" lon="10.0802383"><ele>162.0</ele><time>2026-04-26T09:22:44.94Z</time></trkpt><trkpt lat="44.67382" lon="10.08043"><ele>160.0</ele><time>2026-04-26T09:22:45.941Z</time></trkpt><trkpt lat="44.6739383" lon="10.0806233"><ele>158.0</ele><time>2026-04-26T09:22:46.941Z</time></trkpt><trkpt lat="44.674175" lon="10.0810317"><ele>158.0</ele><time>2026-04-26T09:22:48.941Z</time></trkpt><trkpt lat="44.67428" lon="10.0812317"><ele>158.0</ele><time>2026-04-26T09:22:49.941Z</time></trkpt><trkpt lat="44.6743867" lon="10.0814233"><ele>158.0</ele><time>2026-04-26T09:22:50.941Z</time></trkpt><trkpt lat="44.6744933" lon="10.08162"><ele>157.33333333333331</ele><time>2026-04-26T09:22:51.94Z</time></trkpt><trkpt lat="44.6746033" lon="10.0818283"><ele>156.66666666666666</ele><time>2026-04-26T09:22:52.941Z</time></trkpt><trkpt lat="44.6747133" lon="10.0820367"><ele>156.0</ele><time>2026-04-26T09:22:53.941Z</time></trkpt><trkpt lat="44.6748233" lon="10.082245"><ele>157.33333333333334</ele><time>2026-04-26T09:22:54.941Z</time></trkpt><trkpt lat="44.6749217" lon="10.0824583"><ele>158.66666666666669</ele><time>2026-04-26T09:22:55.941Z</time></trkpt><trkpt lat="44.6750233" lon="10.082675"><ele>160.0</ele><time>2026-04-26T09:22:56.941Z</time></trkpt><trkpt lat="44.675125" lon="10.0829033"><ele>160.0</ele><time>2026-04-26T09:22:57.941Z</time></trkpt><trkpt lat="44.675225" lon="10.083135"><ele>160.0</ele><time>2026-04-26T09:22:58.941Z</time></trkpt><trkpt lat="44.6753183" lon="10.0833667"><ele>160.0</ele><time>2026-04-26T09:22:59.941Z</time></trkpt><trkpt lat="44.6754117" lon="10.083595"><ele>158.0</ele><time>2026-04-26T09:23:00.941Z</time></trkpt><trkpt lat="44.6755033" lon="10.0838333"><ele>156.0</ele><time>2026-04-26T09:23:01.941Z</time></trkpt><trkpt lat="44.6755967" lon="10.0840667"><ele>154.0</ele><time>2026-04-26T09:23:02.941Z</time></trkpt><trkpt lat="44.6756833" lon="10.0843017"><ele>154.0</ele><time>2026-04-26T09:23:03.941Z</time></trkpt><trkpt lat="44.675765" lon="10.0845383"><ele>154.0</ele><time>2026-04-26T09:23:04.941Z</time></trkpt><trkpt lat="44.675855" lon="10.0847717"><ele>154.0</ele><time>2026-04-26T09:23:05.941Z</time></trkpt><trkpt lat="44.6759433" lon="10.085015"><ele>155.0</ele><time>2026-04-26T09:23:06.941Z</time></trkpt><trkpt lat="44.67603" lon="10.08526"><ele>156.0</ele><time>2026-04-26T09:23:07.941Z</time></trkpt><trkpt lat="44.6762217" lon="10.085755"><ele>153.0</ele><time>2026-04-26T09:23:09.941Z</time></trkpt><trkpt lat="44.6763167" lon="10.0860067"><ele>150.0</ele><time>2026-04-26T09:23:10.941Z</time></trkpt><trkpt lat="44.6764017" lon="10.08627"><ele>147.0</ele><time>2026-04-26T09:23:11.94Z</time></trkpt><trkpt lat="44.6764933" lon="10.0865267"><ele>147.66666666666666</ele><time>2026-04-26T09:23:12.941Z</time></trkpt><trkpt lat="44.6765833" lon="10.0867917"><ele>148.33333333333331</ele><time>2026-04-26T09:23:13.941Z</time></trkpt><trkpt lat="44.67668" lon="10.0870517"><ele>149.0</ele><time>2026-04-26T09:23:14.941Z</time></trkpt><trkpt lat="44.67678" lon="10.08732"><ele>148.33333333333331</ele><time>2026-04-26T09:23:15.94Z</time></trkpt><trkpt lat="44.676875" lon="10.08758"><ele>147.66666666666666</ele><time>2026-04-26T09:23:16.941Z</time></trkpt><trkpt lat="44.676975" lon="10.0878433"><ele>147.0</ele><time>2026-04-26T09:23:17.941Z</time></trkpt><trkpt lat="44.6770733" lon="10.0880967"><ele>148.0</ele><time>2026-04-26T09:23:18.941Z</time></trkpt><trkpt lat="44.6771667" lon="10.0883533"><ele>149.0</ele><time>2026-04-26T09:23:19.941Z</time></trkpt><trkpt lat="44.6772567" lon="10.0886033"><ele>150.0</ele><time>2026-04-26T09:23:20.941Z</time></trkpt><trkpt lat="44.6773433" lon="10.0888467"><ele>150.0</ele><time>2026-04-26T09:23:21.941Z</time></trkpt><trkpt lat="44.6774417" lon="10.0890867"><ele>150.0</ele><time>2026-04-26T09:23:22.941Z</time></trkpt><trkpt lat="44.677535" lon="10.0893317"><ele>150.0</ele><time>2026-04-26T09:23:23.941Z</time></trkpt><trkpt lat="44.677625" lon="10.089575"><ele>151.0</ele><time>2026-04-26T09:23:24.941Z</time></trkpt><trkpt lat="44.6777067" lon="10.089815"><ele>152.0</ele><time>2026-04-26T09:23:25.941Z</time></trkpt><trkpt lat="44.6777933" lon="10.09005"><ele>153.0</ele><time>2026-04-26T09:23:26.941Z</time></trkpt><trkpt lat="44.6778783" lon="10.0902867"><ele>151.0</ele><time>2026-04-26T09:23:27.941Z</time></trkpt><trkpt lat="44.67797" lon="10.09052"><ele>149.0</ele><time>2026-04-26T09:23:28.941Z</time></trkpt><trkpt lat="44.6781517" lon="10.09101"><ele>149.0</ele><time>2026-04-26T09:23:30.939Z</time></trkpt><trkpt lat="44.6782483" lon="10.09126"><ele>149.0</ele><time>2026-04-26T09:23:31.94Z</time></trkpt><trkpt lat="44.678345" lon="10.0915033"><ele>149.0</ele><time>2026-04-26T09:23:32.94Z</time></trkpt><trkpt lat="44.6784317" lon="10.0917383"><ele>149.0</ele><time>2026-04-26T09:23:33.94Z</time></trkpt><trkpt lat="44.6785133" lon="10.0919567"><ele>149.0</ele><time>2026-04-26T09:23:34.94Z</time></trkpt><trkpt lat="44.6785883" lon="10.0921617"><ele>149.0</ele><time>2026-04-26T09:23:35.94Z</time></trkpt><trkpt lat="44.6786667" lon="10.0923667"><ele>148.33333333333331</ele><time>2026-04-26T09:23:36.94Z</time></trkpt><trkpt lat="44.6787383" lon="10.0925683"><ele>147.66666666666666</ele><time>2026-04-26T09:23:37.94Z</time></trkpt><trkpt lat="44.67881" lon="10.092765"><ele>147.0</ele><time>2026-04-26T09:23:38.94Z</time></trkpt><trkpt lat="44.6788883" lon="10.0929583"><ele>147.0</ele><time>2026-04-26T09:23:39.94Z</time></trkpt><trkpt lat="44.6789583" lon="10.093145"><ele>147.0</ele><time>2026-04-26T09:23:40.94Z</time></trkpt><trkpt lat="44.6790267" lon="10.093325"><ele>147.0</ele><time>2026-04-26T09:23:41.939Z</time></trkpt><trkpt lat="44.67908" lon="10.0934967"><ele>147.0</ele><time>2026-04-26T09:23:42.94Z</time></trkpt><trkpt lat="44.6791217" lon="10.0936583"><ele>147.16666666666666</ele><time>2026-04-26T09:23:43.94Z</time></trkpt><trkpt lat="44.679145" lon="10.0938017"><ele>147.33333333333334</ele><time>2026-04-26T09:23:44.94Z</time></trkpt><trkpt lat="44.6791517" lon="10.0939183"><ele>147.5</ele><time>2026-04-26T09:23:45.939Z</time></trkpt><trkpt lat="44.6791467" lon="10.0940183"><ele>147.66666666666669</ele><time>2026-04-26T09:23:46.94Z</time></trkpt><trkpt lat="44.6791233" lon="10.0941133"><ele>147.83333333333334</ele><time>2026-04-26T09:23:47.94Z</time></trkpt><trkpt lat="44.6790917" lon="10.0942083"><ele>148.0</ele><time>2026-04-26T09:23:48.94Z</time></trkpt><trkpt lat="44.6790733" lon="10.0943167"><ele>148.0</ele><time>2026-04-26T09:23:49.939Z</time></trkpt><trkpt lat="44.6792" lon="10.09452"><ele>148.0</ele><time>2026-04-26T09:23:52.94Z</time></trkpt><trkpt lat="44.679305" lon="10.09452"><ele>148.0</ele><time>2026-04-26T09:23:53.94Z</time></trkpt><trkpt lat="44.6794283" lon="10.0945383"><ele>148.0</ele><time>2026-04-26T09:23:54.939Z</time></trkpt><trkpt lat="44.6795533" lon="10.0945917"><ele>148.0</ele><time>2026-04-26T09:23:55.94Z</time></trkpt><trkpt lat="44.67968" lon="10.094675"><ele>148.0</ele><time>2026-04-26T09:23:56.94Z</time></trkpt><trkpt lat="44.6798167" lon="10.0947633"><ele>148.0</ele><time>2026-04-26T09:23:57.94Z</time></trkpt><trkpt lat="44.6799633" lon="10.09486"><ele>147.66666666666669</ele><time>2026-04-26T09:23:58.94Z</time></trkpt><trkpt lat="44.6801183" lon="10.0949383"><ele>147.33333333333334</ele><time>2026-04-26T09:23:59.94Z</time></trkpt><trkpt lat="44.6802667" lon="10.09502"><ele>147.0</ele><time>2026-04-26T09:24:00.94Z</time></trkpt><trkpt lat="44.6804183" lon="10.0951083"><ele>146.33333333333334</ele><time>2026-04-26T09:24:01.94Z</time></trkpt><trkpt lat="44.680565" lon="10.0951983"><ele>145.66666666666669</ele><time>2026-04-26T09:24:02.94Z</time></trkpt><trkpt lat="44.6807083" lon="10.095275"><ele>145.0</ele><time>2026-04-26T09:24:03.94Z</time></trkpt><trkpt lat="44.6808467" lon="10.09535"><ele>145.0</ele><time>2026-04-26T09:24:04.94Z</time></trkpt><trkpt lat="44.6809767" lon="10.0954233"><ele>145.0</ele><time>2026-04-26T09:24:05.94Z</time></trkpt><trkpt lat="44.68111" lon="10.0954867"><ele>145.0</ele><time>2026-04-26T09:24:06.94Z</time></trkpt><trkpt lat="44.681235" lon="10.095555"><ele>145.0</ele><time>2026-04-26T09:24:07.939Z</time></trkpt><trkpt lat="44.6813667" lon="10.0956217"><ele>145.25</ele><time>2026-04-26T09:24:08.939Z</time></trkpt><trkpt lat="44.6814867" lon="10.0956617"><ele>145.5</ele><time>2026-04-26T09:24:09.939Z</time></trkpt><trkpt lat="44.681605" lon="10.0957"><ele>145.75</ele><time>2026-04-26T09:24:10.939Z</time></trkpt><trkpt lat="44.6817267" lon="10.0957433"><ele>146.0</ele><time>2026-04-26T09:24:11.94Z</time></trkpt><trkpt lat="44.6819817" lon="10.0958183"><ele>146.75</ele><time>2026-04-26T09:24:13.94Z</time></trkpt><trkpt lat="44.6821017" lon="10.0958433"><ele>147.5</ele><time>2026-04-26T09:24:14.94Z</time></trkpt><trkpt lat="44.6822233" lon="10.0958717"><ele>148.25</ele><time>2026-04-26T09:24:15.94Z</time></trkpt><trkpt lat="44.6823533" lon="10.0959"><ele>149.0</ele><time>2026-04-26T09:24:16.94Z</time></trkpt><trkpt lat="44.6824783" lon="10.09592"><ele>149.0</ele><time>2026-04-26T09:24:17.94Z</time></trkpt><trkpt lat="44.6826017" lon="10.0959483"><ele>149.0</ele><time>2026-04-26T09:24:18.94Z</time></trkpt><trkpt lat="44.6827233" lon="10.0959783"><ele>149.0</ele><time>2026-04-26T09:24:19.94Z</time></trkpt><trkpt lat="44.68285" lon="10.0960117"><ele>149.0</ele><time>2026-04-26T09:24:20.94Z</time></trkpt><trkpt lat="44.682975" lon="10.096035"><ele>148.25</ele><time>2026-04-26T09:24:21.939Z</time></trkpt><trkpt lat="44.6830967" lon="10.0960583"><ele>147.5</ele><time>2026-04-26T09:24:22.94Z</time></trkpt><trkpt lat="44.6832233" lon="10.096085"><ele>146.75</ele><time>2026-04-26T09:24:23.94Z</time></trkpt><trkpt lat="44.6833467" lon="10.0961217"><ele>146.0</ele><time>2026-04-26T09:24:24.94Z</time></trkpt><trkpt lat="44.6834717" lon="10.0961517"><ele>146.0</ele><time>2026-04-26T09:24:25.94Z</time></trkpt><trkpt lat="44.6836033" lon="10.0961767"><ele>146.0</ele><time>2026-04-26T09:24:26.939Z</time></trkpt><trkpt lat="44.6837333" lon="10.0962017"><ele>146.0</ele><time>2026-04-26T09:24:27.94Z</time></trkpt><trkpt lat="44.683865" lon="10.0962233"><ele>146.0</ele><time>2026-04-26T09:24:28.939Z</time></trkpt><trkpt lat="44.683995" lon="10.0962517"><ele>146.0</ele><time>2026-04-26T09:24:29.94Z</time></trkpt><trkpt lat="44.6841317" lon="10.0962833"><ele>146.0</ele><time>2026-04-26T09:24:30.94Z</time></trkpt><trkpt lat="44.6842617" lon="10.0963133"><ele>146.0</ele><time>2026-04-26T09:24:31.94Z</time></trkpt><trkpt lat="44.684395" lon="10.0963333"><ele>146.0</ele><time>2026-04-26T09:24:32.94Z</time></trkpt><trkpt lat="44.68466" lon="10.09639"><ele>145.75</ele><time>2026-04-26T09:24:34.94Z</time></trkpt><trkpt lat="44.6847967" lon="10.096425"><ele>145.5</ele><time>2026-04-26T09:24:35.94Z</time></trkpt><trkpt lat="44.6849333" lon="10.0964533"><ele>145.25</ele><time>2026-04-26T09:24:36.94Z</time></trkpt><trkpt lat="44.6850667" lon="10.096485"><ele>145.0</ele><time>2026-04-26T09:24:37.94Z</time></trkpt><trkpt lat="44.6852033" lon="10.0965183"><ele>144.75</ele><time>2026-04-26T09:24:38.94Z</time></trkpt><trkpt lat="44.68534" lon="10.096555"><ele>144.5</ele><time>2026-04-26T09:24:39.94Z</time></trkpt><trkpt lat="44.6854783" lon="10.0965883"><ele>144.25</ele><time>2026-04-26T09:24:40.94Z</time></trkpt><trkpt lat="44.6856167" lon="10.096615"><ele>144.0</ele><time>2026-04-26T09:24:41.939Z</time></trkpt><trkpt lat="44.685745" lon="10.096645"><ele>144.25</ele><time>2026-04-26T09:24:42.94Z</time></trkpt><trkpt lat="44.6858617" lon="10.0966667"><ele>144.5</ele><time>2026-04-26T09:24:43.94Z</time></trkpt><trkpt lat="44.6859817" lon="10.096695"><ele>144.75</ele><time>2026-04-26T09:24:44.94Z</time></trkpt><trkpt lat="44.6860983" lon="10.09672"><ele>145.0</ele><time>2026-04-26T09:24:45.94Z</time></trkpt><trkpt lat="44.6862017" lon="10.0967533"><ele>145.0</ele><time>2026-04-26T09:24:46.939Z</time></trkpt><trkpt lat="44.6863017" lon="10.09677"><ele>145.0</ele><time>2026-04-26T09:24:47.94Z</time></trkpt><trkpt lat="44.6863933" lon="10.0967833"><ele>145.0</ele><time>2026-04-26T09:24:48.94Z</time></trkpt><trkpt lat="44.6864767" lon="10.0968067"><ele>145.0</ele><time>2026-04-26T09:24:49.94Z</time></trkpt><trkpt lat="44.6865467" lon="10.09685"><ele>145.0</ele><time>2026-04-26T09:24:50.939Z</time></trkpt><trkpt lat="44.6865983" lon="10.0969117"><ele>145.0</ele><time>2026-04-26T09:24:51.94Z</time></trkpt><trkpt lat="44.6866633" lon="10.0970283"><ele>145.0</ele><time>2026-04-26T09:24:53.94Z</time></trkpt></trkseg></trk></gpx>